<?xml version="1.0" encoding="UTF-8" standalone="no" ?>
<gpx xmlns="http://www.topografix.com/GPX/1/1" xmlns:xsi="http://www.w3.org/2001/XMLSchema-instance" xsi:schemaLocation="http://www.topografix.com/GPX/1/1 http://www.topografix.com/GPX/1/1/gpx.xsd" version="1.1" creator="VisuGPX - https://www.visugpx.com">
  <metadata>
    <name>VTT Granges Mathieu </name>
  </metadata>
  <trk>
    <name><![CDATA[VTT Granges Mathieu _1]]></name>
    <trkseg>
      <trkpt lat="47.14805" lon="5.97426">
        <ele>400.5</ele>
        <time>2022-06-29T14:33:55Z</time>
      </trkpt>
      <trkpt lat="47.14805" lon="5.97425">
        <ele>400.5</ele>
        <time>2022-06-29T14:33:56Z</time>
      </trkpt>
      <trkpt lat="47.14805" lon="5.97424">
        <ele>400.5</ele>
        <time>2022-06-29T14:33:57Z</time>
      </trkpt>
      <trkpt lat="47.14805" lon="5.97423">
        <ele>400.5</ele>
        <time>2022-06-29T14:33:58Z</time>
      </trkpt>
      <trkpt lat="47.14805" lon="5.97422">
        <ele>400.5</ele>
        <time>2022-06-29T14:33:59Z</time>
      </trkpt>
      <trkpt lat="47.14806" lon="5.97422">
        <ele>400.5</ele>
        <time>2022-06-29T14:34:00Z</time>
      </trkpt>
      <trkpt lat="47.14806" lon="5.97423">
        <ele>400.5</ele>
        <time>2022-06-29T14:34:01Z</time>
      </trkpt>
      <trkpt lat="47.14806" lon="5.97422">
        <ele>400.5</ele>
        <time>2022-06-29T14:34:02Z</time>
      </trkpt>
      <trkpt lat="47.14807" lon="5.97422">
        <ele>400.5</ele>
        <time>2022-06-29T14:34:03Z</time>
      </trkpt>
      <trkpt lat="47.14807" lon="5.97422">
        <ele>400.5</ele>
        <time>2022-06-29T14:34:04Z</time>
      </trkpt>
      <trkpt lat="47.14807" lon="5.97422">
        <ele>400.5</ele>
        <time>2022-06-29T14:34:05Z</time>
      </trkpt>
      <trkpt lat="47.14807" lon="5.97422">
        <ele>400.5</ele>
        <time>2022-06-29T14:34:06Z</time>
      </trkpt>
      <trkpt lat="47.14807" lon="5.97422">
        <ele>400.5</ele>
        <time>2022-06-29T14:34:07Z</time>
      </trkpt>
      <trkpt lat="47.14807" lon="5.97422">
        <ele>400.5</ele>
        <time>2022-06-29T14:34:08Z</time>
      </trkpt>
      <trkpt lat="47.14807" lon="5.97422">
        <ele>400.5</ele>
        <time>2022-06-29T14:34:09Z</time>
      </trkpt>
      <trkpt lat="47.14807" lon="5.97422">
        <ele>400.5</ele>
        <time>2022-06-29T14:34:10Z</time>
      </trkpt>
      <trkpt lat="47.14807" lon="5.97422">
        <ele>400.5</ele>
        <time>2022-06-29T14:34:11Z</time>
      </trkpt>
      <trkpt lat="47.14807" lon="5.97422">
        <ele>400.5</ele>
        <time>2022-06-29T14:34:12Z</time>
      </trkpt>
      <trkpt lat="47.14807" lon="5.97421">
        <ele>400.5</ele>
        <time>2022-06-29T14:34:13Z</time>
      </trkpt>
      <trkpt lat="47.14807" lon="5.97421">
        <ele>400.5</ele>
        <time>2022-06-29T14:34:14Z</time>
      </trkpt>
      <trkpt lat="47.14815" lon="5.97419">
        <ele>400.5</ele>
        <time>2022-06-29T14:35:06Z</time>
      </trkpt>
      <trkpt lat="47.14815" lon="5.9742">
        <ele>400.5</ele>
        <time>2022-06-29T14:35:07Z</time>
      </trkpt>
      <trkpt lat="47.14816" lon="5.97422">
        <ele>400.5</ele>
        <time>2022-06-29T14:35:08Z</time>
      </trkpt>
      <trkpt lat="47.14816" lon="5.97423">
        <ele>400.5</ele>
        <time>2022-06-29T14:35:09Z</time>
      </trkpt>
      <trkpt lat="47.14817" lon="5.97427">
        <ele>400.5</ele>
        <time>2022-06-29T14:35:10Z</time>
      </trkpt>
      <trkpt lat="47.14817" lon="5.97429">
        <ele>400.5</ele>
        <time>2022-06-29T14:35:11Z</time>
      </trkpt>
      <trkpt lat="47.14816" lon="5.97431">
        <ele>400.5</ele>
        <time>2022-06-29T14:35:12Z</time>
      </trkpt>
      <trkpt lat="47.14815" lon="5.97433">
        <ele>400.5</ele>
        <time>2022-06-29T14:35:13Z</time>
      </trkpt>
      <trkpt lat="47.14813" lon="5.97435">
        <ele>400.5</ele>
        <time>2022-06-29T14:35:14Z</time>
      </trkpt>
      <trkpt lat="47.14812" lon="5.97435">
        <ele>400.5</ele>
        <time>2022-06-29T14:35:15Z</time>
      </trkpt>
      <trkpt lat="47.1481" lon="5.97436">
        <ele>400.5</ele>
        <time>2022-06-29T14:35:16Z</time>
      </trkpt>
      <trkpt lat="47.14808" lon="5.97437">
        <ele>400.5</ele>
        <time>2022-06-29T14:35:17Z</time>
      </trkpt>
      <trkpt lat="47.14805" lon="5.97439">
        <ele>400.4</ele>
        <time>2022-06-29T14:35:18Z</time>
      </trkpt>
      <trkpt lat="47.14804" lon="5.9744">
        <ele>400.4</ele>
        <time>2022-06-29T14:35:19Z</time>
      </trkpt>
      <trkpt lat="47.14801" lon="5.97442">
        <ele>400.3</ele>
        <time>2022-06-29T14:35:20Z</time>
      </trkpt>
      <trkpt lat="47.148" lon="5.97442">
        <ele>400.3</ele>
        <time>2022-06-29T14:35:21Z</time>
      </trkpt>
      <trkpt lat="47.14796" lon="5.97444">
        <ele>400.2</ele>
        <time>2022-06-29T14:35:22Z</time>
      </trkpt>
      <trkpt lat="47.14795" lon="5.97444">
        <ele>400.2</ele>
        <time>2022-06-29T14:35:23Z</time>
      </trkpt>
      <trkpt lat="47.14793" lon="5.97445">
        <ele>400.1</ele>
        <time>2022-06-29T14:35:24Z</time>
      </trkpt>
      <trkpt lat="47.14791" lon="5.97445">
        <ele>400.1</ele>
        <time>2022-06-29T14:35:25Z</time>
      </trkpt>
      <trkpt lat="47.14788" lon="5.97445">
        <ele>400</ele>
        <time>2022-06-29T14:35:26Z</time>
      </trkpt>
      <trkpt lat="47.14787" lon="5.97445">
        <ele>400</ele>
        <time>2022-06-29T14:35:27Z</time>
      </trkpt>
      <trkpt lat="47.14784" lon="5.97444">
        <ele>399.9</ele>
        <time>2022-06-29T14:35:28Z</time>
      </trkpt>
      <trkpt lat="47.14781" lon="5.97443">
        <ele>399.9</ele>
        <time>2022-06-29T14:35:29Z</time>
      </trkpt>
      <trkpt lat="47.14777" lon="5.97442">
        <ele>399.8</ele>
        <time>2022-06-29T14:35:30Z</time>
      </trkpt>
      <trkpt lat="47.14775" lon="5.97442">
        <ele>399.8</ele>
        <time>2022-06-29T14:35:31Z</time>
      </trkpt>
      <trkpt lat="47.14771" lon="5.97441">
        <ele>399.7</ele>
        <time>2022-06-29T14:35:32Z</time>
      </trkpt>
      <trkpt lat="47.14767" lon="5.97439">
        <ele>399.6</ele>
        <time>2022-06-29T14:35:33Z</time>
      </trkpt>
      <trkpt lat="47.14764" lon="5.97437">
        <ele>399.6</ele>
        <time>2022-06-29T14:35:34Z</time>
      </trkpt>
      <trkpt lat="47.14761" lon="5.97435">
        <ele>399.5</ele>
        <time>2022-06-29T14:35:35Z</time>
      </trkpt>
      <trkpt lat="47.14758" lon="5.97433">
        <ele>399.4</ele>
        <time>2022-06-29T14:35:36Z</time>
      </trkpt>
      <trkpt lat="47.14755" lon="5.97431">
        <ele>399.4</ele>
        <time>2022-06-29T14:35:37Z</time>
      </trkpt>
      <trkpt lat="47.14751" lon="5.97428">
        <ele>399.3</ele>
        <time>2022-06-29T14:35:38Z</time>
      </trkpt>
      <trkpt lat="47.14748" lon="5.97426">
        <ele>399.3</ele>
        <time>2022-06-29T14:35:39Z</time>
      </trkpt>
      <trkpt lat="47.14745" lon="5.97423">
        <ele>399.2</ele>
        <time>2022-06-29T14:35:40Z</time>
      </trkpt>
      <trkpt lat="47.14741" lon="5.97419">
        <ele>399.2</ele>
        <time>2022-06-29T14:35:41Z</time>
      </trkpt>
      <trkpt lat="47.14738" lon="5.97415">
        <ele>399.1</ele>
        <time>2022-06-29T14:35:42Z</time>
      </trkpt>
      <trkpt lat="47.14735" lon="5.97412">
        <ele>399</ele>
        <time>2022-06-29T14:35:43Z</time>
      </trkpt>
      <trkpt lat="47.14731" lon="5.97408">
        <ele>399</ele>
        <time>2022-06-29T14:35:44Z</time>
      </trkpt>
      <trkpt lat="47.14728" lon="5.97404">
        <ele>398.9</ele>
        <time>2022-06-29T14:35:45Z</time>
      </trkpt>
      <trkpt lat="47.14725" lon="5.97401">
        <ele>398.8</ele>
        <time>2022-06-29T14:35:46Z</time>
      </trkpt>
      <trkpt lat="47.14722" lon="5.97398">
        <ele>398.7</ele>
        <time>2022-06-29T14:35:47Z</time>
      </trkpt>
      <trkpt lat="47.14718" lon="5.97394">
        <ele>398.6</ele>
        <time>2022-06-29T14:35:48Z</time>
      </trkpt>
      <trkpt lat="47.14714" lon="5.97389">
        <ele>398.3</ele>
        <time>2022-06-29T14:35:49Z</time>
      </trkpt>
      <trkpt lat="47.14709" lon="5.97384">
        <ele>398</ele>
        <time>2022-06-29T14:35:50Z</time>
      </trkpt>
      <trkpt lat="47.14705" lon="5.97379">
        <ele>397.7</ele>
        <time>2022-06-29T14:35:51Z</time>
      </trkpt>
      <trkpt lat="47.147" lon="5.97375">
        <ele>397.3</ele>
        <time>2022-06-29T14:35:52Z</time>
      </trkpt>
      <trkpt lat="47.14694" lon="5.9737">
        <ele>396.9</ele>
        <time>2022-06-29T14:35:53Z</time>
      </trkpt>
      <trkpt lat="47.14689" lon="5.97365">
        <ele>396.5</ele>
        <time>2022-06-29T14:35:54Z</time>
      </trkpt>
      <trkpt lat="47.14683" lon="5.97359">
        <ele>396</ele>
        <time>2022-06-29T14:35:55Z</time>
      </trkpt>
      <trkpt lat="47.14676" lon="5.97353">
        <ele>395.5</ele>
        <time>2022-06-29T14:35:56Z</time>
      </trkpt>
      <trkpt lat="47.1467" lon="5.97348">
        <ele>395</ele>
        <time>2022-06-29T14:35:57Z</time>
      </trkpt>
      <trkpt lat="47.14665" lon="5.97343">
        <ele>394.5</ele>
        <time>2022-06-29T14:35:58Z</time>
      </trkpt>
      <trkpt lat="47.14658" lon="5.97339">
        <ele>394</ele>
        <time>2022-06-29T14:35:59Z</time>
      </trkpt>
      <trkpt lat="47.14651" lon="5.97335">
        <ele>393.4</ele>
        <time>2022-06-29T14:36:00Z</time>
      </trkpt>
      <trkpt lat="47.14644" lon="5.9733">
        <ele>392.8</ele>
        <time>2022-06-29T14:36:01Z</time>
      </trkpt>
      <trkpt lat="47.14638" lon="5.97325">
        <ele>392.2</ele>
        <time>2022-06-29T14:36:02Z</time>
      </trkpt>
      <trkpt lat="47.14632" lon="5.97319">
        <ele>391.5</ele>
        <time>2022-06-29T14:36:03Z</time>
      </trkpt>
      <trkpt lat="47.14626" lon="5.97314">
        <ele>390.8</ele>
        <time>2022-06-29T14:36:04Z</time>
      </trkpt>
      <trkpt lat="47.14622" lon="5.97309">
        <ele>390.3</ele>
        <time>2022-06-29T14:36:05Z</time>
      </trkpt>
      <trkpt lat="47.14618" lon="5.97304">
        <ele>389.8</ele>
        <time>2022-06-29T14:36:06Z</time>
      </trkpt>
      <trkpt lat="47.14615" lon="5.97299">
        <ele>389.4</ele>
        <time>2022-06-29T14:36:07Z</time>
      </trkpt>
      <trkpt lat="47.14612" lon="5.97297">
        <ele>389.1</ele>
        <time>2022-06-29T14:36:08Z</time>
      </trkpt>
      <trkpt lat="47.14609" lon="5.97293">
        <ele>388.7</ele>
        <time>2022-06-29T14:36:09Z</time>
      </trkpt>
      <trkpt lat="47.14607" lon="5.9729">
        <ele>388.4</ele>
        <time>2022-06-29T14:36:10Z</time>
      </trkpt>
      <trkpt lat="47.14603" lon="5.97286">
        <ele>387.9</ele>
        <time>2022-06-29T14:36:11Z</time>
      </trkpt>
      <trkpt lat="47.14601" lon="5.97283">
        <ele>387.6</ele>
        <time>2022-06-29T14:36:12Z</time>
      </trkpt>
      <trkpt lat="47.14596" lon="5.9728">
        <ele>387.1</ele>
        <time>2022-06-29T14:36:13Z</time>
      </trkpt>
      <trkpt lat="47.14592" lon="5.97276">
        <ele>386.6</ele>
        <time>2022-06-29T14:36:14Z</time>
      </trkpt>
      <trkpt lat="47.14588" lon="5.97274">
        <ele>386.2</ele>
        <time>2022-06-29T14:36:15Z</time>
      </trkpt>
      <trkpt lat="47.14583" lon="5.97273">
        <ele>385.7</ele>
        <time>2022-06-29T14:36:16Z</time>
      </trkpt>
      <trkpt lat="47.14578" lon="5.97273">
        <ele>385.2</ele>
        <time>2022-06-29T14:36:17Z</time>
      </trkpt>
      <trkpt lat="47.14573" lon="5.97272">
        <ele>384.7</ele>
        <time>2022-06-29T14:36:18Z</time>
      </trkpt>
      <trkpt lat="47.14567" lon="5.97271">
        <ele>384.2</ele>
        <time>2022-06-29T14:36:19Z</time>
      </trkpt>
      <trkpt lat="47.14561" lon="5.97271">
        <ele>383.6</ele>
        <time>2022-06-29T14:36:20Z</time>
      </trkpt>
      <trkpt lat="47.14554" lon="5.97272">
        <ele>383.1</ele>
        <time>2022-06-29T14:36:21Z</time>
      </trkpt>
      <trkpt lat="47.14547" lon="5.97275">
        <ele>382.6</ele>
        <time>2022-06-29T14:36:22Z</time>
      </trkpt>
      <trkpt lat="47.1454" lon="5.97278">
        <ele>382.1</ele>
        <time>2022-06-29T14:36:23Z</time>
      </trkpt>
      <trkpt lat="47.14534" lon="5.97282">
        <ele>381.7</ele>
        <time>2022-06-29T14:36:24Z</time>
      </trkpt>
      <trkpt lat="47.14527" lon="5.97286">
        <ele>381.3</ele>
        <time>2022-06-29T14:36:25Z</time>
      </trkpt>
      <trkpt lat="47.14522" lon="5.9729">
        <ele>380.9</ele>
        <time>2022-06-29T14:36:26Z</time>
      </trkpt>
      <trkpt lat="47.14517" lon="5.97295">
        <ele>380.7</ele>
        <time>2022-06-29T14:36:27Z</time>
      </trkpt>
      <trkpt lat="47.14512" lon="5.97302">
        <ele>380.4</ele>
        <time>2022-06-29T14:36:28Z</time>
      </trkpt>
      <trkpt lat="47.14506" lon="5.97308">
        <ele>380.1</ele>
        <time>2022-06-29T14:36:29Z</time>
      </trkpt>
      <trkpt lat="47.14501" lon="5.97314">
        <ele>379.8</ele>
        <time>2022-06-29T14:36:30Z</time>
      </trkpt>
      <trkpt lat="47.14495" lon="5.9732">
        <ele>379.4</ele>
        <time>2022-06-29T14:36:31Z</time>
      </trkpt>
      <trkpt lat="47.14489" lon="5.97326">
        <ele>379</ele>
        <time>2022-06-29T14:36:32Z</time>
      </trkpt>
      <trkpt lat="47.14483" lon="5.97332">
        <ele>378.6</ele>
        <time>2022-06-29T14:36:33Z</time>
      </trkpt>
      <trkpt lat="47.14476" lon="5.97337">
        <ele>378.1</ele>
        <time>2022-06-29T14:36:34Z</time>
      </trkpt>
      <trkpt lat="47.14468" lon="5.97343">
        <ele>377.7</ele>
        <time>2022-06-29T14:36:35Z</time>
      </trkpt>
      <trkpt lat="47.14462" lon="5.97349">
        <ele>377.3</ele>
        <time>2022-06-29T14:36:36Z</time>
      </trkpt>
      <trkpt lat="47.14455" lon="5.97355">
        <ele>376.9</ele>
        <time>2022-06-29T14:36:37Z</time>
      </trkpt>
      <trkpt lat="47.14448" lon="5.9736">
        <ele>376.5</ele>
        <time>2022-06-29T14:36:38Z</time>
      </trkpt>
      <trkpt lat="47.14441" lon="5.97367">
        <ele>376.2</ele>
        <time>2022-06-29T14:36:39Z</time>
      </trkpt>
      <trkpt lat="47.14434" lon="5.97373">
        <ele>375.9</ele>
        <time>2022-06-29T14:36:40Z</time>
      </trkpt>
      <trkpt lat="47.14427" lon="5.97378">
        <ele>375.6</ele>
        <time>2022-06-29T14:36:41Z</time>
      </trkpt>
      <trkpt lat="47.1442" lon="5.97381">
        <ele>375.3</ele>
        <time>2022-06-29T14:36:42Z</time>
      </trkpt>
      <trkpt lat="47.14412" lon="5.97383">
        <ele>374.9</ele>
        <time>2022-06-29T14:36:43Z</time>
      </trkpt>
      <trkpt lat="47.14404" lon="5.97384">
        <ele>374.5</ele>
        <time>2022-06-29T14:36:44Z</time>
      </trkpt>
      <trkpt lat="47.14397" lon="5.97383">
        <ele>374.2</ele>
        <time>2022-06-29T14:36:45Z</time>
      </trkpt>
      <trkpt lat="47.14389" lon="5.97383">
        <ele>373.8</ele>
        <time>2022-06-29T14:36:46Z</time>
      </trkpt>
      <trkpt lat="47.14381" lon="5.97384">
        <ele>373.4</ele>
        <time>2022-06-29T14:36:47Z</time>
      </trkpt>
      <trkpt lat="47.14373" lon="5.97385">
        <ele>373</ele>
        <time>2022-06-29T14:36:48Z</time>
      </trkpt>
      <trkpt lat="47.14364" lon="5.97385">
        <ele>372.6</ele>
        <time>2022-06-29T14:36:49Z</time>
      </trkpt>
      <trkpt lat="47.14348" lon="5.97385">
        <ele>372</ele>
        <time>2022-06-29T14:36:51Z</time>
      </trkpt>
      <trkpt lat="47.1434" lon="5.97385">
        <ele>371.7</ele>
        <time>2022-06-29T14:36:52Z</time>
      </trkpt>
      <trkpt lat="47.14333" lon="5.97386">
        <ele>371.5</ele>
        <time>2022-06-29T14:36:53Z</time>
      </trkpt>
      <trkpt lat="47.14325" lon="5.97386">
        <ele>371.3</ele>
        <time>2022-06-29T14:36:54Z</time>
      </trkpt>
      <trkpt lat="47.14317" lon="5.97387">
        <ele>371.2</ele>
        <time>2022-06-29T14:36:55Z</time>
      </trkpt>
      <trkpt lat="47.1431" lon="5.97389">
        <ele>371.1</ele>
        <time>2022-06-29T14:36:56Z</time>
      </trkpt>
      <trkpt lat="47.14303" lon="5.97391">
        <ele>371.1</ele>
        <time>2022-06-29T14:36:57Z</time>
      </trkpt>
      <trkpt lat="47.14296" lon="5.97391">
        <ele>371</ele>
        <time>2022-06-29T14:36:58Z</time>
      </trkpt>
      <trkpt lat="47.1429" lon="5.97389">
        <ele>371</ele>
        <time>2022-06-29T14:36:59Z</time>
      </trkpt>
      <trkpt lat="47.14285" lon="5.97383">
        <ele>370.6</ele>
        <time>2022-06-29T14:37:00Z</time>
      </trkpt>
      <trkpt lat="47.14281" lon="5.97377">
        <ele>370.2</ele>
        <time>2022-06-29T14:37:01Z</time>
      </trkpt>
      <trkpt lat="47.14276" lon="5.97371">
        <ele>369.8</ele>
        <time>2022-06-29T14:37:02Z</time>
      </trkpt>
      <trkpt lat="47.14271" lon="5.97364">
        <ele>369.3</ele>
        <time>2022-06-29T14:37:03Z</time>
      </trkpt>
      <trkpt lat="47.14266" lon="5.97357">
        <ele>368.8</ele>
        <time>2022-06-29T14:37:04Z</time>
      </trkpt>
      <trkpt lat="47.1426" lon="5.97349">
        <ele>368.3</ele>
        <time>2022-06-29T14:37:05Z</time>
      </trkpt>
      <trkpt lat="47.14255" lon="5.97342">
        <ele>367.9</ele>
        <time>2022-06-29T14:37:06Z</time>
      </trkpt>
      <trkpt lat="47.14251" lon="5.97336">
        <ele>367.5</ele>
        <time>2022-06-29T14:37:07Z</time>
      </trkpt>
      <trkpt lat="47.14247" lon="5.97331">
        <ele>367.1</ele>
        <time>2022-06-29T14:37:08Z</time>
      </trkpt>
      <trkpt lat="47.14242" lon="5.97326">
        <ele>366.7</ele>
        <time>2022-06-29T14:37:09Z</time>
      </trkpt>
      <trkpt lat="47.14237" lon="5.9732">
        <ele>366.3</ele>
        <time>2022-06-29T14:37:10Z</time>
      </trkpt>
      <trkpt lat="47.14231" lon="5.97315">
        <ele>365.8</ele>
        <time>2022-06-29T14:37:11Z</time>
      </trkpt>
      <trkpt lat="47.14225" lon="5.97309">
        <ele>365.4</ele>
        <time>2022-06-29T14:37:12Z</time>
      </trkpt>
      <trkpt lat="47.14219" lon="5.97303">
        <ele>365</ele>
        <time>2022-06-29T14:37:13Z</time>
      </trkpt>
      <trkpt lat="47.14213" lon="5.97297">
        <ele>364.5</ele>
        <time>2022-06-29T14:37:14Z</time>
      </trkpt>
      <trkpt lat="47.14207" lon="5.97292">
        <ele>364.1</ele>
        <time>2022-06-29T14:37:15Z</time>
      </trkpt>
      <trkpt lat="47.142" lon="5.97286">
        <ele>363.5</ele>
        <time>2022-06-29T14:37:16Z</time>
      </trkpt>
      <trkpt lat="47.14193" lon="5.97282">
        <ele>363</ele>
        <time>2022-06-29T14:37:17Z</time>
      </trkpt>
      <trkpt lat="47.14185" lon="5.97279">
        <ele>362.5</ele>
        <time>2022-06-29T14:37:18Z</time>
      </trkpt>
      <trkpt lat="47.14177" lon="5.97274">
        <ele>362</ele>
        <time>2022-06-29T14:37:19Z</time>
      </trkpt>
      <trkpt lat="47.1417" lon="5.97271">
        <ele>361.5</ele>
        <time>2022-06-29T14:37:20Z</time>
      </trkpt>
      <trkpt lat="47.14162" lon="5.97268">
        <ele>361</ele>
        <time>2022-06-29T14:37:21Z</time>
      </trkpt>
      <trkpt lat="47.14154" lon="5.97265">
        <ele>360.5</ele>
        <time>2022-06-29T14:37:22Z</time>
      </trkpt>
      <trkpt lat="47.14147" lon="5.97261">
        <ele>359.9</ele>
        <time>2022-06-29T14:37:23Z</time>
      </trkpt>
      <trkpt lat="47.14139" lon="5.97258">
        <ele>359.4</ele>
        <time>2022-06-29T14:37:24Z</time>
      </trkpt>
      <trkpt lat="47.14132" lon="5.97255">
        <ele>358.8</ele>
        <time>2022-06-29T14:37:25Z</time>
      </trkpt>
      <trkpt lat="47.14125" lon="5.97252">
        <ele>358.1</ele>
        <time>2022-06-29T14:37:26Z</time>
      </trkpt>
      <trkpt lat="47.14117" lon="5.97248">
        <ele>357.4</ele>
        <time>2022-06-29T14:37:27Z</time>
      </trkpt>
      <trkpt lat="47.14109" lon="5.97244">
        <ele>356.6</ele>
        <time>2022-06-29T14:37:28Z</time>
      </trkpt>
      <trkpt lat="47.14103" lon="5.97241">
        <ele>356</ele>
        <time>2022-06-29T14:37:29Z</time>
      </trkpt>
      <trkpt lat="47.14097" lon="5.97237">
        <ele>355.5</ele>
        <time>2022-06-29T14:37:30Z</time>
      </trkpt>
      <trkpt lat="47.14092" lon="5.97232">
        <ele>355</ele>
        <time>2022-06-29T14:37:31Z</time>
      </trkpt>
      <trkpt lat="47.14087" lon="5.97225">
        <ele>354.4</ele>
        <time>2022-06-29T14:37:32Z</time>
      </trkpt>
      <trkpt lat="47.14083" lon="5.97219">
        <ele>354</ele>
        <time>2022-06-29T14:37:33Z</time>
      </trkpt>
      <trkpt lat="47.14078" lon="5.97211">
        <ele>353.3</ele>
        <time>2022-06-29T14:37:34Z</time>
      </trkpt>
      <trkpt lat="47.14073" lon="5.97203">
        <ele>352.7</ele>
        <time>2022-06-29T14:37:35Z</time>
      </trkpt>
      <trkpt lat="47.14067" lon="5.97196">
        <ele>352</ele>
        <time>2022-06-29T14:37:36Z</time>
      </trkpt>
      <trkpt lat="47.14062" lon="5.97189">
        <ele>351.4</ele>
        <time>2022-06-29T14:37:37Z</time>
      </trkpt>
      <trkpt lat="47.14057" lon="5.97182">
        <ele>350.8</ele>
        <time>2022-06-29T14:37:38Z</time>
      </trkpt>
      <trkpt lat="47.14051" lon="5.97174">
        <ele>350.1</ele>
        <time>2022-06-29T14:37:39Z</time>
      </trkpt>
      <trkpt lat="47.14044" lon="5.97165">
        <ele>349.4</ele>
        <time>2022-06-29T14:37:40Z</time>
      </trkpt>
      <trkpt lat="47.14038" lon="5.97155">
        <ele>348.6</ele>
        <time>2022-06-29T14:37:41Z</time>
      </trkpt>
      <trkpt lat="47.14031" lon="5.97146">
        <ele>347.9</ele>
        <time>2022-06-29T14:37:42Z</time>
      </trkpt>
      <trkpt lat="47.14024" lon="5.97138">
        <ele>347.2</ele>
        <time>2022-06-29T14:37:43Z</time>
      </trkpt>
      <trkpt lat="47.14017" lon="5.9713">
        <ele>346.5</ele>
        <time>2022-06-29T14:37:44Z</time>
      </trkpt>
      <trkpt lat="47.1401" lon="5.97124">
        <ele>345.9</ele>
        <time>2022-06-29T14:37:45Z</time>
      </trkpt>
      <trkpt lat="47.14004" lon="5.97116">
        <ele>345.3</ele>
        <time>2022-06-29T14:37:46Z</time>
      </trkpt>
      <trkpt lat="47.13998" lon="5.97109">
        <ele>344.6</ele>
        <time>2022-06-29T14:37:47Z</time>
      </trkpt>
      <trkpt lat="47.1399" lon="5.97101">
        <ele>343.9</ele>
        <time>2022-06-29T14:37:48Z</time>
      </trkpt>
      <trkpt lat="47.13982" lon="5.97094">
        <ele>343.2</ele>
        <time>2022-06-29T14:37:49Z</time>
      </trkpt>
      <trkpt lat="47.13975" lon="5.97087">
        <ele>342.5</ele>
        <time>2022-06-29T14:37:50Z</time>
      </trkpt>
      <trkpt lat="47.13967" lon="5.9708">
        <ele>341.8</ele>
        <time>2022-06-29T14:37:51Z</time>
      </trkpt>
      <trkpt lat="47.1396" lon="5.97074">
        <ele>341.1</ele>
        <time>2022-06-29T14:37:52Z</time>
      </trkpt>
      <trkpt lat="47.13952" lon="5.97067">
        <ele>340.5</ele>
        <time>2022-06-29T14:37:53Z</time>
      </trkpt>
      <trkpt lat="47.13945" lon="5.97059">
        <ele>339.8</ele>
        <time>2022-06-29T14:37:54Z</time>
      </trkpt>
      <trkpt lat="47.13938" lon="5.97052">
        <ele>339.2</ele>
        <time>2022-06-29T14:37:55Z</time>
      </trkpt>
      <trkpt lat="47.1393" lon="5.97044">
        <ele>338.5</ele>
        <time>2022-06-29T14:37:56Z</time>
      </trkpt>
      <trkpt lat="47.13923" lon="5.97035">
        <ele>337.9</ele>
        <time>2022-06-29T14:37:57Z</time>
      </trkpt>
      <trkpt lat="47.13916" lon="5.97028">
        <ele>337.3</ele>
        <time>2022-06-29T14:37:58Z</time>
      </trkpt>
      <trkpt lat="47.13909" lon="5.97022">
        <ele>336.7</ele>
        <time>2022-06-29T14:37:59Z</time>
      </trkpt>
      <trkpt lat="47.13902" lon="5.97017">
        <ele>336.2</ele>
        <time>2022-06-29T14:38:00Z</time>
      </trkpt>
      <trkpt lat="47.13895" lon="5.97011">
        <ele>335.6</ele>
        <time>2022-06-29T14:38:01Z</time>
      </trkpt>
      <trkpt lat="47.13888" lon="5.97006">
        <ele>335</ele>
        <time>2022-06-29T14:38:02Z</time>
      </trkpt>
      <trkpt lat="47.13881" lon="5.97001">
        <ele>334.3</ele>
        <time>2022-06-29T14:38:03Z</time>
      </trkpt>
      <trkpt lat="47.13875" lon="5.96996">
        <ele>333.8</ele>
        <time>2022-06-29T14:38:04Z</time>
      </trkpt>
      <trkpt lat="47.1387" lon="5.96993">
        <ele>333.4</ele>
        <time>2022-06-29T14:38:05Z</time>
      </trkpt>
      <trkpt lat="47.13865" lon="5.96989">
        <ele>332.9</ele>
        <time>2022-06-29T14:38:06Z</time>
      </trkpt>
      <trkpt lat="47.13862" lon="5.96988">
        <ele>332.6</ele>
        <time>2022-06-29T14:38:07Z</time>
      </trkpt>
      <trkpt lat="47.13857" lon="5.96984">
        <ele>332.2</ele>
        <time>2022-06-29T14:38:08Z</time>
      </trkpt>
      <trkpt lat="47.13852" lon="5.96982">
        <ele>331.8</ele>
        <time>2022-06-29T14:38:09Z</time>
      </trkpt>
      <trkpt lat="47.13849" lon="5.9698">
        <ele>331.5</ele>
        <time>2022-06-29T14:38:10Z</time>
      </trkpt>
      <trkpt lat="47.13848" lon="5.9698">
        <ele>331.4</ele>
        <time>2022-06-29T14:38:11Z</time>
      </trkpt>
      <trkpt lat="47.13844" lon="5.96976">
        <ele>331</ele>
        <time>2022-06-29T14:38:12Z</time>
      </trkpt>
      <trkpt lat="47.13843" lon="5.96975">
        <ele>330.9</ele>
        <time>2022-06-29T14:38:13Z</time>
      </trkpt>
      <trkpt lat="47.13842" lon="5.96974">
        <ele>330.8</ele>
        <time>2022-06-29T14:38:14Z</time>
      </trkpt>
      <trkpt lat="47.13841" lon="5.96974">
        <ele>330.7</ele>
        <time>2022-06-29T14:38:15Z</time>
      </trkpt>
      <trkpt lat="47.1384" lon="5.96974">
        <ele>330.5</ele>
        <time>2022-06-29T14:38:16Z</time>
      </trkpt>
      <trkpt lat="47.13837" lon="5.96972">
        <ele>330.1</ele>
        <time>2022-06-29T14:38:18Z</time>
      </trkpt>
      <trkpt lat="47.13833" lon="5.96974">
        <ele>329.7</ele>
        <time>2022-06-29T14:38:19Z</time>
      </trkpt>
      <trkpt lat="47.13827" lon="5.96974">
        <ele>329.1</ele>
        <time>2022-06-29T14:38:20Z</time>
      </trkpt>
      <trkpt lat="47.13818" lon="5.9697">
        <ele>328.2</ele>
        <time>2022-06-29T14:38:22Z</time>
      </trkpt>
      <trkpt lat="47.13813" lon="5.96968">
        <ele>327.7</ele>
        <time>2022-06-29T14:38:23Z</time>
      </trkpt>
      <trkpt lat="47.13807" lon="5.96968">
        <ele>327.2</ele>
        <time>2022-06-29T14:38:24Z</time>
      </trkpt>
      <trkpt lat="47.13801" lon="5.96968">
        <ele>326.5</ele>
        <time>2022-06-29T14:38:25Z</time>
      </trkpt>
      <trkpt lat="47.13795" lon="5.96968">
        <ele>325.9</ele>
        <time>2022-06-29T14:38:26Z</time>
      </trkpt>
      <trkpt lat="47.13789" lon="5.96966">
        <ele>325.2</ele>
        <time>2022-06-29T14:38:27Z</time>
      </trkpt>
      <trkpt lat="47.13784" lon="5.96965">
        <ele>324.6</ele>
        <time>2022-06-29T14:38:28Z</time>
      </trkpt>
      <trkpt lat="47.1378" lon="5.96965">
        <ele>324.1</ele>
        <time>2022-06-29T14:38:29Z</time>
      </trkpt>
      <trkpt lat="47.13775" lon="5.96962">
        <ele>323.6</ele>
        <time>2022-06-29T14:38:30Z</time>
      </trkpt>
      <trkpt lat="47.1377" lon="5.96961">
        <ele>323</ele>
        <time>2022-06-29T14:38:32Z</time>
      </trkpt>
      <trkpt lat="47.13767" lon="5.96962">
        <ele>322.7</ele>
        <time>2022-06-29T14:38:33Z</time>
      </trkpt>
      <trkpt lat="47.13764" lon="5.96962">
        <ele>322.4</ele>
        <time>2022-06-29T14:38:34Z</time>
      </trkpt>
      <trkpt lat="47.13763" lon="5.96962">
        <ele>322.3</ele>
        <time>2022-06-29T14:38:35Z</time>
      </trkpt>
      <trkpt lat="47.13758" lon="5.9696">
        <ele>321.9</ele>
        <time>2022-06-29T14:38:37Z</time>
      </trkpt>
      <trkpt lat="47.13754" lon="5.96957">
        <ele>321.5</ele>
        <time>2022-06-29T14:38:38Z</time>
      </trkpt>
      <trkpt lat="47.13753" lon="5.96957">
        <ele>321.4</ele>
        <time>2022-06-29T14:38:39Z</time>
      </trkpt>
      <trkpt lat="47.13751" lon="5.96953">
        <ele>321</ele>
        <time>2022-06-29T14:38:40Z</time>
      </trkpt>
      <trkpt lat="47.13749" lon="5.96952">
        <ele>320.9</ele>
        <time>2022-06-29T14:38:41Z</time>
      </trkpt>
      <trkpt lat="47.13747" lon="5.96949">
        <ele>320.6</ele>
        <time>2022-06-29T14:38:42Z</time>
      </trkpt>
      <trkpt lat="47.13744" lon="5.96946">
        <ele>320.3</ele>
        <time>2022-06-29T14:38:44Z</time>
      </trkpt>
      <trkpt lat="47.1374" lon="5.96943">
        <ele>319.9</ele>
        <time>2022-06-29T14:38:45Z</time>
      </trkpt>
      <trkpt lat="47.13737" lon="5.96942">
        <ele>319.7</ele>
        <time>2022-06-29T14:38:46Z</time>
      </trkpt>
      <trkpt lat="47.13732" lon="5.96939">
        <ele>319.4</ele>
        <time>2022-06-29T14:38:47Z</time>
      </trkpt>
      <trkpt lat="47.1373" lon="5.96938">
        <ele>319.3</ele>
        <time>2022-06-29T14:38:48Z</time>
      </trkpt>
      <trkpt lat="47.13726" lon="5.96936">
        <ele>319</ele>
        <time>2022-06-29T14:38:49Z</time>
      </trkpt>
      <trkpt lat="47.13723" lon="5.96936">
        <ele>318.9</ele>
        <time>2022-06-29T14:38:51Z</time>
      </trkpt>
      <trkpt lat="47.1372" lon="5.96934">
        <ele>318.7</ele>
        <time>2022-06-29T14:38:52Z</time>
      </trkpt>
      <trkpt lat="47.13717" lon="5.96932">
        <ele>318.6</ele>
        <time>2022-06-29T14:38:53Z</time>
      </trkpt>
      <trkpt lat="47.13712" lon="5.96927">
        <ele>318.3</ele>
        <time>2022-06-29T14:38:55Z</time>
      </trkpt>
      <trkpt lat="47.13707" lon="5.96925">
        <ele>318.2</ele>
        <time>2022-06-29T14:38:56Z</time>
      </trkpt>
      <trkpt lat="47.137" lon="5.9692">
        <ele>317.9</ele>
        <time>2022-06-29T14:38:57Z</time>
      </trkpt>
      <trkpt lat="47.13695" lon="5.96915">
        <ele>317.7</ele>
        <time>2022-06-29T14:38:58Z</time>
      </trkpt>
      <trkpt lat="47.13691" lon="5.96909">
        <ele>317.4</ele>
        <time>2022-06-29T14:38:59Z</time>
      </trkpt>
      <trkpt lat="47.13687" lon="5.96904">
        <ele>317.2</ele>
        <time>2022-06-29T14:39:00Z</time>
      </trkpt>
      <trkpt lat="47.13682" lon="5.96901">
        <ele>316.6</ele>
        <time>2022-06-29T14:39:01Z</time>
      </trkpt>
      <trkpt lat="47.13676" lon="5.96899">
        <ele>316</ele>
        <time>2022-06-29T14:39:02Z</time>
      </trkpt>
      <trkpt lat="47.1367" lon="5.96895">
        <ele>315.4</ele>
        <time>2022-06-29T14:39:03Z</time>
      </trkpt>
      <trkpt lat="47.13665" lon="5.96892">
        <ele>314.9</ele>
        <time>2022-06-29T14:39:04Z</time>
      </trkpt>
      <trkpt lat="47.13661" lon="5.96888">
        <ele>314.4</ele>
        <time>2022-06-29T14:39:05Z</time>
      </trkpt>
      <trkpt lat="47.13657" lon="5.96884">
        <ele>314</ele>
        <time>2022-06-29T14:39:06Z</time>
      </trkpt>
      <trkpt lat="47.13653" lon="5.9688">
        <ele>313.6</ele>
        <time>2022-06-29T14:39:07Z</time>
      </trkpt>
      <trkpt lat="47.13648" lon="5.96877">
        <ele>313.1</ele>
        <time>2022-06-29T14:39:08Z</time>
      </trkpt>
      <trkpt lat="47.13643" lon="5.96872">
        <ele>312.7</ele>
        <time>2022-06-29T14:39:09Z</time>
      </trkpt>
      <trkpt lat="47.13638" lon="5.96868">
        <ele>312.2</ele>
        <time>2022-06-29T14:39:10Z</time>
      </trkpt>
      <trkpt lat="47.13632" lon="5.96863">
        <ele>311.6</ele>
        <time>2022-06-29T14:39:11Z</time>
      </trkpt>
      <trkpt lat="47.13625" lon="5.96858">
        <ele>311</ele>
        <time>2022-06-29T14:39:12Z</time>
      </trkpt>
      <trkpt lat="47.13618" lon="5.96853">
        <ele>310.5</ele>
        <time>2022-06-29T14:39:13Z</time>
      </trkpt>
      <trkpt lat="47.1361" lon="5.96848">
        <ele>309.7</ele>
        <time>2022-06-29T14:39:14Z</time>
      </trkpt>
      <trkpt lat="47.13602" lon="5.96842">
        <ele>309</ele>
        <time>2022-06-29T14:39:15Z</time>
      </trkpt>
      <trkpt lat="47.13595" lon="5.96837">
        <ele>308.3</ele>
        <time>2022-06-29T14:39:16Z</time>
      </trkpt>
      <trkpt lat="47.13587" lon="5.96832">
        <ele>307.7</ele>
        <time>2022-06-29T14:39:17Z</time>
      </trkpt>
      <trkpt lat="47.13579" lon="5.96827">
        <ele>307.1</ele>
        <time>2022-06-29T14:39:18Z</time>
      </trkpt>
      <trkpt lat="47.13571" lon="5.96823">
        <ele>306.6</ele>
        <time>2022-06-29T14:39:19Z</time>
      </trkpt>
      <trkpt lat="47.13563" lon="5.96819">
        <ele>306</ele>
        <time>2022-06-29T14:39:20Z</time>
      </trkpt>
      <trkpt lat="47.13556" lon="5.96816">
        <ele>305.5</ele>
        <time>2022-06-29T14:39:21Z</time>
      </trkpt>
      <trkpt lat="47.13548" lon="5.96815">
        <ele>305</ele>
        <time>2022-06-29T14:39:22Z</time>
      </trkpt>
      <trkpt lat="47.13541" lon="5.96814">
        <ele>304.5</ele>
        <time>2022-06-29T14:39:23Z</time>
      </trkpt>
      <trkpt lat="47.13533" lon="5.96814">
        <ele>303.9</ele>
        <time>2022-06-29T14:39:24Z</time>
      </trkpt>
      <trkpt lat="47.13526" lon="5.96814">
        <ele>303.4</ele>
        <time>2022-06-29T14:39:25Z</time>
      </trkpt>
      <trkpt lat="47.13521" lon="5.96814">
        <ele>303</ele>
        <time>2022-06-29T14:39:26Z</time>
      </trkpt>
      <trkpt lat="47.13517" lon="5.96813">
        <ele>302.7</ele>
        <time>2022-06-29T14:39:27Z</time>
      </trkpt>
      <trkpt lat="47.13513" lon="5.96811">
        <ele>302.4</ele>
        <time>2022-06-29T14:39:28Z</time>
      </trkpt>
      <trkpt lat="47.13513" lon="5.96806">
        <ele>301.3</ele>
        <time>2022-06-29T14:39:29Z</time>
      </trkpt>
      <trkpt lat="47.13513" lon="5.96804">
        <ele>301.2</ele>
        <time>2022-06-29T14:39:30Z</time>
      </trkpt>
      <trkpt lat="47.13515" lon="5.968">
        <ele>301</ele>
        <time>2022-06-29T14:39:31Z</time>
      </trkpt>
      <trkpt lat="47.13519" lon="5.96798">
        <ele>300.8</ele>
        <time>2022-06-29T14:39:32Z</time>
      </trkpt>
      <trkpt lat="47.13522" lon="5.96797">
        <ele>300.7</ele>
        <time>2022-06-29T14:39:33Z</time>
      </trkpt>
      <trkpt lat="47.13528" lon="5.96794">
        <ele>300.4</ele>
        <time>2022-06-29T14:39:34Z</time>
      </trkpt>
      <trkpt lat="47.13531" lon="5.96791">
        <ele>300.1</ele>
        <time>2022-06-29T14:39:35Z</time>
      </trkpt>
      <trkpt lat="47.13536" lon="5.96789">
        <ele>299.9</ele>
        <time>2022-06-29T14:39:36Z</time>
      </trkpt>
      <trkpt lat="47.13541" lon="5.96787">
        <ele>299.5</ele>
        <time>2022-06-29T14:39:37Z</time>
      </trkpt>
      <trkpt lat="47.13546" lon="5.96783">
        <ele>299.2</ele>
        <time>2022-06-29T14:39:38Z</time>
      </trkpt>
      <trkpt lat="47.1355" lon="5.96778">
        <ele>298.9</ele>
        <time>2022-06-29T14:39:39Z</time>
      </trkpt>
      <trkpt lat="47.13555" lon="5.96772">
        <ele>298.5</ele>
        <time>2022-06-29T14:39:40Z</time>
      </trkpt>
      <trkpt lat="47.1356" lon="5.96765">
        <ele>298.1</ele>
        <time>2022-06-29T14:39:41Z</time>
      </trkpt>
      <trkpt lat="47.13564" lon="5.96758">
        <ele>297.8</ele>
        <time>2022-06-29T14:39:42Z</time>
      </trkpt>
      <trkpt lat="47.13568" lon="5.96751">
        <ele>297.5</ele>
        <time>2022-06-29T14:39:43Z</time>
      </trkpt>
      <trkpt lat="47.1357" lon="5.96745">
        <ele>297.4</ele>
        <time>2022-06-29T14:39:44Z</time>
      </trkpt>
      <trkpt lat="47.13568" lon="5.96741">
        <ele>297.3</ele>
        <time>2022-06-29T14:39:45Z</time>
      </trkpt>
      <trkpt lat="47.13569" lon="5.96736">
        <ele>297.2</ele>
        <time>2022-06-29T14:39:47Z</time>
      </trkpt>
      <trkpt lat="47.13568" lon="5.96733">
        <ele>297.1</ele>
        <time>2022-06-29T14:39:48Z</time>
      </trkpt>
      <trkpt lat="47.13567" lon="5.96732">
        <ele>297.1</ele>
        <time>2022-06-29T14:39:49Z</time>
      </trkpt>
      <trkpt lat="47.13565" lon="5.96732">
        <ele>296</ele>
        <time>2022-06-29T14:39:50Z</time>
      </trkpt>
      <trkpt lat="47.13564" lon="5.96733">
        <ele>295.9</ele>
        <time>2022-06-29T14:39:51Z</time>
      </trkpt>
      <trkpt lat="47.13561" lon="5.96734">
        <ele>295.8</ele>
        <time>2022-06-29T14:39:52Z</time>
      </trkpt>
      <trkpt lat="47.13556" lon="5.96739">
        <ele>295.6</ele>
        <time>2022-06-29T14:39:53Z</time>
      </trkpt>
      <trkpt lat="47.1355" lon="5.96742">
        <ele>295.3</ele>
        <time>2022-06-29T14:39:55Z</time>
      </trkpt>
      <trkpt lat="47.13542" lon="5.96746">
        <ele>294.7</ele>
        <time>2022-06-29T14:39:56Z</time>
      </trkpt>
      <trkpt lat="47.13537" lon="5.96746">
        <ele>294.4</ele>
        <time>2022-06-29T14:39:57Z</time>
      </trkpt>
      <trkpt lat="47.13532" lon="5.96745">
        <ele>294</ele>
        <time>2022-06-29T14:39:58Z</time>
      </trkpt>
      <trkpt lat="47.13527" lon="5.96743">
        <ele>293.6</ele>
        <time>2022-06-29T14:39:59Z</time>
      </trkpt>
      <trkpt lat="47.13522" lon="5.96739">
        <ele>293.2</ele>
        <time>2022-06-29T14:40:00Z</time>
      </trkpt>
      <trkpt lat="47.13517" lon="5.96735">
        <ele>292.8</ele>
        <time>2022-06-29T14:40:01Z</time>
      </trkpt>
      <trkpt lat="47.13511" lon="5.96731">
        <ele>292.3</ele>
        <time>2022-06-29T14:40:02Z</time>
      </trkpt>
      <trkpt lat="47.13504" lon="5.96727">
        <ele>291.8</ele>
        <time>2022-06-29T14:40:03Z</time>
      </trkpt>
      <trkpt lat="47.13498" lon="5.96723">
        <ele>291.4</ele>
        <time>2022-06-29T14:40:04Z</time>
      </trkpt>
      <trkpt lat="47.13492" lon="5.9672">
        <ele>291</ele>
        <time>2022-06-29T14:40:05Z</time>
      </trkpt>
      <trkpt lat="47.13486" lon="5.96717">
        <ele>290.6</ele>
        <time>2022-06-29T14:40:06Z</time>
      </trkpt>
      <trkpt lat="47.13473" lon="5.9671">
        <ele>289.7</ele>
        <time>2022-06-29T14:40:08Z</time>
      </trkpt>
      <trkpt lat="47.13467" lon="5.96706">
        <ele>289.4</ele>
        <time>2022-06-29T14:40:09Z</time>
      </trkpt>
      <trkpt lat="47.13462" lon="5.96702">
        <ele>289</ele>
        <time>2022-06-29T14:40:10Z</time>
      </trkpt>
      <trkpt lat="47.13456" lon="5.96699">
        <ele>288.6</ele>
        <time>2022-06-29T14:40:11Z</time>
      </trkpt>
      <trkpt lat="47.13452" lon="5.96695">
        <ele>288.3</ele>
        <time>2022-06-29T14:40:12Z</time>
      </trkpt>
      <trkpt lat="47.13448" lon="5.96692">
        <ele>288.1</ele>
        <time>2022-06-29T14:40:13Z</time>
      </trkpt>
      <trkpt lat="47.13444" lon="5.96688">
        <ele>287.8</ele>
        <time>2022-06-29T14:40:14Z</time>
      </trkpt>
      <trkpt lat="47.13439" lon="5.96684">
        <ele>287.4</ele>
        <time>2022-06-29T14:40:15Z</time>
      </trkpt>
      <trkpt lat="47.13434" lon="5.96681">
        <ele>286.9</ele>
        <time>2022-06-29T14:40:16Z</time>
      </trkpt>
      <trkpt lat="47.13429" lon="5.96677">
        <ele>286.3</ele>
        <time>2022-06-29T14:40:17Z</time>
      </trkpt>
      <trkpt lat="47.13424" lon="5.96674">
        <ele>285.9</ele>
        <time>2022-06-29T14:40:18Z</time>
      </trkpt>
      <trkpt lat="47.13419" lon="5.96671">
        <ele>285.4</ele>
        <time>2022-06-29T14:40:19Z</time>
      </trkpt>
      <trkpt lat="47.13414" lon="5.96669">
        <ele>284.9</ele>
        <time>2022-06-29T14:40:20Z</time>
      </trkpt>
      <trkpt lat="47.13408" lon="5.96666">
        <ele>284.3</ele>
        <time>2022-06-29T14:40:21Z</time>
      </trkpt>
      <trkpt lat="47.13404" lon="5.96663">
        <ele>283.8</ele>
        <time>2022-06-29T14:40:22Z</time>
      </trkpt>
      <trkpt lat="47.134" lon="5.96661">
        <ele>283.4</ele>
        <time>2022-06-29T14:40:23Z</time>
      </trkpt>
      <trkpt lat="47.13394" lon="5.96657">
        <ele>282.8</ele>
        <time>2022-06-29T14:40:24Z</time>
      </trkpt>
      <trkpt lat="47.13389" lon="5.96654">
        <ele>282.2</ele>
        <time>2022-06-29T14:40:25Z</time>
      </trkpt>
      <trkpt lat="47.13385" lon="5.9665">
        <ele>281.8</ele>
        <time>2022-06-29T14:40:26Z</time>
      </trkpt>
      <trkpt lat="47.13384" lon="5.96645">
        <ele>281.4</ele>
        <time>2022-06-29T14:40:27Z</time>
      </trkpt>
      <trkpt lat="47.13383" lon="5.96639">
        <ele>280.8</ele>
        <time>2022-06-29T14:40:28Z</time>
      </trkpt>
      <trkpt lat="47.13384" lon="5.96632">
        <ele>280.6</ele>
        <time>2022-06-29T14:40:29Z</time>
      </trkpt>
      <trkpt lat="47.13385" lon="5.96628">
        <ele>280.5</ele>
        <time>2022-06-29T14:40:30Z</time>
      </trkpt>
      <trkpt lat="47.13387" lon="5.96622">
        <ele>280.4</ele>
        <time>2022-06-29T14:40:31Z</time>
      </trkpt>
      <trkpt lat="47.13389" lon="5.9662">
        <ele>280.3</ele>
        <time>2022-06-29T14:40:32Z</time>
      </trkpt>
      <trkpt lat="47.13391" lon="5.96609">
        <ele>280.1</ele>
        <time>2022-06-29T14:40:33Z</time>
      </trkpt>
      <trkpt lat="47.13393" lon="5.96602">
        <ele>280</ele>
        <time>2022-06-29T14:40:35Z</time>
      </trkpt>
      <trkpt lat="47.13396" lon="5.96593">
        <ele>279.9</ele>
        <time>2022-06-29T14:40:36Z</time>
      </trkpt>
      <trkpt lat="47.13397" lon="5.96586">
        <ele>279.9</ele>
        <time>2022-06-29T14:40:37Z</time>
      </trkpt>
      <trkpt lat="47.13396" lon="5.96579">
        <ele>279.8</ele>
        <time>2022-06-29T14:40:38Z</time>
      </trkpt>
      <trkpt lat="47.13396" lon="5.96568">
        <ele>279.8</ele>
        <time>2022-06-29T14:40:40Z</time>
      </trkpt>
      <trkpt lat="47.13397" lon="5.96564">
        <ele>279.7</ele>
        <time>2022-06-29T14:40:41Z</time>
      </trkpt>
      <trkpt lat="47.134" lon="5.96558">
        <ele>279.7</ele>
        <time>2022-06-29T14:40:43Z</time>
      </trkpt>
      <trkpt lat="47.13402" lon="5.96555">
        <ele>279.6</ele>
        <time>2022-06-29T14:40:44Z</time>
      </trkpt>
      <trkpt lat="47.13403" lon="5.96554">
        <ele>279.6</ele>
        <time>2022-06-29T14:40:45Z</time>
      </trkpt>
      <trkpt lat="47.13405" lon="5.96548">
        <ele>279.6</ele>
        <time>2022-06-29T14:40:47Z</time>
      </trkpt>
      <trkpt lat="47.13405" lon="5.96547">
        <ele>279.5</ele>
        <time>2022-06-29T14:40:48Z</time>
      </trkpt>
      <trkpt lat="47.13405" lon="5.96545">
        <ele>279.5</ele>
        <time>2022-06-29T14:40:49Z</time>
      </trkpt>
      <trkpt lat="47.13406" lon="5.96544">
        <ele>279.5</ele>
        <time>2022-06-29T14:40:50Z</time>
      </trkpt>
      <trkpt lat="47.13409" lon="5.96542">
        <ele>279.5</ele>
        <time>2022-06-29T14:40:51Z</time>
      </trkpt>
      <trkpt lat="47.13409" lon="5.96541">
        <ele>279.5</ele>
        <time>2022-06-29T14:40:52Z</time>
      </trkpt>
      <trkpt lat="47.13411" lon="5.9654">
        <ele>279.4</ele>
        <time>2022-06-29T14:40:53Z</time>
      </trkpt>
      <trkpt lat="47.13413" lon="5.96539">
        <ele>279.4</ele>
        <time>2022-06-29T14:40:54Z</time>
      </trkpt>
      <trkpt lat="47.13413" lon="5.96538">
        <ele>279.4</ele>
        <time>2022-06-29T14:40:56Z</time>
      </trkpt>
      <trkpt lat="47.13413" lon="5.96537">
        <ele>279.4</ele>
        <time>2022-06-29T14:40:57Z</time>
      </trkpt>
      <trkpt lat="47.13414" lon="5.96537">
        <ele>279.4</ele>
        <time>2022-06-29T14:40:58Z</time>
      </trkpt>
      <trkpt lat="47.13414" lon="5.96537">
        <ele>279.4</ele>
        <time>2022-06-29T14:40:59Z</time>
      </trkpt>
      <trkpt lat="47.13414" lon="5.96536">
        <ele>279.4</ele>
        <time>2022-06-29T14:41:00Z</time>
      </trkpt>
      <trkpt lat="47.13415" lon="5.96536">
        <ele>279.4</ele>
        <time>2022-06-29T14:41:01Z</time>
      </trkpt>
      <trkpt lat="47.13415" lon="5.96535">
        <ele>279.4</ele>
        <time>2022-06-29T14:41:02Z</time>
      </trkpt>
      <trkpt lat="47.13415" lon="5.96535">
        <ele>279.4</ele>
        <time>2022-06-29T14:41:03Z</time>
      </trkpt>
      <trkpt lat="47.13416" lon="5.96534">
        <ele>279.4</ele>
        <time>2022-06-29T14:41:04Z</time>
      </trkpt>
      <trkpt lat="47.13416" lon="5.96534">
        <ele>279.4</ele>
        <time>2022-06-29T14:41:05Z</time>
      </trkpt>
      <trkpt lat="47.13416" lon="5.96533">
        <ele>279.4</ele>
        <time>2022-06-29T14:41:06Z</time>
      </trkpt>
      <trkpt lat="47.13417" lon="5.96533">
        <ele>279.4</ele>
        <time>2022-06-29T14:41:10Z</time>
      </trkpt>
      <trkpt lat="47.13417" lon="5.96533">
        <ele>279.4</ele>
        <time>2022-06-29T14:41:11Z</time>
      </trkpt>
      <trkpt lat="47.13417" lon="5.96532">
        <ele>279.3</ele>
        <time>2022-06-29T14:41:12Z</time>
      </trkpt>
      <trkpt lat="47.13418" lon="5.9653">
        <ele>279.3</ele>
        <time>2022-06-29T14:41:13Z</time>
      </trkpt>
      <trkpt lat="47.13419" lon="5.96527">
        <ele>279.3</ele>
        <time>2022-06-29T14:41:14Z</time>
      </trkpt>
      <trkpt lat="47.13421" lon="5.96523">
        <ele>279.3</ele>
        <time>2022-06-29T14:41:16Z</time>
      </trkpt>
      <trkpt lat="47.13423" lon="5.96518">
        <ele>279.3</ele>
        <time>2022-06-29T14:41:17Z</time>
      </trkpt>
      <trkpt lat="47.13425" lon="5.96512">
        <ele>279.2</ele>
        <time>2022-06-29T14:41:18Z</time>
      </trkpt>
      <trkpt lat="47.13426" lon="5.96507">
        <ele>279.2</ele>
        <time>2022-06-29T14:41:19Z</time>
      </trkpt>
      <trkpt lat="47.13428" lon="5.96503">
        <ele>279.2</ele>
        <time>2022-06-29T14:41:20Z</time>
      </trkpt>
      <trkpt lat="47.1343" lon="5.96494">
        <ele>279.2</ele>
        <time>2022-06-29T14:41:22Z</time>
      </trkpt>
      <trkpt lat="47.13431" lon="5.96489">
        <ele>279.2</ele>
        <time>2022-06-29T14:41:23Z</time>
      </trkpt>
      <trkpt lat="47.13432" lon="5.96484">
        <ele>279.2</ele>
        <time>2022-06-29T14:41:24Z</time>
      </trkpt>
      <trkpt lat="47.13434" lon="5.96479">
        <ele>279.2</ele>
        <time>2022-06-29T14:41:25Z</time>
      </trkpt>
      <trkpt lat="47.13435" lon="5.96473">
        <ele>279.2</ele>
        <time>2022-06-29T14:41:26Z</time>
      </trkpt>
      <trkpt lat="47.13437" lon="5.96467">
        <ele>279.2</ele>
        <time>2022-06-29T14:41:28Z</time>
      </trkpt>
      <trkpt lat="47.1344" lon="5.96461">
        <ele>279.2</ele>
        <time>2022-06-29T14:41:29Z</time>
      </trkpt>
      <trkpt lat="47.13441" lon="5.96458">
        <ele>279.2</ele>
        <time>2022-06-29T14:41:30Z</time>
      </trkpt>
      <trkpt lat="47.13443" lon="5.96454">
        <ele>279.2</ele>
        <time>2022-06-29T14:41:31Z</time>
      </trkpt>
      <trkpt lat="47.13446" lon="5.96449">
        <ele>279.2</ele>
        <time>2022-06-29T14:41:32Z</time>
      </trkpt>
      <trkpt lat="47.13448" lon="5.96445">
        <ele>279.2</ele>
        <time>2022-06-29T14:41:33Z</time>
      </trkpt>
      <trkpt lat="47.13451" lon="5.96441">
        <ele>279.2</ele>
        <time>2022-06-29T14:41:35Z</time>
      </trkpt>
      <trkpt lat="47.13454" lon="5.96435">
        <ele>279.2</ele>
        <time>2022-06-29T14:41:36Z</time>
      </trkpt>
      <trkpt lat="47.13458" lon="5.96431">
        <ele>279.2</ele>
        <time>2022-06-29T14:41:37Z</time>
      </trkpt>
      <trkpt lat="47.1346" lon="5.96427">
        <ele>279.2</ele>
        <time>2022-06-29T14:41:39Z</time>
      </trkpt>
      <trkpt lat="47.13463" lon="5.96423">
        <ele>279.2</ele>
        <time>2022-06-29T14:41:40Z</time>
      </trkpt>
      <trkpt lat="47.13467" lon="5.96419">
        <ele>279.1</ele>
        <time>2022-06-29T14:41:42Z</time>
      </trkpt>
      <trkpt lat="47.13473" lon="5.96414">
        <ele>279.1</ele>
        <time>2022-06-29T14:41:43Z</time>
      </trkpt>
      <trkpt lat="47.13476" lon="5.9641">
        <ele>279.1</ele>
        <time>2022-06-29T14:41:44Z</time>
      </trkpt>
      <trkpt lat="47.13477" lon="5.96408">
        <ele>279.1</ele>
        <time>2022-06-29T14:41:45Z</time>
      </trkpt>
      <trkpt lat="47.1348" lon="5.96405">
        <ele>279.1</ele>
        <time>2022-06-29T14:41:46Z</time>
      </trkpt>
      <trkpt lat="47.13483" lon="5.96403">
        <ele>279.1</ele>
        <time>2022-06-29T14:41:47Z</time>
      </trkpt>
      <trkpt lat="47.13486" lon="5.96401">
        <ele>279.1</ele>
        <time>2022-06-29T14:41:48Z</time>
      </trkpt>
      <trkpt lat="47.13489" lon="5.964">
        <ele>279.1</ele>
        <time>2022-06-29T14:41:49Z</time>
      </trkpt>
      <trkpt lat="47.13494" lon="5.96396">
        <ele>279.1</ele>
        <time>2022-06-29T14:41:51Z</time>
      </trkpt>
      <trkpt lat="47.13498" lon="5.96392">
        <ele>279</ele>
        <time>2022-06-29T14:41:52Z</time>
      </trkpt>
      <trkpt lat="47.13501" lon="5.96387">
        <ele>279</ele>
        <time>2022-06-29T14:41:53Z</time>
      </trkpt>
      <trkpt lat="47.13503" lon="5.96383">
        <ele>279</ele>
        <time>2022-06-29T14:41:54Z</time>
      </trkpt>
      <trkpt lat="47.13508" lon="5.96375">
        <ele>279</ele>
        <time>2022-06-29T14:41:56Z</time>
      </trkpt>
      <trkpt lat="47.1351" lon="5.96371">
        <ele>279</ele>
        <time>2022-06-29T14:41:57Z</time>
      </trkpt>
      <trkpt lat="47.13513" lon="5.96368">
        <ele>279</ele>
        <time>2022-06-29T14:41:58Z</time>
      </trkpt>
      <trkpt lat="47.13516" lon="5.96364">
        <ele>279</ele>
        <time>2022-06-29T14:42:00Z</time>
      </trkpt>
      <trkpt lat="47.13518" lon="5.9636">
        <ele>278.9</ele>
        <time>2022-06-29T14:42:01Z</time>
      </trkpt>
      <trkpt lat="47.13521" lon="5.96356">
        <ele>278.9</ele>
        <time>2022-06-29T14:42:02Z</time>
      </trkpt>
      <trkpt lat="47.13525" lon="5.96353">
        <ele>278.9</ele>
        <time>2022-06-29T14:42:03Z</time>
      </trkpt>
      <trkpt lat="47.13526" lon="5.96351">
        <ele>278.9</ele>
        <time>2022-06-29T14:42:04Z</time>
      </trkpt>
      <trkpt lat="47.13528" lon="5.96349">
        <ele>278.9</ele>
        <time>2022-06-29T14:42:05Z</time>
      </trkpt>
      <trkpt lat="47.13533" lon="5.96344">
        <ele>278.9</ele>
        <time>2022-06-29T14:42:07Z</time>
      </trkpt>
      <trkpt lat="47.13535" lon="5.96341">
        <ele>278.9</ele>
        <time>2022-06-29T14:42:08Z</time>
      </trkpt>
      <trkpt lat="47.13538" lon="5.96338">
        <ele>278.9</ele>
        <time>2022-06-29T14:42:09Z</time>
      </trkpt>
      <trkpt lat="47.13541" lon="5.96335">
        <ele>278.9</ele>
        <time>2022-06-29T14:42:10Z</time>
      </trkpt>
      <trkpt lat="47.13542" lon="5.96333">
        <ele>278.9</ele>
        <time>2022-06-29T14:42:11Z</time>
      </trkpt>
      <trkpt lat="47.13544" lon="5.96331">
        <ele>278.9</ele>
        <time>2022-06-29T14:42:12Z</time>
      </trkpt>
      <trkpt lat="47.13546" lon="5.96327">
        <ele>278.9</ele>
        <time>2022-06-29T14:42:13Z</time>
      </trkpt>
      <trkpt lat="47.13548" lon="5.96325">
        <ele>278.9</ele>
        <time>2022-06-29T14:42:14Z</time>
      </trkpt>
      <trkpt lat="47.1355" lon="5.9632">
        <ele>278.9</ele>
        <time>2022-06-29T14:42:16Z</time>
      </trkpt>
      <trkpt lat="47.13553" lon="5.96317">
        <ele>278.9</ele>
        <time>2022-06-29T14:42:17Z</time>
      </trkpt>
      <trkpt lat="47.13555" lon="5.96314">
        <ele>278.9</ele>
        <time>2022-06-29T14:42:18Z</time>
      </trkpt>
      <trkpt lat="47.13557" lon="5.9631">
        <ele>278.9</ele>
        <time>2022-06-29T14:42:19Z</time>
      </trkpt>
      <trkpt lat="47.13561" lon="5.96305">
        <ele>278.9</ele>
        <time>2022-06-29T14:42:21Z</time>
      </trkpt>
      <trkpt lat="47.13563" lon="5.96301">
        <ele>278.9</ele>
        <time>2022-06-29T14:42:22Z</time>
      </trkpt>
      <trkpt lat="47.13565" lon="5.96298">
        <ele>278.9</ele>
        <time>2022-06-29T14:42:23Z</time>
      </trkpt>
      <trkpt lat="47.13569" lon="5.96292">
        <ele>278.9</ele>
        <time>2022-06-29T14:42:25Z</time>
      </trkpt>
      <trkpt lat="47.1357" lon="5.96287">
        <ele>278.9</ele>
        <time>2022-06-29T14:42:26Z</time>
      </trkpt>
      <trkpt lat="47.13572" lon="5.96283">
        <ele>278.9</ele>
        <time>2022-06-29T14:42:27Z</time>
      </trkpt>
      <trkpt lat="47.13574" lon="5.9628">
        <ele>278.9</ele>
        <time>2022-06-29T14:42:28Z</time>
      </trkpt>
      <trkpt lat="47.13577" lon="5.96276">
        <ele>278.9</ele>
        <time>2022-06-29T14:42:30Z</time>
      </trkpt>
      <trkpt lat="47.13578" lon="5.96275">
        <ele>279</ele>
        <time>2022-06-29T14:42:31Z</time>
      </trkpt>
      <trkpt lat="47.13578" lon="5.96273">
        <ele>279</ele>
        <time>2022-06-29T14:42:32Z</time>
      </trkpt>
      <trkpt lat="47.13579" lon="5.96272">
        <ele>279</ele>
        <time>2022-06-29T14:42:33Z</time>
      </trkpt>
      <trkpt lat="47.13581" lon="5.96275">
        <ele>279</ele>
        <time>2022-06-29T14:42:35Z</time>
      </trkpt>
      <trkpt lat="47.1358" lon="5.96278">
        <ele>279</ele>
        <time>2022-06-29T14:42:36Z</time>
      </trkpt>
      <trkpt lat="47.13577" lon="5.96281">
        <ele>279</ele>
        <time>2022-06-29T14:42:38Z</time>
      </trkpt>
      <trkpt lat="47.13574" lon="5.96284">
        <ele>279</ele>
        <time>2022-06-29T14:42:39Z</time>
      </trkpt>
      <trkpt lat="47.13571" lon="5.96287">
        <ele>279</ele>
        <time>2022-06-29T14:42:40Z</time>
      </trkpt>
      <trkpt lat="47.13571" lon="5.96288">
        <ele>279</ele>
        <time>2022-06-29T14:42:41Z</time>
      </trkpt>
      <trkpt lat="47.13568" lon="5.96292">
        <ele>279</ele>
        <time>2022-06-29T14:42:42Z</time>
      </trkpt>
      <trkpt lat="47.13566" lon="5.96295">
        <ele>279</ele>
        <time>2022-06-29T14:42:43Z</time>
      </trkpt>
      <trkpt lat="47.13564" lon="5.96299">
        <ele>279</ele>
        <time>2022-06-29T14:42:44Z</time>
      </trkpt>
      <trkpt lat="47.13563" lon="5.96301">
        <ele>279</ele>
        <time>2022-06-29T14:42:45Z</time>
      </trkpt>
      <trkpt lat="47.1356" lon="5.96304">
        <ele>279</ele>
        <time>2022-06-29T14:42:46Z</time>
      </trkpt>
      <trkpt lat="47.13558" lon="5.96307">
        <ele>279</ele>
        <time>2022-06-29T14:42:47Z</time>
      </trkpt>
      <trkpt lat="47.13557" lon="5.96307">
        <ele>279</ele>
        <time>2022-06-29T14:42:49Z</time>
      </trkpt>
      <trkpt lat="47.13558" lon="5.96307">
        <ele>279</ele>
        <time>2022-06-29T14:42:50Z</time>
      </trkpt>
      <trkpt lat="47.13559" lon="5.96307">
        <ele>279</ele>
        <time>2022-06-29T14:42:51Z</time>
      </trkpt>
      <trkpt lat="47.13559" lon="5.96307">
        <ele>279</ele>
        <time>2022-06-29T14:42:52Z</time>
      </trkpt>
      <trkpt lat="47.13559" lon="5.96307">
        <ele>279</ele>
        <time>2022-06-29T14:42:53Z</time>
      </trkpt>
      <trkpt lat="47.13559" lon="5.96307">
        <ele>279</ele>
        <time>2022-06-29T14:42:54Z</time>
      </trkpt>
      <trkpt lat="47.13559" lon="5.96307">
        <ele>279</ele>
        <time>2022-06-29T14:42:55Z</time>
      </trkpt>
      <trkpt lat="47.13559" lon="5.96308">
        <ele>279</ele>
        <time>2022-06-29T14:42:56Z</time>
      </trkpt>
      <trkpt lat="47.13559" lon="5.96308">
        <ele>279</ele>
        <time>2022-06-29T14:42:57Z</time>
      </trkpt>
      <trkpt lat="47.13559" lon="5.96308">
        <ele>279</ele>
        <time>2022-06-29T14:42:58Z</time>
      </trkpt>
      <trkpt lat="47.13559" lon="5.96308">
        <ele>279</ele>
        <time>2022-06-29T14:42:59Z</time>
      </trkpt>
      <trkpt lat="47.1356" lon="5.96302">
        <ele>279</ele>
        <time>2022-06-29T14:43:11Z</time>
      </trkpt>
      <trkpt lat="47.13562" lon="5.96299">
        <ele>279.1</ele>
        <time>2022-06-29T14:43:12Z</time>
      </trkpt>
      <trkpt lat="47.13563" lon="5.96294">
        <ele>279.1</ele>
        <time>2022-06-29T14:43:14Z</time>
      </trkpt>
      <trkpt lat="47.13564" lon="5.96288">
        <ele>279.1</ele>
        <time>2022-06-29T14:43:15Z</time>
      </trkpt>
      <trkpt lat="47.13567" lon="5.96282">
        <ele>279.2</ele>
        <time>2022-06-29T14:43:17Z</time>
      </trkpt>
      <trkpt lat="47.1357" lon="5.96276">
        <ele>279.2</ele>
        <time>2022-06-29T14:43:18Z</time>
      </trkpt>
      <trkpt lat="47.13573" lon="5.96272">
        <ele>279.3</ele>
        <time>2022-06-29T14:43:19Z</time>
      </trkpt>
      <trkpt lat="47.13577" lon="5.96265">
        <ele>279.3</ele>
        <time>2022-06-29T14:43:21Z</time>
      </trkpt>
      <trkpt lat="47.13579" lon="5.96261">
        <ele>279.3</ele>
        <time>2022-06-29T14:43:22Z</time>
      </trkpt>
      <trkpt lat="47.13581" lon="5.96256">
        <ele>279.3</ele>
        <time>2022-06-29T14:43:23Z</time>
      </trkpt>
      <trkpt lat="47.13585" lon="5.96248">
        <ele>279.3</ele>
        <time>2022-06-29T14:43:25Z</time>
      </trkpt>
      <trkpt lat="47.13588" lon="5.96243">
        <ele>279.3</ele>
        <time>2022-06-29T14:43:26Z</time>
      </trkpt>
      <trkpt lat="47.13591" lon="5.96237">
        <ele>279.3</ele>
        <time>2022-06-29T14:43:28Z</time>
      </trkpt>
      <trkpt lat="47.13594" lon="5.96233">
        <ele>279.3</ele>
        <time>2022-06-29T14:43:29Z</time>
      </trkpt>
      <trkpt lat="47.13597" lon="5.96227">
        <ele>279.3</ele>
        <time>2022-06-29T14:43:30Z</time>
      </trkpt>
      <trkpt lat="47.136" lon="5.96221">
        <ele>279.3</ele>
        <time>2022-06-29T14:43:31Z</time>
      </trkpt>
      <trkpt lat="47.13604" lon="5.96213">
        <ele>279.3</ele>
        <time>2022-06-29T14:43:33Z</time>
      </trkpt>
      <trkpt lat="47.13607" lon="5.96208">
        <ele>279.3</ele>
        <time>2022-06-29T14:43:34Z</time>
      </trkpt>
      <trkpt lat="47.1361" lon="5.96204">
        <ele>279.3</ele>
        <time>2022-06-29T14:43:35Z</time>
      </trkpt>
      <trkpt lat="47.13612" lon="5.962">
        <ele>279.3</ele>
        <time>2022-06-29T14:43:36Z</time>
      </trkpt>
      <trkpt lat="47.13615" lon="5.96195">
        <ele>279.3</ele>
        <time>2022-06-29T14:43:37Z</time>
      </trkpt>
      <trkpt lat="47.13617" lon="5.96191">
        <ele>279.3</ele>
        <time>2022-06-29T14:43:38Z</time>
      </trkpt>
      <trkpt lat="47.1362" lon="5.96186">
        <ele>279.2</ele>
        <time>2022-06-29T14:43:39Z</time>
      </trkpt>
      <trkpt lat="47.13625" lon="5.96178">
        <ele>279.2</ele>
        <time>2022-06-29T14:43:41Z</time>
      </trkpt>
      <trkpt lat="47.13627" lon="5.96174">
        <ele>279.2</ele>
        <time>2022-06-29T14:43:42Z</time>
      </trkpt>
      <trkpt lat="47.1363" lon="5.96167">
        <ele>279.2</ele>
        <time>2022-06-29T14:43:44Z</time>
      </trkpt>
      <trkpt lat="47.13632" lon="5.96163">
        <ele>279.2</ele>
        <time>2022-06-29T14:43:45Z</time>
      </trkpt>
      <trkpt lat="47.13635" lon="5.96157">
        <ele>279.1</ele>
        <time>2022-06-29T14:43:46Z</time>
      </trkpt>
      <trkpt lat="47.13637" lon="5.96152">
        <ele>279.1</ele>
        <time>2022-06-29T14:43:47Z</time>
      </trkpt>
      <trkpt lat="47.13641" lon="5.96144">
        <ele>279</ele>
        <time>2022-06-29T14:43:49Z</time>
      </trkpt>
      <trkpt lat="47.13643" lon="5.96139">
        <ele>279</ele>
        <time>2022-06-29T14:43:50Z</time>
      </trkpt>
      <trkpt lat="47.13645" lon="5.96135">
        <ele>279</ele>
        <time>2022-06-29T14:43:51Z</time>
      </trkpt>
      <trkpt lat="47.13648" lon="5.96128">
        <ele>279</ele>
        <time>2022-06-29T14:43:53Z</time>
      </trkpt>
      <trkpt lat="47.13652" lon="5.96121">
        <ele>278.9</ele>
        <time>2022-06-29T14:43:54Z</time>
      </trkpt>
      <trkpt lat="47.13656" lon="5.96113">
        <ele>278.9</ele>
        <time>2022-06-29T14:43:56Z</time>
      </trkpt>
      <trkpt lat="47.13658" lon="5.96109">
        <ele>278.9</ele>
        <time>2022-06-29T14:43:57Z</time>
      </trkpt>
      <trkpt lat="47.1366" lon="5.96104">
        <ele>278.9</ele>
        <time>2022-06-29T14:43:58Z</time>
      </trkpt>
      <trkpt lat="47.13663" lon="5.96098">
        <ele>278.9</ele>
        <time>2022-06-29T14:43:59Z</time>
      </trkpt>
      <trkpt lat="47.13666" lon="5.96091">
        <ele>278.8</ele>
        <time>2022-06-29T14:44:01Z</time>
      </trkpt>
      <trkpt lat="47.13669" lon="5.96086">
        <ele>278.8</ele>
        <time>2022-06-29T14:44:02Z</time>
      </trkpt>
      <trkpt lat="47.13671" lon="5.96082">
        <ele>278.8</ele>
        <time>2022-06-29T14:44:03Z</time>
      </trkpt>
      <trkpt lat="47.13676" lon="5.96075">
        <ele>278.8</ele>
        <time>2022-06-29T14:44:05Z</time>
      </trkpt>
      <trkpt lat="47.13679" lon="5.9607">
        <ele>278.7</ele>
        <time>2022-06-29T14:44:06Z</time>
      </trkpt>
      <trkpt lat="47.13682" lon="5.96066">
        <ele>278.7</ele>
        <time>2022-06-29T14:44:07Z</time>
      </trkpt>
      <trkpt lat="47.13687" lon="5.96059">
        <ele>278.7</ele>
        <time>2022-06-29T14:44:09Z</time>
      </trkpt>
      <trkpt lat="47.1369" lon="5.96054">
        <ele>278.7</ele>
        <time>2022-06-29T14:44:10Z</time>
      </trkpt>
      <trkpt lat="47.13693" lon="5.96051">
        <ele>278.7</ele>
        <time>2022-06-29T14:44:11Z</time>
      </trkpt>
      <trkpt lat="47.13696" lon="5.96047">
        <ele>278.7</ele>
        <time>2022-06-29T14:44:12Z</time>
      </trkpt>
      <trkpt lat="47.13699" lon="5.96044">
        <ele>278.6</ele>
        <time>2022-06-29T14:44:13Z</time>
      </trkpt>
      <trkpt lat="47.13702" lon="5.9604">
        <ele>278.6</ele>
        <time>2022-06-29T14:44:14Z</time>
      </trkpt>
      <trkpt lat="47.13706" lon="5.96037">
        <ele>278.6</ele>
        <time>2022-06-29T14:44:15Z</time>
      </trkpt>
      <trkpt lat="47.1371" lon="5.96034">
        <ele>278.6</ele>
        <time>2022-06-29T14:44:16Z</time>
      </trkpt>
      <trkpt lat="47.13714" lon="5.9603">
        <ele>278.6</ele>
        <time>2022-06-29T14:44:17Z</time>
      </trkpt>
      <trkpt lat="47.13718" lon="5.96026">
        <ele>278.6</ele>
        <time>2022-06-29T14:44:18Z</time>
      </trkpt>
      <trkpt lat="47.13723" lon="5.9602">
        <ele>278.6</ele>
        <time>2022-06-29T14:44:20Z</time>
      </trkpt>
      <trkpt lat="47.13727" lon="5.96015">
        <ele>278.6</ele>
        <time>2022-06-29T14:44:21Z</time>
      </trkpt>
      <trkpt lat="47.13731" lon="5.96011">
        <ele>278.6</ele>
        <time>2022-06-29T14:44:22Z</time>
      </trkpt>
      <trkpt lat="47.13735" lon="5.96006">
        <ele>278.6</ele>
        <time>2022-06-29T14:44:23Z</time>
      </trkpt>
      <trkpt lat="47.13739" lon="5.96002">
        <ele>278.6</ele>
        <time>2022-06-29T14:44:24Z</time>
      </trkpt>
      <trkpt lat="47.13741" lon="5.95997">
        <ele>278.6</ele>
        <time>2022-06-29T14:44:25Z</time>
      </trkpt>
      <trkpt lat="47.13744" lon="5.95991">
        <ele>278.6</ele>
        <time>2022-06-29T14:44:26Z</time>
      </trkpt>
      <trkpt lat="47.13747" lon="5.95985">
        <ele>278.6</ele>
        <time>2022-06-29T14:44:27Z</time>
      </trkpt>
      <trkpt lat="47.13749" lon="5.9598">
        <ele>278.6</ele>
        <time>2022-06-29T14:44:28Z</time>
      </trkpt>
      <trkpt lat="47.13752" lon="5.95974">
        <ele>278.6</ele>
        <time>2022-06-29T14:44:29Z</time>
      </trkpt>
      <trkpt lat="47.13754" lon="5.95968">
        <ele>278.6</ele>
        <time>2022-06-29T14:44:30Z</time>
      </trkpt>
      <trkpt lat="47.13756" lon="5.95963">
        <ele>278.6</ele>
        <time>2022-06-29T14:44:31Z</time>
      </trkpt>
      <trkpt lat="47.13758" lon="5.95957">
        <ele>278.6</ele>
        <time>2022-06-29T14:44:32Z</time>
      </trkpt>
      <trkpt lat="47.13761" lon="5.95952">
        <ele>278.6</ele>
        <time>2022-06-29T14:44:33Z</time>
      </trkpt>
      <trkpt lat="47.13762" lon="5.95948">
        <ele>278.6</ele>
        <time>2022-06-29T14:44:34Z</time>
      </trkpt>
      <trkpt lat="47.1376" lon="5.95944">
        <ele>278.6</ele>
        <time>2022-06-29T14:44:35Z</time>
      </trkpt>
      <trkpt lat="47.13769" lon="5.95932">
        <ele>278.6</ele>
        <time>2022-06-29T14:44:37Z</time>
      </trkpt>
      <trkpt lat="47.13772" lon="5.95926">
        <ele>278.6</ele>
        <time>2022-06-29T14:44:38Z</time>
      </trkpt>
      <trkpt lat="47.13775" lon="5.95921">
        <ele>278.6</ele>
        <time>2022-06-29T14:44:39Z</time>
      </trkpt>
      <trkpt lat="47.13778" lon="5.95915">
        <ele>278.6</ele>
        <time>2022-06-29T14:44:40Z</time>
      </trkpt>
      <trkpt lat="47.13781" lon="5.9591">
        <ele>278.6</ele>
        <time>2022-06-29T14:44:41Z</time>
      </trkpt>
      <trkpt lat="47.13784" lon="5.95905">
        <ele>278.6</ele>
        <time>2022-06-29T14:44:42Z</time>
      </trkpt>
      <trkpt lat="47.13788" lon="5.959">
        <ele>278.5</ele>
        <time>2022-06-29T14:44:43Z</time>
      </trkpt>
      <trkpt lat="47.13793" lon="5.95894">
        <ele>278.5</ele>
        <time>2022-06-29T14:44:45Z</time>
      </trkpt>
      <trkpt lat="47.13797" lon="5.95891">
        <ele>278.5</ele>
        <time>2022-06-29T14:44:46Z</time>
      </trkpt>
      <trkpt lat="47.13799" lon="5.95888">
        <ele>278.5</ele>
        <time>2022-06-29T14:44:47Z</time>
      </trkpt>
      <trkpt lat="47.138" lon="5.95885">
        <ele>278.5</ele>
        <time>2022-06-29T14:44:48Z</time>
      </trkpt>
      <trkpt lat="47.13801" lon="5.95884">
        <ele>278.5</ele>
        <time>2022-06-29T14:44:49Z</time>
      </trkpt>
      <trkpt lat="47.13804" lon="5.9588">
        <ele>278.4</ele>
        <time>2022-06-29T14:44:50Z</time>
      </trkpt>
      <trkpt lat="47.13806" lon="5.95878">
        <ele>278.4</ele>
        <time>2022-06-29T14:44:51Z</time>
      </trkpt>
      <trkpt lat="47.13809" lon="5.95876">
        <ele>278.4</ele>
        <time>2022-06-29T14:44:52Z</time>
      </trkpt>
      <trkpt lat="47.13815" lon="5.95873">
        <ele>278.4</ele>
        <time>2022-06-29T14:44:54Z</time>
      </trkpt>
      <trkpt lat="47.13819" lon="5.9587">
        <ele>278.4</ele>
        <time>2022-06-29T14:44:55Z</time>
      </trkpt>
      <trkpt lat="47.13825" lon="5.95869">
        <ele>278.4</ele>
        <time>2022-06-29T14:44:56Z</time>
      </trkpt>
      <trkpt lat="47.13833" lon="5.9587">
        <ele>278.3</ele>
        <time>2022-06-29T14:44:58Z</time>
      </trkpt>
      <trkpt lat="47.13836" lon="5.9587">
        <ele>278.3</ele>
        <time>2022-06-29T14:44:59Z</time>
      </trkpt>
      <trkpt lat="47.13842" lon="5.95871">
        <ele>278.3</ele>
        <time>2022-06-29T14:45:01Z</time>
      </trkpt>
      <trkpt lat="47.13847" lon="5.9587">
        <ele>278.3</ele>
        <time>2022-06-29T14:45:02Z</time>
      </trkpt>
      <trkpt lat="47.1385" lon="5.95869">
        <ele>278.3</ele>
        <time>2022-06-29T14:45:03Z</time>
      </trkpt>
      <trkpt lat="47.13858" lon="5.95868">
        <ele>278.3</ele>
        <time>2022-06-29T14:45:05Z</time>
      </trkpt>
      <trkpt lat="47.13862" lon="5.95867">
        <ele>278.3</ele>
        <time>2022-06-29T14:45:06Z</time>
      </trkpt>
      <trkpt lat="47.13866" lon="5.95863">
        <ele>278.3</ele>
        <time>2022-06-29T14:45:07Z</time>
      </trkpt>
      <trkpt lat="47.13871" lon="5.95858">
        <ele>278.4</ele>
        <time>2022-06-29T14:45:09Z</time>
      </trkpt>
      <trkpt lat="47.13877" lon="5.95854">
        <ele>278.4</ele>
        <time>2022-06-29T14:45:10Z</time>
      </trkpt>
      <trkpt lat="47.13881" lon="5.95852">
        <ele>278.5</ele>
        <time>2022-06-29T14:45:11Z</time>
      </trkpt>
      <trkpt lat="47.13885" lon="5.9585">
        <ele>278.5</ele>
        <time>2022-06-29T14:45:12Z</time>
      </trkpt>
      <trkpt lat="47.13888" lon="5.95847">
        <ele>278.6</ele>
        <time>2022-06-29T14:45:13Z</time>
      </trkpt>
      <trkpt lat="47.13891" lon="5.95842">
        <ele>278.7</ele>
        <time>2022-06-29T14:45:15Z</time>
      </trkpt>
      <trkpt lat="47.13892" lon="5.95839">
        <ele>278.7</ele>
        <time>2022-06-29T14:45:16Z</time>
      </trkpt>
      <trkpt lat="47.13896" lon="5.95836">
        <ele>278.8</ele>
        <time>2022-06-29T14:45:18Z</time>
      </trkpt>
      <trkpt lat="47.13899" lon="5.95834">
        <ele>278.9</ele>
        <time>2022-06-29T14:45:19Z</time>
      </trkpt>
      <trkpt lat="47.139" lon="5.95833">
        <ele>278.9</ele>
        <time>2022-06-29T14:45:20Z</time>
      </trkpt>
      <trkpt lat="47.13903" lon="5.95831">
        <ele>278.9</ele>
        <time>2022-06-29T14:45:21Z</time>
      </trkpt>
      <trkpt lat="47.13905" lon="5.95829">
        <ele>279</ele>
        <time>2022-06-29T14:45:22Z</time>
      </trkpt>
      <trkpt lat="47.1391" lon="5.95825">
        <ele>279</ele>
        <time>2022-06-29T14:45:24Z</time>
      </trkpt>
      <trkpt lat="47.13912" lon="5.95823">
        <ele>279</ele>
        <time>2022-06-29T14:45:25Z</time>
      </trkpt>
      <trkpt lat="47.13915" lon="5.9582">
        <ele>279.1</ele>
        <time>2022-06-29T14:45:26Z</time>
      </trkpt>
      <trkpt lat="47.13918" lon="5.95817">
        <ele>279.1</ele>
        <time>2022-06-29T14:45:27Z</time>
      </trkpt>
      <trkpt lat="47.1392" lon="5.95815">
        <ele>279.1</ele>
        <time>2022-06-29T14:45:28Z</time>
      </trkpt>
      <trkpt lat="47.13923" lon="5.95812">
        <ele>279.1</ele>
        <time>2022-06-29T14:45:29Z</time>
      </trkpt>
      <trkpt lat="47.13928" lon="5.95807">
        <ele>279.2</ele>
        <time>2022-06-29T14:45:31Z</time>
      </trkpt>
      <trkpt lat="47.13931" lon="5.95803">
        <ele>279.3</ele>
        <time>2022-06-29T14:45:32Z</time>
      </trkpt>
      <trkpt lat="47.13935" lon="5.95801">
        <ele>279.3</ele>
        <time>2022-06-29T14:45:33Z</time>
      </trkpt>
      <trkpt lat="47.13937" lon="5.95799">
        <ele>279.4</ele>
        <time>2022-06-29T14:45:34Z</time>
      </trkpt>
      <trkpt lat="47.1394" lon="5.95797">
        <ele>279.4</ele>
        <time>2022-06-29T14:45:35Z</time>
      </trkpt>
      <trkpt lat="47.13942" lon="5.95793">
        <ele>279.5</ele>
        <time>2022-06-29T14:45:36Z</time>
      </trkpt>
      <trkpt lat="47.13945" lon="5.95789">
        <ele>279.5</ele>
        <time>2022-06-29T14:45:37Z</time>
      </trkpt>
      <trkpt lat="47.13946" lon="5.95788">
        <ele>279.5</ele>
        <time>2022-06-29T14:45:38Z</time>
      </trkpt>
      <trkpt lat="47.13949" lon="5.95786">
        <ele>279.6</ele>
        <time>2022-06-29T14:45:39Z</time>
      </trkpt>
      <trkpt lat="47.1395" lon="5.95785">
        <ele>279.6</ele>
        <time>2022-06-29T14:45:40Z</time>
      </trkpt>
      <trkpt lat="47.13956" lon="5.95784">
        <ele>279.7</ele>
        <time>2022-06-29T14:45:42Z</time>
      </trkpt>
      <trkpt lat="47.13959" lon="5.95783">
        <ele>279.7</ele>
        <time>2022-06-29T14:45:44Z</time>
      </trkpt>
      <trkpt lat="47.13961" lon="5.95783">
        <ele>279.7</ele>
        <time>2022-06-29T14:45:45Z</time>
      </trkpt>
      <trkpt lat="47.13964" lon="5.95781">
        <ele>279.7</ele>
        <time>2022-06-29T14:45:47Z</time>
      </trkpt>
      <trkpt lat="47.13968" lon="5.95777">
        <ele>279.5</ele>
        <time>2022-06-29T14:45:49Z</time>
      </trkpt>
      <trkpt lat="47.13972" lon="5.95775">
        <ele>279.4</ele>
        <time>2022-06-29T14:45:50Z</time>
      </trkpt>
      <trkpt lat="47.13974" lon="5.95773">
        <ele>279.3</ele>
        <time>2022-06-29T14:45:51Z</time>
      </trkpt>
      <trkpt lat="47.13978" lon="5.95769">
        <ele>279.1</ele>
        <time>2022-06-29T14:45:53Z</time>
      </trkpt>
      <trkpt lat="47.13982" lon="5.95765">
        <ele>279</ele>
        <time>2022-06-29T14:45:54Z</time>
      </trkpt>
      <trkpt lat="47.13984" lon="5.95764">
        <ele>278.9</ele>
        <time>2022-06-29T14:45:55Z</time>
      </trkpt>
      <trkpt lat="47.1399" lon="5.9576">
        <ele>278.8</ele>
        <time>2022-06-29T14:45:57Z</time>
      </trkpt>
      <trkpt lat="47.13993" lon="5.95758">
        <ele>278.7</ele>
        <time>2022-06-29T14:45:58Z</time>
      </trkpt>
      <trkpt lat="47.13996" lon="5.95756">
        <ele>278.6</ele>
        <time>2022-06-29T14:45:59Z</time>
      </trkpt>
      <trkpt lat="47.13999" lon="5.95753">
        <ele>278.6</ele>
        <time>2022-06-29T14:46:00Z</time>
      </trkpt>
      <trkpt lat="47.14001" lon="5.95752">
        <ele>278.6</ele>
        <time>2022-06-29T14:46:01Z</time>
      </trkpt>
      <trkpt lat="47.14004" lon="5.9575">
        <ele>278.5</ele>
        <time>2022-06-29T14:46:02Z</time>
      </trkpt>
      <trkpt lat="47.14009" lon="5.95745">
        <ele>278.5</ele>
        <time>2022-06-29T14:46:04Z</time>
      </trkpt>
      <trkpt lat="47.14015" lon="5.9574">
        <ele>278.5</ele>
        <time>2022-06-29T14:46:06Z</time>
      </trkpt>
      <trkpt lat="47.14018" lon="5.95738">
        <ele>278.5</ele>
        <time>2022-06-29T14:46:07Z</time>
      </trkpt>
      <trkpt lat="47.14021" lon="5.95736">
        <ele>278.4</ele>
        <time>2022-06-29T14:46:08Z</time>
      </trkpt>
      <trkpt lat="47.14024" lon="5.95734">
        <ele>278.4</ele>
        <time>2022-06-29T14:46:09Z</time>
      </trkpt>
      <trkpt lat="47.1403" lon="5.95731">
        <ele>278.4</ele>
        <time>2022-06-29T14:46:11Z</time>
      </trkpt>
      <trkpt lat="47.14034" lon="5.9573">
        <ele>278.4</ele>
        <time>2022-06-29T14:46:12Z</time>
      </trkpt>
      <trkpt lat="47.14038" lon="5.95728">
        <ele>278.4</ele>
        <time>2022-06-29T14:46:13Z</time>
      </trkpt>
      <trkpt lat="47.14042" lon="5.95728">
        <ele>278.4</ele>
        <time>2022-06-29T14:46:14Z</time>
      </trkpt>
      <trkpt lat="47.14045" lon="5.95728">
        <ele>278.3</ele>
        <time>2022-06-29T14:46:15Z</time>
      </trkpt>
      <trkpt lat="47.14052" lon="5.95728">
        <ele>278.3</ele>
        <time>2022-06-29T14:46:17Z</time>
      </trkpt>
      <trkpt lat="47.14056" lon="5.95728">
        <ele>278.3</ele>
        <time>2022-06-29T14:46:18Z</time>
      </trkpt>
      <trkpt lat="47.14062" lon="5.95727">
        <ele>278.3</ele>
        <time>2022-06-29T14:46:20Z</time>
      </trkpt>
      <trkpt lat="47.14067" lon="5.95726">
        <ele>278.2</ele>
        <time>2022-06-29T14:46:21Z</time>
      </trkpt>
      <trkpt lat="47.14072" lon="5.95725">
        <ele>278.2</ele>
        <time>2022-06-29T14:46:22Z</time>
      </trkpt>
      <trkpt lat="47.14075" lon="5.95723">
        <ele>278.2</ele>
        <time>2022-06-29T14:46:23Z</time>
      </trkpt>
      <trkpt lat="47.14079" lon="5.9572">
        <ele>278.2</ele>
        <time>2022-06-29T14:46:24Z</time>
      </trkpt>
      <trkpt lat="47.14083" lon="5.95717">
        <ele>278.1</ele>
        <time>2022-06-29T14:46:25Z</time>
      </trkpt>
      <trkpt lat="47.14087" lon="5.95714">
        <ele>278.1</ele>
        <time>2022-06-29T14:46:26Z</time>
      </trkpt>
      <trkpt lat="47.14091" lon="5.9571">
        <ele>278.1</ele>
        <time>2022-06-29T14:46:27Z</time>
      </trkpt>
      <trkpt lat="47.14094" lon="5.95705">
        <ele>278</ele>
        <time>2022-06-29T14:46:28Z</time>
      </trkpt>
      <trkpt lat="47.14096" lon="5.95698">
        <ele>278</ele>
        <time>2022-06-29T14:46:29Z</time>
      </trkpt>
      <trkpt lat="47.14096" lon="5.95692">
        <ele>277.9</ele>
        <time>2022-06-29T14:46:30Z</time>
      </trkpt>
      <trkpt lat="47.14099" lon="5.95684">
        <ele>277.8</ele>
        <time>2022-06-29T14:46:31Z</time>
      </trkpt>
      <trkpt lat="47.14101" lon="5.95678">
        <ele>277.8</ele>
        <time>2022-06-29T14:46:32Z</time>
      </trkpt>
      <trkpt lat="47.14104" lon="5.95674">
        <ele>277.7</ele>
        <time>2022-06-29T14:46:33Z</time>
      </trkpt>
      <trkpt lat="47.14111" lon="5.95665">
        <ele>277.6</ele>
        <time>2022-06-29T14:46:35Z</time>
      </trkpt>
      <trkpt lat="47.14115" lon="5.95663">
        <ele>277.6</ele>
        <time>2022-06-29T14:46:36Z</time>
      </trkpt>
      <trkpt lat="47.14124" lon="5.95658">
        <ele>277.5</ele>
        <time>2022-06-29T14:46:38Z</time>
      </trkpt>
      <trkpt lat="47.14128" lon="5.95659">
        <ele>277.4</ele>
        <time>2022-06-29T14:46:39Z</time>
      </trkpt>
      <trkpt lat="47.14133" lon="5.95658">
        <ele>277.4</ele>
        <time>2022-06-29T14:46:40Z</time>
      </trkpt>
      <trkpt lat="47.1414" lon="5.95656">
        <ele>277.3</ele>
        <time>2022-06-29T14:46:42Z</time>
      </trkpt>
      <trkpt lat="47.14144" lon="5.95655">
        <ele>277.3</ele>
        <time>2022-06-29T14:46:43Z</time>
      </trkpt>
      <trkpt lat="47.14148" lon="5.95655">
        <ele>277.2</ele>
        <time>2022-06-29T14:46:44Z</time>
      </trkpt>
      <trkpt lat="47.14152" lon="5.95654">
        <ele>277.2</ele>
        <time>2022-06-29T14:46:45Z</time>
      </trkpt>
      <trkpt lat="47.14156" lon="5.95653">
        <ele>277.2</ele>
        <time>2022-06-29T14:46:46Z</time>
      </trkpt>
      <trkpt lat="47.14161" lon="5.95654">
        <ele>277.2</ele>
        <time>2022-06-29T14:46:47Z</time>
      </trkpt>
      <trkpt lat="47.14165" lon="5.95653">
        <ele>277.1</ele>
        <time>2022-06-29T14:46:48Z</time>
      </trkpt>
      <trkpt lat="47.1417" lon="5.95653">
        <ele>277.1</ele>
        <time>2022-06-29T14:46:49Z</time>
      </trkpt>
      <trkpt lat="47.14175" lon="5.95652">
        <ele>277.1</ele>
        <time>2022-06-29T14:46:50Z</time>
      </trkpt>
      <trkpt lat="47.14179" lon="5.95652">
        <ele>277.1</ele>
        <time>2022-06-29T14:46:51Z</time>
      </trkpt>
      <trkpt lat="47.14184" lon="5.95652">
        <ele>277.1</ele>
        <time>2022-06-29T14:46:53Z</time>
      </trkpt>
      <trkpt lat="47.14189" lon="5.95653">
        <ele>277.1</ele>
        <time>2022-06-29T14:46:54Z</time>
      </trkpt>
      <trkpt lat="47.14194" lon="5.95653">
        <ele>277</ele>
        <time>2022-06-29T14:46:56Z</time>
      </trkpt>
      <trkpt lat="47.14198" lon="5.95654">
        <ele>277</ele>
        <time>2022-06-29T14:46:57Z</time>
      </trkpt>
      <trkpt lat="47.14202" lon="5.95654">
        <ele>277</ele>
        <time>2022-06-29T14:46:58Z</time>
      </trkpt>
      <trkpt lat="47.14208" lon="5.95651">
        <ele>277</ele>
        <time>2022-06-29T14:46:59Z</time>
      </trkpt>
      <trkpt lat="47.14212" lon="5.95651">
        <ele>277</ele>
        <time>2022-06-29T14:47:00Z</time>
      </trkpt>
      <trkpt lat="47.14217" lon="5.95651">
        <ele>277</ele>
        <time>2022-06-29T14:47:01Z</time>
      </trkpt>
      <trkpt lat="47.14221" lon="5.95651">
        <ele>277</ele>
        <time>2022-06-29T14:47:03Z</time>
      </trkpt>
      <trkpt lat="47.14227" lon="5.95653">
        <ele>277</ele>
        <time>2022-06-29T14:47:04Z</time>
      </trkpt>
      <trkpt lat="47.1423" lon="5.95654">
        <ele>277</ele>
        <time>2022-06-29T14:47:05Z</time>
      </trkpt>
      <trkpt lat="47.14235" lon="5.95655">
        <ele>277</ele>
        <time>2022-06-29T14:47:06Z</time>
      </trkpt>
      <trkpt lat="47.14239" lon="5.95657">
        <ele>277</ele>
        <time>2022-06-29T14:47:08Z</time>
      </trkpt>
      <trkpt lat="47.14242" lon="5.95658">
        <ele>277</ele>
        <time>2022-06-29T14:47:09Z</time>
      </trkpt>
      <trkpt lat="47.14245" lon="5.95658">
        <ele>277</ele>
        <time>2022-06-29T14:47:10Z</time>
      </trkpt>
      <trkpt lat="47.14252" lon="5.95661">
        <ele>277</ele>
        <time>2022-06-29T14:47:12Z</time>
      </trkpt>
      <trkpt lat="47.14256" lon="5.95664">
        <ele>277</ele>
        <time>2022-06-29T14:47:13Z</time>
      </trkpt>
      <trkpt lat="47.14261" lon="5.95666">
        <ele>277</ele>
        <time>2022-06-29T14:47:14Z</time>
      </trkpt>
      <trkpt lat="47.14266" lon="5.95669">
        <ele>277</ele>
        <time>2022-06-29T14:47:15Z</time>
      </trkpt>
      <trkpt lat="47.1427" lon="5.95671">
        <ele>277</ele>
        <time>2022-06-29T14:47:17Z</time>
      </trkpt>
      <trkpt lat="47.14274" lon="5.95673">
        <ele>277</ele>
        <time>2022-06-29T14:47:18Z</time>
      </trkpt>
      <trkpt lat="47.14278" lon="5.95674">
        <ele>277</ele>
        <time>2022-06-29T14:47:19Z</time>
      </trkpt>
      <trkpt lat="47.14282" lon="5.95675">
        <ele>277</ele>
        <time>2022-06-29T14:47:20Z</time>
      </trkpt>
      <trkpt lat="47.14286" lon="5.95677">
        <ele>277</ele>
        <time>2022-06-29T14:47:21Z</time>
      </trkpt>
      <trkpt lat="47.1429" lon="5.95679">
        <ele>277</ele>
        <time>2022-06-29T14:47:22Z</time>
      </trkpt>
      <trkpt lat="47.14292" lon="5.95681">
        <ele>277</ele>
        <time>2022-06-29T14:47:23Z</time>
      </trkpt>
      <trkpt lat="47.14297" lon="5.95683">
        <ele>277.1</ele>
        <time>2022-06-29T14:47:24Z</time>
      </trkpt>
      <trkpt lat="47.14301" lon="5.95685">
        <ele>277</ele>
        <time>2022-06-29T14:47:26Z</time>
      </trkpt>
      <trkpt lat="47.14306" lon="5.95688">
        <ele>277</ele>
        <time>2022-06-29T14:47:27Z</time>
      </trkpt>
      <trkpt lat="47.1431" lon="5.95688">
        <ele>277</ele>
        <time>2022-06-29T14:47:28Z</time>
      </trkpt>
      <trkpt lat="47.14315" lon="5.9569">
        <ele>276.9</ele>
        <time>2022-06-29T14:47:29Z</time>
      </trkpt>
      <trkpt lat="47.14319" lon="5.95692">
        <ele>276.9</ele>
        <time>2022-06-29T14:47:30Z</time>
      </trkpt>
      <trkpt lat="47.14324" lon="5.95697">
        <ele>276.9</ele>
        <time>2022-06-29T14:47:32Z</time>
      </trkpt>
      <trkpt lat="47.14329" lon="5.95699">
        <ele>276.9</ele>
        <time>2022-06-29T14:47:33Z</time>
      </trkpt>
      <trkpt lat="47.14333" lon="5.95702">
        <ele>276.9</ele>
        <time>2022-06-29T14:47:34Z</time>
      </trkpt>
      <trkpt lat="47.14341" lon="5.95707">
        <ele>277</ele>
        <time>2022-06-29T14:47:36Z</time>
      </trkpt>
      <trkpt lat="47.14346" lon="5.95712">
        <ele>277</ele>
        <time>2022-06-29T14:47:38Z</time>
      </trkpt>
      <trkpt lat="47.14349" lon="5.95714">
        <ele>277.1</ele>
        <time>2022-06-29T14:47:39Z</time>
      </trkpt>
      <trkpt lat="47.14352" lon="5.95716">
        <ele>277.1</ele>
        <time>2022-06-29T14:47:40Z</time>
      </trkpt>
      <trkpt lat="47.14356" lon="5.9572">
        <ele>277.1</ele>
        <time>2022-06-29T14:47:41Z</time>
      </trkpt>
      <trkpt lat="47.14359" lon="5.95723">
        <ele>277.2</ele>
        <time>2022-06-29T14:47:42Z</time>
      </trkpt>
      <trkpt lat="47.14364" lon="5.95727">
        <ele>277.2</ele>
        <time>2022-06-29T14:47:43Z</time>
      </trkpt>
      <trkpt lat="47.14368" lon="5.95731">
        <ele>277.2</ele>
        <time>2022-06-29T14:47:45Z</time>
      </trkpt>
      <trkpt lat="47.14377" lon="5.95737">
        <ele>277.2</ele>
        <time>2022-06-29T14:47:47Z</time>
      </trkpt>
      <trkpt lat="47.14382" lon="5.95741">
        <ele>277.2</ele>
        <time>2022-06-29T14:47:49Z</time>
      </trkpt>
      <trkpt lat="47.14386" lon="5.95744">
        <ele>277.2</ele>
        <time>2022-06-29T14:47:50Z</time>
      </trkpt>
      <trkpt lat="47.14391" lon="5.95749">
        <ele>277.2</ele>
        <time>2022-06-29T14:47:52Z</time>
      </trkpt>
      <trkpt lat="47.14394" lon="5.95753">
        <ele>277.2</ele>
        <time>2022-06-29T14:47:53Z</time>
      </trkpt>
      <trkpt lat="47.14398" lon="5.95757">
        <ele>277.2</ele>
        <time>2022-06-29T14:47:54Z</time>
      </trkpt>
      <trkpt lat="47.14402" lon="5.95761">
        <ele>277.2</ele>
        <time>2022-06-29T14:47:55Z</time>
      </trkpt>
      <trkpt lat="47.14406" lon="5.95765">
        <ele>277.2</ele>
        <time>2022-06-29T14:47:56Z</time>
      </trkpt>
      <trkpt lat="47.14409" lon="5.95769">
        <ele>277.2</ele>
        <time>2022-06-29T14:47:57Z</time>
      </trkpt>
      <trkpt lat="47.14413" lon="5.95775">
        <ele>277.2</ele>
        <time>2022-06-29T14:47:59Z</time>
      </trkpt>
      <trkpt lat="47.14417" lon="5.9578">
        <ele>277.2</ele>
        <time>2022-06-29T14:48:00Z</time>
      </trkpt>
      <trkpt lat="47.1442" lon="5.95784">
        <ele>277.2</ele>
        <time>2022-06-29T14:48:01Z</time>
      </trkpt>
      <trkpt lat="47.14423" lon="5.95787">
        <ele>277.2</ele>
        <time>2022-06-29T14:48:02Z</time>
      </trkpt>
      <trkpt lat="47.14426" lon="5.95791">
        <ele>277.2</ele>
        <time>2022-06-29T14:48:03Z</time>
      </trkpt>
      <trkpt lat="47.14429" lon="5.95796">
        <ele>277.2</ele>
        <time>2022-06-29T14:48:04Z</time>
      </trkpt>
      <trkpt lat="47.14433" lon="5.958">
        <ele>277.1</ele>
        <time>2022-06-29T14:48:05Z</time>
      </trkpt>
      <trkpt lat="47.1444" lon="5.95808">
        <ele>277.1</ele>
        <time>2022-06-29T14:48:07Z</time>
      </trkpt>
      <trkpt lat="47.14444" lon="5.95813">
        <ele>277.1</ele>
        <time>2022-06-29T14:48:09Z</time>
      </trkpt>
      <trkpt lat="47.14447" lon="5.95818">
        <ele>277.1</ele>
        <time>2022-06-29T14:48:10Z</time>
      </trkpt>
      <trkpt lat="47.14451" lon="5.95823">
        <ele>277.1</ele>
        <time>2022-06-29T14:48:11Z</time>
      </trkpt>
      <trkpt lat="47.14454" lon="5.95827">
        <ele>277.1</ele>
        <time>2022-06-29T14:48:12Z</time>
      </trkpt>
      <trkpt lat="47.14458" lon="5.95833">
        <ele>277.1</ele>
        <time>2022-06-29T14:48:13Z</time>
      </trkpt>
      <trkpt lat="47.14463" lon="5.95839">
        <ele>277.1</ele>
        <time>2022-06-29T14:48:15Z</time>
      </trkpt>
      <trkpt lat="47.14467" lon="5.95843">
        <ele>277.1</ele>
        <time>2022-06-29T14:48:16Z</time>
      </trkpt>
      <trkpt lat="47.1447" lon="5.95847">
        <ele>277.1</ele>
        <time>2022-06-29T14:48:17Z</time>
      </trkpt>
      <trkpt lat="47.14474" lon="5.95851">
        <ele>277.1</ele>
        <time>2022-06-29T14:48:18Z</time>
      </trkpt>
      <trkpt lat="47.14476" lon="5.95855">
        <ele>277.1</ele>
        <time>2022-06-29T14:48:19Z</time>
      </trkpt>
      <trkpt lat="47.1448" lon="5.9586">
        <ele>277.1</ele>
        <time>2022-06-29T14:48:20Z</time>
      </trkpt>
      <trkpt lat="47.14482" lon="5.95864">
        <ele>277.1</ele>
        <time>2022-06-29T14:48:21Z</time>
      </trkpt>
      <trkpt lat="47.14486" lon="5.95868">
        <ele>277.1</ele>
        <time>2022-06-29T14:48:22Z</time>
      </trkpt>
      <trkpt lat="47.14489" lon="5.95874">
        <ele>277</ele>
        <time>2022-06-29T14:48:23Z</time>
      </trkpt>
      <trkpt lat="47.14493" lon="5.95879">
        <ele>277</ele>
        <time>2022-06-29T14:48:24Z</time>
      </trkpt>
      <trkpt lat="47.14496" lon="5.95883">
        <ele>277</ele>
        <time>2022-06-29T14:48:26Z</time>
      </trkpt>
      <trkpt lat="47.14499" lon="5.95888">
        <ele>277</ele>
        <time>2022-06-29T14:48:27Z</time>
      </trkpt>
      <trkpt lat="47.14503" lon="5.95895">
        <ele>277</ele>
        <time>2022-06-29T14:48:28Z</time>
      </trkpt>
      <trkpt lat="47.14506" lon="5.959">
        <ele>277</ele>
        <time>2022-06-29T14:48:29Z</time>
      </trkpt>
      <trkpt lat="47.14512" lon="5.95908">
        <ele>276.9</ele>
        <time>2022-06-29T14:48:31Z</time>
      </trkpt>
      <trkpt lat="47.14514" lon="5.95913">
        <ele>276.9</ele>
        <time>2022-06-29T14:48:32Z</time>
      </trkpt>
      <trkpt lat="47.14517" lon="5.95917">
        <ele>276.9</ele>
        <time>2022-06-29T14:48:33Z</time>
      </trkpt>
      <trkpt lat="47.14519" lon="5.95923">
        <ele>276.9</ele>
        <time>2022-06-29T14:48:34Z</time>
      </trkpt>
      <trkpt lat="47.14521" lon="5.95928">
        <ele>276.9</ele>
        <time>2022-06-29T14:48:35Z</time>
      </trkpt>
      <trkpt lat="47.14524" lon="5.95934">
        <ele>276.9</ele>
        <time>2022-06-29T14:48:36Z</time>
      </trkpt>
      <trkpt lat="47.14527" lon="5.95939">
        <ele>276.9</ele>
        <time>2022-06-29T14:48:37Z</time>
      </trkpt>
      <trkpt lat="47.1453" lon="5.95945">
        <ele>276.8</ele>
        <time>2022-06-29T14:48:38Z</time>
      </trkpt>
      <trkpt lat="47.14532" lon="5.95951">
        <ele>276.8</ele>
        <time>2022-06-29T14:48:39Z</time>
      </trkpt>
      <trkpt lat="47.14536" lon="5.95957">
        <ele>276.8</ele>
        <time>2022-06-29T14:48:40Z</time>
      </trkpt>
      <trkpt lat="47.14539" lon="5.95963">
        <ele>276.7</ele>
        <time>2022-06-29T14:48:41Z</time>
      </trkpt>
      <trkpt lat="47.14542" lon="5.95968">
        <ele>276.7</ele>
        <time>2022-06-29T14:48:42Z</time>
      </trkpt>
      <trkpt lat="47.14544" lon="5.95972">
        <ele>276.7</ele>
        <time>2022-06-29T14:48:43Z</time>
      </trkpt>
      <trkpt lat="47.14545" lon="5.95972">
        <ele>276.7</ele>
        <time>2022-06-29T14:48:44Z</time>
      </trkpt>
      <trkpt lat="47.14548" lon="5.95979">
        <ele>276.6</ele>
        <time>2022-06-29T14:48:45Z</time>
      </trkpt>
      <trkpt lat="47.14552" lon="5.95984">
        <ele>276.6</ele>
        <time>2022-06-29T14:48:46Z</time>
      </trkpt>
      <trkpt lat="47.14554" lon="5.9599">
        <ele>276.6</ele>
        <time>2022-06-29T14:48:47Z</time>
      </trkpt>
      <trkpt lat="47.14556" lon="5.95996">
        <ele>276.6</ele>
        <time>2022-06-29T14:48:48Z</time>
      </trkpt>
      <trkpt lat="47.14558" lon="5.96002">
        <ele>276.6</ele>
        <time>2022-06-29T14:48:49Z</time>
      </trkpt>
      <trkpt lat="47.14561" lon="5.96008">
        <ele>276.6</ele>
        <time>2022-06-29T14:48:50Z</time>
      </trkpt>
      <trkpt lat="47.14563" lon="5.96012">
        <ele>276.6</ele>
        <time>2022-06-29T14:48:51Z</time>
      </trkpt>
      <trkpt lat="47.14565" lon="5.96015">
        <ele>276.6</ele>
        <time>2022-06-29T14:48:52Z</time>
      </trkpt>
      <trkpt lat="47.14567" lon="5.9602">
        <ele>276.6</ele>
        <time>2022-06-29T14:48:53Z</time>
      </trkpt>
      <trkpt lat="47.1457" lon="5.96027">
        <ele>276.6</ele>
        <time>2022-06-29T14:48:54Z</time>
      </trkpt>
      <trkpt lat="47.14571" lon="5.96035">
        <ele>276.6</ele>
        <time>2022-06-29T14:48:55Z</time>
      </trkpt>
      <trkpt lat="47.14572" lon="5.96042">
        <ele>276.6</ele>
        <time>2022-06-29T14:48:56Z</time>
      </trkpt>
      <trkpt lat="47.14577" lon="5.96051">
        <ele>276.6</ele>
        <time>2022-06-29T14:48:58Z</time>
      </trkpt>
      <trkpt lat="47.1458" lon="5.96057">
        <ele>276.6</ele>
        <time>2022-06-29T14:48:59Z</time>
      </trkpt>
      <trkpt lat="47.14582" lon="5.96061">
        <ele>276.6</ele>
        <time>2022-06-29T14:49:00Z</time>
      </trkpt>
      <trkpt lat="47.14584" lon="5.96067">
        <ele>276.6</ele>
        <time>2022-06-29T14:49:01Z</time>
      </trkpt>
      <trkpt lat="47.14586" lon="5.96073">
        <ele>276.6</ele>
        <time>2022-06-29T14:49:03Z</time>
      </trkpt>
      <trkpt lat="47.14588" lon="5.96078">
        <ele>276.6</ele>
        <time>2022-06-29T14:49:04Z</time>
      </trkpt>
      <trkpt lat="47.14591" lon="5.96086">
        <ele>276.6</ele>
        <time>2022-06-29T14:49:05Z</time>
      </trkpt>
      <trkpt lat="47.14593" lon="5.96091">
        <ele>276.6</ele>
        <time>2022-06-29T14:49:06Z</time>
      </trkpt>
      <trkpt lat="47.14595" lon="5.96096">
        <ele>276.6</ele>
        <time>2022-06-29T14:49:07Z</time>
      </trkpt>
      <trkpt lat="47.14598" lon="5.961">
        <ele>276.6</ele>
        <time>2022-06-29T14:49:08Z</time>
      </trkpt>
      <trkpt lat="47.146" lon="5.96104">
        <ele>276.6</ele>
        <time>2022-06-29T14:49:09Z</time>
      </trkpt>
      <trkpt lat="47.14603" lon="5.96108">
        <ele>276.6</ele>
        <time>2022-06-29T14:49:10Z</time>
      </trkpt>
      <trkpt lat="47.14605" lon="5.96111">
        <ele>276.6</ele>
        <time>2022-06-29T14:49:11Z</time>
      </trkpt>
      <trkpt lat="47.14607" lon="5.96115">
        <ele>276.6</ele>
        <time>2022-06-29T14:49:12Z</time>
      </trkpt>
      <trkpt lat="47.14609" lon="5.9612">
        <ele>276.6</ele>
        <time>2022-06-29T14:49:13Z</time>
      </trkpt>
      <trkpt lat="47.1461" lon="5.96126">
        <ele>276.6</ele>
        <time>2022-06-29T14:49:14Z</time>
      </trkpt>
      <trkpt lat="47.14611" lon="5.96128">
        <ele>276.6</ele>
        <time>2022-06-29T14:49:15Z</time>
      </trkpt>
      <trkpt lat="47.14614" lon="5.96134">
        <ele>276.6</ele>
        <time>2022-06-29T14:49:16Z</time>
      </trkpt>
      <trkpt lat="47.14616" lon="5.96141">
        <ele>276.6</ele>
        <time>2022-06-29T14:49:18Z</time>
      </trkpt>
      <trkpt lat="47.14617" lon="5.96146">
        <ele>276.6</ele>
        <time>2022-06-29T14:49:19Z</time>
      </trkpt>
      <trkpt lat="47.14617" lon="5.96153">
        <ele>276.5</ele>
        <time>2022-06-29T14:49:20Z</time>
      </trkpt>
      <trkpt lat="47.14618" lon="5.96159">
        <ele>276.5</ele>
        <time>2022-06-29T14:49:21Z</time>
      </trkpt>
      <trkpt lat="47.1462" lon="5.96165">
        <ele>276.5</ele>
        <time>2022-06-29T14:49:22Z</time>
      </trkpt>
      <trkpt lat="47.14621" lon="5.96171">
        <ele>276.5</ele>
        <time>2022-06-29T14:49:23Z</time>
      </trkpt>
      <trkpt lat="47.14621" lon="5.96175">
        <ele>276.5</ele>
        <time>2022-06-29T14:49:24Z</time>
      </trkpt>
      <trkpt lat="47.14622" lon="5.9618">
        <ele>276.5</ele>
        <time>2022-06-29T14:49:25Z</time>
      </trkpt>
      <trkpt lat="47.14623" lon="5.96187">
        <ele>276.5</ele>
        <time>2022-06-29T14:49:26Z</time>
      </trkpt>
      <trkpt lat="47.14625" lon="5.96192">
        <ele>276.4</ele>
        <time>2022-06-29T14:49:27Z</time>
      </trkpt>
      <trkpt lat="47.14628" lon="5.96203">
        <ele>276.4</ele>
        <time>2022-06-29T14:49:29Z</time>
      </trkpt>
      <trkpt lat="47.14629" lon="5.96208">
        <ele>276.4</ele>
        <time>2022-06-29T14:49:30Z</time>
      </trkpt>
      <trkpt lat="47.14631" lon="5.96214">
        <ele>276.3</ele>
        <time>2022-06-29T14:49:31Z</time>
      </trkpt>
      <trkpt lat="47.14633" lon="5.96225">
        <ele>276.3</ele>
        <time>2022-06-29T14:49:33Z</time>
      </trkpt>
      <trkpt lat="47.14633" lon="5.96232">
        <ele>276.2</ele>
        <time>2022-06-29T14:49:34Z</time>
      </trkpt>
      <trkpt lat="47.14634" lon="5.96237">
        <ele>276.2</ele>
        <time>2022-06-29T14:49:35Z</time>
      </trkpt>
      <trkpt lat="47.14636" lon="5.96248">
        <ele>276.2</ele>
        <time>2022-06-29T14:49:37Z</time>
      </trkpt>
      <trkpt lat="47.14637" lon="5.96254">
        <ele>276.2</ele>
        <time>2022-06-29T14:49:38Z</time>
      </trkpt>
      <trkpt lat="47.14637" lon="5.96261">
        <ele>276.1</ele>
        <time>2022-06-29T14:49:39Z</time>
      </trkpt>
      <trkpt lat="47.14638" lon="5.96267">
        <ele>276.1</ele>
        <time>2022-06-29T14:49:40Z</time>
      </trkpt>
      <trkpt lat="47.14638" lon="5.96274">
        <ele>276.1</ele>
        <time>2022-06-29T14:49:41Z</time>
      </trkpt>
      <trkpt lat="47.14638" lon="5.96281">
        <ele>276.1</ele>
        <time>2022-06-29T14:49:42Z</time>
      </trkpt>
      <trkpt lat="47.1464" lon="5.96291">
        <ele>276.1</ele>
        <time>2022-06-29T14:49:44Z</time>
      </trkpt>
      <trkpt lat="47.14641" lon="5.96297">
        <ele>276</ele>
        <time>2022-06-29T14:49:45Z</time>
      </trkpt>
      <trkpt lat="47.14641" lon="5.96303">
        <ele>276</ele>
        <time>2022-06-29T14:49:46Z</time>
      </trkpt>
      <trkpt lat="47.14642" lon="5.9631">
        <ele>276</ele>
        <time>2022-06-29T14:49:47Z</time>
      </trkpt>
      <trkpt lat="47.14643" lon="5.96317">
        <ele>276</ele>
        <time>2022-06-29T14:49:48Z</time>
      </trkpt>
      <trkpt lat="47.14644" lon="5.96323">
        <ele>276</ele>
        <time>2022-06-29T14:49:49Z</time>
      </trkpt>
      <trkpt lat="47.14644" lon="5.96328">
        <ele>276</ele>
        <time>2022-06-29T14:49:50Z</time>
      </trkpt>
      <trkpt lat="47.14645" lon="5.96338">
        <ele>276</ele>
        <time>2022-06-29T14:49:51Z</time>
      </trkpt>
      <trkpt lat="47.14646" lon="5.96345">
        <ele>276</ele>
        <time>2022-06-29T14:49:53Z</time>
      </trkpt>
      <trkpt lat="47.14647" lon="5.96353">
        <ele>276</ele>
        <time>2022-06-29T14:49:54Z</time>
      </trkpt>
      <trkpt lat="47.14648" lon="5.9636">
        <ele>276</ele>
        <time>2022-06-29T14:49:55Z</time>
      </trkpt>
      <trkpt lat="47.14649" lon="5.96366">
        <ele>276</ele>
        <time>2022-06-29T14:49:56Z</time>
      </trkpt>
      <trkpt lat="47.1465" lon="5.96373">
        <ele>276</ele>
        <time>2022-06-29T14:49:57Z</time>
      </trkpt>
      <trkpt lat="47.1465" lon="5.96379">
        <ele>276</ele>
        <time>2022-06-29T14:49:58Z</time>
      </trkpt>
      <trkpt lat="47.14651" lon="5.96385">
        <ele>276</ele>
        <time>2022-06-29T14:49:59Z</time>
      </trkpt>
      <trkpt lat="47.14652" lon="5.96392">
        <ele>276</ele>
        <time>2022-06-29T14:50:00Z</time>
      </trkpt>
      <trkpt lat="47.14653" lon="5.96399">
        <ele>276</ele>
        <time>2022-06-29T14:50:01Z</time>
      </trkpt>
      <trkpt lat="47.14656" lon="5.9641">
        <ele>276</ele>
        <time>2022-06-29T14:50:03Z</time>
      </trkpt>
      <trkpt lat="47.14659" lon="5.96418">
        <ele>276</ele>
        <time>2022-06-29T14:50:04Z</time>
      </trkpt>
      <trkpt lat="47.1466" lon="5.96424">
        <ele>276</ele>
        <time>2022-06-29T14:50:05Z</time>
      </trkpt>
      <trkpt lat="47.14664" lon="5.96431">
        <ele>276</ele>
        <time>2022-06-29T14:50:07Z</time>
      </trkpt>
      <trkpt lat="47.14665" lon="5.96436">
        <ele>276</ele>
        <time>2022-06-29T14:50:08Z</time>
      </trkpt>
      <trkpt lat="47.14667" lon="5.96444">
        <ele>276</ele>
        <time>2022-06-29T14:50:09Z</time>
      </trkpt>
      <trkpt lat="47.14669" lon="5.96452">
        <ele>276</ele>
        <time>2022-06-29T14:50:10Z</time>
      </trkpt>
      <trkpt lat="47.14671" lon="5.9646">
        <ele>276</ele>
        <time>2022-06-29T14:50:12Z</time>
      </trkpt>
      <trkpt lat="47.14673" lon="5.96467">
        <ele>276</ele>
        <time>2022-06-29T14:50:13Z</time>
      </trkpt>
      <trkpt lat="47.14676" lon="5.9648">
        <ele>276.1</ele>
        <time>2022-06-29T14:50:15Z</time>
      </trkpt>
      <trkpt lat="47.14677" lon="5.96487">
        <ele>276.1</ele>
        <time>2022-06-29T14:50:16Z</time>
      </trkpt>
      <trkpt lat="47.14679" lon="5.96493">
        <ele>276.2</ele>
        <time>2022-06-29T14:50:17Z</time>
      </trkpt>
      <trkpt lat="47.1468" lon="5.96499">
        <ele>276.2</ele>
        <time>2022-06-29T14:50:18Z</time>
      </trkpt>
      <trkpt lat="47.14682" lon="5.96513">
        <ele>276.3</ele>
        <time>2022-06-29T14:50:20Z</time>
      </trkpt>
      <trkpt lat="47.14684" lon="5.96522">
        <ele>276.3</ele>
        <time>2022-06-29T14:50:21Z</time>
      </trkpt>
      <trkpt lat="47.14685" lon="5.96527">
        <ele>276.3</ele>
        <time>2022-06-29T14:50:22Z</time>
      </trkpt>
      <trkpt lat="47.14686" lon="5.96531">
        <ele>276.4</ele>
        <time>2022-06-29T14:50:23Z</time>
      </trkpt>
      <trkpt lat="47.14688" lon="5.96535">
        <ele>276.4</ele>
        <time>2022-06-29T14:50:24Z</time>
      </trkpt>
      <trkpt lat="47.1469" lon="5.96539">
        <ele>276.4</ele>
        <time>2022-06-29T14:50:25Z</time>
      </trkpt>
      <trkpt lat="47.14693" lon="5.96544">
        <ele>276.4</ele>
        <time>2022-06-29T14:50:26Z</time>
      </trkpt>
      <trkpt lat="47.14695" lon="5.96549">
        <ele>276.4</ele>
        <time>2022-06-29T14:50:27Z</time>
      </trkpt>
      <trkpt lat="47.14698" lon="5.96554">
        <ele>276.4</ele>
        <time>2022-06-29T14:50:28Z</time>
      </trkpt>
      <trkpt lat="47.14703" lon="5.96562">
        <ele>276.5</ele>
        <time>2022-06-29T14:50:30Z</time>
      </trkpt>
      <trkpt lat="47.14706" lon="5.96567">
        <ele>276.5</ele>
        <time>2022-06-29T14:50:31Z</time>
      </trkpt>
      <trkpt lat="47.14709" lon="5.96571">
        <ele>276.5</ele>
        <time>2022-06-29T14:50:32Z</time>
      </trkpt>
      <trkpt lat="47.14717" lon="5.96579">
        <ele>276.5</ele>
        <time>2022-06-29T14:50:34Z</time>
      </trkpt>
      <trkpt lat="47.1472" lon="5.96584">
        <ele>276.4</ele>
        <time>2022-06-29T14:50:35Z</time>
      </trkpt>
      <trkpt lat="47.14723" lon="5.96592">
        <ele>276.4</ele>
        <time>2022-06-29T14:50:37Z</time>
      </trkpt>
      <trkpt lat="47.14727" lon="5.96596">
        <ele>276.4</ele>
        <time>2022-06-29T14:50:38Z</time>
      </trkpt>
      <trkpt lat="47.14734" lon="5.96603">
        <ele>276.3</ele>
        <time>2022-06-29T14:50:40Z</time>
      </trkpt>
      <trkpt lat="47.14737" lon="5.96607">
        <ele>276.3</ele>
        <time>2022-06-29T14:50:41Z</time>
      </trkpt>
      <trkpt lat="47.1474" lon="5.96611">
        <ele>276.3</ele>
        <time>2022-06-29T14:50:42Z</time>
      </trkpt>
      <trkpt lat="47.14746" lon="5.96617">
        <ele>276.3</ele>
        <time>2022-06-29T14:50:43Z</time>
      </trkpt>
      <trkpt lat="47.1475" lon="5.9662">
        <ele>276.3</ele>
        <time>2022-06-29T14:50:45Z</time>
      </trkpt>
      <trkpt lat="47.14754" lon="5.96623">
        <ele>276.3</ele>
        <time>2022-06-29T14:50:46Z</time>
      </trkpt>
      <trkpt lat="47.14758" lon="5.96627">
        <ele>276.3</ele>
        <time>2022-06-29T14:50:47Z</time>
      </trkpt>
      <trkpt lat="47.14762" lon="5.96631">
        <ele>276.3</ele>
        <time>2022-06-29T14:50:48Z</time>
      </trkpt>
      <trkpt lat="47.14765" lon="5.96633">
        <ele>276.3</ele>
        <time>2022-06-29T14:50:49Z</time>
      </trkpt>
      <trkpt lat="47.14769" lon="5.96637">
        <ele>276.3</ele>
        <time>2022-06-29T14:50:50Z</time>
      </trkpt>
      <trkpt lat="47.14772" lon="5.96639">
        <ele>276.3</ele>
        <time>2022-06-29T14:50:51Z</time>
      </trkpt>
      <trkpt lat="47.14776" lon="5.96642">
        <ele>276.3</ele>
        <time>2022-06-29T14:50:52Z</time>
      </trkpt>
      <trkpt lat="47.14779" lon="5.96644">
        <ele>276.3</ele>
        <time>2022-06-29T14:50:53Z</time>
      </trkpt>
      <trkpt lat="47.14787" lon="5.96652">
        <ele>276.3</ele>
        <time>2022-06-29T14:50:55Z</time>
      </trkpt>
      <trkpt lat="47.14791" lon="5.96657">
        <ele>276.4</ele>
        <time>2022-06-29T14:50:56Z</time>
      </trkpt>
      <trkpt lat="47.14794" lon="5.96659">
        <ele>276.4</ele>
        <time>2022-06-29T14:50:57Z</time>
      </trkpt>
      <trkpt lat="47.14797" lon="5.96661">
        <ele>276.4</ele>
        <time>2022-06-29T14:50:58Z</time>
      </trkpt>
      <trkpt lat="47.14801" lon="5.96664">
        <ele>276.5</ele>
        <time>2022-06-29T14:50:59Z</time>
      </trkpt>
      <trkpt lat="47.14804" lon="5.96666">
        <ele>276.5</ele>
        <time>2022-06-29T14:51:00Z</time>
      </trkpt>
      <trkpt lat="47.1481" lon="5.96668">
        <ele>276.6</ele>
        <time>2022-06-29T14:51:01Z</time>
      </trkpt>
      <trkpt lat="47.14815" lon="5.96671">
        <ele>276.7</ele>
        <time>2022-06-29T14:51:03Z</time>
      </trkpt>
      <trkpt lat="47.14821" lon="5.96674">
        <ele>276.7</ele>
        <time>2022-06-29T14:51:04Z</time>
      </trkpt>
      <trkpt lat="47.14825" lon="5.96676">
        <ele>276.7</ele>
        <time>2022-06-29T14:51:05Z</time>
      </trkpt>
      <trkpt lat="47.14829" lon="5.96677">
        <ele>276.8</ele>
        <time>2022-06-29T14:51:06Z</time>
      </trkpt>
      <trkpt lat="47.14834" lon="5.96677">
        <ele>276.8</ele>
        <time>2022-06-29T14:51:08Z</time>
      </trkpt>
      <trkpt lat="47.14838" lon="5.96678">
        <ele>276.8</ele>
        <time>2022-06-29T14:51:09Z</time>
      </trkpt>
      <trkpt lat="47.1484" lon="5.96681">
        <ele>276.8</ele>
        <time>2022-06-29T14:51:10Z</time>
      </trkpt>
      <trkpt lat="47.14845" lon="5.96683">
        <ele>276.7</ele>
        <time>2022-06-29T14:51:11Z</time>
      </trkpt>
      <trkpt lat="47.14849" lon="5.96684">
        <ele>276.7</ele>
        <time>2022-06-29T14:51:12Z</time>
      </trkpt>
      <trkpt lat="47.14854" lon="5.96687">
        <ele>276.7</ele>
        <time>2022-06-29T14:51:14Z</time>
      </trkpt>
      <trkpt lat="47.14857" lon="5.96688">
        <ele>276.7</ele>
        <time>2022-06-29T14:51:15Z</time>
      </trkpt>
      <trkpt lat="47.14859" lon="5.96688">
        <ele>276.7</ele>
        <time>2022-06-29T14:51:16Z</time>
      </trkpt>
      <trkpt lat="47.1486" lon="5.96685">
        <ele>276.7</ele>
        <time>2022-06-29T14:51:18Z</time>
      </trkpt>
      <trkpt lat="47.14859" lon="5.96685">
        <ele>276.7</ele>
        <time>2022-06-29T14:51:19Z</time>
      </trkpt>
      <trkpt lat="47.14858" lon="5.96684">
        <ele>276.7</ele>
        <time>2022-06-29T14:51:20Z</time>
      </trkpt>
      <trkpt lat="47.14857" lon="5.96684">
        <ele>276.7</ele>
        <time>2022-06-29T14:51:21Z</time>
      </trkpt>
      <trkpt lat="47.14857" lon="5.96683">
        <ele>276.7</ele>
        <time>2022-06-29T14:51:22Z</time>
      </trkpt>
      <trkpt lat="47.14857" lon="5.96683">
        <ele>276.7</ele>
        <time>2022-06-29T14:51:23Z</time>
      </trkpt>
      <trkpt lat="47.14858" lon="5.96683">
        <ele>276.7</ele>
        <time>2022-06-29T14:51:24Z</time>
      </trkpt>
      <trkpt lat="47.14858" lon="5.96683">
        <ele>276.7</ele>
        <time>2022-06-29T14:51:25Z</time>
      </trkpt>
      <trkpt lat="47.14858" lon="5.96683">
        <ele>276.7</ele>
        <time>2022-06-29T14:51:26Z</time>
      </trkpt>
      <trkpt lat="47.14858" lon="5.96683">
        <ele>276.7</ele>
        <time>2022-06-29T14:51:27Z</time>
      </trkpt>
      <trkpt lat="47.14858" lon="5.96683">
        <ele>276.7</ele>
        <time>2022-06-29T14:51:28Z</time>
      </trkpt>
      <trkpt lat="47.14858" lon="5.96683">
        <ele>276.7</ele>
        <time>2022-06-29T14:51:29Z</time>
      </trkpt>
      <trkpt lat="47.14857" lon="5.96683">
        <ele>276.7</ele>
        <time>2022-06-29T14:51:30Z</time>
      </trkpt>
      <trkpt lat="47.14861" lon="5.96686">
        <ele>276.7</ele>
        <time>2022-06-29T14:51:50Z</time>
      </trkpt>
      <trkpt lat="47.14863" lon="5.96685">
        <ele>276.7</ele>
        <time>2022-06-29T14:51:51Z</time>
      </trkpt>
      <trkpt lat="47.14866" lon="5.96687">
        <ele>276.7</ele>
        <time>2022-06-29T14:51:53Z</time>
      </trkpt>
      <trkpt lat="47.14869" lon="5.96688">
        <ele>276.7</ele>
        <time>2022-06-29T14:51:54Z</time>
      </trkpt>
      <trkpt lat="47.14871" lon="5.96688">
        <ele>276.8</ele>
        <time>2022-06-29T14:51:55Z</time>
      </trkpt>
      <trkpt lat="47.14875" lon="5.96689">
        <ele>276.8</ele>
        <time>2022-06-29T14:51:56Z</time>
      </trkpt>
      <trkpt lat="47.14876" lon="5.96689">
        <ele>276.8</ele>
        <time>2022-06-29T14:51:57Z</time>
      </trkpt>
      <trkpt lat="47.14881" lon="5.9669">
        <ele>276.9</ele>
        <time>2022-06-29T14:51:58Z</time>
      </trkpt>
      <trkpt lat="47.14882" lon="5.9669">
        <ele>276.9</ele>
        <time>2022-06-29T14:51:59Z</time>
      </trkpt>
      <trkpt lat="47.14886" lon="5.96689">
        <ele>276.9</ele>
        <time>2022-06-29T14:52:00Z</time>
      </trkpt>
      <trkpt lat="47.1489" lon="5.96688">
        <ele>277</ele>
        <time>2022-06-29T14:52:01Z</time>
      </trkpt>
      <trkpt lat="47.14892" lon="5.96688">
        <ele>277</ele>
        <time>2022-06-29T14:52:02Z</time>
      </trkpt>
      <trkpt lat="47.14895" lon="5.96688">
        <ele>277.1</ele>
        <time>2022-06-29T14:52:03Z</time>
      </trkpt>
      <trkpt lat="47.14899" lon="5.96688">
        <ele>277.1</ele>
        <time>2022-06-29T14:52:04Z</time>
      </trkpt>
      <trkpt lat="47.14902" lon="5.96688">
        <ele>277.1</ele>
        <time>2022-06-29T14:52:05Z</time>
      </trkpt>
      <trkpt lat="47.14905" lon="5.96688">
        <ele>277.2</ele>
        <time>2022-06-29T14:52:06Z</time>
      </trkpt>
      <trkpt lat="47.14909" lon="5.96687">
        <ele>277.2</ele>
        <time>2022-06-29T14:52:07Z</time>
      </trkpt>
      <trkpt lat="47.14912" lon="5.96687">
        <ele>277.3</ele>
        <time>2022-06-29T14:52:08Z</time>
      </trkpt>
      <trkpt lat="47.14915" lon="5.96685">
        <ele>277.3</ele>
        <time>2022-06-29T14:52:09Z</time>
      </trkpt>
      <trkpt lat="47.14918" lon="5.96683">
        <ele>277.3</ele>
        <time>2022-06-29T14:52:10Z</time>
      </trkpt>
      <trkpt lat="47.14921" lon="5.96681">
        <ele>277.3</ele>
        <time>2022-06-29T14:52:11Z</time>
      </trkpt>
      <trkpt lat="47.14924" lon="5.9668">
        <ele>277.3</ele>
        <time>2022-06-29T14:52:12Z</time>
      </trkpt>
      <trkpt lat="47.14928" lon="5.96678">
        <ele>277.3</ele>
        <time>2022-06-29T14:52:13Z</time>
      </trkpt>
      <trkpt lat="47.14931" lon="5.96677">
        <ele>277.2</ele>
        <time>2022-06-29T14:52:14Z</time>
      </trkpt>
      <trkpt lat="47.14934" lon="5.96675">
        <ele>277.2</ele>
        <time>2022-06-29T14:52:15Z</time>
      </trkpt>
      <trkpt lat="47.14937" lon="5.96673">
        <ele>277.2</ele>
        <time>2022-06-29T14:52:16Z</time>
      </trkpt>
      <trkpt lat="47.14941" lon="5.96669">
        <ele>277.1</ele>
        <time>2022-06-29T14:52:17Z</time>
      </trkpt>
      <trkpt lat="47.14949" lon="5.96663">
        <ele>277</ele>
        <time>2022-06-29T14:52:19Z</time>
      </trkpt>
      <trkpt lat="47.14953" lon="5.96661">
        <ele>276.9</ele>
        <time>2022-06-29T14:52:20Z</time>
      </trkpt>
      <trkpt lat="47.14957" lon="5.96658">
        <ele>276.8</ele>
        <time>2022-06-29T14:52:21Z</time>
      </trkpt>
      <trkpt lat="47.14961" lon="5.96653">
        <ele>276.7</ele>
        <time>2022-06-29T14:52:22Z</time>
      </trkpt>
      <trkpt lat="47.14966" lon="5.96649">
        <ele>276.6</ele>
        <time>2022-06-29T14:52:23Z</time>
      </trkpt>
      <trkpt lat="47.1497" lon="5.96645">
        <ele>276.5</ele>
        <time>2022-06-29T14:52:24Z</time>
      </trkpt>
      <trkpt lat="47.14974" lon="5.96642">
        <ele>276.5</ele>
        <time>2022-06-29T14:52:25Z</time>
      </trkpt>
      <trkpt lat="47.14977" lon="5.96638">
        <ele>276.4</ele>
        <time>2022-06-29T14:52:26Z</time>
      </trkpt>
      <trkpt lat="47.14981" lon="5.96633">
        <ele>276.3</ele>
        <time>2022-06-29T14:52:27Z</time>
      </trkpt>
      <trkpt lat="47.14984" lon="5.96629">
        <ele>276.2</ele>
        <time>2022-06-29T14:52:28Z</time>
      </trkpt>
      <trkpt lat="47.14987" lon="5.96625">
        <ele>276.2</ele>
        <time>2022-06-29T14:52:29Z</time>
      </trkpt>
      <trkpt lat="47.1499" lon="5.96618">
        <ele>276.1</ele>
        <time>2022-06-29T14:52:30Z</time>
      </trkpt>
      <trkpt lat="47.14993" lon="5.96614">
        <ele>276.1</ele>
        <time>2022-06-29T14:52:32Z</time>
      </trkpt>
      <trkpt lat="47.14995" lon="5.96611">
        <ele>276</ele>
        <time>2022-06-29T14:52:33Z</time>
      </trkpt>
      <trkpt lat="47.15" lon="5.96605">
        <ele>275.9</ele>
        <time>2022-06-29T14:52:34Z</time>
      </trkpt>
      <trkpt lat="47.15003" lon="5.96601">
        <ele>275.9</ele>
        <time>2022-06-29T14:52:35Z</time>
      </trkpt>
      <trkpt lat="47.15006" lon="5.96598">
        <ele>275.8</ele>
        <time>2022-06-29T14:52:36Z</time>
      </trkpt>
      <trkpt lat="47.15009" lon="5.96595">
        <ele>275.8</ele>
        <time>2022-06-29T14:52:37Z</time>
      </trkpt>
      <trkpt lat="47.15012" lon="5.96591">
        <ele>275.7</ele>
        <time>2022-06-29T14:52:38Z</time>
      </trkpt>
      <trkpt lat="47.15017" lon="5.96584">
        <ele>275.6</ele>
        <time>2022-06-29T14:52:40Z</time>
      </trkpt>
      <trkpt lat="47.15021" lon="5.96578">
        <ele>275.6</ele>
        <time>2022-06-29T14:52:41Z</time>
      </trkpt>
      <trkpt lat="47.15024" lon="5.96573">
        <ele>275.5</ele>
        <time>2022-06-29T14:52:42Z</time>
      </trkpt>
      <trkpt lat="47.15027" lon="5.96569">
        <ele>275.5</ele>
        <time>2022-06-29T14:52:43Z</time>
      </trkpt>
      <trkpt lat="47.1503" lon="5.96562">
        <ele>275.4</ele>
        <time>2022-06-29T14:52:45Z</time>
      </trkpt>
      <trkpt lat="47.15034" lon="5.96554">
        <ele>275.3</ele>
        <time>2022-06-29T14:52:46Z</time>
      </trkpt>
      <trkpt lat="47.15038" lon="5.96549">
        <ele>275.3</ele>
        <time>2022-06-29T14:52:47Z</time>
      </trkpt>
      <trkpt lat="47.15042" lon="5.96543">
        <ele>275.2</ele>
        <time>2022-06-29T14:52:48Z</time>
      </trkpt>
      <trkpt lat="47.15045" lon="5.96538">
        <ele>275.2</ele>
        <time>2022-06-29T14:52:49Z</time>
      </trkpt>
      <trkpt lat="47.15047" lon="5.96533">
        <ele>275.2</ele>
        <time>2022-06-29T14:52:50Z</time>
      </trkpt>
      <trkpt lat="47.1505" lon="5.96527">
        <ele>275.2</ele>
        <time>2022-06-29T14:52:51Z</time>
      </trkpt>
      <trkpt lat="47.15052" lon="5.96521">
        <ele>275.2</ele>
        <time>2022-06-29T14:52:52Z</time>
      </trkpt>
      <trkpt lat="47.15054" lon="5.96516">
        <ele>275.2</ele>
        <time>2022-06-29T14:52:53Z</time>
      </trkpt>
      <trkpt lat="47.15057" lon="5.96511">
        <ele>275.2</ele>
        <time>2022-06-29T14:52:54Z</time>
      </trkpt>
      <trkpt lat="47.15059" lon="5.96506">
        <ele>275.1</ele>
        <time>2022-06-29T14:52:55Z</time>
      </trkpt>
      <trkpt lat="47.15061" lon="5.96502">
        <ele>275.1</ele>
        <time>2022-06-29T14:52:56Z</time>
      </trkpt>
      <trkpt lat="47.15065" lon="5.96492">
        <ele>275.1</ele>
        <time>2022-06-29T14:52:58Z</time>
      </trkpt>
      <trkpt lat="47.15067" lon="5.96483">
        <ele>275.1</ele>
        <time>2022-06-29T14:52:59Z</time>
      </trkpt>
      <trkpt lat="47.1507" lon="5.96479">
        <ele>275.1</ele>
        <time>2022-06-29T14:53:00Z</time>
      </trkpt>
      <trkpt lat="47.15072" lon="5.96473">
        <ele>275.1</ele>
        <time>2022-06-29T14:53:01Z</time>
      </trkpt>
      <trkpt lat="47.15075" lon="5.96468">
        <ele>275.1</ele>
        <time>2022-06-29T14:53:02Z</time>
      </trkpt>
      <trkpt lat="47.15076" lon="5.96463">
        <ele>275.1</ele>
        <time>2022-06-29T14:53:03Z</time>
      </trkpt>
      <trkpt lat="47.15079" lon="5.96458">
        <ele>275.1</ele>
        <time>2022-06-29T14:53:04Z</time>
      </trkpt>
      <trkpt lat="47.15084" lon="5.96448">
        <ele>275.1</ele>
        <time>2022-06-29T14:53:06Z</time>
      </trkpt>
      <trkpt lat="47.15087" lon="5.96441">
        <ele>275.1</ele>
        <time>2022-06-29T14:53:07Z</time>
      </trkpt>
      <trkpt lat="47.15089" lon="5.96437">
        <ele>275.1</ele>
        <time>2022-06-29T14:53:08Z</time>
      </trkpt>
      <trkpt lat="47.15091" lon="5.96431">
        <ele>275.1</ele>
        <time>2022-06-29T14:53:09Z</time>
      </trkpt>
      <trkpt lat="47.15093" lon="5.96426">
        <ele>275.1</ele>
        <time>2022-06-29T14:53:10Z</time>
      </trkpt>
      <trkpt lat="47.15096" lon="5.9642">
        <ele>275.1</ele>
        <time>2022-06-29T14:53:11Z</time>
      </trkpt>
      <trkpt lat="47.15099" lon="5.9641">
        <ele>275.1</ele>
        <time>2022-06-29T14:53:13Z</time>
      </trkpt>
      <trkpt lat="47.15102" lon="5.96405">
        <ele>275.1</ele>
        <time>2022-06-29T14:53:14Z</time>
      </trkpt>
      <trkpt lat="47.15104" lon="5.96399">
        <ele>275.1</ele>
        <time>2022-06-29T14:53:15Z</time>
      </trkpt>
      <trkpt lat="47.15106" lon="5.96394">
        <ele>275.1</ele>
        <time>2022-06-29T14:53:16Z</time>
      </trkpt>
      <trkpt lat="47.15108" lon="5.96389">
        <ele>275.1</ele>
        <time>2022-06-29T14:53:17Z</time>
      </trkpt>
      <trkpt lat="47.1511" lon="5.96383">
        <ele>275.1</ele>
        <time>2022-06-29T14:53:18Z</time>
      </trkpt>
      <trkpt lat="47.15112" lon="5.96377">
        <ele>275.1</ele>
        <time>2022-06-29T14:53:19Z</time>
      </trkpt>
      <trkpt lat="47.15113" lon="5.96373">
        <ele>275.1</ele>
        <time>2022-06-29T14:53:20Z</time>
      </trkpt>
      <trkpt lat="47.15114" lon="5.96368">
        <ele>275.1</ele>
        <time>2022-06-29T14:53:21Z</time>
      </trkpt>
      <trkpt lat="47.15117" lon="5.96358">
        <ele>275.2</ele>
        <time>2022-06-29T14:53:23Z</time>
      </trkpt>
      <trkpt lat="47.15118" lon="5.96353">
        <ele>275.2</ele>
        <time>2022-06-29T14:53:24Z</time>
      </trkpt>
      <trkpt lat="47.1512" lon="5.96347">
        <ele>275.2</ele>
        <time>2022-06-29T14:53:25Z</time>
      </trkpt>
      <trkpt lat="47.15122" lon="5.96338">
        <ele>275.2</ele>
        <time>2022-06-29T14:53:27Z</time>
      </trkpt>
      <trkpt lat="47.15124" lon="5.96332">
        <ele>275.2</ele>
        <time>2022-06-29T14:53:28Z</time>
      </trkpt>
      <trkpt lat="47.15125" lon="5.96328">
        <ele>275.2</ele>
        <time>2022-06-29T14:53:29Z</time>
      </trkpt>
      <trkpt lat="47.1513" lon="5.96321">
        <ele>275.1</ele>
        <time>2022-06-29T14:53:31Z</time>
      </trkpt>
      <trkpt lat="47.15134" lon="5.96317">
        <ele>275</ele>
        <time>2022-06-29T14:53:32Z</time>
      </trkpt>
      <trkpt lat="47.15139" lon="5.96317">
        <ele>275</ele>
        <time>2022-06-29T14:53:33Z</time>
      </trkpt>
      <trkpt lat="47.15147" lon="5.96316">
        <ele>275.1</ele>
        <time>2022-06-29T14:53:35Z</time>
      </trkpt>
      <trkpt lat="47.15151" lon="5.96314">
        <ele>275.2</ele>
        <time>2022-06-29T14:53:36Z</time>
      </trkpt>
      <trkpt lat="47.15155" lon="5.96312">
        <ele>275.3</ele>
        <time>2022-06-29T14:53:37Z</time>
      </trkpt>
      <trkpt lat="47.15158" lon="5.9631">
        <ele>275.3</ele>
        <time>2022-06-29T14:53:38Z</time>
      </trkpt>
      <trkpt lat="47.15162" lon="5.96306">
        <ele>275.4</ele>
        <time>2022-06-29T14:53:40Z</time>
      </trkpt>
      <trkpt lat="47.15166" lon="5.96302">
        <ele>275.5</ele>
        <time>2022-06-29T14:53:41Z</time>
      </trkpt>
      <trkpt lat="47.15169" lon="5.96298">
        <ele>275.6</ele>
        <time>2022-06-29T14:53:42Z</time>
      </trkpt>
      <trkpt lat="47.15172" lon="5.96293">
        <ele>275.8</ele>
        <time>2022-06-29T14:53:43Z</time>
      </trkpt>
      <trkpt lat="47.15176" lon="5.9629">
        <ele>276</ele>
        <time>2022-06-29T14:53:45Z</time>
      </trkpt>
      <trkpt lat="47.15179" lon="5.96286">
        <ele>276.1</ele>
        <time>2022-06-29T14:53:46Z</time>
      </trkpt>
      <trkpt lat="47.15183" lon="5.9628">
        <ele>276.4</ele>
        <time>2022-06-29T14:53:48Z</time>
      </trkpt>
      <trkpt lat="47.15185" lon="5.96276">
        <ele>276.6</ele>
        <time>2022-06-29T14:53:49Z</time>
      </trkpt>
      <trkpt lat="47.15188" lon="5.96274">
        <ele>276.8</ele>
        <time>2022-06-29T14:53:50Z</time>
      </trkpt>
      <trkpt lat="47.15192" lon="5.96272">
        <ele>277.1</ele>
        <time>2022-06-29T14:53:51Z</time>
      </trkpt>
      <trkpt lat="47.15196" lon="5.96267">
        <ele>277.5</ele>
        <time>2022-06-29T14:53:53Z</time>
      </trkpt>
      <trkpt lat="47.15197" lon="5.96266">
        <ele>277.6</ele>
        <time>2022-06-29T14:53:54Z</time>
      </trkpt>
      <trkpt lat="47.15198" lon="5.96264">
        <ele>277.7</ele>
        <time>2022-06-29T14:53:55Z</time>
      </trkpt>
      <trkpt lat="47.15201" lon="5.96262">
        <ele>278</ele>
        <time>2022-06-29T14:53:56Z</time>
      </trkpt>
      <trkpt lat="47.15201" lon="5.96261">
        <ele>278.1</ele>
        <time>2022-06-29T14:53:57Z</time>
      </trkpt>
      <trkpt lat="47.15204" lon="5.96257">
        <ele>278.5</ele>
        <time>2022-06-29T14:53:58Z</time>
      </trkpt>
      <trkpt lat="47.15205" lon="5.96256">
        <ele>278.6</ele>
        <time>2022-06-29T14:53:59Z</time>
      </trkpt>
      <trkpt lat="47.15208" lon="5.96253">
        <ele>279</ele>
        <time>2022-06-29T14:54:01Z</time>
      </trkpt>
      <trkpt lat="47.1521" lon="5.96251">
        <ele>279.3</ele>
        <time>2022-06-29T14:54:02Z</time>
      </trkpt>
      <trkpt lat="47.15211" lon="5.9625">
        <ele>279.4</ele>
        <time>2022-06-29T14:54:03Z</time>
      </trkpt>
      <trkpt lat="47.15212" lon="5.96248">
        <ele>279.6</ele>
        <time>2022-06-29T14:54:04Z</time>
      </trkpt>
      <trkpt lat="47.15212" lon="5.96245">
        <ele>279.7</ele>
        <time>2022-06-29T14:54:05Z</time>
      </trkpt>
      <trkpt lat="47.15213" lon="5.96241">
        <ele>280.1</ele>
        <time>2022-06-29T14:54:06Z</time>
      </trkpt>
      <trkpt lat="47.15214" lon="5.96239">
        <ele>280.2</ele>
        <time>2022-06-29T14:54:07Z</time>
      </trkpt>
      <trkpt lat="47.15215" lon="5.96237">
        <ele>280.4</ele>
        <time>2022-06-29T14:54:08Z</time>
      </trkpt>
      <trkpt lat="47.15215" lon="5.96235">
        <ele>280.5</ele>
        <time>2022-06-29T14:54:09Z</time>
      </trkpt>
      <trkpt lat="47.15215" lon="5.96233">
        <ele>280.7</ele>
        <time>2022-06-29T14:54:10Z</time>
      </trkpt>
      <trkpt lat="47.15216" lon="5.9623">
        <ele>280.9</ele>
        <time>2022-06-29T14:54:11Z</time>
      </trkpt>
      <trkpt lat="47.15218" lon="5.96224">
        <ele>281.4</ele>
        <time>2022-06-29T14:54:13Z</time>
      </trkpt>
      <trkpt lat="47.15218" lon="5.96222">
        <ele>281.5</ele>
        <time>2022-06-29T14:54:14Z</time>
      </trkpt>
      <trkpt lat="47.15219" lon="5.9622">
        <ele>281.7</ele>
        <time>2022-06-29T14:54:15Z</time>
      </trkpt>
      <trkpt lat="47.1522" lon="5.96217">
        <ele>281.8</ele>
        <time>2022-06-29T14:54:16Z</time>
      </trkpt>
      <trkpt lat="47.1522" lon="5.96215">
        <ele>282</ele>
        <time>2022-06-29T14:54:17Z</time>
      </trkpt>
      <trkpt lat="47.15221" lon="5.96211">
        <ele>282.3</ele>
        <time>2022-06-29T14:54:18Z</time>
      </trkpt>
      <trkpt lat="47.15222" lon="5.9621">
        <ele>282.3</ele>
        <time>2022-06-29T14:54:19Z</time>
      </trkpt>
      <trkpt lat="47.15224" lon="5.96206">
        <ele>282.7</ele>
        <time>2022-06-29T14:54:21Z</time>
      </trkpt>
      <trkpt lat="47.15225" lon="5.96205">
        <ele>282.7</ele>
        <time>2022-06-29T14:54:22Z</time>
      </trkpt>
      <trkpt lat="47.15226" lon="5.96202">
        <ele>283</ele>
        <time>2022-06-29T14:54:23Z</time>
      </trkpt>
      <trkpt lat="47.15227" lon="5.962">
        <ele>283.2</ele>
        <time>2022-06-29T14:54:24Z</time>
      </trkpt>
      <trkpt lat="47.15229" lon="5.96195">
        <ele>283.5</ele>
        <time>2022-06-29T14:54:26Z</time>
      </trkpt>
      <trkpt lat="47.15231" lon="5.96191">
        <ele>283.8</ele>
        <time>2022-06-29T14:54:27Z</time>
      </trkpt>
      <trkpt lat="47.15232" lon="5.9619">
        <ele>284</ele>
        <time>2022-06-29T14:54:28Z</time>
      </trkpt>
      <trkpt lat="47.15234" lon="5.96185">
        <ele>284.3</ele>
        <time>2022-06-29T14:54:30Z</time>
      </trkpt>
      <trkpt lat="47.15234" lon="5.96183">
        <ele>284.5</ele>
        <time>2022-06-29T14:54:31Z</time>
      </trkpt>
      <trkpt lat="47.15236" lon="5.96179">
        <ele>284.7</ele>
        <time>2022-06-29T14:54:32Z</time>
      </trkpt>
      <trkpt lat="47.15238" lon="5.96176">
        <ele>285</ele>
        <time>2022-06-29T14:54:34Z</time>
      </trkpt>
      <trkpt lat="47.15239" lon="5.96175">
        <ele>285.1</ele>
        <time>2022-06-29T14:54:35Z</time>
      </trkpt>
      <trkpt lat="47.15241" lon="5.96171">
        <ele>285.4</ele>
        <time>2022-06-29T14:54:36Z</time>
      </trkpt>
      <trkpt lat="47.15241" lon="5.9617">
        <ele>285.5</ele>
        <time>2022-06-29T14:54:37Z</time>
      </trkpt>
      <trkpt lat="47.15242" lon="5.96166">
        <ele>285.8</ele>
        <time>2022-06-29T14:54:38Z</time>
      </trkpt>
      <trkpt lat="47.15243" lon="5.96165">
        <ele>285.8</ele>
        <time>2022-06-29T14:54:39Z</time>
      </trkpt>
      <trkpt lat="47.15243" lon="5.9616">
        <ele>286.1</ele>
        <time>2022-06-29T14:54:40Z</time>
      </trkpt>
      <trkpt lat="47.15243" lon="5.96159">
        <ele>286.2</ele>
        <time>2022-06-29T14:54:41Z</time>
      </trkpt>
      <trkpt lat="47.15244" lon="5.96154">
        <ele>286.5</ele>
        <time>2022-06-29T14:54:42Z</time>
      </trkpt>
      <trkpt lat="47.15244" lon="5.96153">
        <ele>286.6</ele>
        <time>2022-06-29T14:54:43Z</time>
      </trkpt>
      <trkpt lat="47.15245" lon="5.96148">
        <ele>287</ele>
        <time>2022-06-29T14:54:45Z</time>
      </trkpt>
      <trkpt lat="47.15245" lon="5.96147">
        <ele>287.1</ele>
        <time>2022-06-29T14:54:46Z</time>
      </trkpt>
      <trkpt lat="47.15244" lon="5.96144">
        <ele>287.2</ele>
        <time>2022-06-29T14:54:47Z</time>
      </trkpt>
      <trkpt lat="47.15245" lon="5.96141">
        <ele>287.5</ele>
        <time>2022-06-29T14:54:49Z</time>
      </trkpt>
      <trkpt lat="47.15246" lon="5.96137">
        <ele>287.8</ele>
        <time>2022-06-29T14:54:50Z</time>
      </trkpt>
      <trkpt lat="47.15246" lon="5.96135">
        <ele>287.9</ele>
        <time>2022-06-29T14:54:51Z</time>
      </trkpt>
      <trkpt lat="47.15247" lon="5.96131">
        <ele>288.3</ele>
        <time>2022-06-29T14:54:53Z</time>
      </trkpt>
      <trkpt lat="47.15248" lon="5.96129">
        <ele>288.4</ele>
        <time>2022-06-29T14:54:54Z</time>
      </trkpt>
      <trkpt lat="47.15248" lon="5.96127">
        <ele>288.6</ele>
        <time>2022-06-29T14:54:55Z</time>
      </trkpt>
      <trkpt lat="47.15249" lon="5.96123">
        <ele>288.9</ele>
        <time>2022-06-29T14:54:57Z</time>
      </trkpt>
      <trkpt lat="47.15249" lon="5.96119">
        <ele>289.2</ele>
        <time>2022-06-29T14:54:58Z</time>
      </trkpt>
      <trkpt lat="47.15249" lon="5.96117">
        <ele>289.3</ele>
        <time>2022-06-29T14:54:59Z</time>
      </trkpt>
      <trkpt lat="47.15249" lon="5.96114">
        <ele>289.5</ele>
        <time>2022-06-29T14:55:00Z</time>
      </trkpt>
      <trkpt lat="47.1525" lon="5.9611">
        <ele>289.9</ele>
        <time>2022-06-29T14:55:02Z</time>
      </trkpt>
      <trkpt lat="47.15251" lon="5.96106">
        <ele>290.2</ele>
        <time>2022-06-29T14:55:03Z</time>
      </trkpt>
      <trkpt lat="47.15251" lon="5.96104">
        <ele>290.3</ele>
        <time>2022-06-29T14:55:04Z</time>
      </trkpt>
      <trkpt lat="47.15252" lon="5.96099">
        <ele>290.7</ele>
        <time>2022-06-29T14:55:06Z</time>
      </trkpt>
      <trkpt lat="47.15252" lon="5.96095">
        <ele>291</ele>
        <time>2022-06-29T14:55:07Z</time>
      </trkpt>
      <trkpt lat="47.15252" lon="5.96093">
        <ele>291.1</ele>
        <time>2022-06-29T14:55:08Z</time>
      </trkpt>
      <trkpt lat="47.15253" lon="5.96088">
        <ele>291.4</ele>
        <time>2022-06-29T14:55:09Z</time>
      </trkpt>
      <trkpt lat="47.15253" lon="5.96086">
        <ele>291.5</ele>
        <time>2022-06-29T14:55:10Z</time>
      </trkpt>
      <trkpt lat="47.15253" lon="5.96082">
        <ele>291.8</ele>
        <time>2022-06-29T14:55:11Z</time>
      </trkpt>
      <trkpt lat="47.15253" lon="5.9608">
        <ele>291.9</ele>
        <time>2022-06-29T14:55:12Z</time>
      </trkpt>
      <trkpt lat="47.15254" lon="5.96074">
        <ele>292.2</ele>
        <time>2022-06-29T14:55:14Z</time>
      </trkpt>
      <trkpt lat="47.15255" lon="5.96072">
        <ele>292.3</ele>
        <time>2022-06-29T14:55:15Z</time>
      </trkpt>
      <trkpt lat="47.15255" lon="5.96069">
        <ele>292.4</ele>
        <time>2022-06-29T14:55:16Z</time>
      </trkpt>
      <trkpt lat="47.15256" lon="5.96065">
        <ele>292.6</ele>
        <time>2022-06-29T14:55:17Z</time>
      </trkpt>
      <trkpt lat="47.15256" lon="5.96064">
        <ele>292.7</ele>
        <time>2022-06-29T14:55:18Z</time>
      </trkpt>
      <trkpt lat="47.15257" lon="5.96059">
        <ele>292.8</ele>
        <time>2022-06-29T14:55:19Z</time>
      </trkpt>
      <trkpt lat="47.15257" lon="5.96058">
        <ele>292.9</ele>
        <time>2022-06-29T14:55:20Z</time>
      </trkpt>
      <trkpt lat="47.15259" lon="5.96053">
        <ele>293</ele>
        <time>2022-06-29T14:55:21Z</time>
      </trkpt>
      <trkpt lat="47.15259" lon="5.96052">
        <ele>293.1</ele>
        <time>2022-06-29T14:55:22Z</time>
      </trkpt>
      <trkpt lat="47.1526" lon="5.96047">
        <ele>293.2</ele>
        <time>2022-06-29T14:55:23Z</time>
      </trkpt>
      <trkpt lat="47.1526" lon="5.96045">
        <ele>293.2</ele>
        <time>2022-06-29T14:55:24Z</time>
      </trkpt>
      <trkpt lat="47.15261" lon="5.96041">
        <ele>293.3</ele>
        <time>2022-06-29T14:55:25Z</time>
      </trkpt>
      <trkpt lat="47.15261" lon="5.96039">
        <ele>293.3</ele>
        <time>2022-06-29T14:55:26Z</time>
      </trkpt>
      <trkpt lat="47.15261" lon="5.96035">
        <ele>293.4</ele>
        <time>2022-06-29T14:55:27Z</time>
      </trkpt>
      <trkpt lat="47.15262" lon="5.96033">
        <ele>293.4</ele>
        <time>2022-06-29T14:55:28Z</time>
      </trkpt>
      <trkpt lat="47.15262" lon="5.96029">
        <ele>293.5</ele>
        <time>2022-06-29T14:55:29Z</time>
      </trkpt>
      <trkpt lat="47.15263" lon="5.96027">
        <ele>293.5</ele>
        <time>2022-06-29T14:55:30Z</time>
      </trkpt>
      <trkpt lat="47.15264" lon="5.96021">
        <ele>293.5</ele>
        <time>2022-06-29T14:55:32Z</time>
      </trkpt>
      <trkpt lat="47.15264" lon="5.96016">
        <ele>293.5</ele>
        <time>2022-06-29T14:55:34Z</time>
      </trkpt>
      <trkpt lat="47.15265" lon="5.9601">
        <ele>293.6</ele>
        <time>2022-06-29T14:55:35Z</time>
      </trkpt>
      <trkpt lat="47.15266" lon="5.96004">
        <ele>293.6</ele>
        <time>2022-06-29T14:55:36Z</time>
      </trkpt>
      <trkpt lat="47.15266" lon="5.96002">
        <ele>293.6</ele>
        <time>2022-06-29T14:55:37Z</time>
      </trkpt>
      <trkpt lat="47.15266" lon="5.95997">
        <ele>293.5</ele>
        <time>2022-06-29T14:55:38Z</time>
      </trkpt>
      <trkpt lat="47.15266" lon="5.95995">
        <ele>293.5</ele>
        <time>2022-06-29T14:55:39Z</time>
      </trkpt>
      <trkpt lat="47.15267" lon="5.95991">
        <ele>293.5</ele>
        <time>2022-06-29T14:55:40Z</time>
      </trkpt>
      <trkpt lat="47.15267" lon="5.95987">
        <ele>293.5</ele>
        <time>2022-06-29T14:55:41Z</time>
      </trkpt>
      <trkpt lat="47.15267" lon="5.95982">
        <ele>293.5</ele>
        <time>2022-06-29T14:55:42Z</time>
      </trkpt>
      <trkpt lat="47.15269" lon="5.95974">
        <ele>293.5</ele>
        <time>2022-06-29T14:55:44Z</time>
      </trkpt>
      <trkpt lat="47.15269" lon="5.9597">
        <ele>293.5</ele>
        <time>2022-06-29T14:55:45Z</time>
      </trkpt>
      <trkpt lat="47.1527" lon="5.95964">
        <ele>293.5</ele>
        <time>2022-06-29T14:55:47Z</time>
      </trkpt>
      <trkpt lat="47.15271" lon="5.95958">
        <ele>293.5</ele>
        <time>2022-06-29T14:55:48Z</time>
      </trkpt>
      <trkpt lat="47.15271" lon="5.95954">
        <ele>293.5</ele>
        <time>2022-06-29T14:55:49Z</time>
      </trkpt>
      <trkpt lat="47.15272" lon="5.95948">
        <ele>293.5</ele>
        <time>2022-06-29T14:55:50Z</time>
      </trkpt>
      <trkpt lat="47.15273" lon="5.95946">
        <ele>293.5</ele>
        <time>2022-06-29T14:55:51Z</time>
      </trkpt>
      <trkpt lat="47.15273" lon="5.95941">
        <ele>293.5</ele>
        <time>2022-06-29T14:55:52Z</time>
      </trkpt>
      <trkpt lat="47.15274" lon="5.95937">
        <ele>293.5</ele>
        <time>2022-06-29T14:55:53Z</time>
      </trkpt>
      <trkpt lat="47.15274" lon="5.95932">
        <ele>293.5</ele>
        <time>2022-06-29T14:55:54Z</time>
      </trkpt>
      <trkpt lat="47.15275" lon="5.95928">
        <ele>293.5</ele>
        <time>2022-06-29T14:55:55Z</time>
      </trkpt>
      <trkpt lat="47.15275" lon="5.95924">
        <ele>293.6</ele>
        <time>2022-06-29T14:55:56Z</time>
      </trkpt>
      <trkpt lat="47.15276" lon="5.95919">
        <ele>293.6</ele>
        <time>2022-06-29T14:55:57Z</time>
      </trkpt>
      <trkpt lat="47.15277" lon="5.95914">
        <ele>293.6</ele>
        <time>2022-06-29T14:55:58Z</time>
      </trkpt>
      <trkpt lat="47.15277" lon="5.9591">
        <ele>293.7</ele>
        <time>2022-06-29T14:55:59Z</time>
      </trkpt>
      <trkpt lat="47.15277" lon="5.95905">
        <ele>293.7</ele>
        <time>2022-06-29T14:56:00Z</time>
      </trkpt>
      <trkpt lat="47.15278" lon="5.95901">
        <ele>293.8</ele>
        <time>2022-06-29T14:56:01Z</time>
      </trkpt>
      <trkpt lat="47.15278" lon="5.95895">
        <ele>293.8</ele>
        <time>2022-06-29T14:56:02Z</time>
      </trkpt>
      <trkpt lat="47.15279" lon="5.9589">
        <ele>293.8</ele>
        <time>2022-06-29T14:56:03Z</time>
      </trkpt>
      <trkpt lat="47.15279" lon="5.95885">
        <ele>293.9</ele>
        <time>2022-06-29T14:56:04Z</time>
      </trkpt>
      <trkpt lat="47.1528" lon="5.95881">
        <ele>293.9</ele>
        <time>2022-06-29T14:56:05Z</time>
      </trkpt>
      <trkpt lat="47.15283" lon="5.95878">
        <ele>293.9</ele>
        <time>2022-06-29T14:56:07Z</time>
      </trkpt>
      <trkpt lat="47.15287" lon="5.95874">
        <ele>294</ele>
        <time>2022-06-29T14:56:08Z</time>
      </trkpt>
      <trkpt lat="47.15291" lon="5.95873">
        <ele>294</ele>
        <time>2022-06-29T14:56:09Z</time>
      </trkpt>
      <trkpt lat="47.15294" lon="5.95872">
        <ele>294.1</ele>
        <time>2022-06-29T14:56:10Z</time>
      </trkpt>
      <trkpt lat="47.15297" lon="5.95871">
        <ele>294.1</ele>
        <time>2022-06-29T14:56:11Z</time>
      </trkpt>
      <trkpt lat="47.153" lon="5.9587">
        <ele>294.2</ele>
        <time>2022-06-29T14:56:12Z</time>
      </trkpt>
      <trkpt lat="47.15302" lon="5.95868">
        <ele>294.2</ele>
        <time>2022-06-29T14:56:13Z</time>
      </trkpt>
      <trkpt lat="47.15304" lon="5.95864">
        <ele>294.3</ele>
        <time>2022-06-29T14:56:14Z</time>
      </trkpt>
      <trkpt lat="47.15305" lon="5.9586">
        <ele>294.3</ele>
        <time>2022-06-29T14:56:15Z</time>
      </trkpt>
      <trkpt lat="47.15306" lon="5.95856">
        <ele>294.4</ele>
        <time>2022-06-29T14:56:16Z</time>
      </trkpt>
      <trkpt lat="47.15307" lon="5.9585">
        <ele>294.5</ele>
        <time>2022-06-29T14:56:17Z</time>
      </trkpt>
      <trkpt lat="47.15307" lon="5.95848">
        <ele>294.5</ele>
        <time>2022-06-29T14:56:18Z</time>
      </trkpt>
      <trkpt lat="47.15307" lon="5.95844">
        <ele>294.6</ele>
        <time>2022-06-29T14:56:19Z</time>
      </trkpt>
      <trkpt lat="47.15308" lon="5.95838">
        <ele>294.7</ele>
        <time>2022-06-29T14:56:20Z</time>
      </trkpt>
      <trkpt lat="47.15308" lon="5.95836">
        <ele>294.7</ele>
        <time>2022-06-29T14:56:21Z</time>
      </trkpt>
      <trkpt lat="47.15309" lon="5.95832">
        <ele>294.8</ele>
        <time>2022-06-29T14:56:22Z</time>
      </trkpt>
      <trkpt lat="47.15311" lon="5.95828">
        <ele>294.8</ele>
        <time>2022-06-29T14:56:23Z</time>
      </trkpt>
      <trkpt lat="47.15312" lon="5.95824">
        <ele>294.9</ele>
        <time>2022-06-29T14:56:24Z</time>
      </trkpt>
      <trkpt lat="47.15313" lon="5.95819">
        <ele>295</ele>
        <time>2022-06-29T14:56:25Z</time>
      </trkpt>
      <trkpt lat="47.15313" lon="5.95815">
        <ele>295.1</ele>
        <time>2022-06-29T14:56:26Z</time>
      </trkpt>
      <trkpt lat="47.15314" lon="5.9581">
        <ele>295.3</ele>
        <time>2022-06-29T14:56:27Z</time>
      </trkpt>
      <trkpt lat="47.15314" lon="5.95808">
        <ele>295.3</ele>
        <time>2022-06-29T14:56:28Z</time>
      </trkpt>
      <trkpt lat="47.15315" lon="5.95804">
        <ele>295.4</ele>
        <time>2022-06-29T14:56:29Z</time>
      </trkpt>
      <trkpt lat="47.15317" lon="5.95799">
        <ele>295.6</ele>
        <time>2022-06-29T14:56:30Z</time>
      </trkpt>
      <trkpt lat="47.15317" lon="5.95797">
        <ele>295.7</ele>
        <time>2022-06-29T14:56:31Z</time>
      </trkpt>
      <trkpt lat="47.15318" lon="5.95792">
        <ele>295.8</ele>
        <time>2022-06-29T14:56:32Z</time>
      </trkpt>
      <trkpt lat="47.15319" lon="5.95788">
        <ele>296</ele>
        <time>2022-06-29T14:56:33Z</time>
      </trkpt>
      <trkpt lat="47.1532" lon="5.95782">
        <ele>296.2</ele>
        <time>2022-06-29T14:56:34Z</time>
      </trkpt>
      <trkpt lat="47.1532" lon="5.95781">
        <ele>296.3</ele>
        <time>2022-06-29T14:56:35Z</time>
      </trkpt>
      <trkpt lat="47.15323" lon="5.95773">
        <ele>296.5</ele>
        <time>2022-06-29T14:56:37Z</time>
      </trkpt>
      <trkpt lat="47.15325" lon="5.9577">
        <ele>296.6</ele>
        <time>2022-06-29T14:56:38Z</time>
      </trkpt>
      <trkpt lat="47.15325" lon="5.95764">
        <ele>296.7</ele>
        <time>2022-06-29T14:56:39Z</time>
      </trkpt>
      <trkpt lat="47.15325" lon="5.95763">
        <ele>296.8</ele>
        <time>2022-06-29T14:56:40Z</time>
      </trkpt>
      <trkpt lat="47.15325" lon="5.95757">
        <ele>296.9</ele>
        <time>2022-06-29T14:56:41Z</time>
      </trkpt>
      <trkpt lat="47.15325" lon="5.95755">
        <ele>296.9</ele>
        <time>2022-06-29T14:56:42Z</time>
      </trkpt>
      <trkpt lat="47.15325" lon="5.9575">
        <ele>297</ele>
        <time>2022-06-29T14:56:43Z</time>
      </trkpt>
      <trkpt lat="47.15326" lon="5.95748">
        <ele>297</ele>
        <time>2022-06-29T14:56:44Z</time>
      </trkpt>
      <trkpt lat="47.15327" lon="5.95743">
        <ele>297.1</ele>
        <time>2022-06-29T14:56:45Z</time>
      </trkpt>
      <trkpt lat="47.15328" lon="5.95741">
        <ele>297.1</ele>
        <time>2022-06-29T14:56:46Z</time>
      </trkpt>
      <trkpt lat="47.15329" lon="5.95736">
        <ele>297.2</ele>
        <time>2022-06-29T14:56:47Z</time>
      </trkpt>
      <trkpt lat="47.1533" lon="5.95735">
        <ele>297.2</ele>
        <time>2022-06-29T14:56:48Z</time>
      </trkpt>
      <trkpt lat="47.15332" lon="5.95731">
        <ele>297.2</ele>
        <time>2022-06-29T14:56:49Z</time>
      </trkpt>
      <trkpt lat="47.15334" lon="5.95728">
        <ele>297.3</ele>
        <time>2022-06-29T14:56:50Z</time>
      </trkpt>
      <trkpt lat="47.15335" lon="5.95725">
        <ele>297.3</ele>
        <time>2022-06-29T14:56:51Z</time>
      </trkpt>
      <trkpt lat="47.15337" lon="5.95722">
        <ele>297.3</ele>
        <time>2022-06-29T14:56:52Z</time>
      </trkpt>
      <trkpt lat="47.15339" lon="5.95718">
        <ele>297.4</ele>
        <time>2022-06-29T14:56:53Z</time>
      </trkpt>
      <trkpt lat="47.15341" lon="5.95715">
        <ele>297.4</ele>
        <time>2022-06-29T14:56:54Z</time>
      </trkpt>
      <trkpt lat="47.15344" lon="5.95713">
        <ele>297.4</ele>
        <time>2022-06-29T14:56:55Z</time>
      </trkpt>
      <trkpt lat="47.15346" lon="5.95709">
        <ele>297.4</ele>
        <time>2022-06-29T14:56:56Z</time>
      </trkpt>
      <trkpt lat="47.15348" lon="5.95706">
        <ele>297.4</ele>
        <time>2022-06-29T14:56:57Z</time>
      </trkpt>
      <trkpt lat="47.15351" lon="5.95703">
        <ele>297.4</ele>
        <time>2022-06-29T14:56:58Z</time>
      </trkpt>
      <trkpt lat="47.15353" lon="5.95702">
        <ele>297.4</ele>
        <time>2022-06-29T14:56:59Z</time>
      </trkpt>
      <trkpt lat="47.15355" lon="5.95699">
        <ele>297.4</ele>
        <time>2022-06-29T14:57:00Z</time>
      </trkpt>
      <trkpt lat="47.15358" lon="5.95695">
        <ele>297.5</ele>
        <time>2022-06-29T14:57:01Z</time>
      </trkpt>
      <trkpt lat="47.1536" lon="5.95691">
        <ele>297.5</ele>
        <time>2022-06-29T14:57:02Z</time>
      </trkpt>
      <trkpt lat="47.15362" lon="5.95688">
        <ele>297.5</ele>
        <time>2022-06-29T14:57:03Z</time>
      </trkpt>
      <trkpt lat="47.15364" lon="5.95684">
        <ele>297.5</ele>
        <time>2022-06-29T14:57:04Z</time>
      </trkpt>
      <trkpt lat="47.15367" lon="5.95681">
        <ele>297.6</ele>
        <time>2022-06-29T14:57:05Z</time>
      </trkpt>
      <trkpt lat="47.1537" lon="5.95677">
        <ele>297.7</ele>
        <time>2022-06-29T14:57:06Z</time>
      </trkpt>
      <trkpt lat="47.15372" lon="5.95673">
        <ele>297.8</ele>
        <time>2022-06-29T14:57:07Z</time>
      </trkpt>
      <trkpt lat="47.15375" lon="5.95669">
        <ele>298</ele>
        <time>2022-06-29T14:57:08Z</time>
      </trkpt>
      <trkpt lat="47.15378" lon="5.95664">
        <ele>298.2</ele>
        <time>2022-06-29T14:57:09Z</time>
      </trkpt>
      <trkpt lat="47.15382" lon="5.95657">
        <ele>298.4</ele>
        <time>2022-06-29T14:57:11Z</time>
      </trkpt>
      <trkpt lat="47.15384" lon="5.95652">
        <ele>298.6</ele>
        <time>2022-06-29T14:57:12Z</time>
      </trkpt>
      <trkpt lat="47.15386" lon="5.95649">
        <ele>298.7</ele>
        <time>2022-06-29T14:57:13Z</time>
      </trkpt>
      <trkpt lat="47.15388" lon="5.95645">
        <ele>298.9</ele>
        <time>2022-06-29T14:57:14Z</time>
      </trkpt>
      <trkpt lat="47.15391" lon="5.95641">
        <ele>299.1</ele>
        <time>2022-06-29T14:57:15Z</time>
      </trkpt>
      <trkpt lat="47.15394" lon="5.95638">
        <ele>299.3</ele>
        <time>2022-06-29T14:57:16Z</time>
      </trkpt>
      <trkpt lat="47.15397" lon="5.95635">
        <ele>299.6</ele>
        <time>2022-06-29T14:57:17Z</time>
      </trkpt>
      <trkpt lat="47.15398" lon="5.95633">
        <ele>299.6</ele>
        <time>2022-06-29T14:57:18Z</time>
      </trkpt>
      <trkpt lat="47.154" lon="5.9563">
        <ele>299.9</ele>
        <time>2022-06-29T14:57:19Z</time>
      </trkpt>
      <trkpt lat="47.15402" lon="5.95626">
        <ele>300.2</ele>
        <time>2022-06-29T14:57:20Z</time>
      </trkpt>
      <trkpt lat="47.15403" lon="5.95625">
        <ele>300.2</ele>
        <time>2022-06-29T14:57:21Z</time>
      </trkpt>
      <trkpt lat="47.15405" lon="5.95621">
        <ele>300.5</ele>
        <time>2022-06-29T14:57:22Z</time>
      </trkpt>
      <trkpt lat="47.15406" lon="5.9562">
        <ele>300.6</ele>
        <time>2022-06-29T14:57:23Z</time>
      </trkpt>
      <trkpt lat="47.15408" lon="5.95615">
        <ele>300.9</ele>
        <time>2022-06-29T14:57:24Z</time>
      </trkpt>
      <trkpt lat="47.15408" lon="5.95614">
        <ele>301</ele>
        <time>2022-06-29T14:57:25Z</time>
      </trkpt>
      <trkpt lat="47.1541" lon="5.9561">
        <ele>301.3</ele>
        <time>2022-06-29T14:57:26Z</time>
      </trkpt>
      <trkpt lat="47.15411" lon="5.95609">
        <ele>301.4</ele>
        <time>2022-06-29T14:57:27Z</time>
      </trkpt>
      <trkpt lat="47.15412" lon="5.95605">
        <ele>301.7</ele>
        <time>2022-06-29T14:57:28Z</time>
      </trkpt>
      <trkpt lat="47.15413" lon="5.95604">
        <ele>301.8</ele>
        <time>2022-06-29T14:57:29Z</time>
      </trkpt>
      <trkpt lat="47.15415" lon="5.95599">
        <ele>302.2</ele>
        <time>2022-06-29T14:57:30Z</time>
      </trkpt>
      <trkpt lat="47.15416" lon="5.95597">
        <ele>302.4</ele>
        <time>2022-06-29T14:57:31Z</time>
      </trkpt>
      <trkpt lat="47.15417" lon="5.95592">
        <ele>302.7</ele>
        <time>2022-06-29T14:57:32Z</time>
      </trkpt>
      <trkpt lat="47.15417" lon="5.95591">
        <ele>302.8</ele>
        <time>2022-06-29T14:57:33Z</time>
      </trkpt>
      <trkpt lat="47.15419" lon="5.95586">
        <ele>303.2</ele>
        <time>2022-06-29T14:57:34Z</time>
      </trkpt>
      <trkpt lat="47.1542" lon="5.95585">
        <ele>303.4</ele>
        <time>2022-06-29T14:57:35Z</time>
      </trkpt>
      <trkpt lat="47.15423" lon="5.95576">
        <ele>304</ele>
        <time>2022-06-29T14:57:37Z</time>
      </trkpt>
      <trkpt lat="47.15423" lon="5.95574">
        <ele>304.1</ele>
        <time>2022-06-29T14:57:38Z</time>
      </trkpt>
      <trkpt lat="47.15425" lon="5.9557">
        <ele>304.5</ele>
        <time>2022-06-29T14:57:39Z</time>
      </trkpt>
      <trkpt lat="47.15425" lon="5.95568">
        <ele>304.6</ele>
        <time>2022-06-29T14:57:40Z</time>
      </trkpt>
      <trkpt lat="47.15427" lon="5.95565">
        <ele>304.9</ele>
        <time>2022-06-29T14:57:41Z</time>
      </trkpt>
      <trkpt lat="47.15428" lon="5.95564">
        <ele>305</ele>
        <time>2022-06-29T14:57:42Z</time>
      </trkpt>
      <trkpt lat="47.1543" lon="5.95561">
        <ele>305.3</ele>
        <time>2022-06-29T14:57:43Z</time>
      </trkpt>
      <trkpt lat="47.15431" lon="5.9556">
        <ele>305.4</ele>
        <time>2022-06-29T14:57:44Z</time>
      </trkpt>
      <trkpt lat="47.15434" lon="5.95557">
        <ele>305.8</ele>
        <time>2022-06-29T14:57:45Z</time>
      </trkpt>
      <trkpt lat="47.15435" lon="5.95556">
        <ele>305.9</ele>
        <time>2022-06-29T14:57:46Z</time>
      </trkpt>
      <trkpt lat="47.15438" lon="5.95553">
        <ele>306.2</ele>
        <time>2022-06-29T14:57:47Z</time>
      </trkpt>
      <trkpt lat="47.15438" lon="5.95553">
        <ele>306.3</ele>
        <time>2022-06-29T14:57:48Z</time>
      </trkpt>
      <trkpt lat="47.15441" lon="5.95551">
        <ele>306.5</ele>
        <time>2022-06-29T14:57:49Z</time>
      </trkpt>
      <trkpt lat="47.15442" lon="5.95551">
        <ele>306.6</ele>
        <time>2022-06-29T14:57:50Z</time>
      </trkpt>
      <trkpt lat="47.15445" lon="5.95549">
        <ele>306.9</ele>
        <time>2022-06-29T14:57:51Z</time>
      </trkpt>
      <trkpt lat="47.15446" lon="5.95549">
        <ele>307</ele>
        <time>2022-06-29T14:57:52Z</time>
      </trkpt>
      <trkpt lat="47.1545" lon="5.95549">
        <ele>307.2</ele>
        <time>2022-06-29T14:57:53Z</time>
      </trkpt>
      <trkpt lat="47.15451" lon="5.95549">
        <ele>307.3</ele>
        <time>2022-06-29T14:57:54Z</time>
      </trkpt>
      <trkpt lat="47.15455" lon="5.9555">
        <ele>307.6</ele>
        <time>2022-06-29T14:57:55Z</time>
      </trkpt>
      <trkpt lat="47.15456" lon="5.9555">
        <ele>307.6</ele>
        <time>2022-06-29T14:57:56Z</time>
      </trkpt>
      <trkpt lat="47.15459" lon="5.9555">
        <ele>307.8</ele>
        <time>2022-06-29T14:57:57Z</time>
      </trkpt>
      <trkpt lat="47.15459" lon="5.9555">
        <ele>307.8</ele>
        <time>2022-06-29T14:57:58Z</time>
      </trkpt>
      <trkpt lat="47.15461" lon="5.9555">
        <ele>307.9</ele>
        <time>2022-06-29T14:57:59Z</time>
      </trkpt>
      <trkpt lat="47.15462" lon="5.9555">
        <ele>308</ele>
        <time>2022-06-29T14:58:00Z</time>
      </trkpt>
      <trkpt lat="47.15464" lon="5.95549">
        <ele>308.1</ele>
        <time>2022-06-29T14:58:01Z</time>
      </trkpt>
      <trkpt lat="47.15466" lon="5.95549">
        <ele>308.2</ele>
        <time>2022-06-29T14:58:02Z</time>
      </trkpt>
      <trkpt lat="47.15469" lon="5.95549">
        <ele>308.4</ele>
        <time>2022-06-29T14:58:03Z</time>
      </trkpt>
      <trkpt lat="47.1547" lon="5.95549">
        <ele>308.4</ele>
        <time>2022-06-29T14:58:04Z</time>
      </trkpt>
      <trkpt lat="47.15473" lon="5.95549">
        <ele>308.6</ele>
        <time>2022-06-29T14:58:05Z</time>
      </trkpt>
      <trkpt lat="47.15474" lon="5.95548">
        <ele>308.6</ele>
        <time>2022-06-29T14:58:06Z</time>
      </trkpt>
      <trkpt lat="47.15477" lon="5.95547">
        <ele>308.8</ele>
        <time>2022-06-29T14:58:07Z</time>
      </trkpt>
      <trkpt lat="47.15477" lon="5.95546">
        <ele>308.8</ele>
        <time>2022-06-29T14:58:08Z</time>
      </trkpt>
      <trkpt lat="47.1548" lon="5.95544">
        <ele>309</ele>
        <time>2022-06-29T14:58:09Z</time>
      </trkpt>
      <trkpt lat="47.15481" lon="5.95544">
        <ele>309.1</ele>
        <time>2022-06-29T14:58:10Z</time>
      </trkpt>
      <trkpt lat="47.15483" lon="5.95542">
        <ele>309.2</ele>
        <time>2022-06-29T14:58:11Z</time>
      </trkpt>
      <trkpt lat="47.15484" lon="5.95541">
        <ele>309.3</ele>
        <time>2022-06-29T14:58:12Z</time>
      </trkpt>
      <trkpt lat="47.15485" lon="5.9554">
        <ele>309.4</ele>
        <time>2022-06-29T14:58:13Z</time>
      </trkpt>
      <trkpt lat="47.15486" lon="5.95538">
        <ele>309.5</ele>
        <time>2022-06-29T14:58:14Z</time>
      </trkpt>
      <trkpt lat="47.15488" lon="5.95535">
        <ele>309.7</ele>
        <time>2022-06-29T14:58:15Z</time>
      </trkpt>
      <trkpt lat="47.15489" lon="5.95534">
        <ele>309.8</ele>
        <time>2022-06-29T14:58:16Z</time>
      </trkpt>
      <trkpt lat="47.15492" lon="5.95532">
        <ele>310</ele>
        <time>2022-06-29T14:58:17Z</time>
      </trkpt>
      <trkpt lat="47.15492" lon="5.95531">
        <ele>310.1</ele>
        <time>2022-06-29T14:58:18Z</time>
      </trkpt>
      <trkpt lat="47.15495" lon="5.9553">
        <ele>310.3</ele>
        <time>2022-06-29T14:58:19Z</time>
      </trkpt>
      <trkpt lat="47.15496" lon="5.95529">
        <ele>310.4</ele>
        <time>2022-06-29T14:58:20Z</time>
      </trkpt>
      <trkpt lat="47.15499" lon="5.95528">
        <ele>310.6</ele>
        <time>2022-06-29T14:58:21Z</time>
      </trkpt>
      <trkpt lat="47.155" lon="5.95527">
        <ele>310.7</ele>
        <time>2022-06-29T14:58:22Z</time>
      </trkpt>
      <trkpt lat="47.15502" lon="5.95524">
        <ele>310.9</ele>
        <time>2022-06-29T14:58:23Z</time>
      </trkpt>
      <trkpt lat="47.15502" lon="5.95523">
        <ele>311</ele>
        <time>2022-06-29T14:58:24Z</time>
      </trkpt>
      <trkpt lat="47.15505" lon="5.9552">
        <ele>311.2</ele>
        <time>2022-06-29T14:58:25Z</time>
      </trkpt>
      <trkpt lat="47.15505" lon="5.95519">
        <ele>311.3</ele>
        <time>2022-06-29T14:58:26Z</time>
      </trkpt>
      <trkpt lat="47.15508" lon="5.95517">
        <ele>311.5</ele>
        <time>2022-06-29T14:58:27Z</time>
      </trkpt>
      <trkpt lat="47.15509" lon="5.95517">
        <ele>311.6</ele>
        <time>2022-06-29T14:58:28Z</time>
      </trkpt>
      <trkpt lat="47.15511" lon="5.95515">
        <ele>311.8</ele>
        <time>2022-06-29T14:58:29Z</time>
      </trkpt>
      <trkpt lat="47.15512" lon="5.95514">
        <ele>311.9</ele>
        <time>2022-06-29T14:58:30Z</time>
      </trkpt>
      <trkpt lat="47.15513" lon="5.95514">
        <ele>312</ele>
        <time>2022-06-29T14:58:31Z</time>
      </trkpt>
      <trkpt lat="47.15515" lon="5.95512">
        <ele>312.2</ele>
        <time>2022-06-29T14:58:32Z</time>
      </trkpt>
      <trkpt lat="47.15516" lon="5.95511">
        <ele>312.3</ele>
        <time>2022-06-29T14:58:33Z</time>
      </trkpt>
      <trkpt lat="47.15519" lon="5.9551">
        <ele>312.6</ele>
        <time>2022-06-29T14:58:34Z</time>
      </trkpt>
      <trkpt lat="47.1552" lon="5.95509">
        <ele>312.6</ele>
        <time>2022-06-29T14:58:35Z</time>
      </trkpt>
      <trkpt lat="47.15522" lon="5.95507">
        <ele>312.9</ele>
        <time>2022-06-29T14:58:36Z</time>
      </trkpt>
      <trkpt lat="47.15523" lon="5.95506">
        <ele>312.9</ele>
        <time>2022-06-29T14:58:37Z</time>
      </trkpt>
      <trkpt lat="47.15526" lon="5.95504">
        <ele>313.2</ele>
        <time>2022-06-29T14:58:38Z</time>
      </trkpt>
      <trkpt lat="47.15527" lon="5.95503">
        <ele>313.3</ele>
        <time>2022-06-29T14:58:39Z</time>
      </trkpt>
      <trkpt lat="47.1553" lon="5.95501">
        <ele>313.6</ele>
        <time>2022-06-29T14:58:40Z</time>
      </trkpt>
      <trkpt lat="47.15531" lon="5.955">
        <ele>313.6</ele>
        <time>2022-06-29T14:58:41Z</time>
      </trkpt>
      <trkpt lat="47.15534" lon="5.95499">
        <ele>313.9</ele>
        <time>2022-06-29T14:58:42Z</time>
      </trkpt>
      <trkpt lat="47.15535" lon="5.95498">
        <ele>313.9</ele>
        <time>2022-06-29T14:58:43Z</time>
      </trkpt>
      <trkpt lat="47.15538" lon="5.95496">
        <ele>314.2</ele>
        <time>2022-06-29T14:58:44Z</time>
      </trkpt>
      <trkpt lat="47.15538" lon="5.95495">
        <ele>314.2</ele>
        <time>2022-06-29T14:58:45Z</time>
      </trkpt>
      <trkpt lat="47.1554" lon="5.95494">
        <ele>314.4</ele>
        <time>2022-06-29T14:58:46Z</time>
      </trkpt>
      <trkpt lat="47.15542" lon="5.95494">
        <ele>314.5</ele>
        <time>2022-06-29T14:58:47Z</time>
      </trkpt>
      <trkpt lat="47.15545" lon="5.95492">
        <ele>314.7</ele>
        <time>2022-06-29T14:58:48Z</time>
      </trkpt>
      <trkpt lat="47.15546" lon="5.95491">
        <ele>314.8</ele>
        <time>2022-06-29T14:58:49Z</time>
      </trkpt>
      <trkpt lat="47.1555" lon="5.9549">
        <ele>315</ele>
        <time>2022-06-29T14:58:50Z</time>
      </trkpt>
      <trkpt lat="47.15551" lon="5.95489">
        <ele>315.1</ele>
        <time>2022-06-29T14:58:51Z</time>
      </trkpt>
      <trkpt lat="47.15553" lon="5.95488">
        <ele>315.3</ele>
        <time>2022-06-29T14:58:52Z</time>
      </trkpt>
      <trkpt lat="47.15554" lon="5.95488">
        <ele>315.3</ele>
        <time>2022-06-29T14:58:53Z</time>
      </trkpt>
      <trkpt lat="47.15557" lon="5.95487">
        <ele>315.5</ele>
        <time>2022-06-29T14:58:54Z</time>
      </trkpt>
      <trkpt lat="47.15558" lon="5.95486">
        <ele>315.6</ele>
        <time>2022-06-29T14:58:55Z</time>
      </trkpt>
      <trkpt lat="47.15561" lon="5.95485">
        <ele>315.8</ele>
        <time>2022-06-29T14:58:56Z</time>
      </trkpt>
      <trkpt lat="47.15562" lon="5.95484">
        <ele>315.9</ele>
        <time>2022-06-29T14:58:57Z</time>
      </trkpt>
      <trkpt lat="47.15565" lon="5.95484">
        <ele>316.1</ele>
        <time>2022-06-29T14:58:58Z</time>
      </trkpt>
      <trkpt lat="47.15566" lon="5.95483">
        <ele>316.2</ele>
        <time>2022-06-29T14:58:59Z</time>
      </trkpt>
      <trkpt lat="47.15569" lon="5.95483">
        <ele>316.4</ele>
        <time>2022-06-29T14:59:00Z</time>
      </trkpt>
      <trkpt lat="47.1557" lon="5.95483">
        <ele>316.4</ele>
        <time>2022-06-29T14:59:01Z</time>
      </trkpt>
      <trkpt lat="47.15573" lon="5.95482">
        <ele>316.6</ele>
        <time>2022-06-29T14:59:02Z</time>
      </trkpt>
      <trkpt lat="47.15574" lon="5.95482">
        <ele>316.7</ele>
        <time>2022-06-29T14:59:03Z</time>
      </trkpt>
      <trkpt lat="47.15576" lon="5.95481">
        <ele>316.9</ele>
        <time>2022-06-29T14:59:04Z</time>
      </trkpt>
      <trkpt lat="47.15577" lon="5.95481">
        <ele>316.9</ele>
        <time>2022-06-29T14:59:05Z</time>
      </trkpt>
      <trkpt lat="47.1558" lon="5.95479">
        <ele>317.1</ele>
        <time>2022-06-29T14:59:06Z</time>
      </trkpt>
      <trkpt lat="47.15581" lon="5.95479">
        <ele>317.2</ele>
        <time>2022-06-29T14:59:07Z</time>
      </trkpt>
      <trkpt lat="47.15584" lon="5.95478">
        <ele>317.4</ele>
        <time>2022-06-29T14:59:08Z</time>
      </trkpt>
      <trkpt lat="47.15585" lon="5.95478">
        <ele>317.5</ele>
        <time>2022-06-29T14:59:09Z</time>
      </trkpt>
      <trkpt lat="47.15588" lon="5.95476">
        <ele>317.7</ele>
        <time>2022-06-29T14:59:10Z</time>
      </trkpt>
      <trkpt lat="47.15588" lon="5.95475">
        <ele>317.7</ele>
        <time>2022-06-29T14:59:11Z</time>
      </trkpt>
      <trkpt lat="47.15591" lon="5.95473">
        <ele>318</ele>
        <time>2022-06-29T14:59:12Z</time>
      </trkpt>
      <trkpt lat="47.15592" lon="5.95473">
        <ele>318</ele>
        <time>2022-06-29T14:59:13Z</time>
      </trkpt>
      <trkpt lat="47.15595" lon="5.95471">
        <ele>318.3</ele>
        <time>2022-06-29T14:59:14Z</time>
      </trkpt>
      <trkpt lat="47.15596" lon="5.9547">
        <ele>318.3</ele>
        <time>2022-06-29T14:59:15Z</time>
      </trkpt>
      <trkpt lat="47.15598" lon="5.95468">
        <ele>318.6</ele>
        <time>2022-06-29T14:59:16Z</time>
      </trkpt>
      <trkpt lat="47.15599" lon="5.95467">
        <ele>318.7</ele>
        <time>2022-06-29T14:59:17Z</time>
      </trkpt>
      <trkpt lat="47.15602" lon="5.95466">
        <ele>318.9</ele>
        <time>2022-06-29T14:59:18Z</time>
      </trkpt>
      <trkpt lat="47.15603" lon="5.95465">
        <ele>319</ele>
        <time>2022-06-29T14:59:19Z</time>
      </trkpt>
      <trkpt lat="47.15605" lon="5.95464">
        <ele>319.3</ele>
        <time>2022-06-29T14:59:20Z</time>
      </trkpt>
      <trkpt lat="47.15606" lon="5.95463">
        <ele>319.3</ele>
        <time>2022-06-29T14:59:21Z</time>
      </trkpt>
      <trkpt lat="47.15609" lon="5.95462">
        <ele>319.6</ele>
        <time>2022-06-29T14:59:22Z</time>
      </trkpt>
      <trkpt lat="47.1561" lon="5.95461">
        <ele>319.7</ele>
        <time>2022-06-29T14:59:23Z</time>
      </trkpt>
      <trkpt lat="47.15613" lon="5.9546">
        <ele>319.9</ele>
        <time>2022-06-29T14:59:24Z</time>
      </trkpt>
      <trkpt lat="47.15614" lon="5.9546">
        <ele>320</ele>
        <time>2022-06-29T14:59:25Z</time>
      </trkpt>
      <trkpt lat="47.15615" lon="5.9546">
        <ele>320.1</ele>
        <time>2022-06-29T14:59:26Z</time>
      </trkpt>
      <trkpt lat="47.15616" lon="5.9546">
        <ele>320.2</ele>
        <time>2022-06-29T14:59:27Z</time>
      </trkpt>
      <trkpt lat="47.15618" lon="5.9546">
        <ele>320.4</ele>
        <time>2022-06-29T14:59:28Z</time>
      </trkpt>
      <trkpt lat="47.15619" lon="5.95459">
        <ele>320.5</ele>
        <time>2022-06-29T14:59:29Z</time>
      </trkpt>
      <trkpt lat="47.15621" lon="5.95459">
        <ele>320.7</ele>
        <time>2022-06-29T14:59:30Z</time>
      </trkpt>
      <trkpt lat="47.15623" lon="5.95458">
        <ele>320.8</ele>
        <time>2022-06-29T14:59:31Z</time>
      </trkpt>
      <trkpt lat="47.15624" lon="5.95458">
        <ele>320.9</ele>
        <time>2022-06-29T14:59:32Z</time>
      </trkpt>
      <trkpt lat="47.15626" lon="5.95457">
        <ele>321.1</ele>
        <time>2022-06-29T14:59:33Z</time>
      </trkpt>
      <trkpt lat="47.15629" lon="5.95456">
        <ele>321.4</ele>
        <time>2022-06-29T14:59:34Z</time>
      </trkpt>
      <trkpt lat="47.1563" lon="5.95456">
        <ele>321.5</ele>
        <time>2022-06-29T14:59:35Z</time>
      </trkpt>
      <trkpt lat="47.15631" lon="5.95456">
        <ele>321.7</ele>
        <time>2022-06-29T14:59:36Z</time>
      </trkpt>
      <trkpt lat="47.15633" lon="5.95455">
        <ele>321.8</ele>
        <time>2022-06-29T14:59:37Z</time>
      </trkpt>
      <trkpt lat="47.15634" lon="5.95454">
        <ele>322</ele>
        <time>2022-06-29T14:59:38Z</time>
      </trkpt>
      <trkpt lat="47.15635" lon="5.95453">
        <ele>322.2</ele>
        <time>2022-06-29T14:59:39Z</time>
      </trkpt>
      <trkpt lat="47.15638" lon="5.95451">
        <ele>322.5</ele>
        <time>2022-06-29T14:59:40Z</time>
      </trkpt>
      <trkpt lat="47.15639" lon="5.95451">
        <ele>322.5</ele>
        <time>2022-06-29T14:59:41Z</time>
      </trkpt>
      <trkpt lat="47.1564" lon="5.95449">
        <ele>322.7</ele>
        <time>2022-06-29T14:59:42Z</time>
      </trkpt>
      <trkpt lat="47.15642" lon="5.95449">
        <ele>322.9</ele>
        <time>2022-06-29T14:59:43Z</time>
      </trkpt>
      <trkpt lat="47.15644" lon="5.95447">
        <ele>323.2</ele>
        <time>2022-06-29T14:59:44Z</time>
      </trkpt>
      <trkpt lat="47.15645" lon="5.95446">
        <ele>323.3</ele>
        <time>2022-06-29T14:59:45Z</time>
      </trkpt>
      <trkpt lat="47.15647" lon="5.95446">
        <ele>323.5</ele>
        <time>2022-06-29T14:59:46Z</time>
      </trkpt>
      <trkpt lat="47.15648" lon="5.95445">
        <ele>323.7</ele>
        <time>2022-06-29T14:59:47Z</time>
      </trkpt>
      <trkpt lat="47.15651" lon="5.95444">
        <ele>324</ele>
        <time>2022-06-29T14:59:48Z</time>
      </trkpt>
      <trkpt lat="47.15652" lon="5.95443">
        <ele>324.1</ele>
        <time>2022-06-29T14:59:49Z</time>
      </trkpt>
      <trkpt lat="47.15655" lon="5.95441">
        <ele>324.4</ele>
        <time>2022-06-29T14:59:50Z</time>
      </trkpt>
      <trkpt lat="47.15656" lon="5.95441">
        <ele>324.5</ele>
        <time>2022-06-29T14:59:51Z</time>
      </trkpt>
      <trkpt lat="47.15658" lon="5.9544">
        <ele>324.8</ele>
        <time>2022-06-29T14:59:52Z</time>
      </trkpt>
      <trkpt lat="47.15659" lon="5.95439">
        <ele>324.9</ele>
        <time>2022-06-29T14:59:53Z</time>
      </trkpt>
      <trkpt lat="47.15662" lon="5.95438">
        <ele>325.2</ele>
        <time>2022-06-29T14:59:54Z</time>
      </trkpt>
      <trkpt lat="47.15663" lon="5.95437">
        <ele>325.3</ele>
        <time>2022-06-29T14:59:55Z</time>
      </trkpt>
      <trkpt lat="47.15665" lon="5.95436">
        <ele>325.4</ele>
        <time>2022-06-29T14:59:56Z</time>
      </trkpt>
      <trkpt lat="47.15666" lon="5.95436">
        <ele>325.6</ele>
        <time>2022-06-29T14:59:57Z</time>
      </trkpt>
      <trkpt lat="47.15668" lon="5.95435">
        <ele>325.7</ele>
        <time>2022-06-29T14:59:58Z</time>
      </trkpt>
      <trkpt lat="47.1567" lon="5.95434">
        <ele>325.9</ele>
        <time>2022-06-29T14:59:59Z</time>
      </trkpt>
      <trkpt lat="47.15671" lon="5.95433">
        <ele>326.1</ele>
        <time>2022-06-29T15:00:00Z</time>
      </trkpt>
      <trkpt lat="47.15673" lon="5.95433">
        <ele>326.2</ele>
        <time>2022-06-29T15:00:01Z</time>
      </trkpt>
      <trkpt lat="47.15675" lon="5.95432">
        <ele>326.4</ele>
        <time>2022-06-29T15:00:02Z</time>
      </trkpt>
      <trkpt lat="47.15676" lon="5.95432">
        <ele>326.5</ele>
        <time>2022-06-29T15:00:03Z</time>
      </trkpt>
      <trkpt lat="47.15679" lon="5.95431">
        <ele>326.8</ele>
        <time>2022-06-29T15:00:04Z</time>
      </trkpt>
      <trkpt lat="47.1568" lon="5.95431">
        <ele>326.9</ele>
        <time>2022-06-29T15:00:05Z</time>
      </trkpt>
      <trkpt lat="47.15683" lon="5.9543">
        <ele>327.2</ele>
        <time>2022-06-29T15:00:06Z</time>
      </trkpt>
      <trkpt lat="47.15684" lon="5.9543">
        <ele>327.3</ele>
        <time>2022-06-29T15:00:07Z</time>
      </trkpt>
      <trkpt lat="47.15687" lon="5.95429">
        <ele>327.6</ele>
        <time>2022-06-29T15:00:08Z</time>
      </trkpt>
      <trkpt lat="47.15688" lon="5.95428">
        <ele>327.7</ele>
        <time>2022-06-29T15:00:09Z</time>
      </trkpt>
      <trkpt lat="47.1569" lon="5.95427">
        <ele>328</ele>
        <time>2022-06-29T15:00:10Z</time>
      </trkpt>
      <trkpt lat="47.15691" lon="5.95426">
        <ele>328.1</ele>
        <time>2022-06-29T15:00:11Z</time>
      </trkpt>
      <trkpt lat="47.15694" lon="5.95426">
        <ele>328.4</ele>
        <time>2022-06-29T15:00:12Z</time>
      </trkpt>
      <trkpt lat="47.15695" lon="5.95426">
        <ele>328.5</ele>
        <time>2022-06-29T15:00:13Z</time>
      </trkpt>
      <trkpt lat="47.15698" lon="5.95426">
        <ele>328.9</ele>
        <time>2022-06-29T15:00:14Z</time>
      </trkpt>
      <trkpt lat="47.15699" lon="5.95425">
        <ele>329</ele>
        <time>2022-06-29T15:00:15Z</time>
      </trkpt>
      <trkpt lat="47.157" lon="5.95424">
        <ele>329.1</ele>
        <time>2022-06-29T15:00:16Z</time>
      </trkpt>
      <trkpt lat="47.15702" lon="5.95423">
        <ele>329.4</ele>
        <time>2022-06-29T15:00:17Z</time>
      </trkpt>
      <trkpt lat="47.15704" lon="5.95423">
        <ele>329.5</ele>
        <time>2022-06-29T15:00:18Z</time>
      </trkpt>
      <trkpt lat="47.15706" lon="5.95423">
        <ele>329.7</ele>
        <time>2022-06-29T15:00:19Z</time>
      </trkpt>
      <trkpt lat="47.15707" lon="5.95423">
        <ele>329.9</ele>
        <time>2022-06-29T15:00:20Z</time>
      </trkpt>
      <trkpt lat="47.15709" lon="5.95422">
        <ele>330.1</ele>
        <time>2022-06-29T15:00:21Z</time>
      </trkpt>
      <trkpt lat="47.1571" lon="5.95422">
        <ele>330.2</ele>
        <time>2022-06-29T15:00:22Z</time>
      </trkpt>
      <trkpt lat="47.15712" lon="5.95422">
        <ele>330.4</ele>
        <time>2022-06-29T15:00:23Z</time>
      </trkpt>
      <trkpt lat="47.15714" lon="5.95422">
        <ele>330.7</ele>
        <time>2022-06-29T15:00:24Z</time>
      </trkpt>
      <trkpt lat="47.15714" lon="5.95422">
        <ele>330.7</ele>
        <time>2022-06-29T15:00:25Z</time>
      </trkpt>
      <trkpt lat="47.15715" lon="5.95421">
        <ele>330.8</ele>
        <time>2022-06-29T15:00:26Z</time>
      </trkpt>
      <trkpt lat="47.15717" lon="5.95422">
        <ele>331</ele>
        <time>2022-06-29T15:00:27Z</time>
      </trkpt>
      <trkpt lat="47.15719" lon="5.95422">
        <ele>331.2</ele>
        <time>2022-06-29T15:00:28Z</time>
      </trkpt>
      <trkpt lat="47.1572" lon="5.95421">
        <ele>331.4</ele>
        <time>2022-06-29T15:00:29Z</time>
      </trkpt>
      <trkpt lat="47.15722" lon="5.9542">
        <ele>331.6</ele>
        <time>2022-06-29T15:00:30Z</time>
      </trkpt>
      <trkpt lat="47.15723" lon="5.95418">
        <ele>331.8</ele>
        <time>2022-06-29T15:00:31Z</time>
      </trkpt>
      <trkpt lat="47.15724" lon="5.95417">
        <ele>331.9</ele>
        <time>2022-06-29T15:00:32Z</time>
      </trkpt>
      <trkpt lat="47.15726" lon="5.95416">
        <ele>332.2</ele>
        <time>2022-06-29T15:00:33Z</time>
      </trkpt>
      <trkpt lat="47.15727" lon="5.95415">
        <ele>332.3</ele>
        <time>2022-06-29T15:00:34Z</time>
      </trkpt>
      <trkpt lat="47.15728" lon="5.95414">
        <ele>332.4</ele>
        <time>2022-06-29T15:00:35Z</time>
      </trkpt>
      <trkpt lat="47.15731" lon="5.95413">
        <ele>332.7</ele>
        <time>2022-06-29T15:00:36Z</time>
      </trkpt>
      <trkpt lat="47.15732" lon="5.95412">
        <ele>332.8</ele>
        <time>2022-06-29T15:00:37Z</time>
      </trkpt>
      <trkpt lat="47.15733" lon="5.95411">
        <ele>333</ele>
        <time>2022-06-29T15:00:38Z</time>
      </trkpt>
      <trkpt lat="47.15735" lon="5.9541">
        <ele>333.2</ele>
        <time>2022-06-29T15:00:39Z</time>
      </trkpt>
      <trkpt lat="47.15737" lon="5.9541">
        <ele>333.4</ele>
        <time>2022-06-29T15:00:40Z</time>
      </trkpt>
      <trkpt lat="47.15738" lon="5.95409">
        <ele>333.6</ele>
        <time>2022-06-29T15:00:41Z</time>
      </trkpt>
      <trkpt lat="47.15739" lon="5.95409">
        <ele>333.7</ele>
        <time>2022-06-29T15:00:42Z</time>
      </trkpt>
      <trkpt lat="47.1574" lon="5.95408">
        <ele>333.8</ele>
        <time>2022-06-29T15:00:43Z</time>
      </trkpt>
      <trkpt lat="47.15742" lon="5.95407">
        <ele>334</ele>
        <time>2022-06-29T15:00:44Z</time>
      </trkpt>
      <trkpt lat="47.15743" lon="5.95405">
        <ele>334.2</ele>
        <time>2022-06-29T15:00:45Z</time>
      </trkpt>
      <trkpt lat="47.15744" lon="5.95403">
        <ele>334.3</ele>
        <time>2022-06-29T15:00:46Z</time>
      </trkpt>
      <trkpt lat="47.15745" lon="5.95402">
        <ele>334.4</ele>
        <time>2022-06-29T15:00:47Z</time>
      </trkpt>
      <trkpt lat="47.15746" lon="5.95401">
        <ele>334.5</ele>
        <time>2022-06-29T15:00:48Z</time>
      </trkpt>
      <trkpt lat="47.15747" lon="5.95401">
        <ele>334.7</ele>
        <time>2022-06-29T15:00:49Z</time>
      </trkpt>
      <trkpt lat="47.15749" lon="5.954">
        <ele>334.8</ele>
        <time>2022-06-29T15:00:50Z</time>
      </trkpt>
      <trkpt lat="47.1575" lon="5.95399">
        <ele>334.9</ele>
        <time>2022-06-29T15:00:51Z</time>
      </trkpt>
      <trkpt lat="47.15751" lon="5.95398">
        <ele>335.1</ele>
        <time>2022-06-29T15:00:52Z</time>
      </trkpt>
      <trkpt lat="47.15752" lon="5.95397">
        <ele>335.2</ele>
        <time>2022-06-29T15:00:53Z</time>
      </trkpt>
      <trkpt lat="47.15753" lon="5.95395">
        <ele>335.4</ele>
        <time>2022-06-29T15:00:54Z</time>
      </trkpt>
      <trkpt lat="47.15754" lon="5.95394">
        <ele>335.5</ele>
        <time>2022-06-29T15:00:55Z</time>
      </trkpt>
      <trkpt lat="47.15757" lon="5.95392">
        <ele>335.8</ele>
        <time>2022-06-29T15:00:56Z</time>
      </trkpt>
      <trkpt lat="47.15758" lon="5.95391">
        <ele>335.9</ele>
        <time>2022-06-29T15:00:57Z</time>
      </trkpt>
      <trkpt lat="47.1576" lon="5.95389">
        <ele>336.3</ele>
        <time>2022-06-29T15:00:58Z</time>
      </trkpt>
      <trkpt lat="47.15761" lon="5.95389">
        <ele>336.4</ele>
        <time>2022-06-29T15:00:59Z</time>
      </trkpt>
      <trkpt lat="47.15763" lon="5.95388">
        <ele>336.5</ele>
        <time>2022-06-29T15:01:00Z</time>
      </trkpt>
      <trkpt lat="47.15764" lon="5.95387">
        <ele>336.7</ele>
        <time>2022-06-29T15:01:01Z</time>
      </trkpt>
      <trkpt lat="47.15767" lon="5.95386">
        <ele>337</ele>
        <time>2022-06-29T15:01:02Z</time>
      </trkpt>
      <trkpt lat="47.15768" lon="5.95385">
        <ele>337.1</ele>
        <time>2022-06-29T15:01:03Z</time>
      </trkpt>
      <trkpt lat="47.15771" lon="5.95384">
        <ele>337.5</ele>
        <time>2022-06-29T15:01:04Z</time>
      </trkpt>
      <trkpt lat="47.15771" lon="5.95383">
        <ele>337.6</ele>
        <time>2022-06-29T15:01:05Z</time>
      </trkpt>
      <trkpt lat="47.15774" lon="5.95381">
        <ele>337.9</ele>
        <time>2022-06-29T15:01:06Z</time>
      </trkpt>
      <trkpt lat="47.15775" lon="5.95381">
        <ele>338</ele>
        <time>2022-06-29T15:01:07Z</time>
      </trkpt>
      <trkpt lat="47.15778" lon="5.95379">
        <ele>338.3</ele>
        <time>2022-06-29T15:01:08Z</time>
      </trkpt>
      <trkpt lat="47.15779" lon="5.95379">
        <ele>338.4</ele>
        <time>2022-06-29T15:01:09Z</time>
      </trkpt>
      <trkpt lat="47.15782" lon="5.95378">
        <ele>338.8</ele>
        <time>2022-06-29T15:01:10Z</time>
      </trkpt>
      <trkpt lat="47.15783" lon="5.95378">
        <ele>338.9</ele>
        <time>2022-06-29T15:01:11Z</time>
      </trkpt>
      <trkpt lat="47.15786" lon="5.95376">
        <ele>339.3</ele>
        <time>2022-06-29T15:01:12Z</time>
      </trkpt>
      <trkpt lat="47.15787" lon="5.95376">
        <ele>339.5</ele>
        <time>2022-06-29T15:01:13Z</time>
      </trkpt>
      <trkpt lat="47.1579" lon="5.95375">
        <ele>339.9</ele>
        <time>2022-06-29T15:01:14Z</time>
      </trkpt>
      <trkpt lat="47.15791" lon="5.95375">
        <ele>340.1</ele>
        <time>2022-06-29T15:01:15Z</time>
      </trkpt>
      <trkpt lat="47.15794" lon="5.95375">
        <ele>340.5</ele>
        <time>2022-06-29T15:01:16Z</time>
      </trkpt>
      <trkpt lat="47.15795" lon="5.95375">
        <ele>340.7</ele>
        <time>2022-06-29T15:01:17Z</time>
      </trkpt>
      <trkpt lat="47.15798" lon="5.95375">
        <ele>341.2</ele>
        <time>2022-06-29T15:01:18Z</time>
      </trkpt>
      <trkpt lat="47.15799" lon="5.95375">
        <ele>341.3</ele>
        <time>2022-06-29T15:01:19Z</time>
      </trkpt>
      <trkpt lat="47.158" lon="5.95375">
        <ele>341.5</ele>
        <time>2022-06-29T15:01:20Z</time>
      </trkpt>
      <trkpt lat="47.15802" lon="5.95375">
        <ele>341.7</ele>
        <time>2022-06-29T15:01:21Z</time>
      </trkpt>
      <trkpt lat="47.15804" lon="5.95374">
        <ele>342.1</ele>
        <time>2022-06-29T15:01:22Z</time>
      </trkpt>
      <trkpt lat="47.15805" lon="5.95374">
        <ele>342.2</ele>
        <time>2022-06-29T15:01:23Z</time>
      </trkpt>
      <trkpt lat="47.15806" lon="5.95373">
        <ele>342.4</ele>
        <time>2022-06-29T15:01:24Z</time>
      </trkpt>
      <trkpt lat="47.15808" lon="5.95373">
        <ele>342.6</ele>
        <time>2022-06-29T15:01:25Z</time>
      </trkpt>
      <trkpt lat="47.15809" lon="5.95373">
        <ele>342.7</ele>
        <time>2022-06-29T15:01:26Z</time>
      </trkpt>
      <trkpt lat="47.1581" lon="5.95373">
        <ele>342.9</ele>
        <time>2022-06-29T15:01:27Z</time>
      </trkpt>
      <trkpt lat="47.15812" lon="5.95373">
        <ele>343.2</ele>
        <time>2022-06-29T15:01:28Z</time>
      </trkpt>
      <trkpt lat="47.15814" lon="5.95373">
        <ele>343.4</ele>
        <time>2022-06-29T15:01:29Z</time>
      </trkpt>
      <trkpt lat="47.15815" lon="5.95372">
        <ele>343.6</ele>
        <time>2022-06-29T15:01:30Z</time>
      </trkpt>
      <trkpt lat="47.15816" lon="5.95372">
        <ele>343.8</ele>
        <time>2022-06-29T15:01:31Z</time>
      </trkpt>
      <trkpt lat="47.15819" lon="5.95371">
        <ele>344.3</ele>
        <time>2022-06-29T15:01:32Z</time>
      </trkpt>
      <trkpt lat="47.15821" lon="5.95371">
        <ele>344.5</ele>
        <time>2022-06-29T15:01:33Z</time>
      </trkpt>
      <trkpt lat="47.15822" lon="5.9537">
        <ele>344.7</ele>
        <time>2022-06-29T15:01:34Z</time>
      </trkpt>
      <trkpt lat="47.15824" lon="5.9537">
        <ele>345</ele>
        <time>2022-06-29T15:01:35Z</time>
      </trkpt>
      <trkpt lat="47.15826" lon="5.95369">
        <ele>345.3</ele>
        <time>2022-06-29T15:01:36Z</time>
      </trkpt>
      <trkpt lat="47.15827" lon="5.95369">
        <ele>345.6</ele>
        <time>2022-06-29T15:01:37Z</time>
      </trkpt>
      <trkpt lat="47.1583" lon="5.95369">
        <ele>346</ele>
        <time>2022-06-29T15:01:38Z</time>
      </trkpt>
      <trkpt lat="47.15831" lon="5.95369">
        <ele>346.1</ele>
        <time>2022-06-29T15:01:39Z</time>
      </trkpt>
      <trkpt lat="47.15833" lon="5.95369">
        <ele>346.4</ele>
        <time>2022-06-29T15:01:40Z</time>
      </trkpt>
      <trkpt lat="47.15834" lon="5.95369">
        <ele>346.7</ele>
        <time>2022-06-29T15:01:41Z</time>
      </trkpt>
      <trkpt lat="47.15835" lon="5.95368">
        <ele>346.9</ele>
        <time>2022-06-29T15:01:42Z</time>
      </trkpt>
      <trkpt lat="47.15836" lon="5.95367">
        <ele>347.1</ele>
        <time>2022-06-29T15:01:43Z</time>
      </trkpt>
      <trkpt lat="47.15837" lon="5.95365">
        <ele>347.3</ele>
        <time>2022-06-29T15:01:44Z</time>
      </trkpt>
      <trkpt lat="47.15837" lon="5.95363">
        <ele>347.6</ele>
        <time>2022-06-29T15:01:45Z</time>
      </trkpt>
      <trkpt lat="47.15838" lon="5.95361">
        <ele>347.8</ele>
        <time>2022-06-29T15:01:46Z</time>
      </trkpt>
      <trkpt lat="47.15838" lon="5.95359">
        <ele>348</ele>
        <time>2022-06-29T15:01:47Z</time>
      </trkpt>
      <trkpt lat="47.15839" lon="5.95357">
        <ele>348.3</ele>
        <time>2022-06-29T15:01:48Z</time>
      </trkpt>
      <trkpt lat="47.15841" lon="5.95355">
        <ele>348.6</ele>
        <time>2022-06-29T15:01:49Z</time>
      </trkpt>
      <trkpt lat="47.15841" lon="5.95354">
        <ele>348.7</ele>
        <time>2022-06-29T15:01:50Z</time>
      </trkpt>
      <trkpt lat="47.15842" lon="5.95353">
        <ele>348.9</ele>
        <time>2022-06-29T15:01:51Z</time>
      </trkpt>
      <trkpt lat="47.15844" lon="5.95352">
        <ele>349.2</ele>
        <time>2022-06-29T15:01:52Z</time>
      </trkpt>
      <trkpt lat="47.15844" lon="5.95351">
        <ele>349.3</ele>
        <time>2022-06-29T15:01:53Z</time>
      </trkpt>
      <trkpt lat="47.15845" lon="5.9535">
        <ele>349.5</ele>
        <time>2022-06-29T15:01:54Z</time>
      </trkpt>
      <trkpt lat="47.15846" lon="5.95349">
        <ele>349.7</ele>
        <time>2022-06-29T15:01:55Z</time>
      </trkpt>
      <trkpt lat="47.15847" lon="5.95348">
        <ele>349.8</ele>
        <time>2022-06-29T15:01:56Z</time>
      </trkpt>
      <trkpt lat="47.15848" lon="5.95347">
        <ele>350</ele>
        <time>2022-06-29T15:01:57Z</time>
      </trkpt>
      <trkpt lat="47.15849" lon="5.95345">
        <ele>350.3</ele>
        <time>2022-06-29T15:01:58Z</time>
      </trkpt>
      <trkpt lat="47.1585" lon="5.95344">
        <ele>350.4</ele>
        <time>2022-06-29T15:01:59Z</time>
      </trkpt>
      <trkpt lat="47.1585" lon="5.95343">
        <ele>350.5</ele>
        <time>2022-06-29T15:02:00Z</time>
      </trkpt>
      <trkpt lat="47.15851" lon="5.95342">
        <ele>350.7</ele>
        <time>2022-06-29T15:02:01Z</time>
      </trkpt>
      <trkpt lat="47.15852" lon="5.9534">
        <ele>350.9</ele>
        <time>2022-06-29T15:02:02Z</time>
      </trkpt>
      <trkpt lat="47.15852" lon="5.95338">
        <ele>351.2</ele>
        <time>2022-06-29T15:02:03Z</time>
      </trkpt>
      <trkpt lat="47.15853" lon="5.95336">
        <ele>351.4</ele>
        <time>2022-06-29T15:02:04Z</time>
      </trkpt>
      <trkpt lat="47.15854" lon="5.95333">
        <ele>351.6</ele>
        <time>2022-06-29T15:02:05Z</time>
      </trkpt>
      <trkpt lat="47.15854" lon="5.95331">
        <ele>351.8</ele>
        <time>2022-06-29T15:02:06Z</time>
      </trkpt>
      <trkpt lat="47.15855" lon="5.95329">
        <ele>352</ele>
        <time>2022-06-29T15:02:07Z</time>
      </trkpt>
      <trkpt lat="47.15855" lon="5.95327">
        <ele>352.2</ele>
        <time>2022-06-29T15:02:08Z</time>
      </trkpt>
      <trkpt lat="47.15856" lon="5.95324">
        <ele>352.4</ele>
        <time>2022-06-29T15:02:09Z</time>
      </trkpt>
      <trkpt lat="47.15856" lon="5.95322">
        <ele>352.6</ele>
        <time>2022-06-29T15:02:10Z</time>
      </trkpt>
      <trkpt lat="47.15856" lon="5.95319">
        <ele>352.8</ele>
        <time>2022-06-29T15:02:11Z</time>
      </trkpt>
      <trkpt lat="47.15856" lon="5.95317">
        <ele>353</ele>
        <time>2022-06-29T15:02:12Z</time>
      </trkpt>
      <trkpt lat="47.15856" lon="5.95314">
        <ele>353.2</ele>
        <time>2022-06-29T15:02:13Z</time>
      </trkpt>
      <trkpt lat="47.15856" lon="5.95312">
        <ele>353.3</ele>
        <time>2022-06-29T15:02:14Z</time>
      </trkpt>
      <trkpt lat="47.15855" lon="5.9531">
        <ele>353.5</ele>
        <time>2022-06-29T15:02:15Z</time>
      </trkpt>
      <trkpt lat="47.15855" lon="5.95307">
        <ele>353.7</ele>
        <time>2022-06-29T15:02:16Z</time>
      </trkpt>
      <trkpt lat="47.15854" lon="5.95305">
        <ele>353.8</ele>
        <time>2022-06-29T15:02:17Z</time>
      </trkpt>
      <trkpt lat="47.15853" lon="5.95303">
        <ele>354</ele>
        <time>2022-06-29T15:02:18Z</time>
      </trkpt>
      <trkpt lat="47.15852" lon="5.95301">
        <ele>354.1</ele>
        <time>2022-06-29T15:02:19Z</time>
      </trkpt>
      <trkpt lat="47.15852" lon="5.95299">
        <ele>354.2</ele>
        <time>2022-06-29T15:02:20Z</time>
      </trkpt>
      <trkpt lat="47.15851" lon="5.95297">
        <ele>354.4</ele>
        <time>2022-06-29T15:02:21Z</time>
      </trkpt>
      <trkpt lat="47.1585" lon="5.95295">
        <ele>354.5</ele>
        <time>2022-06-29T15:02:22Z</time>
      </trkpt>
      <trkpt lat="47.1585" lon="5.95293">
        <ele>354.6</ele>
        <time>2022-06-29T15:02:23Z</time>
      </trkpt>
      <trkpt lat="47.15849" lon="5.95292">
        <ele>354.7</ele>
        <time>2022-06-29T15:02:24Z</time>
      </trkpt>
      <trkpt lat="47.15849" lon="5.95291">
        <ele>354.8</ele>
        <time>2022-06-29T15:02:25Z</time>
      </trkpt>
      <trkpt lat="47.15847" lon="5.95289">
        <ele>354.9</ele>
        <time>2022-06-29T15:02:26Z</time>
      </trkpt>
      <trkpt lat="47.15846" lon="5.95288">
        <ele>355</ele>
        <time>2022-06-29T15:02:27Z</time>
      </trkpt>
      <trkpt lat="47.15846" lon="5.95287">
        <ele>355.1</ele>
        <time>2022-06-29T15:02:28Z</time>
      </trkpt>
      <trkpt lat="47.15844" lon="5.95284">
        <ele>355.3</ele>
        <time>2022-06-29T15:02:29Z</time>
      </trkpt>
      <trkpt lat="47.15843" lon="5.95283">
        <ele>355.4</ele>
        <time>2022-06-29T15:02:30Z</time>
      </trkpt>
      <trkpt lat="47.15841" lon="5.9528">
        <ele>355.6</ele>
        <time>2022-06-29T15:02:31Z</time>
      </trkpt>
      <trkpt lat="47.1584" lon="5.95279">
        <ele>355.7</ele>
        <time>2022-06-29T15:02:32Z</time>
      </trkpt>
      <trkpt lat="47.15838" lon="5.95273">
        <ele>356</ele>
        <time>2022-06-29T15:02:34Z</time>
      </trkpt>
      <trkpt lat="47.15837" lon="5.95272">
        <ele>356.1</ele>
        <time>2022-06-29T15:02:35Z</time>
      </trkpt>
      <trkpt lat="47.15835" lon="5.95269">
        <ele>356.4</ele>
        <time>2022-06-29T15:02:36Z</time>
      </trkpt>
      <trkpt lat="47.15835" lon="5.95268">
        <ele>356.4</ele>
        <time>2022-06-29T15:02:37Z</time>
      </trkpt>
      <trkpt lat="47.15832" lon="5.95264">
        <ele>356.7</ele>
        <time>2022-06-29T15:02:38Z</time>
      </trkpt>
      <trkpt lat="47.15832" lon="5.95263">
        <ele>356.8</ele>
        <time>2022-06-29T15:02:39Z</time>
      </trkpt>
      <trkpt lat="47.15829" lon="5.9526">
        <ele>357.1</ele>
        <time>2022-06-29T15:02:40Z</time>
      </trkpt>
      <trkpt lat="47.15828" lon="5.95259">
        <ele>357.2</ele>
        <time>2022-06-29T15:02:41Z</time>
      </trkpt>
      <trkpt lat="47.15826" lon="5.95254">
        <ele>357.5</ele>
        <time>2022-06-29T15:02:42Z</time>
      </trkpt>
      <trkpt lat="47.15826" lon="5.95253">
        <ele>357.6</ele>
        <time>2022-06-29T15:02:43Z</time>
      </trkpt>
      <trkpt lat="47.15824" lon="5.95248">
        <ele>357.9</ele>
        <time>2022-06-29T15:02:44Z</time>
      </trkpt>
      <trkpt lat="47.15824" lon="5.95246">
        <ele>358</ele>
        <time>2022-06-29T15:02:45Z</time>
      </trkpt>
      <trkpt lat="47.15823" lon="5.95241">
        <ele>358.2</ele>
        <time>2022-06-29T15:02:46Z</time>
      </trkpt>
      <trkpt lat="47.15823" lon="5.95239">
        <ele>358.4</ele>
        <time>2022-06-29T15:02:47Z</time>
      </trkpt>
      <trkpt lat="47.15824" lon="5.95235">
        <ele>358.5</ele>
        <time>2022-06-29T15:02:48Z</time>
      </trkpt>
      <trkpt lat="47.15824" lon="5.95231">
        <ele>358.6</ele>
        <time>2022-06-29T15:02:49Z</time>
      </trkpt>
      <trkpt lat="47.15825" lon="5.95227">
        <ele>358.6</ele>
        <time>2022-06-29T15:02:50Z</time>
      </trkpt>
      <trkpt lat="47.15827" lon="5.95224">
        <ele>358.7</ele>
        <time>2022-06-29T15:02:51Z</time>
      </trkpt>
      <trkpt lat="47.1583" lon="5.95222">
        <ele>358.7</ele>
        <time>2022-06-29T15:02:52Z</time>
      </trkpt>
      <trkpt lat="47.15833" lon="5.95223">
        <ele>358.8</ele>
        <time>2022-06-29T15:02:53Z</time>
      </trkpt>
      <trkpt lat="47.15833" lon="5.95224">
        <ele>358.8</ele>
        <time>2022-06-29T15:02:54Z</time>
      </trkpt>
      <trkpt lat="47.15836" lon="5.95226">
        <ele>358.8</ele>
        <time>2022-06-29T15:02:55Z</time>
      </trkpt>
      <trkpt lat="47.15836" lon="5.95227">
        <ele>358.8</ele>
        <time>2022-06-29T15:02:56Z</time>
      </trkpt>
      <trkpt lat="47.15839" lon="5.95231">
        <ele>358.8</ele>
        <time>2022-06-29T15:02:57Z</time>
      </trkpt>
      <trkpt lat="47.1584" lon="5.95232">
        <ele>358.8</ele>
        <time>2022-06-29T15:02:58Z</time>
      </trkpt>
      <trkpt lat="47.15843" lon="5.95235">
        <ele>358.9</ele>
        <time>2022-06-29T15:02:59Z</time>
      </trkpt>
      <trkpt lat="47.15843" lon="5.95236">
        <ele>358.9</ele>
        <time>2022-06-29T15:03:00Z</time>
      </trkpt>
      <trkpt lat="47.15845" lon="5.95237">
        <ele>358.9</ele>
        <time>2022-06-29T15:03:01Z</time>
      </trkpt>
      <trkpt lat="47.15846" lon="5.95237">
        <ele>358.9</ele>
        <time>2022-06-29T15:03:02Z</time>
      </trkpt>
      <trkpt lat="47.15848" lon="5.95238">
        <ele>358.9</ele>
        <time>2022-06-29T15:03:03Z</time>
      </trkpt>
      <trkpt lat="47.1585" lon="5.95239">
        <ele>358.9</ele>
        <time>2022-06-29T15:03:04Z</time>
      </trkpt>
      <trkpt lat="47.15852" lon="5.95241">
        <ele>358.9</ele>
        <time>2022-06-29T15:03:05Z</time>
      </trkpt>
      <trkpt lat="47.15853" lon="5.95242">
        <ele>358.9</ele>
        <time>2022-06-29T15:03:06Z</time>
      </trkpt>
      <trkpt lat="47.15856" lon="5.95245">
        <ele>359</ele>
        <time>2022-06-29T15:03:07Z</time>
      </trkpt>
      <trkpt lat="47.15857" lon="5.95246">
        <ele>359</ele>
        <time>2022-06-29T15:03:08Z</time>
      </trkpt>
      <trkpt lat="47.1586" lon="5.95249">
        <ele>359</ele>
        <time>2022-06-29T15:03:09Z</time>
      </trkpt>
      <trkpt lat="47.15861" lon="5.9525">
        <ele>359</ele>
        <time>2022-06-29T15:03:10Z</time>
      </trkpt>
      <trkpt lat="47.15864" lon="5.95253">
        <ele>359</ele>
        <time>2022-06-29T15:03:11Z</time>
      </trkpt>
      <trkpt lat="47.15865" lon="5.95253">
        <ele>359</ele>
        <time>2022-06-29T15:03:12Z</time>
      </trkpt>
      <trkpt lat="47.15868" lon="5.95256">
        <ele>359.1</ele>
        <time>2022-06-29T15:03:13Z</time>
      </trkpt>
      <trkpt lat="47.15869" lon="5.95257">
        <ele>359.1</ele>
        <time>2022-06-29T15:03:14Z</time>
      </trkpt>
      <trkpt lat="47.15873" lon="5.95259">
        <ele>359.1</ele>
        <time>2022-06-29T15:03:15Z</time>
      </trkpt>
      <trkpt lat="47.15874" lon="5.9526">
        <ele>359.2</ele>
        <time>2022-06-29T15:03:16Z</time>
      </trkpt>
      <trkpt lat="47.15877" lon="5.95262">
        <ele>359.2</ele>
        <time>2022-06-29T15:03:17Z</time>
      </trkpt>
      <trkpt lat="47.15878" lon="5.95263">
        <ele>359.2</ele>
        <time>2022-06-29T15:03:18Z</time>
      </trkpt>
      <trkpt lat="47.15881" lon="5.95265">
        <ele>359.2</ele>
        <time>2022-06-29T15:03:19Z</time>
      </trkpt>
      <trkpt lat="47.15882" lon="5.95265">
        <ele>359.3</ele>
        <time>2022-06-29T15:03:20Z</time>
      </trkpt>
      <trkpt lat="47.15884" lon="5.95267">
        <ele>359.3</ele>
        <time>2022-06-29T15:03:21Z</time>
      </trkpt>
      <trkpt lat="47.15885" lon="5.95268">
        <ele>359.2</ele>
        <time>2022-06-29T15:03:22Z</time>
      </trkpt>
      <trkpt lat="47.15887" lon="5.95271">
        <ele>359.2</ele>
        <time>2022-06-29T15:03:23Z</time>
      </trkpt>
      <trkpt lat="47.15889" lon="5.95272">
        <ele>359.1</ele>
        <time>2022-06-29T15:03:24Z</time>
      </trkpt>
      <trkpt lat="47.1589" lon="5.95273">
        <ele>359.1</ele>
        <time>2022-06-29T15:03:25Z</time>
      </trkpt>
      <trkpt lat="47.15891" lon="5.95273">
        <ele>359.1</ele>
        <time>2022-06-29T15:03:26Z</time>
      </trkpt>
      <trkpt lat="47.15891" lon="5.95274">
        <ele>359.1</ele>
        <time>2022-06-29T15:03:27Z</time>
      </trkpt>
      <trkpt lat="47.15892" lon="5.95274">
        <ele>359.1</ele>
        <time>2022-06-29T15:03:28Z</time>
      </trkpt>
      <trkpt lat="47.15892" lon="5.95274">
        <ele>359.1</ele>
        <time>2022-06-29T15:03:29Z</time>
      </trkpt>
      <trkpt lat="47.15891" lon="5.95274">
        <ele>359.1</ele>
        <time>2022-06-29T15:03:30Z</time>
      </trkpt>
      <trkpt lat="47.15891" lon="5.95274">
        <ele>359.1</ele>
        <time>2022-06-29T15:03:31Z</time>
      </trkpt>
      <trkpt lat="47.15891" lon="5.95274">
        <ele>359.1</ele>
        <time>2022-06-29T15:03:32Z</time>
      </trkpt>
      <trkpt lat="47.15891" lon="5.95274">
        <ele>359.1</ele>
        <time>2022-06-29T15:03:33Z</time>
      </trkpt>
      <trkpt lat="47.15891" lon="5.95274">
        <ele>359.1</ele>
        <time>2022-06-29T15:03:34Z</time>
      </trkpt>
      <trkpt lat="47.15891" lon="5.95274">
        <ele>359.1</ele>
        <time>2022-06-29T15:03:35Z</time>
      </trkpt>
      <trkpt lat="47.15891" lon="5.95274">
        <ele>359.1</ele>
        <time>2022-06-29T15:03:36Z</time>
      </trkpt>
      <trkpt lat="47.15891" lon="5.95274">
        <ele>359.1</ele>
        <time>2022-06-29T15:03:37Z</time>
      </trkpt>
      <trkpt lat="47.15891" lon="5.95274">
        <ele>359.1</ele>
        <time>2022-06-29T15:03:38Z</time>
      </trkpt>
      <trkpt lat="47.15891" lon="5.95274">
        <ele>359.1</ele>
        <time>2022-06-29T15:03:39Z</time>
      </trkpt>
      <trkpt lat="47.15891" lon="5.95274">
        <ele>359.1</ele>
        <time>2022-06-29T15:03:40Z</time>
      </trkpt>
      <trkpt lat="47.15892" lon="5.95275">
        <ele>359.1</ele>
        <time>2022-06-29T15:04:29Z</time>
      </trkpt>
      <trkpt lat="47.15892" lon="5.95274">
        <ele>359.1</ele>
        <time>2022-06-29T15:04:30Z</time>
      </trkpt>
      <trkpt lat="47.15892" lon="5.95274">
        <ele>359</ele>
        <time>2022-06-29T15:04:31Z</time>
      </trkpt>
      <trkpt lat="47.15892" lon="5.95274">
        <ele>359</ele>
        <time>2022-06-29T15:04:32Z</time>
      </trkpt>
      <trkpt lat="47.15892" lon="5.95274">
        <ele>359</ele>
        <time>2022-06-29T15:04:33Z</time>
      </trkpt>
      <trkpt lat="47.15892" lon="5.95274">
        <ele>359</ele>
        <time>2022-06-29T15:04:34Z</time>
      </trkpt>
      <trkpt lat="47.15892" lon="5.95274">
        <ele>359</ele>
        <time>2022-06-29T15:04:35Z</time>
      </trkpt>
      <trkpt lat="47.15892" lon="5.95274">
        <ele>359</ele>
        <time>2022-06-29T15:04:36Z</time>
      </trkpt>
      <trkpt lat="47.15892" lon="5.95274">
        <ele>359</ele>
        <time>2022-06-29T15:04:37Z</time>
      </trkpt>
      <trkpt lat="47.15892" lon="5.95274">
        <ele>359</ele>
        <time>2022-06-29T15:04:38Z</time>
      </trkpt>
      <trkpt lat="47.15892" lon="5.95274">
        <ele>359</ele>
        <time>2022-06-29T15:04:39Z</time>
      </trkpt>
      <trkpt lat="47.15892" lon="5.95274">
        <ele>359</ele>
        <time>2022-06-29T15:04:40Z</time>
      </trkpt>
      <trkpt lat="47.15892" lon="5.95274">
        <ele>359</ele>
        <time>2022-06-29T15:04:41Z</time>
      </trkpt>
      <trkpt lat="47.15892" lon="5.95274">
        <ele>359</ele>
        <time>2022-06-29T15:04:42Z</time>
      </trkpt>
      <trkpt lat="47.15892" lon="5.95274">
        <ele>359</ele>
        <time>2022-06-29T15:04:43Z</time>
      </trkpt>
      <trkpt lat="47.15892" lon="5.95274">
        <ele>359</ele>
        <time>2022-06-29T15:04:44Z</time>
      </trkpt>
      <trkpt lat="47.15892" lon="5.95274">
        <ele>359</ele>
        <time>2022-06-29T15:04:45Z</time>
      </trkpt>
      <trkpt lat="47.15892" lon="5.95274">
        <ele>359</ele>
        <time>2022-06-29T15:04:46Z</time>
      </trkpt>
      <trkpt lat="47.15892" lon="5.95274">
        <ele>359</ele>
        <time>2022-06-29T15:04:47Z</time>
      </trkpt>
      <trkpt lat="47.15892" lon="5.95274">
        <ele>359</ele>
        <time>2022-06-29T15:04:48Z</time>
      </trkpt>
      <trkpt lat="47.15892" lon="5.95274">
        <ele>359</ele>
        <time>2022-06-29T15:04:49Z</time>
      </trkpt>
      <trkpt lat="47.15892" lon="5.95274">
        <ele>359</ele>
        <time>2022-06-29T15:04:50Z</time>
      </trkpt>
      <trkpt lat="47.15892" lon="5.95274">
        <ele>359</ele>
        <time>2022-06-29T15:04:51Z</time>
      </trkpt>
      <trkpt lat="47.15892" lon="5.95274">
        <ele>359</ele>
        <time>2022-06-29T15:04:52Z</time>
      </trkpt>
      <trkpt lat="47.15892" lon="5.95274">
        <ele>359</ele>
        <time>2022-06-29T15:04:53Z</time>
      </trkpt>
      <trkpt lat="47.15892" lon="5.95274">
        <ele>359</ele>
        <time>2022-06-29T15:04:54Z</time>
      </trkpt>
      <trkpt lat="47.15892" lon="5.95274">
        <ele>359</ele>
        <time>2022-06-29T15:04:55Z</time>
      </trkpt>
      <trkpt lat="47.15892" lon="5.95274">
        <ele>359</ele>
        <time>2022-06-29T15:04:56Z</time>
      </trkpt>
      <trkpt lat="47.15892" lon="5.95274">
        <ele>359</ele>
        <time>2022-06-29T15:04:57Z</time>
      </trkpt>
      <trkpt lat="47.15892" lon="5.95274">
        <ele>359</ele>
        <time>2022-06-29T15:04:58Z</time>
      </trkpt>
      <trkpt lat="47.15892" lon="5.95274">
        <ele>359</ele>
        <time>2022-06-29T15:04:59Z</time>
      </trkpt>
      <trkpt lat="47.15892" lon="5.95274">
        <ele>359</ele>
        <time>2022-06-29T15:05:00Z</time>
      </trkpt>
      <trkpt lat="47.15892" lon="5.95274">
        <ele>359</ele>
        <time>2022-06-29T15:05:01Z</time>
      </trkpt>
      <trkpt lat="47.15892" lon="5.95274">
        <ele>359</ele>
        <time>2022-06-29T15:05:02Z</time>
      </trkpt>
      <trkpt lat="47.15892" lon="5.95274">
        <ele>359</ele>
        <time>2022-06-29T15:05:03Z</time>
      </trkpt>
      <trkpt lat="47.15892" lon="5.95274">
        <ele>359</ele>
        <time>2022-06-29T15:05:04Z</time>
      </trkpt>
      <trkpt lat="47.15892" lon="5.95274">
        <ele>359</ele>
        <time>2022-06-29T15:05:05Z</time>
      </trkpt>
      <trkpt lat="47.15892" lon="5.95274">
        <ele>359</ele>
        <time>2022-06-29T15:05:06Z</time>
      </trkpt>
      <trkpt lat="47.15892" lon="5.95274">
        <ele>359</ele>
        <time>2022-06-29T15:05:07Z</time>
      </trkpt>
      <trkpt lat="47.15892" lon="5.95274">
        <ele>359</ele>
        <time>2022-06-29T15:05:08Z</time>
      </trkpt>
      <trkpt lat="47.15892" lon="5.95274">
        <ele>359</ele>
        <time>2022-06-29T15:05:09Z</time>
      </trkpt>
      <trkpt lat="47.15892" lon="5.95274">
        <ele>359</ele>
        <time>2022-06-29T15:05:10Z</time>
      </trkpt>
      <trkpt lat="47.15892" lon="5.95274">
        <ele>359</ele>
        <time>2022-06-29T15:05:11Z</time>
      </trkpt>
      <trkpt lat="47.15892" lon="5.95274">
        <ele>359</ele>
        <time>2022-06-29T15:05:12Z</time>
      </trkpt>
      <trkpt lat="47.15892" lon="5.95274">
        <ele>359</ele>
        <time>2022-06-29T15:05:13Z</time>
      </trkpt>
      <trkpt lat="47.15892" lon="5.95274">
        <ele>359</ele>
        <time>2022-06-29T15:05:14Z</time>
      </trkpt>
      <trkpt lat="47.15892" lon="5.95274">
        <ele>359</ele>
        <time>2022-06-29T15:05:15Z</time>
      </trkpt>
      <trkpt lat="47.15892" lon="5.95274">
        <ele>359</ele>
        <time>2022-06-29T15:05:16Z</time>
      </trkpt>
      <trkpt lat="47.15892" lon="5.95274">
        <ele>359</ele>
        <time>2022-06-29T15:05:17Z</time>
      </trkpt>
      <trkpt lat="47.15892" lon="5.95274">
        <ele>359</ele>
        <time>2022-06-29T15:05:18Z</time>
      </trkpt>
      <trkpt lat="47.15892" lon="5.95274">
        <ele>359</ele>
        <time>2022-06-29T15:05:19Z</time>
      </trkpt>
      <trkpt lat="47.15892" lon="5.95274">
        <ele>359</ele>
        <time>2022-06-29T15:05:20Z</time>
      </trkpt>
      <trkpt lat="47.15892" lon="5.95274">
        <ele>359</ele>
        <time>2022-06-29T15:05:21Z</time>
      </trkpt>
      <trkpt lat="47.15892" lon="5.95274">
        <ele>359</ele>
        <time>2022-06-29T15:05:22Z</time>
      </trkpt>
      <trkpt lat="47.15892" lon="5.95274">
        <ele>359</ele>
        <time>2022-06-29T15:05:23Z</time>
      </trkpt>
      <trkpt lat="47.15892" lon="5.95274">
        <ele>359</ele>
        <time>2022-06-29T15:05:24Z</time>
      </trkpt>
      <trkpt lat="47.15892" lon="5.95274">
        <ele>359</ele>
        <time>2022-06-29T15:05:25Z</time>
      </trkpt>
      <trkpt lat="47.15892" lon="5.95274">
        <ele>359</ele>
        <time>2022-06-29T15:05:26Z</time>
      </trkpt>
      <trkpt lat="47.15892" lon="5.95274">
        <ele>359</ele>
        <time>2022-06-29T15:05:27Z</time>
      </trkpt>
      <trkpt lat="47.15892" lon="5.95274">
        <ele>359</ele>
        <time>2022-06-29T15:05:28Z</time>
      </trkpt>
      <trkpt lat="47.15892" lon="5.95274">
        <ele>359</ele>
        <time>2022-06-29T15:05:29Z</time>
      </trkpt>
      <trkpt lat="47.15892" lon="5.95274">
        <ele>359</ele>
        <time>2022-06-29T15:05:31Z</time>
      </trkpt>
      <trkpt lat="47.15892" lon="5.95274">
        <ele>359</ele>
        <time>2022-06-29T15:05:32Z</time>
      </trkpt>
      <trkpt lat="47.15892" lon="5.95274">
        <ele>359</ele>
        <time>2022-06-29T15:05:33Z</time>
      </trkpt>
      <trkpt lat="47.15892" lon="5.95274">
        <ele>359</ele>
        <time>2022-06-29T15:05:34Z</time>
      </trkpt>
      <trkpt lat="47.15892" lon="5.95274">
        <ele>359</ele>
        <time>2022-06-29T15:05:35Z</time>
      </trkpt>
      <trkpt lat="47.15892" lon="5.95274">
        <ele>359</ele>
        <time>2022-06-29T15:05:36Z</time>
      </trkpt>
      <trkpt lat="47.15892" lon="5.95274">
        <ele>359</ele>
        <time>2022-06-29T15:05:37Z</time>
      </trkpt>
      <trkpt lat="47.15892" lon="5.95274">
        <ele>359</ele>
        <time>2022-06-29T15:05:38Z</time>
      </trkpt>
      <trkpt lat="47.15892" lon="5.95274">
        <ele>359</ele>
        <time>2022-06-29T15:05:39Z</time>
      </trkpt>
      <trkpt lat="47.15892" lon="5.95274">
        <ele>359</ele>
        <time>2022-06-29T15:05:40Z</time>
      </trkpt>
      <trkpt lat="47.15892" lon="5.95274">
        <ele>359</ele>
        <time>2022-06-29T15:05:41Z</time>
      </trkpt>
      <trkpt lat="47.15892" lon="5.95274">
        <ele>359</ele>
        <time>2022-06-29T15:05:42Z</time>
      </trkpt>
      <trkpt lat="47.15892" lon="5.95274">
        <ele>359</ele>
        <time>2022-06-29T15:05:43Z</time>
      </trkpt>
      <trkpt lat="47.15892" lon="5.95274">
        <ele>359</ele>
        <time>2022-06-29T15:05:44Z</time>
      </trkpt>
      <trkpt lat="47.15892" lon="5.95274">
        <ele>359</ele>
        <time>2022-06-29T15:05:45Z</time>
      </trkpt>
      <trkpt lat="47.15892" lon="5.95274">
        <ele>359</ele>
        <time>2022-06-29T15:05:46Z</time>
      </trkpt>
      <trkpt lat="47.15892" lon="5.95274">
        <ele>359</ele>
        <time>2022-06-29T15:05:47Z</time>
      </trkpt>
      <trkpt lat="47.15892" lon="5.95274">
        <ele>359</ele>
        <time>2022-06-29T15:05:48Z</time>
      </trkpt>
      <trkpt lat="47.15892" lon="5.95274">
        <ele>359</ele>
        <time>2022-06-29T15:05:49Z</time>
      </trkpt>
      <trkpt lat="47.15892" lon="5.95274">
        <ele>359</ele>
        <time>2022-06-29T15:05:50Z</time>
      </trkpt>
      <trkpt lat="47.15892" lon="5.95274">
        <ele>359</ele>
        <time>2022-06-29T15:05:51Z</time>
      </trkpt>
      <trkpt lat="47.15892" lon="5.95274">
        <ele>359</ele>
        <time>2022-06-29T15:05:52Z</time>
      </trkpt>
      <trkpt lat="47.15892" lon="5.95274">
        <ele>359</ele>
        <time>2022-06-29T15:05:53Z</time>
      </trkpt>
      <trkpt lat="47.15892" lon="5.95274">
        <ele>359</ele>
        <time>2022-06-29T15:05:54Z</time>
      </trkpt>
      <trkpt lat="47.15892" lon="5.95274">
        <ele>359</ele>
        <time>2022-06-29T15:05:55Z</time>
      </trkpt>
      <trkpt lat="47.15892" lon="5.95274">
        <ele>359</ele>
        <time>2022-06-29T15:05:56Z</time>
      </trkpt>
      <trkpt lat="47.15892" lon="5.95274">
        <ele>359</ele>
        <time>2022-06-29T15:05:57Z</time>
      </trkpt>
      <trkpt lat="47.15892" lon="5.95274">
        <ele>359</ele>
        <time>2022-06-29T15:05:58Z</time>
      </trkpt>
      <trkpt lat="47.15892" lon="5.95274">
        <ele>359</ele>
        <time>2022-06-29T15:05:59Z</time>
      </trkpt>
      <trkpt lat="47.15892" lon="5.95274">
        <ele>359</ele>
        <time>2022-06-29T15:06:00Z</time>
      </trkpt>
      <trkpt lat="47.15892" lon="5.95274">
        <ele>359</ele>
        <time>2022-06-29T15:06:01Z</time>
      </trkpt>
      <trkpt lat="47.15892" lon="5.95274">
        <ele>359</ele>
        <time>2022-06-29T15:06:02Z</time>
      </trkpt>
      <trkpt lat="47.15892" lon="5.95274">
        <ele>359</ele>
        <time>2022-06-29T15:06:03Z</time>
      </trkpt>
      <trkpt lat="47.15892" lon="5.95274">
        <ele>359</ele>
        <time>2022-06-29T15:06:04Z</time>
      </trkpt>
      <trkpt lat="47.15892" lon="5.95274">
        <ele>359</ele>
        <time>2022-06-29T15:06:05Z</time>
      </trkpt>
      <trkpt lat="47.15892" lon="5.95274">
        <ele>359</ele>
        <time>2022-06-29T15:06:06Z</time>
      </trkpt>
      <trkpt lat="47.15892" lon="5.95274">
        <ele>359</ele>
        <time>2022-06-29T15:06:07Z</time>
      </trkpt>
      <trkpt lat="47.15892" lon="5.95274">
        <ele>359</ele>
        <time>2022-06-29T15:06:08Z</time>
      </trkpt>
      <trkpt lat="47.15892" lon="5.95274">
        <ele>359</ele>
        <time>2022-06-29T15:06:09Z</time>
      </trkpt>
      <trkpt lat="47.15892" lon="5.95274">
        <ele>359</ele>
        <time>2022-06-29T15:06:10Z</time>
      </trkpt>
      <trkpt lat="47.15892" lon="5.95274">
        <ele>359</ele>
        <time>2022-06-29T15:06:11Z</time>
      </trkpt>
      <trkpt lat="47.15892" lon="5.95274">
        <ele>359</ele>
        <time>2022-06-29T15:06:12Z</time>
      </trkpt>
      <trkpt lat="47.15892" lon="5.95274">
        <ele>359</ele>
        <time>2022-06-29T15:06:13Z</time>
      </trkpt>
      <trkpt lat="47.15892" lon="5.95275">
        <ele>359</ele>
        <time>2022-06-29T15:06:14Z</time>
      </trkpt>
      <trkpt lat="47.15893" lon="5.95276">
        <ele>359</ele>
        <time>2022-06-29T15:06:15Z</time>
      </trkpt>
      <trkpt lat="47.15894" lon="5.95277">
        <ele>359</ele>
        <time>2022-06-29T15:06:16Z</time>
      </trkpt>
      <trkpt lat="47.15893" lon="5.95276">
        <ele>359</ele>
        <time>2022-06-29T15:06:17Z</time>
      </trkpt>
      <trkpt lat="47.15894" lon="5.95276">
        <ele>359</ele>
        <time>2022-06-29T15:06:18Z</time>
      </trkpt>
      <trkpt lat="47.15894" lon="5.95275">
        <ele>359</ele>
        <time>2022-06-29T15:06:19Z</time>
      </trkpt>
      <trkpt lat="47.15894" lon="5.95275">
        <ele>359</ele>
        <time>2022-06-29T15:06:20Z</time>
      </trkpt>
      <trkpt lat="47.15894" lon="5.95275">
        <ele>359</ele>
        <time>2022-06-29T15:06:21Z</time>
      </trkpt>
      <trkpt lat="47.15895" lon="5.95276">
        <ele>358.9</ele>
        <time>2022-06-29T15:06:22Z</time>
      </trkpt>
      <trkpt lat="47.15897" lon="5.95277">
        <ele>358.9</ele>
        <time>2022-06-29T15:06:23Z</time>
      </trkpt>
      <trkpt lat="47.15899" lon="5.95277">
        <ele>358.9</ele>
        <time>2022-06-29T15:06:24Z</time>
      </trkpt>
      <trkpt lat="47.15902" lon="5.95276">
        <ele>358.8</ele>
        <time>2022-06-29T15:06:25Z</time>
      </trkpt>
      <trkpt lat="47.15903" lon="5.95275">
        <ele>358.8</ele>
        <time>2022-06-29T15:06:26Z</time>
      </trkpt>
      <trkpt lat="47.15905" lon="5.95273">
        <ele>358.7</ele>
        <time>2022-06-29T15:06:27Z</time>
      </trkpt>
      <trkpt lat="47.15906" lon="5.95272">
        <ele>358.7</ele>
        <time>2022-06-29T15:06:28Z</time>
      </trkpt>
      <trkpt lat="47.15909" lon="5.9527">
        <ele>358.7</ele>
        <time>2022-06-29T15:06:29Z</time>
      </trkpt>
      <trkpt lat="47.1591" lon="5.95269">
        <ele>358.6</ele>
        <time>2022-06-29T15:06:30Z</time>
      </trkpt>
      <trkpt lat="47.15912" lon="5.95268">
        <ele>358.6</ele>
        <time>2022-06-29T15:06:31Z</time>
      </trkpt>
      <trkpt lat="47.15913" lon="5.95267">
        <ele>358.6</ele>
        <time>2022-06-29T15:06:32Z</time>
      </trkpt>
      <trkpt lat="47.15916" lon="5.95265">
        <ele>358.6</ele>
        <time>2022-06-29T15:06:33Z</time>
      </trkpt>
      <trkpt lat="47.15917" lon="5.95264">
        <ele>358.7</ele>
        <time>2022-06-29T15:06:34Z</time>
      </trkpt>
      <trkpt lat="47.15921" lon="5.95261">
        <ele>358.7</ele>
        <time>2022-06-29T15:06:35Z</time>
      </trkpt>
      <trkpt lat="47.15922" lon="5.9526">
        <ele>358.7</ele>
        <time>2022-06-29T15:06:36Z</time>
      </trkpt>
      <trkpt lat="47.15926" lon="5.95259">
        <ele>358.8</ele>
        <time>2022-06-29T15:06:37Z</time>
      </trkpt>
      <trkpt lat="47.15927" lon="5.95258">
        <ele>358.9</ele>
        <time>2022-06-29T15:06:38Z</time>
      </trkpt>
      <trkpt lat="47.1593" lon="5.95258">
        <ele>359</ele>
        <time>2022-06-29T15:06:39Z</time>
      </trkpt>
      <trkpt lat="47.15933" lon="5.95257">
        <ele>359.1</ele>
        <time>2022-06-29T15:06:40Z</time>
      </trkpt>
      <trkpt lat="47.15936" lon="5.95256">
        <ele>359.3</ele>
        <time>2022-06-29T15:06:41Z</time>
      </trkpt>
      <trkpt lat="47.15937" lon="5.95256">
        <ele>359.3</ele>
        <time>2022-06-29T15:06:42Z</time>
      </trkpt>
      <trkpt lat="47.15941" lon="5.95255">
        <ele>359.5</ele>
        <time>2022-06-29T15:06:43Z</time>
      </trkpt>
      <trkpt lat="47.15942" lon="5.95254">
        <ele>359.6</ele>
        <time>2022-06-29T15:06:44Z</time>
      </trkpt>
      <trkpt lat="47.15946" lon="5.95253">
        <ele>359.8</ele>
        <time>2022-06-29T15:06:45Z</time>
      </trkpt>
      <trkpt lat="47.15948" lon="5.95253">
        <ele>359.8</ele>
        <time>2022-06-29T15:06:46Z</time>
      </trkpt>
      <trkpt lat="47.1595" lon="5.95252">
        <ele>360</ele>
        <time>2022-06-29T15:06:47Z</time>
      </trkpt>
      <trkpt lat="47.15954" lon="5.95252">
        <ele>360.2</ele>
        <time>2022-06-29T15:06:48Z</time>
      </trkpt>
      <trkpt lat="47.15956" lon="5.95251">
        <ele>360.2</ele>
        <time>2022-06-29T15:06:49Z</time>
      </trkpt>
      <trkpt lat="47.15958" lon="5.9525">
        <ele>360.4</ele>
        <time>2022-06-29T15:06:50Z</time>
      </trkpt>
      <trkpt lat="47.1596" lon="5.9525">
        <ele>360.4</ele>
        <time>2022-06-29T15:06:51Z</time>
      </trkpt>
      <trkpt lat="47.15964" lon="5.9525">
        <ele>360.6</ele>
        <time>2022-06-29T15:06:52Z</time>
      </trkpt>
      <trkpt lat="47.15965" lon="5.95249">
        <ele>360.7</ele>
        <time>2022-06-29T15:06:53Z</time>
      </trkpt>
      <trkpt lat="47.15969" lon="5.95249">
        <ele>360.9</ele>
        <time>2022-06-29T15:06:54Z</time>
      </trkpt>
      <trkpt lat="47.1597" lon="5.95249">
        <ele>360.9</ele>
        <time>2022-06-29T15:06:55Z</time>
      </trkpt>
      <trkpt lat="47.15974" lon="5.95248">
        <ele>361.1</ele>
        <time>2022-06-29T15:06:56Z</time>
      </trkpt>
      <trkpt lat="47.15975" lon="5.95248">
        <ele>361.2</ele>
        <time>2022-06-29T15:06:57Z</time>
      </trkpt>
      <trkpt lat="47.15978" lon="5.95248">
        <ele>361.3</ele>
        <time>2022-06-29T15:06:58Z</time>
      </trkpt>
      <trkpt lat="47.1598" lon="5.95248">
        <ele>361.3</ele>
        <time>2022-06-29T15:06:59Z</time>
      </trkpt>
      <trkpt lat="47.15983" lon="5.95248">
        <ele>361.4</ele>
        <time>2022-06-29T15:07:00Z</time>
      </trkpt>
      <trkpt lat="47.15984" lon="5.95248">
        <ele>361.5</ele>
        <time>2022-06-29T15:07:01Z</time>
      </trkpt>
      <trkpt lat="47.15987" lon="5.95248">
        <ele>361.6</ele>
        <time>2022-06-29T15:07:02Z</time>
      </trkpt>
      <trkpt lat="47.15989" lon="5.95248">
        <ele>361.6</ele>
        <time>2022-06-29T15:07:03Z</time>
      </trkpt>
      <trkpt lat="47.15992" lon="5.95248">
        <ele>361.8</ele>
        <time>2022-06-29T15:07:04Z</time>
      </trkpt>
      <trkpt lat="47.15994" lon="5.95248">
        <ele>361.9</ele>
        <time>2022-06-29T15:07:05Z</time>
      </trkpt>
      <trkpt lat="47.15997" lon="5.95248">
        <ele>362</ele>
        <time>2022-06-29T15:07:06Z</time>
      </trkpt>
      <trkpt lat="47.15998" lon="5.95248">
        <ele>362.1</ele>
        <time>2022-06-29T15:07:07Z</time>
      </trkpt>
      <trkpt lat="47.16001" lon="5.95249">
        <ele>362.3</ele>
        <time>2022-06-29T15:07:08Z</time>
      </trkpt>
      <trkpt lat="47.16002" lon="5.95249">
        <ele>362.3</ele>
        <time>2022-06-29T15:07:09Z</time>
      </trkpt>
      <trkpt lat="47.16006" lon="5.95249">
        <ele>362.5</ele>
        <time>2022-06-29T15:07:11Z</time>
      </trkpt>
      <trkpt lat="47.16009" lon="5.95249">
        <ele>362.7</ele>
        <time>2022-06-29T15:07:12Z</time>
      </trkpt>
      <trkpt lat="47.1601" lon="5.95249">
        <ele>362.8</ele>
        <time>2022-06-29T15:07:13Z</time>
      </trkpt>
      <trkpt lat="47.16013" lon="5.95248">
        <ele>362.9</ele>
        <time>2022-06-29T15:07:14Z</time>
      </trkpt>
      <trkpt lat="47.16014" lon="5.95248">
        <ele>363</ele>
        <time>2022-06-29T15:07:15Z</time>
      </trkpt>
      <trkpt lat="47.16016" lon="5.95247">
        <ele>363.1</ele>
        <time>2022-06-29T15:07:16Z</time>
      </trkpt>
      <trkpt lat="47.16017" lon="5.95247">
        <ele>363.2</ele>
        <time>2022-06-29T15:07:17Z</time>
      </trkpt>
      <trkpt lat="47.1602" lon="5.95246">
        <ele>363.4</ele>
        <time>2022-06-29T15:07:18Z</time>
      </trkpt>
      <trkpt lat="47.16021" lon="5.95246">
        <ele>363.5</ele>
        <time>2022-06-29T15:07:19Z</time>
      </trkpt>
      <trkpt lat="47.16024" lon="5.95245">
        <ele>363.7</ele>
        <time>2022-06-29T15:07:20Z</time>
      </trkpt>
      <trkpt lat="47.16024" lon="5.95245">
        <ele>363.7</ele>
        <time>2022-06-29T15:07:21Z</time>
      </trkpt>
      <trkpt lat="47.16025" lon="5.95244">
        <ele>363.8</ele>
        <time>2022-06-29T15:07:22Z</time>
      </trkpt>
      <trkpt lat="47.16027" lon="5.95243">
        <ele>363.9</ele>
        <time>2022-06-29T15:07:23Z</time>
      </trkpt>
      <trkpt lat="47.1603" lon="5.95242">
        <ele>364.1</ele>
        <time>2022-06-29T15:07:24Z</time>
      </trkpt>
      <trkpt lat="47.16031" lon="5.95241">
        <ele>364.2</ele>
        <time>2022-06-29T15:07:25Z</time>
      </trkpt>
      <trkpt lat="47.16033" lon="5.95241">
        <ele>364.3</ele>
        <time>2022-06-29T15:07:26Z</time>
      </trkpt>
      <trkpt lat="47.16036" lon="5.95238">
        <ele>364.5</ele>
        <time>2022-06-29T15:07:27Z</time>
      </trkpt>
      <trkpt lat="47.16037" lon="5.95237">
        <ele>364.6</ele>
        <time>2022-06-29T15:07:28Z</time>
      </trkpt>
      <trkpt lat="47.16039" lon="5.95234">
        <ele>364.8</ele>
        <time>2022-06-29T15:07:29Z</time>
      </trkpt>
      <trkpt lat="47.1604" lon="5.95233">
        <ele>364.9</ele>
        <time>2022-06-29T15:07:30Z</time>
      </trkpt>
      <trkpt lat="47.16041" lon="5.95229">
        <ele>365.1</ele>
        <time>2022-06-29T15:07:31Z</time>
      </trkpt>
      <trkpt lat="47.16042" lon="5.95228">
        <ele>365.1</ele>
        <time>2022-06-29T15:07:32Z</time>
      </trkpt>
      <trkpt lat="47.16043" lon="5.95224">
        <ele>365.3</ele>
        <time>2022-06-29T15:07:33Z</time>
      </trkpt>
      <trkpt lat="47.16044" lon="5.95223">
        <ele>365.4</ele>
        <time>2022-06-29T15:07:34Z</time>
      </trkpt>
      <trkpt lat="47.16045" lon="5.95219">
        <ele>365.6</ele>
        <time>2022-06-29T15:07:35Z</time>
      </trkpt>
      <trkpt lat="47.16046" lon="5.95218">
        <ele>365.6</ele>
        <time>2022-06-29T15:07:36Z</time>
      </trkpt>
      <trkpt lat="47.16048" lon="5.95214">
        <ele>365.8</ele>
        <time>2022-06-29T15:07:37Z</time>
      </trkpt>
      <trkpt lat="47.16048" lon="5.95213">
        <ele>365.9</ele>
        <time>2022-06-29T15:07:38Z</time>
      </trkpt>
      <trkpt lat="47.16049" lon="5.95211">
        <ele>366</ele>
        <time>2022-06-29T15:07:39Z</time>
      </trkpt>
      <trkpt lat="47.1605" lon="5.95209">
        <ele>366.1</ele>
        <time>2022-06-29T15:07:40Z</time>
      </trkpt>
      <trkpt lat="47.16052" lon="5.95206">
        <ele>366.3</ele>
        <time>2022-06-29T15:07:41Z</time>
      </trkpt>
      <trkpt lat="47.16052" lon="5.95205">
        <ele>366.3</ele>
        <time>2022-06-29T15:07:42Z</time>
      </trkpt>
      <trkpt lat="47.16053" lon="5.95204">
        <ele>366.4</ele>
        <time>2022-06-29T15:07:43Z</time>
      </trkpt>
      <trkpt lat="47.16054" lon="5.95202">
        <ele>366.5</ele>
        <time>2022-06-29T15:07:44Z</time>
      </trkpt>
      <trkpt lat="47.16054" lon="5.95201">
        <ele>366.5</ele>
        <time>2022-06-29T15:07:45Z</time>
      </trkpt>
      <trkpt lat="47.16054" lon="5.95201">
        <ele>366.5</ele>
        <time>2022-06-29T15:07:46Z</time>
      </trkpt>
      <trkpt lat="47.16054" lon="5.952">
        <ele>366.6</ele>
        <time>2022-06-29T15:07:47Z</time>
      </trkpt>
      <trkpt lat="47.16055" lon="5.952">
        <ele>366.6</ele>
        <time>2022-06-29T15:07:48Z</time>
      </trkpt>
      <trkpt lat="47.16055" lon="5.95199">
        <ele>366.6</ele>
        <time>2022-06-29T15:07:49Z</time>
      </trkpt>
      <trkpt lat="47.16055" lon="5.95198">
        <ele>366.6</ele>
        <time>2022-06-29T15:07:50Z</time>
      </trkpt>
      <trkpt lat="47.16055" lon="5.95198">
        <ele>366.7</ele>
        <time>2022-06-29T15:07:51Z</time>
      </trkpt>
      <trkpt lat="47.16055" lon="5.95197">
        <ele>366.7</ele>
        <time>2022-06-29T15:07:52Z</time>
      </trkpt>
      <trkpt lat="47.16056" lon="5.95197">
        <ele>366.7</ele>
        <time>2022-06-29T15:07:53Z</time>
      </trkpt>
      <trkpt lat="47.16056" lon="5.95196">
        <ele>366.8</ele>
        <time>2022-06-29T15:07:54Z</time>
      </trkpt>
      <trkpt lat="47.16056" lon="5.95196">
        <ele>366.8</ele>
        <time>2022-06-29T15:07:55Z</time>
      </trkpt>
      <trkpt lat="47.16056" lon="5.95195">
        <ele>366.8</ele>
        <time>2022-06-29T15:07:56Z</time>
      </trkpt>
      <trkpt lat="47.16056" lon="5.95194">
        <ele>366.8</ele>
        <time>2022-06-29T15:07:57Z</time>
      </trkpt>
      <trkpt lat="47.16056" lon="5.95194">
        <ele>366.8</ele>
        <time>2022-06-29T15:07:58Z</time>
      </trkpt>
      <trkpt lat="47.16057" lon="5.95193">
        <ele>366.8</ele>
        <time>2022-06-29T15:08:02Z</time>
      </trkpt>
      <trkpt lat="47.16057" lon="5.95193">
        <ele>366.8</ele>
        <time>2022-06-29T15:08:03Z</time>
      </trkpt>
      <trkpt lat="47.16057" lon="5.95192">
        <ele>366.8</ele>
        <time>2022-06-29T15:08:04Z</time>
      </trkpt>
      <trkpt lat="47.16058" lon="5.95188">
        <ele>366.8</ele>
        <time>2022-06-29T15:08:05Z</time>
      </trkpt>
      <trkpt lat="47.16058" lon="5.95183">
        <ele>366.9</ele>
        <time>2022-06-29T15:08:06Z</time>
      </trkpt>
      <trkpt lat="47.16058" lon="5.9518">
        <ele>366.9</ele>
        <time>2022-06-29T15:08:07Z</time>
      </trkpt>
      <trkpt lat="47.16057" lon="5.95175">
        <ele>366.9</ele>
        <time>2022-06-29T15:08:08Z</time>
      </trkpt>
      <trkpt lat="47.16056" lon="5.95173">
        <ele>366.9</ele>
        <time>2022-06-29T15:08:09Z</time>
      </trkpt>
      <trkpt lat="47.16055" lon="5.95169">
        <ele>366.9</ele>
        <time>2022-06-29T15:08:10Z</time>
      </trkpt>
      <trkpt lat="47.16054" lon="5.95168">
        <ele>367</ele>
        <time>2022-06-29T15:08:11Z</time>
      </trkpt>
      <trkpt lat="47.16053" lon="5.95163">
        <ele>367.3</ele>
        <time>2022-06-29T15:08:12Z</time>
      </trkpt>
      <trkpt lat="47.16052" lon="5.95161">
        <ele>367.4</ele>
        <time>2022-06-29T15:08:13Z</time>
      </trkpt>
      <trkpt lat="47.16051" lon="5.95156">
        <ele>367.7</ele>
        <time>2022-06-29T15:08:14Z</time>
      </trkpt>
      <trkpt lat="47.16049" lon="5.9515">
        <ele>368</ele>
        <time>2022-06-29T15:08:15Z</time>
      </trkpt>
      <trkpt lat="47.16048" lon="5.95146">
        <ele>368.2</ele>
        <time>2022-06-29T15:08:16Z</time>
      </trkpt>
      <trkpt lat="47.16045" lon="5.95143">
        <ele>368.4</ele>
        <time>2022-06-29T15:08:17Z</time>
      </trkpt>
      <trkpt lat="47.16044" lon="5.95143">
        <ele>368.5</ele>
        <time>2022-06-29T15:08:18Z</time>
      </trkpt>
      <trkpt lat="47.16041" lon="5.95143">
        <ele>368.7</ele>
        <time>2022-06-29T15:08:19Z</time>
      </trkpt>
      <trkpt lat="47.1604" lon="5.95142">
        <ele>368.7</ele>
        <time>2022-06-29T15:08:20Z</time>
      </trkpt>
      <trkpt lat="47.16038" lon="5.95141">
        <ele>368.9</ele>
        <time>2022-06-29T15:08:21Z</time>
      </trkpt>
      <trkpt lat="47.16037" lon="5.95141">
        <ele>369</ele>
        <time>2022-06-29T15:08:22Z</time>
      </trkpt>
      <trkpt lat="47.16036" lon="5.95138">
        <ele>369.1</ele>
        <time>2022-06-29T15:08:23Z</time>
      </trkpt>
      <trkpt lat="47.16036" lon="5.95136">
        <ele>369.2</ele>
        <time>2022-06-29T15:08:24Z</time>
      </trkpt>
      <trkpt lat="47.16036" lon="5.95135">
        <ele>369.2</ele>
        <time>2022-06-29T15:08:25Z</time>
      </trkpt>
      <trkpt lat="47.16035" lon="5.95132">
        <ele>369.3</ele>
        <time>2022-06-29T15:08:26Z</time>
      </trkpt>
      <trkpt lat="47.16034" lon="5.9513">
        <ele>369.4</ele>
        <time>2022-06-29T15:08:27Z</time>
      </trkpt>
      <trkpt lat="47.16033" lon="5.95129">
        <ele>369.5</ele>
        <time>2022-06-29T15:08:28Z</time>
      </trkpt>
      <trkpt lat="47.16032" lon="5.95127">
        <ele>369.6</ele>
        <time>2022-06-29T15:08:29Z</time>
      </trkpt>
      <trkpt lat="47.16032" lon="5.95125">
        <ele>369.7</ele>
        <time>2022-06-29T15:08:30Z</time>
      </trkpt>
      <trkpt lat="47.16032" lon="5.95123">
        <ele>369.9</ele>
        <time>2022-06-29T15:08:31Z</time>
      </trkpt>
      <trkpt lat="47.16033" lon="5.95119">
        <ele>370.1</ele>
        <time>2022-06-29T15:08:32Z</time>
      </trkpt>
      <trkpt lat="47.16033" lon="5.95118">
        <ele>370.1</ele>
        <time>2022-06-29T15:08:33Z</time>
      </trkpt>
      <trkpt lat="47.16034" lon="5.95115">
        <ele>370.3</ele>
        <time>2022-06-29T15:08:34Z</time>
      </trkpt>
      <trkpt lat="47.16035" lon="5.95113">
        <ele>370.4</ele>
        <time>2022-06-29T15:08:35Z</time>
      </trkpt>
      <trkpt lat="47.16035" lon="5.95111">
        <ele>370.5</ele>
        <time>2022-06-29T15:08:36Z</time>
      </trkpt>
      <trkpt lat="47.16035" lon="5.95109">
        <ele>370.6</ele>
        <time>2022-06-29T15:08:37Z</time>
      </trkpt>
      <trkpt lat="47.16035" lon="5.95107">
        <ele>370.8</ele>
        <time>2022-06-29T15:08:38Z</time>
      </trkpt>
      <trkpt lat="47.16035" lon="5.95105">
        <ele>370.9</ele>
        <time>2022-06-29T15:08:39Z</time>
      </trkpt>
      <trkpt lat="47.16035" lon="5.95103">
        <ele>371</ele>
        <time>2022-06-29T15:08:40Z</time>
      </trkpt>
      <trkpt lat="47.16035" lon="5.95101">
        <ele>371.1</ele>
        <time>2022-06-29T15:08:41Z</time>
      </trkpt>
      <trkpt lat="47.16035" lon="5.95099">
        <ele>371.2</ele>
        <time>2022-06-29T15:08:42Z</time>
      </trkpt>
      <trkpt lat="47.16034" lon="5.95096">
        <ele>371.3</ele>
        <time>2022-06-29T15:08:43Z</time>
      </trkpt>
      <trkpt lat="47.16032" lon="5.95093">
        <ele>371.5</ele>
        <time>2022-06-29T15:08:44Z</time>
      </trkpt>
      <trkpt lat="47.16032" lon="5.95092">
        <ele>371.6</ele>
        <time>2022-06-29T15:08:45Z</time>
      </trkpt>
      <trkpt lat="47.16031" lon="5.9509">
        <ele>371.7</ele>
        <time>2022-06-29T15:08:46Z</time>
      </trkpt>
      <trkpt lat="47.1603" lon="5.95088">
        <ele>371.8</ele>
        <time>2022-06-29T15:08:47Z</time>
      </trkpt>
      <trkpt lat="47.16028" lon="5.95086">
        <ele>372</ele>
        <time>2022-06-29T15:08:48Z</time>
      </trkpt>
      <trkpt lat="47.16027" lon="5.95084">
        <ele>372.1</ele>
        <time>2022-06-29T15:08:49Z</time>
      </trkpt>
      <trkpt lat="47.16026" lon="5.95082">
        <ele>372.2</ele>
        <time>2022-06-29T15:08:50Z</time>
      </trkpt>
      <trkpt lat="47.16025" lon="5.9508">
        <ele>372.3</ele>
        <time>2022-06-29T15:08:51Z</time>
      </trkpt>
      <trkpt lat="47.16023" lon="5.95077">
        <ele>372.5</ele>
        <time>2022-06-29T15:08:52Z</time>
      </trkpt>
      <trkpt lat="47.16023" lon="5.95076">
        <ele>372.5</ele>
        <time>2022-06-29T15:08:53Z</time>
      </trkpt>
      <trkpt lat="47.16022" lon="5.95073">
        <ele>372.6</ele>
        <time>2022-06-29T15:08:54Z</time>
      </trkpt>
      <trkpt lat="47.16021" lon="5.95071">
        <ele>372.7</ele>
        <time>2022-06-29T15:08:55Z</time>
      </trkpt>
      <trkpt lat="47.1602" lon="5.95067">
        <ele>372.8</ele>
        <time>2022-06-29T15:08:56Z</time>
      </trkpt>
      <trkpt lat="47.16019" lon="5.95066">
        <ele>372.9</ele>
        <time>2022-06-29T15:08:57Z</time>
      </trkpt>
      <trkpt lat="47.16017" lon="5.95063">
        <ele>373</ele>
        <time>2022-06-29T15:08:58Z</time>
      </trkpt>
      <trkpt lat="47.16017" lon="5.95062">
        <ele>373</ele>
        <time>2022-06-29T15:08:59Z</time>
      </trkpt>
      <trkpt lat="47.16014" lon="5.95058">
        <ele>373.1</ele>
        <time>2022-06-29T15:09:00Z</time>
      </trkpt>
      <trkpt lat="47.16014" lon="5.95057">
        <ele>373.1</ele>
        <time>2022-06-29T15:09:01Z</time>
      </trkpt>
      <trkpt lat="47.16011" lon="5.95054">
        <ele>373.1</ele>
        <time>2022-06-29T15:09:02Z</time>
      </trkpt>
      <trkpt lat="47.1601" lon="5.95053">
        <ele>373.2</ele>
        <time>2022-06-29T15:09:03Z</time>
      </trkpt>
      <trkpt lat="47.16008" lon="5.9505">
        <ele>373.2</ele>
        <time>2022-06-29T15:09:04Z</time>
      </trkpt>
      <trkpt lat="47.16007" lon="5.95049">
        <ele>373.2</ele>
        <time>2022-06-29T15:09:05Z</time>
      </trkpt>
      <trkpt lat="47.16003" lon="5.95046">
        <ele>373.3</ele>
        <time>2022-06-29T15:09:06Z</time>
      </trkpt>
      <trkpt lat="47.16002" lon="5.95045">
        <ele>373.3</ele>
        <time>2022-06-29T15:09:07Z</time>
      </trkpt>
      <trkpt lat="47.16" lon="5.95042">
        <ele>373.3</ele>
        <time>2022-06-29T15:09:08Z</time>
      </trkpt>
      <trkpt lat="47.15999" lon="5.9504">
        <ele>373.3</ele>
        <time>2022-06-29T15:09:09Z</time>
      </trkpt>
      <trkpt lat="47.15997" lon="5.95037">
        <ele>373.4</ele>
        <time>2022-06-29T15:09:10Z</time>
      </trkpt>
      <trkpt lat="47.15996" lon="5.95036">
        <ele>373.4</ele>
        <time>2022-06-29T15:09:11Z</time>
      </trkpt>
      <trkpt lat="47.15994" lon="5.95032">
        <ele>373.4</ele>
        <time>2022-06-29T15:09:12Z</time>
      </trkpt>
      <trkpt lat="47.15993" lon="5.95031">
        <ele>373.4</ele>
        <time>2022-06-29T15:09:13Z</time>
      </trkpt>
      <trkpt lat="47.15991" lon="5.95026">
        <ele>373.5</ele>
        <time>2022-06-29T15:09:14Z</time>
      </trkpt>
      <trkpt lat="47.1599" lon="5.95025">
        <ele>373.5</ele>
        <time>2022-06-29T15:09:15Z</time>
      </trkpt>
      <trkpt lat="47.15988" lon="5.9502">
        <ele>373.5</ele>
        <time>2022-06-29T15:09:16Z</time>
      </trkpt>
      <trkpt lat="47.15987" lon="5.95019">
        <ele>373.5</ele>
        <time>2022-06-29T15:09:17Z</time>
      </trkpt>
      <trkpt lat="47.15985" lon="5.95014">
        <ele>373.6</ele>
        <time>2022-06-29T15:09:18Z</time>
      </trkpt>
      <trkpt lat="47.15984" lon="5.95013">
        <ele>373.6</ele>
        <time>2022-06-29T15:09:19Z</time>
      </trkpt>
      <trkpt lat="47.15983" lon="5.95008">
        <ele>373.7</ele>
        <time>2022-06-29T15:09:20Z</time>
      </trkpt>
      <trkpt lat="47.15982" lon="5.95007">
        <ele>373.7</ele>
        <time>2022-06-29T15:09:21Z</time>
      </trkpt>
      <trkpt lat="47.1598" lon="5.95002">
        <ele>373.8</ele>
        <time>2022-06-29T15:09:22Z</time>
      </trkpt>
      <trkpt lat="47.1598" lon="5.95">
        <ele>373.8</ele>
        <time>2022-06-29T15:09:23Z</time>
      </trkpt>
      <trkpt lat="47.15978" lon="5.94996">
        <ele>373.9</ele>
        <time>2022-06-29T15:09:24Z</time>
      </trkpt>
      <trkpt lat="47.15978" lon="5.94995">
        <ele>373.9</ele>
        <time>2022-06-29T15:09:25Z</time>
      </trkpt>
      <trkpt lat="47.15977" lon="5.9499">
        <ele>374</ele>
        <time>2022-06-29T15:09:26Z</time>
      </trkpt>
      <trkpt lat="47.15976" lon="5.94988">
        <ele>374</ele>
        <time>2022-06-29T15:09:27Z</time>
      </trkpt>
      <trkpt lat="47.15974" lon="5.94983">
        <ele>374.1</ele>
        <time>2022-06-29T15:09:28Z</time>
      </trkpt>
      <trkpt lat="47.15974" lon="5.94982">
        <ele>374.1</ele>
        <time>2022-06-29T15:09:29Z</time>
      </trkpt>
      <trkpt lat="47.15972" lon="5.94977">
        <ele>374.2</ele>
        <time>2022-06-29T15:09:30Z</time>
      </trkpt>
      <trkpt lat="47.15972" lon="5.94975">
        <ele>374.3</ele>
        <time>2022-06-29T15:09:31Z</time>
      </trkpt>
      <trkpt lat="47.1597" lon="5.9497">
        <ele>374.4</ele>
        <time>2022-06-29T15:09:32Z</time>
      </trkpt>
      <trkpt lat="47.1597" lon="5.94969">
        <ele>374.4</ele>
        <time>2022-06-29T15:09:33Z</time>
      </trkpt>
      <trkpt lat="47.15968" lon="5.94964">
        <ele>374.5</ele>
        <time>2022-06-29T15:09:34Z</time>
      </trkpt>
      <trkpt lat="47.15968" lon="5.94962">
        <ele>374.6</ele>
        <time>2022-06-29T15:09:35Z</time>
      </trkpt>
      <trkpt lat="47.15967" lon="5.94957">
        <ele>374.7</ele>
        <time>2022-06-29T15:09:36Z</time>
      </trkpt>
      <trkpt lat="47.15966" lon="5.94956">
        <ele>374.7</ele>
        <time>2022-06-29T15:09:37Z</time>
      </trkpt>
      <trkpt lat="47.15966" lon="5.94954">
        <ele>374.7</ele>
        <time>2022-06-29T15:09:38Z</time>
      </trkpt>
      <trkpt lat="47.15965" lon="5.94951">
        <ele>374.8</ele>
        <time>2022-06-29T15:09:39Z</time>
      </trkpt>
      <trkpt lat="47.15963" lon="5.94947">
        <ele>374.9</ele>
        <time>2022-06-29T15:09:40Z</time>
      </trkpt>
      <trkpt lat="47.15963" lon="5.94946">
        <ele>374.9</ele>
        <time>2022-06-29T15:09:41Z</time>
      </trkpt>
      <trkpt lat="47.15961" lon="5.94942">
        <ele>375</ele>
        <time>2022-06-29T15:09:42Z</time>
      </trkpt>
      <trkpt lat="47.15961" lon="5.94941">
        <ele>375.1</ele>
        <time>2022-06-29T15:09:43Z</time>
      </trkpt>
      <trkpt lat="47.15959" lon="5.94936">
        <ele>375.2</ele>
        <time>2022-06-29T15:09:44Z</time>
      </trkpt>
      <trkpt lat="47.15959" lon="5.94935">
        <ele>375.2</ele>
        <time>2022-06-29T15:09:45Z</time>
      </trkpt>
      <trkpt lat="47.15957" lon="5.94931">
        <ele>375.3</ele>
        <time>2022-06-29T15:09:46Z</time>
      </trkpt>
      <trkpt lat="47.15956" lon="5.94929">
        <ele>375.3</ele>
        <time>2022-06-29T15:09:47Z</time>
      </trkpt>
      <trkpt lat="47.15955" lon="5.94924">
        <ele>375.5</ele>
        <time>2022-06-29T15:09:48Z</time>
      </trkpt>
      <trkpt lat="47.15955" lon="5.94922">
        <ele>375.5</ele>
        <time>2022-06-29T15:09:49Z</time>
      </trkpt>
      <trkpt lat="47.15954" lon="5.94918">
        <ele>375.6</ele>
        <time>2022-06-29T15:09:50Z</time>
      </trkpt>
      <trkpt lat="47.15954" lon="5.94916">
        <ele>375.6</ele>
        <time>2022-06-29T15:09:51Z</time>
      </trkpt>
      <trkpt lat="47.15953" lon="5.94911">
        <ele>375.7</ele>
        <time>2022-06-29T15:09:52Z</time>
      </trkpt>
      <trkpt lat="47.15952" lon="5.94909">
        <ele>375.8</ele>
        <time>2022-06-29T15:09:53Z</time>
      </trkpt>
      <trkpt lat="47.15951" lon="5.94905">
        <ele>375.8</ele>
        <time>2022-06-29T15:09:54Z</time>
      </trkpt>
      <trkpt lat="47.15951" lon="5.94904">
        <ele>375.9</ele>
        <time>2022-06-29T15:09:55Z</time>
      </trkpt>
      <trkpt lat="47.15949" lon="5.949">
        <ele>375.9</ele>
        <time>2022-06-29T15:09:56Z</time>
      </trkpt>
      <trkpt lat="47.15949" lon="5.94898">
        <ele>376</ele>
        <time>2022-06-29T15:09:57Z</time>
      </trkpt>
      <trkpt lat="47.15947" lon="5.94894">
        <ele>376</ele>
        <time>2022-06-29T15:09:58Z</time>
      </trkpt>
      <trkpt lat="47.15947" lon="5.94892">
        <ele>376.1</ele>
        <time>2022-06-29T15:09:59Z</time>
      </trkpt>
      <trkpt lat="47.15945" lon="5.94887">
        <ele>376.2</ele>
        <time>2022-06-29T15:10:00Z</time>
      </trkpt>
      <trkpt lat="47.15944" lon="5.94885">
        <ele>376.2</ele>
        <time>2022-06-29T15:10:01Z</time>
      </trkpt>
      <trkpt lat="47.15943" lon="5.94881">
        <ele>376.3</ele>
        <time>2022-06-29T15:10:02Z</time>
      </trkpt>
      <trkpt lat="47.15942" lon="5.94877">
        <ele>376.4</ele>
        <time>2022-06-29T15:10:03Z</time>
      </trkpt>
      <trkpt lat="47.1594" lon="5.94873">
        <ele>376.5</ele>
        <time>2022-06-29T15:10:04Z</time>
      </trkpt>
      <trkpt lat="47.15939" lon="5.94869">
        <ele>376.6</ele>
        <time>2022-06-29T15:10:05Z</time>
      </trkpt>
      <trkpt lat="47.15937" lon="5.94865">
        <ele>376.7</ele>
        <time>2022-06-29T15:10:06Z</time>
      </trkpt>
      <trkpt lat="47.15935" lon="5.94861">
        <ele>376.8</ele>
        <time>2022-06-29T15:10:07Z</time>
      </trkpt>
      <trkpt lat="47.15935" lon="5.94859">
        <ele>376.9</ele>
        <time>2022-06-29T15:10:08Z</time>
      </trkpt>
      <trkpt lat="47.15933" lon="5.94854">
        <ele>377</ele>
        <time>2022-06-29T15:10:09Z</time>
      </trkpt>
      <trkpt lat="47.15932" lon="5.94852">
        <ele>377.1</ele>
        <time>2022-06-29T15:10:10Z</time>
      </trkpt>
      <trkpt lat="47.1593" lon="5.94846">
        <ele>377.3</ele>
        <time>2022-06-29T15:10:12Z</time>
      </trkpt>
      <trkpt lat="47.15928" lon="5.94843">
        <ele>377.3</ele>
        <time>2022-06-29T15:10:13Z</time>
      </trkpt>
      <trkpt lat="47.15926" lon="5.9484">
        <ele>377.4</ele>
        <time>2022-06-29T15:10:14Z</time>
      </trkpt>
      <trkpt lat="47.15924" lon="5.94837">
        <ele>377.5</ele>
        <time>2022-06-29T15:10:15Z</time>
      </trkpt>
      <trkpt lat="47.15922" lon="5.94834">
        <ele>377.5</ele>
        <time>2022-06-29T15:10:16Z</time>
      </trkpt>
      <trkpt lat="47.15919" lon="5.94828">
        <ele>377.6</ele>
        <time>2022-06-29T15:10:18Z</time>
      </trkpt>
      <trkpt lat="47.15916" lon="5.94824">
        <ele>377.6</ele>
        <time>2022-06-29T15:10:19Z</time>
      </trkpt>
      <trkpt lat="47.15915" lon="5.94822">
        <ele>377.6</ele>
        <time>2022-06-29T15:10:20Z</time>
      </trkpt>
      <trkpt lat="47.15913" lon="5.94819">
        <ele>377.6</ele>
        <time>2022-06-29T15:10:21Z</time>
      </trkpt>
      <trkpt lat="47.1591" lon="5.94816">
        <ele>377.6</ele>
        <time>2022-06-29T15:10:22Z</time>
      </trkpt>
      <trkpt lat="47.15907" lon="5.94811">
        <ele>377.6</ele>
        <time>2022-06-29T15:10:24Z</time>
      </trkpt>
      <trkpt lat="47.15903" lon="5.94804">
        <ele>377.6</ele>
        <time>2022-06-29T15:10:25Z</time>
      </trkpt>
      <trkpt lat="47.15902" lon="5.94801">
        <ele>377.6</ele>
        <time>2022-06-29T15:10:26Z</time>
      </trkpt>
      <trkpt lat="47.159" lon="5.94797">
        <ele>377.7</ele>
        <time>2022-06-29T15:10:27Z</time>
      </trkpt>
      <trkpt lat="47.15897" lon="5.94793">
        <ele>377.7</ele>
        <time>2022-06-29T15:10:28Z</time>
      </trkpt>
      <trkpt lat="47.15895" lon="5.94788">
        <ele>377.8</ele>
        <time>2022-06-29T15:10:29Z</time>
      </trkpt>
      <trkpt lat="47.15894" lon="5.94787">
        <ele>377.8</ele>
        <time>2022-06-29T15:10:30Z</time>
      </trkpt>
      <trkpt lat="47.15892" lon="5.94784">
        <ele>377.9</ele>
        <time>2022-06-29T15:10:31Z</time>
      </trkpt>
      <trkpt lat="47.1589" lon="5.94782">
        <ele>377.9</ele>
        <time>2022-06-29T15:10:32Z</time>
      </trkpt>
      <trkpt lat="47.15888" lon="5.94778">
        <ele>378</ele>
        <time>2022-06-29T15:10:33Z</time>
      </trkpt>
      <trkpt lat="47.15886" lon="5.94775">
        <ele>378.1</ele>
        <time>2022-06-29T15:10:34Z</time>
      </trkpt>
      <trkpt lat="47.15885" lon="5.9477">
        <ele>378.2</ele>
        <time>2022-06-29T15:10:35Z</time>
      </trkpt>
      <trkpt lat="47.15884" lon="5.94765">
        <ele>378.4</ele>
        <time>2022-06-29T15:10:36Z</time>
      </trkpt>
      <trkpt lat="47.15883" lon="5.94763">
        <ele>378.5</ele>
        <time>2022-06-29T15:10:37Z</time>
      </trkpt>
      <trkpt lat="47.15882" lon="5.94758">
        <ele>378.7</ele>
        <time>2022-06-29T15:10:38Z</time>
      </trkpt>
      <trkpt lat="47.15882" lon="5.94757">
        <ele>378.7</ele>
        <time>2022-06-29T15:10:39Z</time>
      </trkpt>
      <trkpt lat="47.1588" lon="5.94753">
        <ele>379</ele>
        <time>2022-06-29T15:10:40Z</time>
      </trkpt>
      <trkpt lat="47.1588" lon="5.94751">
        <ele>379</ele>
        <time>2022-06-29T15:10:41Z</time>
      </trkpt>
      <trkpt lat="47.15878" lon="5.94747">
        <ele>379.3</ele>
        <time>2022-06-29T15:10:42Z</time>
      </trkpt>
      <trkpt lat="47.15878" lon="5.94745">
        <ele>379.4</ele>
        <time>2022-06-29T15:10:43Z</time>
      </trkpt>
      <trkpt lat="47.15876" lon="5.94741">
        <ele>379.6</ele>
        <time>2022-06-29T15:10:44Z</time>
      </trkpt>
      <trkpt lat="47.15876" lon="5.9474">
        <ele>379.7</ele>
        <time>2022-06-29T15:10:45Z</time>
      </trkpt>
      <trkpt lat="47.15874" lon="5.94736">
        <ele>380</ele>
        <time>2022-06-29T15:10:46Z</time>
      </trkpt>
      <trkpt lat="47.15874" lon="5.94735">
        <ele>380.1</ele>
        <time>2022-06-29T15:10:47Z</time>
      </trkpt>
      <trkpt lat="47.15873" lon="5.94732">
        <ele>380.2</ele>
        <time>2022-06-29T15:10:48Z</time>
      </trkpt>
      <trkpt lat="47.15873" lon="5.9473">
        <ele>380.4</ele>
        <time>2022-06-29T15:10:49Z</time>
      </trkpt>
      <trkpt lat="47.15873" lon="5.94728">
        <ele>380.5</ele>
        <time>2022-06-29T15:10:50Z</time>
      </trkpt>
      <trkpt lat="47.15872" lon="5.94727">
        <ele>380.6</ele>
        <time>2022-06-29T15:10:51Z</time>
      </trkpt>
      <trkpt lat="47.15872" lon="5.94727">
        <ele>380.6</ele>
        <time>2022-06-29T15:10:52Z</time>
      </trkpt>
      <trkpt lat="47.15871" lon="5.94727">
        <ele>380.7</ele>
        <time>2022-06-29T15:10:53Z</time>
      </trkpt>
      <trkpt lat="47.15871" lon="5.94727">
        <ele>380.7</ele>
        <time>2022-06-29T15:10:54Z</time>
      </trkpt>
      <trkpt lat="47.15871" lon="5.94727">
        <ele>380.7</ele>
        <time>2022-06-29T15:10:55Z</time>
      </trkpt>
      <trkpt lat="47.15871" lon="5.94727">
        <ele>380.7</ele>
        <time>2022-06-29T15:10:56Z</time>
      </trkpt>
      <trkpt lat="47.15871" lon="5.94726">
        <ele>380.8</ele>
        <time>2022-06-29T15:10:57Z</time>
      </trkpt>
      <trkpt lat="47.15871" lon="5.94725">
        <ele>380.8</ele>
        <time>2022-06-29T15:10:58Z</time>
      </trkpt>
      <trkpt lat="47.15871" lon="5.94725">
        <ele>380.9</ele>
        <time>2022-06-29T15:10:59Z</time>
      </trkpt>
      <trkpt lat="47.15871" lon="5.94724">
        <ele>380.9</ele>
        <time>2022-06-29T15:11:00Z</time>
      </trkpt>
      <trkpt lat="47.1587" lon="5.94723">
        <ele>381</ele>
        <time>2022-06-29T15:11:01Z</time>
      </trkpt>
      <trkpt lat="47.1587" lon="5.94722">
        <ele>381</ele>
        <time>2022-06-29T15:11:02Z</time>
      </trkpt>
      <trkpt lat="47.1587" lon="5.94721">
        <ele>381.1</ele>
        <time>2022-06-29T15:11:03Z</time>
      </trkpt>
      <trkpt lat="47.1587" lon="5.9472">
        <ele>381.2</ele>
        <time>2022-06-29T15:11:04Z</time>
      </trkpt>
      <trkpt lat="47.15869" lon="5.9472">
        <ele>381.3</ele>
        <time>2022-06-29T15:11:05Z</time>
      </trkpt>
      <trkpt lat="47.15869" lon="5.94719">
        <ele>381.3</ele>
        <time>2022-06-29T15:11:06Z</time>
      </trkpt>
      <trkpt lat="47.15869" lon="5.94717">
        <ele>381.5</ele>
        <time>2022-06-29T15:11:07Z</time>
      </trkpt>
      <trkpt lat="47.15869" lon="5.94716">
        <ele>381.6</ele>
        <time>2022-06-29T15:11:08Z</time>
      </trkpt>
      <trkpt lat="47.15869" lon="5.94715">
        <ele>381.6</ele>
        <time>2022-06-29T15:11:09Z</time>
      </trkpt>
      <trkpt lat="47.15869" lon="5.94714">
        <ele>381.7</ele>
        <time>2022-06-29T15:11:10Z</time>
      </trkpt>
      <trkpt lat="47.15869" lon="5.94714">
        <ele>381.7</ele>
        <time>2022-06-29T15:11:11Z</time>
      </trkpt>
      <trkpt lat="47.15869" lon="5.94713">
        <ele>381.8</ele>
        <time>2022-06-29T15:11:12Z</time>
      </trkpt>
      <trkpt lat="47.15869" lon="5.94712">
        <ele>381.8</ele>
        <time>2022-06-29T15:11:13Z</time>
      </trkpt>
      <trkpt lat="47.15869" lon="5.94712">
        <ele>381.9</ele>
        <time>2022-06-29T15:11:14Z</time>
      </trkpt>
      <trkpt lat="47.15868" lon="5.94711">
        <ele>382</ele>
        <time>2022-06-29T15:11:15Z</time>
      </trkpt>
      <trkpt lat="47.15868" lon="5.9471">
        <ele>382</ele>
        <time>2022-06-29T15:11:16Z</time>
      </trkpt>
      <trkpt lat="47.15868" lon="5.94709">
        <ele>382.1</ele>
        <time>2022-06-29T15:11:17Z</time>
      </trkpt>
      <trkpt lat="47.15868" lon="5.94709">
        <ele>382.1</ele>
        <time>2022-06-29T15:11:18Z</time>
      </trkpt>
      <trkpt lat="47.15868" lon="5.94708">
        <ele>382.2</ele>
        <time>2022-06-29T15:11:19Z</time>
      </trkpt>
      <trkpt lat="47.15868" lon="5.94707">
        <ele>382.3</ele>
        <time>2022-06-29T15:11:20Z</time>
      </trkpt>
      <trkpt lat="47.15868" lon="5.94707">
        <ele>382.3</ele>
        <time>2022-06-29T15:11:53Z</time>
      </trkpt>
      <trkpt lat="47.15868" lon="5.94706">
        <ele>382.4</ele>
        <time>2022-06-29T15:11:54Z</time>
      </trkpt>
      <trkpt lat="47.15868" lon="5.94705">
        <ele>382.5</ele>
        <time>2022-06-29T15:11:55Z</time>
      </trkpt>
      <trkpt lat="47.15868" lon="5.94704">
        <ele>382.5</ele>
        <time>2022-06-29T15:11:56Z</time>
      </trkpt>
      <trkpt lat="47.15867" lon="5.947">
        <ele>382.9</ele>
        <time>2022-06-29T15:11:59Z</time>
      </trkpt>
      <trkpt lat="47.15867" lon="5.94699">
        <ele>383</ele>
        <time>2022-06-29T15:12:00Z</time>
      </trkpt>
      <trkpt lat="47.15867" lon="5.94698">
        <ele>383.1</ele>
        <time>2022-06-29T15:12:01Z</time>
      </trkpt>
      <trkpt lat="47.15867" lon="5.94698">
        <ele>383.1</ele>
        <time>2022-06-29T15:12:02Z</time>
      </trkpt>
      <trkpt lat="47.15867" lon="5.94698">
        <ele>383.2</ele>
        <time>2022-06-29T15:12:04Z</time>
      </trkpt>
      <trkpt lat="47.15867" lon="5.94699">
        <ele>383.2</ele>
        <time>2022-06-29T15:12:05Z</time>
      </trkpt>
      <trkpt lat="47.15867" lon="5.94699">
        <ele>383.2</ele>
        <time>2022-06-29T15:12:06Z</time>
      </trkpt>
      <trkpt lat="47.15866" lon="5.94698">
        <ele>383.3</ele>
        <time>2022-06-29T15:12:07Z</time>
      </trkpt>
      <trkpt lat="47.15866" lon="5.94697">
        <ele>383.4</ele>
        <time>2022-06-29T15:12:09Z</time>
      </trkpt>
      <trkpt lat="47.15866" lon="5.94694">
        <ele>383.7</ele>
        <time>2022-06-29T15:12:10Z</time>
      </trkpt>
      <trkpt lat="47.15866" lon="5.94689">
        <ele>384.1</ele>
        <time>2022-06-29T15:12:12Z</time>
      </trkpt>
      <trkpt lat="47.15865" lon="5.94684">
        <ele>384.5</ele>
        <time>2022-06-29T15:12:13Z</time>
      </trkpt>
      <trkpt lat="47.15864" lon="5.94678">
        <ele>384.9</ele>
        <time>2022-06-29T15:12:15Z</time>
      </trkpt>
      <trkpt lat="47.15864" lon="5.94676">
        <ele>385.1</ele>
        <time>2022-06-29T15:12:16Z</time>
      </trkpt>
      <trkpt lat="47.15863" lon="5.94672">
        <ele>385.4</ele>
        <time>2022-06-29T15:12:18Z</time>
      </trkpt>
      <trkpt lat="47.15862" lon="5.94671">
        <ele>385.5</ele>
        <time>2022-06-29T15:12:19Z</time>
      </trkpt>
      <trkpt lat="47.15861" lon="5.94669">
        <ele>385.6</ele>
        <time>2022-06-29T15:12:20Z</time>
      </trkpt>
      <trkpt lat="47.1586" lon="5.94667">
        <ele>385.8</ele>
        <time>2022-06-29T15:12:21Z</time>
      </trkpt>
      <trkpt lat="47.1586" lon="5.94665">
        <ele>385.9</ele>
        <time>2022-06-29T15:12:22Z</time>
      </trkpt>
      <trkpt lat="47.15859" lon="5.94663">
        <ele>386</ele>
        <time>2022-06-29T15:12:23Z</time>
      </trkpt>
      <trkpt lat="47.15858" lon="5.94661">
        <ele>386.1</ele>
        <time>2022-06-29T15:12:24Z</time>
      </trkpt>
      <trkpt lat="47.15858" lon="5.94658">
        <ele>386.3</ele>
        <time>2022-06-29T15:12:25Z</time>
      </trkpt>
      <trkpt lat="47.15858" lon="5.94656">
        <ele>386.4</ele>
        <time>2022-06-29T15:12:26Z</time>
      </trkpt>
      <trkpt lat="47.15858" lon="5.94654">
        <ele>386.5</ele>
        <time>2022-06-29T15:12:27Z</time>
      </trkpt>
      <trkpt lat="47.15857" lon="5.94651">
        <ele>386.6</ele>
        <time>2022-06-29T15:12:28Z</time>
      </trkpt>
      <trkpt lat="47.15856" lon="5.94648">
        <ele>386.8</ele>
        <time>2022-06-29T15:12:30Z</time>
      </trkpt>
      <trkpt lat="47.15855" lon="5.94644">
        <ele>386.9</ele>
        <time>2022-06-29T15:12:31Z</time>
      </trkpt>
      <trkpt lat="47.15854" lon="5.94642">
        <ele>387</ele>
        <time>2022-06-29T15:12:32Z</time>
      </trkpt>
      <trkpt lat="47.15853" lon="5.94638">
        <ele>387.2</ele>
        <time>2022-06-29T15:12:33Z</time>
      </trkpt>
      <trkpt lat="47.15852" lon="5.94636">
        <ele>387.2</ele>
        <time>2022-06-29T15:12:34Z</time>
      </trkpt>
      <trkpt lat="47.15852" lon="5.94634">
        <ele>387.3</ele>
        <time>2022-06-29T15:12:35Z</time>
      </trkpt>
      <trkpt lat="47.15852" lon="5.94631">
        <ele>387.4</ele>
        <time>2022-06-29T15:12:36Z</time>
      </trkpt>
      <trkpt lat="47.1585" lon="5.94628">
        <ele>387.5</ele>
        <time>2022-06-29T15:12:37Z</time>
      </trkpt>
      <trkpt lat="47.1585" lon="5.94626">
        <ele>387.6</ele>
        <time>2022-06-29T15:12:38Z</time>
      </trkpt>
      <trkpt lat="47.15848" lon="5.94622">
        <ele>387.7</ele>
        <time>2022-06-29T15:12:39Z</time>
      </trkpt>
      <trkpt lat="47.15848" lon="5.94621">
        <ele>387.8</ele>
        <time>2022-06-29T15:12:40Z</time>
      </trkpt>
      <trkpt lat="47.15846" lon="5.94617">
        <ele>387.9</ele>
        <time>2022-06-29T15:12:41Z</time>
      </trkpt>
      <trkpt lat="47.15846" lon="5.94616">
        <ele>387.9</ele>
        <time>2022-06-29T15:12:42Z</time>
      </trkpt>
      <trkpt lat="47.15845" lon="5.94613">
        <ele>388</ele>
        <time>2022-06-29T15:12:43Z</time>
      </trkpt>
      <trkpt lat="47.15844" lon="5.9461">
        <ele>388.2</ele>
        <time>2022-06-29T15:12:45Z</time>
      </trkpt>
      <trkpt lat="47.15841" lon="5.94606">
        <ele>388.3</ele>
        <time>2022-06-29T15:12:46Z</time>
      </trkpt>
      <trkpt lat="47.1584" lon="5.94605">
        <ele>388.4</ele>
        <time>2022-06-29T15:12:47Z</time>
      </trkpt>
      <trkpt lat="47.15839" lon="5.94602">
        <ele>388.5</ele>
        <time>2022-06-29T15:12:48Z</time>
      </trkpt>
      <trkpt lat="47.15839" lon="5.946">
        <ele>388.6</ele>
        <time>2022-06-29T15:12:49Z</time>
      </trkpt>
      <trkpt lat="47.15839" lon="5.94598">
        <ele>388.7</ele>
        <time>2022-06-29T15:12:50Z</time>
      </trkpt>
      <trkpt lat="47.15837" lon="5.94594">
        <ele>388.9</ele>
        <time>2022-06-29T15:12:52Z</time>
      </trkpt>
      <trkpt lat="47.15837" lon="5.9459">
        <ele>389.1</ele>
        <time>2022-06-29T15:12:53Z</time>
      </trkpt>
      <trkpt lat="47.15837" lon="5.94585">
        <ele>389.4</ele>
        <time>2022-06-29T15:12:55Z</time>
      </trkpt>
      <trkpt lat="47.15837" lon="5.94584">
        <ele>389.5</ele>
        <time>2022-06-29T15:12:56Z</time>
      </trkpt>
      <trkpt lat="47.15839" lon="5.94579">
        <ele>389.9</ele>
        <time>2022-06-29T15:12:57Z</time>
      </trkpt>
      <trkpt lat="47.15839" lon="5.94578">
        <ele>390</ele>
        <time>2022-06-29T15:12:58Z</time>
      </trkpt>
      <trkpt lat="47.15841" lon="5.94574">
        <ele>390.4</ele>
        <time>2022-06-29T15:12:59Z</time>
      </trkpt>
      <trkpt lat="47.15841" lon="5.94573">
        <ele>390.5</ele>
        <time>2022-06-29T15:13:00Z</time>
      </trkpt>
      <trkpt lat="47.15844" lon="5.94569">
        <ele>391.2</ele>
        <time>2022-06-29T15:13:02Z</time>
      </trkpt>
      <trkpt lat="47.15845" lon="5.94565">
        <ele>391.6</ele>
        <time>2022-06-29T15:13:03Z</time>
      </trkpt>
      <trkpt lat="47.15847" lon="5.94562">
        <ele>392.1</ele>
        <time>2022-06-29T15:13:05Z</time>
      </trkpt>
      <trkpt lat="47.15849" lon="5.94557">
        <ele>392.7</ele>
        <time>2022-06-29T15:13:06Z</time>
      </trkpt>
      <trkpt lat="47.15849" lon="5.94556">
        <ele>392.8</ele>
        <time>2022-06-29T15:13:07Z</time>
      </trkpt>
      <trkpt lat="47.15848" lon="5.94557">
        <ele>392.9</ele>
        <time>2022-06-29T15:13:08Z</time>
      </trkpt>
      <trkpt lat="47.15847" lon="5.94556">
        <ele>393</ele>
        <time>2022-06-29T15:13:09Z</time>
      </trkpt>
      <trkpt lat="47.15846" lon="5.94557">
        <ele>393.2</ele>
        <time>2022-06-29T15:13:11Z</time>
      </trkpt>
      <trkpt lat="47.15846" lon="5.94557">
        <ele>393.3</ele>
        <time>2022-06-29T15:13:12Z</time>
      </trkpt>
      <trkpt lat="47.15846" lon="5.94557">
        <ele>393.3</ele>
        <time>2022-06-29T15:13:13Z</time>
      </trkpt>
      <trkpt lat="47.15846" lon="5.94557">
        <ele>393.2</ele>
        <time>2022-06-29T15:13:14Z</time>
      </trkpt>
      <trkpt lat="47.15846" lon="5.94557">
        <ele>393.3</ele>
        <time>2022-06-29T15:13:15Z</time>
      </trkpt>
      <trkpt lat="47.15846" lon="5.94557">
        <ele>393.3</ele>
        <time>2022-06-29T15:13:16Z</time>
      </trkpt>
      <trkpt lat="47.15847" lon="5.94556">
        <ele>393.4</ele>
        <time>2022-06-29T15:13:17Z</time>
      </trkpt>
      <trkpt lat="47.15848" lon="5.94555">
        <ele>393.6</ele>
        <time>2022-06-29T15:13:18Z</time>
      </trkpt>
      <trkpt lat="47.15848" lon="5.94555">
        <ele>393.7</ele>
        <time>2022-06-29T15:13:19Z</time>
      </trkpt>
      <trkpt lat="47.1585" lon="5.94553">
        <ele>394.1</ele>
        <time>2022-06-29T15:13:21Z</time>
      </trkpt>
      <trkpt lat="47.1585" lon="5.94552">
        <ele>394.2</ele>
        <time>2022-06-29T15:13:22Z</time>
      </trkpt>
      <trkpt lat="47.15851" lon="5.94551">
        <ele>394.4</ele>
        <time>2022-06-29T15:13:23Z</time>
      </trkpt>
      <trkpt lat="47.15851" lon="5.94551">
        <ele>394.4</ele>
        <time>2022-06-29T15:13:24Z</time>
      </trkpt>
      <trkpt lat="47.15852" lon="5.9455">
        <ele>394.6</ele>
        <time>2022-06-29T15:13:25Z</time>
      </trkpt>
      <trkpt lat="47.15853" lon="5.94549">
        <ele>394.8</ele>
        <time>2022-06-29T15:13:27Z</time>
      </trkpt>
      <trkpt lat="47.15854" lon="5.94547">
        <ele>395</ele>
        <time>2022-06-29T15:13:28Z</time>
      </trkpt>
      <trkpt lat="47.15855" lon="5.94545">
        <ele>395.2</ele>
        <time>2022-06-29T15:13:30Z</time>
      </trkpt>
      <trkpt lat="47.15856" lon="5.94544">
        <ele>395.4</ele>
        <time>2022-06-29T15:13:31Z</time>
      </trkpt>
      <trkpt lat="47.15857" lon="5.94543">
        <ele>395.6</ele>
        <time>2022-06-29T15:13:32Z</time>
      </trkpt>
      <trkpt lat="47.15858" lon="5.94541">
        <ele>395.7</ele>
        <time>2022-06-29T15:13:33Z</time>
      </trkpt>
      <trkpt lat="47.15859" lon="5.9454">
        <ele>395.8</ele>
        <time>2022-06-29T15:13:34Z</time>
      </trkpt>
      <trkpt lat="47.1586" lon="5.94538">
        <ele>396.1</ele>
        <time>2022-06-29T15:13:35Z</time>
      </trkpt>
      <trkpt lat="47.15861" lon="5.94537">
        <ele>396.2</ele>
        <time>2022-06-29T15:13:37Z</time>
      </trkpt>
      <trkpt lat="47.15861" lon="5.94536">
        <ele>396.3</ele>
        <time>2022-06-29T15:13:38Z</time>
      </trkpt>
      <trkpt lat="47.15862" lon="5.94535">
        <ele>396.4</ele>
        <time>2022-06-29T15:13:39Z</time>
      </trkpt>
      <trkpt lat="47.15862" lon="5.94534">
        <ele>396.4</ele>
        <time>2022-06-29T15:13:40Z</time>
      </trkpt>
      <trkpt lat="47.15862" lon="5.94534">
        <ele>396.5</ele>
        <time>2022-06-29T15:13:41Z</time>
      </trkpt>
      <trkpt lat="47.15861" lon="5.94534">
        <ele>396.5</ele>
        <time>2022-06-29T15:13:42Z</time>
      </trkpt>
      <trkpt lat="47.15861" lon="5.94534">
        <ele>396.5</ele>
        <time>2022-06-29T15:13:43Z</time>
      </trkpt>
      <trkpt lat="47.15861" lon="5.94534">
        <ele>396.5</ele>
        <time>2022-06-29T15:13:44Z</time>
      </trkpt>
      <trkpt lat="47.15861" lon="5.94534">
        <ele>396.5</ele>
        <time>2022-06-29T15:13:45Z</time>
      </trkpt>
      <trkpt lat="47.15861" lon="5.94534">
        <ele>396.6</ele>
        <time>2022-06-29T15:13:46Z</time>
      </trkpt>
      <trkpt lat="47.15861" lon="5.94534">
        <ele>396.6</ele>
        <time>2022-06-29T15:13:47Z</time>
      </trkpt>
      <trkpt lat="47.15861" lon="5.94534">
        <ele>396.6</ele>
        <time>2022-06-29T15:13:49Z</time>
      </trkpt>
      <trkpt lat="47.15861" lon="5.94534">
        <ele>396.6</ele>
        <time>2022-06-29T15:13:50Z</time>
      </trkpt>
      <trkpt lat="47.15861" lon="5.94534">
        <ele>396.6</ele>
        <time>2022-06-29T15:13:51Z</time>
      </trkpt>
      <trkpt lat="47.15861" lon="5.94531">
        <ele>396.8</ele>
        <time>2022-06-29T15:14:00Z</time>
      </trkpt>
      <trkpt lat="47.15861" lon="5.9453">
        <ele>396.8</ele>
        <time>2022-06-29T15:14:01Z</time>
      </trkpt>
      <trkpt lat="47.15861" lon="5.94529">
        <ele>396.8</ele>
        <time>2022-06-29T15:14:02Z</time>
      </trkpt>
      <trkpt lat="47.1586" lon="5.94527">
        <ele>397</ele>
        <time>2022-06-29T15:14:03Z</time>
      </trkpt>
      <trkpt lat="47.15858" lon="5.94526">
        <ele>397.1</ele>
        <time>2022-06-29T15:14:04Z</time>
      </trkpt>
      <trkpt lat="47.15857" lon="5.94523">
        <ele>397.3</ele>
        <time>2022-06-29T15:14:06Z</time>
      </trkpt>
      <trkpt lat="47.15857" lon="5.94518">
        <ele>397.5</ele>
        <time>2022-06-29T15:14:07Z</time>
      </trkpt>
      <trkpt lat="47.15857" lon="5.94516">
        <ele>397.6</ele>
        <time>2022-06-29T15:14:08Z</time>
      </trkpt>
      <trkpt lat="47.15857" lon="5.94512">
        <ele>397.8</ele>
        <time>2022-06-29T15:14:09Z</time>
      </trkpt>
      <trkpt lat="47.15858" lon="5.9451">
        <ele>397.9</ele>
        <time>2022-06-29T15:14:10Z</time>
      </trkpt>
      <trkpt lat="47.15858" lon="5.94505">
        <ele>398.1</ele>
        <time>2022-06-29T15:14:11Z</time>
      </trkpt>
      <trkpt lat="47.15857" lon="5.94503">
        <ele>398.2</ele>
        <time>2022-06-29T15:14:12Z</time>
      </trkpt>
      <trkpt lat="47.15855" lon="5.94497">
        <ele>398.5</ele>
        <time>2022-06-29T15:14:14Z</time>
      </trkpt>
      <trkpt lat="47.15855" lon="5.94495">
        <ele>398.6</ele>
        <time>2022-06-29T15:14:15Z</time>
      </trkpt>
      <trkpt lat="47.15854" lon="5.94493">
        <ele>398.6</ele>
        <time>2022-06-29T15:14:16Z</time>
      </trkpt>
      <trkpt lat="47.15853" lon="5.9449">
        <ele>398.8</ele>
        <time>2022-06-29T15:14:17Z</time>
      </trkpt>
      <trkpt lat="47.15852" lon="5.94489">
        <ele>398.8</ele>
        <time>2022-06-29T15:14:18Z</time>
      </trkpt>
      <trkpt lat="47.15851" lon="5.94487">
        <ele>398.9</ele>
        <time>2022-06-29T15:14:19Z</time>
      </trkpt>
      <trkpt lat="47.1585" lon="5.94485">
        <ele>399</ele>
        <time>2022-06-29T15:14:20Z</time>
      </trkpt>
      <trkpt lat="47.15849" lon="5.94483">
        <ele>399.1</ele>
        <time>2022-06-29T15:14:21Z</time>
      </trkpt>
      <trkpt lat="47.15849" lon="5.94481">
        <ele>399.2</ele>
        <time>2022-06-29T15:14:22Z</time>
      </trkpt>
      <trkpt lat="47.15849" lon="5.94477">
        <ele>399.3</ele>
        <time>2022-06-29T15:14:23Z</time>
      </trkpt>
      <trkpt lat="47.15849" lon="5.94473">
        <ele>399.5</ele>
        <time>2022-06-29T15:14:25Z</time>
      </trkpt>
      <trkpt lat="47.15848" lon="5.94472">
        <ele>399.6</ele>
        <time>2022-06-29T15:14:26Z</time>
      </trkpt>
      <trkpt lat="47.15846" lon="5.94468">
        <ele>399.8</ele>
        <time>2022-06-29T15:14:28Z</time>
      </trkpt>
      <trkpt lat="47.15844" lon="5.94465">
        <ele>399.9</ele>
        <time>2022-06-29T15:14:29Z</time>
      </trkpt>
      <trkpt lat="47.15843" lon="5.94461">
        <ele>400</ele>
        <time>2022-06-29T15:14:31Z</time>
      </trkpt>
      <trkpt lat="47.15841" lon="5.94458">
        <ele>400.2</ele>
        <time>2022-06-29T15:14:32Z</time>
      </trkpt>
      <trkpt lat="47.1584" lon="5.94456">
        <ele>400.2</ele>
        <time>2022-06-29T15:14:33Z</time>
      </trkpt>
      <trkpt lat="47.15839" lon="5.94453">
        <ele>400.3</ele>
        <time>2022-06-29T15:14:34Z</time>
      </trkpt>
      <trkpt lat="47.15839" lon="5.94451">
        <ele>400.4</ele>
        <time>2022-06-29T15:14:35Z</time>
      </trkpt>
      <trkpt lat="47.15838" lon="5.94448">
        <ele>400.5</ele>
        <time>2022-06-29T15:14:36Z</time>
      </trkpt>
      <trkpt lat="47.15837" lon="5.94447">
        <ele>400.6</ele>
        <time>2022-06-29T15:14:37Z</time>
      </trkpt>
      <trkpt lat="47.15835" lon="5.94443">
        <ele>400.7</ele>
        <time>2022-06-29T15:14:38Z</time>
      </trkpt>
      <trkpt lat="47.15834" lon="5.94442">
        <ele>400.8</ele>
        <time>2022-06-29T15:14:39Z</time>
      </trkpt>
      <trkpt lat="47.15833" lon="5.94439">
        <ele>400.9</ele>
        <time>2022-06-29T15:14:40Z</time>
      </trkpt>
      <trkpt lat="47.1583" lon="5.94436">
        <ele>401</ele>
        <time>2022-06-29T15:14:42Z</time>
      </trkpt>
      <trkpt lat="47.15828" lon="5.94433">
        <ele>401.1</ele>
        <time>2022-06-29T15:14:44Z</time>
      </trkpt>
      <trkpt lat="47.15828" lon="5.94433">
        <ele>401.1</ele>
        <time>2022-06-29T15:14:45Z</time>
      </trkpt>
      <trkpt lat="47.15826" lon="5.9443">
        <ele>401.2</ele>
        <time>2022-06-29T15:14:46Z</time>
      </trkpt>
      <trkpt lat="47.15825" lon="5.94429">
        <ele>401.3</ele>
        <time>2022-06-29T15:14:47Z</time>
      </trkpt>
      <trkpt lat="47.15825" lon="5.94428">
        <ele>401.3</ele>
        <time>2022-06-29T15:14:48Z</time>
      </trkpt>
      <trkpt lat="47.15823" lon="5.94426">
        <ele>401.4</ele>
        <time>2022-06-29T15:14:49Z</time>
      </trkpt>
      <trkpt lat="47.15821" lon="5.94423">
        <ele>401.5</ele>
        <time>2022-06-29T15:14:51Z</time>
      </trkpt>
      <trkpt lat="47.1582" lon="5.9442">
        <ele>401.6</ele>
        <time>2022-06-29T15:14:52Z</time>
      </trkpt>
      <trkpt lat="47.15819" lon="5.94417">
        <ele>401.7</ele>
        <time>2022-06-29T15:14:53Z</time>
      </trkpt>
      <trkpt lat="47.15818" lon="5.94415">
        <ele>401.8</ele>
        <time>2022-06-29T15:14:54Z</time>
      </trkpt>
      <trkpt lat="47.15817" lon="5.94413">
        <ele>401.9</ele>
        <time>2022-06-29T15:14:55Z</time>
      </trkpt>
      <trkpt lat="47.15817" lon="5.94411">
        <ele>401.9</ele>
        <time>2022-06-29T15:14:56Z</time>
      </trkpt>
      <trkpt lat="47.15817" lon="5.94409">
        <ele>402</ele>
        <time>2022-06-29T15:14:57Z</time>
      </trkpt>
      <trkpt lat="47.15816" lon="5.94406">
        <ele>402.1</ele>
        <time>2022-06-29T15:14:58Z</time>
      </trkpt>
      <trkpt lat="47.15816" lon="5.94401">
        <ele>402.4</ele>
        <time>2022-06-29T15:15:00Z</time>
      </trkpt>
      <trkpt lat="47.15816" lon="5.94399">
        <ele>402.5</ele>
        <time>2022-06-29T15:15:01Z</time>
      </trkpt>
      <trkpt lat="47.15816" lon="5.94395">
        <ele>402.6</ele>
        <time>2022-06-29T15:15:02Z</time>
      </trkpt>
      <trkpt lat="47.15816" lon="5.94394">
        <ele>402.7</ele>
        <time>2022-06-29T15:15:03Z</time>
      </trkpt>
      <trkpt lat="47.15816" lon="5.94393">
        <ele>402.8</ele>
        <time>2022-06-29T15:15:04Z</time>
      </trkpt>
      <trkpt lat="47.15815" lon="5.94388">
        <ele>403</ele>
        <time>2022-06-29T15:15:05Z</time>
      </trkpt>
      <trkpt lat="47.15815" lon="5.94387">
        <ele>403.1</ele>
        <time>2022-06-29T15:15:06Z</time>
      </trkpt>
      <trkpt lat="47.15815" lon="5.94384">
        <ele>403.3</ele>
        <time>2022-06-29T15:15:07Z</time>
      </trkpt>
      <trkpt lat="47.15815" lon="5.94382">
        <ele>403.4</ele>
        <time>2022-06-29T15:15:08Z</time>
      </trkpt>
      <trkpt lat="47.15815" lon="5.94378">
        <ele>403.7</ele>
        <time>2022-06-29T15:15:09Z</time>
      </trkpt>
      <trkpt lat="47.15815" lon="5.94376">
        <ele>403.8</ele>
        <time>2022-06-29T15:15:10Z</time>
      </trkpt>
      <trkpt lat="47.15815" lon="5.9437">
        <ele>404.2</ele>
        <time>2022-06-29T15:15:12Z</time>
      </trkpt>
      <trkpt lat="47.15815" lon="5.94369">
        <ele>404.3</ele>
        <time>2022-06-29T15:15:13Z</time>
      </trkpt>
      <trkpt lat="47.15815" lon="5.94367">
        <ele>404.4</ele>
        <time>2022-06-29T15:15:14Z</time>
      </trkpt>
      <trkpt lat="47.15814" lon="5.94366">
        <ele>404.5</ele>
        <time>2022-06-29T15:15:15Z</time>
      </trkpt>
      <trkpt lat="47.15814" lon="5.94361">
        <ele>404.9</ele>
        <time>2022-06-29T15:15:16Z</time>
      </trkpt>
      <trkpt lat="47.15816" lon="5.94354">
        <ele>405.4</ele>
        <time>2022-06-29T15:15:18Z</time>
      </trkpt>
      <trkpt lat="47.15816" lon="5.94351">
        <ele>405.7</ele>
        <time>2022-06-29T15:15:19Z</time>
      </trkpt>
      <trkpt lat="47.15817" lon="5.94349">
        <ele>405.9</ele>
        <time>2022-06-29T15:15:20Z</time>
      </trkpt>
      <trkpt lat="47.15818" lon="5.94346">
        <ele>406.1</ele>
        <time>2022-06-29T15:15:21Z</time>
      </trkpt>
      <trkpt lat="47.1582" lon="5.94343">
        <ele>406.4</ele>
        <time>2022-06-29T15:15:23Z</time>
      </trkpt>
      <trkpt lat="47.15821" lon="5.94338">
        <ele>406.8</ele>
        <time>2022-06-29T15:15:24Z</time>
      </trkpt>
      <trkpt lat="47.15821" lon="5.94336">
        <ele>406.9</ele>
        <time>2022-06-29T15:15:25Z</time>
      </trkpt>
      <trkpt lat="47.15822" lon="5.94332">
        <ele>407.3</ele>
        <time>2022-06-29T15:15:26Z</time>
      </trkpt>
      <trkpt lat="47.15822" lon="5.9433">
        <ele>407.4</ele>
        <time>2022-06-29T15:15:27Z</time>
      </trkpt>
      <trkpt lat="47.15822" lon="5.94326">
        <ele>407.7</ele>
        <time>2022-06-29T15:15:29Z</time>
      </trkpt>
      <trkpt lat="47.15823" lon="5.94325">
        <ele>407.8</ele>
        <time>2022-06-29T15:15:30Z</time>
      </trkpt>
      <trkpt lat="47.15823" lon="5.94321">
        <ele>408.2</ele>
        <time>2022-06-29T15:15:31Z</time>
      </trkpt>
      <trkpt lat="47.15824" lon="5.9432">
        <ele>408.3</ele>
        <time>2022-06-29T15:15:32Z</time>
      </trkpt>
      <trkpt lat="47.15824" lon="5.94318">
        <ele>408.4</ele>
        <time>2022-06-29T15:15:33Z</time>
      </trkpt>
      <trkpt lat="47.15825" lon="5.94315">
        <ele>408.6</ele>
        <time>2022-06-29T15:15:34Z</time>
      </trkpt>
      <trkpt lat="47.15825" lon="5.94311">
        <ele>409</ele>
        <time>2022-06-29T15:15:35Z</time>
      </trkpt>
      <trkpt lat="47.15826" lon="5.94309">
        <ele>409.1</ele>
        <time>2022-06-29T15:15:36Z</time>
      </trkpt>
      <trkpt lat="47.15826" lon="5.94307">
        <ele>409.3</ele>
        <time>2022-06-29T15:15:37Z</time>
      </trkpt>
      <trkpt lat="47.15827" lon="5.94303">
        <ele>409.6</ele>
        <time>2022-06-29T15:15:39Z</time>
      </trkpt>
      <trkpt lat="47.15828" lon="5.94298">
        <ele>409.9</ele>
        <time>2022-06-29T15:15:40Z</time>
      </trkpt>
      <trkpt lat="47.15828" lon="5.94296">
        <ele>410.1</ele>
        <time>2022-06-29T15:15:41Z</time>
      </trkpt>
      <trkpt lat="47.15829" lon="5.9429">
        <ele>410.4</ele>
        <time>2022-06-29T15:15:42Z</time>
      </trkpt>
      <trkpt lat="47.1583" lon="5.94288">
        <ele>410.5</ele>
        <time>2022-06-29T15:15:43Z</time>
      </trkpt>
      <trkpt lat="47.15831" lon="5.94284">
        <ele>410.7</ele>
        <time>2022-06-29T15:15:44Z</time>
      </trkpt>
      <trkpt lat="47.15832" lon="5.9428">
        <ele>410.9</ele>
        <time>2022-06-29T15:15:45Z</time>
      </trkpt>
      <trkpt lat="47.15833" lon="5.94275">
        <ele>411</ele>
        <time>2022-06-29T15:15:46Z</time>
      </trkpt>
      <trkpt lat="47.15834" lon="5.94274">
        <ele>411.1</ele>
        <time>2022-06-29T15:15:47Z</time>
      </trkpt>
      <trkpt lat="47.15835" lon="5.9427">
        <ele>411.2</ele>
        <time>2022-06-29T15:15:48Z</time>
      </trkpt>
      <trkpt lat="47.15835" lon="5.94269">
        <ele>411.2</ele>
        <time>2022-06-29T15:15:49Z</time>
      </trkpt>
      <trkpt lat="47.15836" lon="5.94265">
        <ele>411.3</ele>
        <time>2022-06-29T15:15:50Z</time>
      </trkpt>
      <trkpt lat="47.15837" lon="5.94263">
        <ele>411.3</ele>
        <time>2022-06-29T15:15:51Z</time>
      </trkpt>
      <trkpt lat="47.15837" lon="5.94261">
        <ele>411.4</ele>
        <time>2022-06-29T15:15:52Z</time>
      </trkpt>
      <trkpt lat="47.15837" lon="5.94259">
        <ele>411.4</ele>
        <time>2022-06-29T15:15:53Z</time>
      </trkpt>
      <trkpt lat="47.15835" lon="5.94253">
        <ele>411.5</ele>
        <time>2022-06-29T15:15:55Z</time>
      </trkpt>
      <trkpt lat="47.15834" lon="5.94252">
        <ele>411.5</ele>
        <time>2022-06-29T15:15:56Z</time>
      </trkpt>
      <trkpt lat="47.15834" lon="5.94251">
        <ele>411.6</ele>
        <time>2022-06-29T15:15:57Z</time>
      </trkpt>
      <trkpt lat="47.15833" lon="5.9425">
        <ele>411.6</ele>
        <time>2022-06-29T15:15:58Z</time>
      </trkpt>
      <trkpt lat="47.1583" lon="5.94248">
        <ele>411.7</ele>
        <time>2022-06-29T15:15:59Z</time>
      </trkpt>
      <trkpt lat="47.15829" lon="5.94248">
        <ele>411.7</ele>
        <time>2022-06-29T15:16:00Z</time>
      </trkpt>
      <trkpt lat="47.15829" lon="5.94248">
        <ele>411.7</ele>
        <time>2022-06-29T15:16:01Z</time>
      </trkpt>
      <trkpt lat="47.15829" lon="5.94248">
        <ele>411.7</ele>
        <time>2022-06-29T15:16:02Z</time>
      </trkpt>
      <trkpt lat="47.1583" lon="5.94249">
        <ele>411.8</ele>
        <time>2022-06-29T15:16:03Z</time>
      </trkpt>
      <trkpt lat="47.1583" lon="5.9425">
        <ele>411.8</ele>
        <time>2022-06-29T15:16:04Z</time>
      </trkpt>
      <trkpt lat="47.1583" lon="5.9425">
        <ele>411.8</ele>
        <time>2022-06-29T15:16:05Z</time>
      </trkpt>
      <trkpt lat="47.1583" lon="5.9425">
        <ele>411.8</ele>
        <time>2022-06-29T15:16:06Z</time>
      </trkpt>
      <trkpt lat="47.1583" lon="5.9425">
        <ele>411.8</ele>
        <time>2022-06-29T15:16:07Z</time>
      </trkpt>
      <trkpt lat="47.1583" lon="5.9425">
        <ele>411.8</ele>
        <time>2022-06-29T15:16:08Z</time>
      </trkpt>
      <trkpt lat="47.1583" lon="5.9425">
        <ele>411.8</ele>
        <time>2022-06-29T15:16:09Z</time>
      </trkpt>
      <trkpt lat="47.1583" lon="5.9425">
        <ele>411.8</ele>
        <time>2022-06-29T15:16:10Z</time>
      </trkpt>
      <trkpt lat="47.1583" lon="5.9425">
        <ele>411.8</ele>
        <time>2022-06-29T15:16:11Z</time>
      </trkpt>
      <trkpt lat="47.1583" lon="5.9425">
        <ele>411.8</ele>
        <time>2022-06-29T15:16:12Z</time>
      </trkpt>
      <trkpt lat="47.15828" lon="5.94249">
        <ele>411.9</ele>
        <time>2022-06-29T15:17:04Z</time>
      </trkpt>
      <trkpt lat="47.15827" lon="5.94247">
        <ele>411.9</ele>
        <time>2022-06-29T15:17:05Z</time>
      </trkpt>
      <trkpt lat="47.15827" lon="5.94246">
        <ele>411.9</ele>
        <time>2022-06-29T15:17:06Z</time>
      </trkpt>
      <trkpt lat="47.15826" lon="5.94245">
        <ele>412</ele>
        <time>2022-06-29T15:17:07Z</time>
      </trkpt>
      <trkpt lat="47.15826" lon="5.94244">
        <ele>412</ele>
        <time>2022-06-29T15:17:09Z</time>
      </trkpt>
      <trkpt lat="47.15825" lon="5.94243">
        <ele>412</ele>
        <time>2022-06-29T15:17:10Z</time>
      </trkpt>
      <trkpt lat="47.15824" lon="5.94242">
        <ele>412.1</ele>
        <time>2022-06-29T15:17:11Z</time>
      </trkpt>
      <trkpt lat="47.15822" lon="5.9424">
        <ele>412.1</ele>
        <time>2022-06-29T15:17:12Z</time>
      </trkpt>
      <trkpt lat="47.15822" lon="5.94239">
        <ele>412.2</ele>
        <time>2022-06-29T15:17:13Z</time>
      </trkpt>
      <trkpt lat="47.15821" lon="5.94238">
        <ele>412.2</ele>
        <time>2022-06-29T15:17:14Z</time>
      </trkpt>
      <trkpt lat="47.1582" lon="5.94236">
        <ele>412.2</ele>
        <time>2022-06-29T15:17:15Z</time>
      </trkpt>
      <trkpt lat="47.15819" lon="5.94236">
        <ele>412.3</ele>
        <time>2022-06-29T15:17:16Z</time>
      </trkpt>
      <trkpt lat="47.15818" lon="5.94235">
        <ele>412.3</ele>
        <time>2022-06-29T15:17:17Z</time>
      </trkpt>
      <trkpt lat="47.15817" lon="5.94233">
        <ele>412.3</ele>
        <time>2022-06-29T15:17:19Z</time>
      </trkpt>
      <trkpt lat="47.15817" lon="5.94232">
        <ele>412.4</ele>
        <time>2022-06-29T15:17:20Z</time>
      </trkpt>
      <trkpt lat="47.15817" lon="5.94231">
        <ele>412.4</ele>
        <time>2022-06-29T15:17:21Z</time>
      </trkpt>
      <trkpt lat="47.15816" lon="5.9423">
        <ele>412.4</ele>
        <time>2022-06-29T15:17:22Z</time>
      </trkpt>
      <trkpt lat="47.15816" lon="5.94229">
        <ele>412.4</ele>
        <time>2022-06-29T15:17:23Z</time>
      </trkpt>
      <trkpt lat="47.15815" lon="5.94228">
        <ele>412.4</ele>
        <time>2022-06-29T15:17:24Z</time>
      </trkpt>
      <trkpt lat="47.15815" lon="5.94227">
        <ele>412.5</ele>
        <time>2022-06-29T15:17:25Z</time>
      </trkpt>
      <trkpt lat="47.15815" lon="5.94227">
        <ele>412.5</ele>
        <time>2022-06-29T15:17:26Z</time>
      </trkpt>
      <trkpt lat="47.15814" lon="5.94227">
        <ele>412.5</ele>
        <time>2022-06-29T15:17:27Z</time>
      </trkpt>
      <trkpt lat="47.15814" lon="5.94226">
        <ele>412.5</ele>
        <time>2022-06-29T15:17:28Z</time>
      </trkpt>
      <trkpt lat="47.15813" lon="5.94226">
        <ele>412.5</ele>
        <time>2022-06-29T15:17:29Z</time>
      </trkpt>
      <trkpt lat="47.15813" lon="5.94226">
        <ele>412.5</ele>
        <time>2022-06-29T15:17:31Z</time>
      </trkpt>
      <trkpt lat="47.15812" lon="5.94225">
        <ele>412.6</ele>
        <time>2022-06-29T15:17:32Z</time>
      </trkpt>
      <trkpt lat="47.15812" lon="5.94225">
        <ele>412.6</ele>
        <time>2022-06-29T15:17:33Z</time>
      </trkpt>
      <trkpt lat="47.15811" lon="5.94224">
        <ele>412.6</ele>
        <time>2022-06-29T15:17:34Z</time>
      </trkpt>
      <trkpt lat="47.15809" lon="5.94221">
        <ele>412.7</ele>
        <time>2022-06-29T15:17:35Z</time>
      </trkpt>
      <trkpt lat="47.15808" lon="5.9422">
        <ele>412.7</ele>
        <time>2022-06-29T15:17:36Z</time>
      </trkpt>
      <trkpt lat="47.15805" lon="5.94217">
        <ele>412.9</ele>
        <time>2022-06-29T15:17:38Z</time>
      </trkpt>
      <trkpt lat="47.15803" lon="5.94216">
        <ele>412.9</ele>
        <time>2022-06-29T15:17:39Z</time>
      </trkpt>
      <trkpt lat="47.15801" lon="5.94213">
        <ele>413</ele>
        <time>2022-06-29T15:17:40Z</time>
      </trkpt>
      <trkpt lat="47.158" lon="5.94212">
        <ele>413.1</ele>
        <time>2022-06-29T15:17:41Z</time>
      </trkpt>
      <trkpt lat="47.15797" lon="5.94209">
        <ele>413.2</ele>
        <time>2022-06-29T15:17:43Z</time>
      </trkpt>
      <trkpt lat="47.15796" lon="5.94208">
        <ele>413.2</ele>
        <time>2022-06-29T15:17:44Z</time>
      </trkpt>
      <trkpt lat="47.15795" lon="5.94207">
        <ele>413.3</ele>
        <time>2022-06-29T15:17:45Z</time>
      </trkpt>
      <trkpt lat="47.15792" lon="5.94204">
        <ele>413.4</ele>
        <time>2022-06-29T15:17:46Z</time>
      </trkpt>
      <trkpt lat="47.15792" lon="5.94203">
        <ele>413.5</ele>
        <time>2022-06-29T15:17:47Z</time>
      </trkpt>
      <trkpt lat="47.1579" lon="5.942">
        <ele>413.6</ele>
        <time>2022-06-29T15:17:48Z</time>
      </trkpt>
      <trkpt lat="47.15789" lon="5.942">
        <ele>413.7</ele>
        <time>2022-06-29T15:17:49Z</time>
      </trkpt>
      <trkpt lat="47.15787" lon="5.94198">
        <ele>413.8</ele>
        <time>2022-06-29T15:17:50Z</time>
      </trkpt>
      <trkpt lat="47.15786" lon="5.94197">
        <ele>413.8</ele>
        <time>2022-06-29T15:17:51Z</time>
      </trkpt>
      <trkpt lat="47.15783" lon="5.94195">
        <ele>414</ele>
        <time>2022-06-29T15:17:52Z</time>
      </trkpt>
      <trkpt lat="47.15782" lon="5.94194">
        <ele>414</ele>
        <time>2022-06-29T15:17:53Z</time>
      </trkpt>
      <trkpt lat="47.15781" lon="5.94193">
        <ele>414.1</ele>
        <time>2022-06-29T15:17:54Z</time>
      </trkpt>
      <trkpt lat="47.1578" lon="5.94191">
        <ele>414.2</ele>
        <time>2022-06-29T15:17:55Z</time>
      </trkpt>
      <trkpt lat="47.15779" lon="5.9419">
        <ele>414.3</ele>
        <time>2022-06-29T15:17:56Z</time>
      </trkpt>
      <trkpt lat="47.15778" lon="5.94188">
        <ele>414.4</ele>
        <time>2022-06-29T15:17:57Z</time>
      </trkpt>
      <trkpt lat="47.15777" lon="5.94185">
        <ele>414.5</ele>
        <time>2022-06-29T15:17:58Z</time>
      </trkpt>
      <trkpt lat="47.15775" lon="5.94182">
        <ele>414.7</ele>
        <time>2022-06-29T15:18:00Z</time>
      </trkpt>
      <trkpt lat="47.15775" lon="5.9418">
        <ele>414.8</ele>
        <time>2022-06-29T15:18:01Z</time>
      </trkpt>
      <trkpt lat="47.15774" lon="5.94178">
        <ele>414.9</ele>
        <time>2022-06-29T15:18:02Z</time>
      </trkpt>
      <trkpt lat="47.15772" lon="5.94172">
        <ele>415.2</ele>
        <time>2022-06-29T15:18:04Z</time>
      </trkpt>
      <trkpt lat="47.15771" lon="5.9417">
        <ele>415.3</ele>
        <time>2022-06-29T15:18:05Z</time>
      </trkpt>
      <trkpt lat="47.1577" lon="5.94167">
        <ele>415.4</ele>
        <time>2022-06-29T15:18:06Z</time>
      </trkpt>
      <trkpt lat="47.15769" lon="5.94163">
        <ele>415.7</ele>
        <time>2022-06-29T15:18:07Z</time>
      </trkpt>
      <trkpt lat="47.15769" lon="5.94157">
        <ele>415.9</ele>
        <time>2022-06-29T15:18:08Z</time>
      </trkpt>
      <trkpt lat="47.15768" lon="5.94155">
        <ele>416</ele>
        <time>2022-06-29T15:18:09Z</time>
      </trkpt>
      <trkpt lat="47.15768" lon="5.94151">
        <ele>416.2</ele>
        <time>2022-06-29T15:18:10Z</time>
      </trkpt>
      <trkpt lat="47.15769" lon="5.94143">
        <ele>416.6</ele>
        <time>2022-06-29T15:18:12Z</time>
      </trkpt>
      <trkpt lat="47.15769" lon="5.94141">
        <ele>416.8</ele>
        <time>2022-06-29T15:18:13Z</time>
      </trkpt>
      <trkpt lat="47.15769" lon="5.94135">
        <ele>417.1</ele>
        <time>2022-06-29T15:18:15Z</time>
      </trkpt>
      <trkpt lat="47.15768" lon="5.9413">
        <ele>417.4</ele>
        <time>2022-06-29T15:18:16Z</time>
      </trkpt>
      <trkpt lat="47.15768" lon="5.94128">
        <ele>417.5</ele>
        <time>2022-06-29T15:18:17Z</time>
      </trkpt>
      <trkpt lat="47.15768" lon="5.94123">
        <ele>417.9</ele>
        <time>2022-06-29T15:18:18Z</time>
      </trkpt>
      <trkpt lat="47.15766" lon="5.94119">
        <ele>418.2</ele>
        <time>2022-06-29T15:18:19Z</time>
      </trkpt>
      <trkpt lat="47.15765" lon="5.94118">
        <ele>418.3</ele>
        <time>2022-06-29T15:18:20Z</time>
      </trkpt>
      <trkpt lat="47.15761" lon="5.94114">
        <ele>418.8</ele>
        <time>2022-06-29T15:18:22Z</time>
      </trkpt>
      <trkpt lat="47.15759" lon="5.94112">
        <ele>419</ele>
        <time>2022-06-29T15:18:23Z</time>
      </trkpt>
      <trkpt lat="47.15756" lon="5.94109">
        <ele>419.4</ele>
        <time>2022-06-29T15:18:24Z</time>
      </trkpt>
      <trkpt lat="47.15755" lon="5.94108">
        <ele>419.5</ele>
        <time>2022-06-29T15:18:25Z</time>
      </trkpt>
      <trkpt lat="47.15754" lon="5.94108">
        <ele>419.6</ele>
        <time>2022-06-29T15:18:26Z</time>
      </trkpt>
      <trkpt lat="47.15752" lon="5.94108">
        <ele>419.7</ele>
        <time>2022-06-29T15:18:27Z</time>
      </trkpt>
      <trkpt lat="47.15752" lon="5.94105">
        <ele>420</ele>
        <time>2022-06-29T15:18:29Z</time>
      </trkpt>
      <trkpt lat="47.15751" lon="5.94104">
        <ele>420.1</ele>
        <time>2022-06-29T15:18:30Z</time>
      </trkpt>
      <trkpt lat="47.1575" lon="5.94103">
        <ele>420.2</ele>
        <time>2022-06-29T15:18:31Z</time>
      </trkpt>
      <trkpt lat="47.15749" lon="5.94101">
        <ele>420.3</ele>
        <time>2022-06-29T15:18:32Z</time>
      </trkpt>
      <trkpt lat="47.15748" lon="5.941">
        <ele>420.5</ele>
        <time>2022-06-29T15:18:33Z</time>
      </trkpt>
      <trkpt lat="47.15747" lon="5.94098">
        <ele>420.7</ele>
        <time>2022-06-29T15:18:34Z</time>
      </trkpt>
      <trkpt lat="47.15745" lon="5.94097">
        <ele>420.8</ele>
        <time>2022-06-29T15:18:35Z</time>
      </trkpt>
      <trkpt lat="47.15743" lon="5.94095">
        <ele>421.1</ele>
        <time>2022-06-29T15:18:36Z</time>
      </trkpt>
      <trkpt lat="47.15742" lon="5.94094">
        <ele>421.2</ele>
        <time>2022-06-29T15:18:37Z</time>
      </trkpt>
      <trkpt lat="47.15741" lon="5.94093">
        <ele>421.3</ele>
        <time>2022-06-29T15:18:38Z</time>
      </trkpt>
      <trkpt lat="47.15739" lon="5.94091">
        <ele>421.6</ele>
        <time>2022-06-29T15:18:40Z</time>
      </trkpt>
      <trkpt lat="47.15737" lon="5.94088">
        <ele>421.9</ele>
        <time>2022-06-29T15:18:41Z</time>
      </trkpt>
      <trkpt lat="47.15736" lon="5.94086">
        <ele>422.1</ele>
        <time>2022-06-29T15:18:42Z</time>
      </trkpt>
      <trkpt lat="47.15734" lon="5.94085">
        <ele>422.3</ele>
        <time>2022-06-29T15:18:43Z</time>
      </trkpt>
      <trkpt lat="47.15732" lon="5.94083">
        <ele>422.6</ele>
        <time>2022-06-29T15:18:44Z</time>
      </trkpt>
      <trkpt lat="47.15728" lon="5.94079">
        <ele>423.1</ele>
        <time>2022-06-29T15:18:46Z</time>
      </trkpt>
      <trkpt lat="47.15725" lon="5.94078">
        <ele>423.5</ele>
        <time>2022-06-29T15:18:47Z</time>
      </trkpt>
      <trkpt lat="47.15724" lon="5.94077">
        <ele>423.7</ele>
        <time>2022-06-29T15:18:48Z</time>
      </trkpt>
      <trkpt lat="47.1572" lon="5.94076">
        <ele>424.1</ele>
        <time>2022-06-29T15:18:49Z</time>
      </trkpt>
      <trkpt lat="47.15719" lon="5.94076">
        <ele>424.3</ele>
        <time>2022-06-29T15:18:50Z</time>
      </trkpt>
      <trkpt lat="47.15716" lon="5.94076">
        <ele>424.7</ele>
        <time>2022-06-29T15:18:51Z</time>
      </trkpt>
      <trkpt lat="47.15715" lon="5.94075">
        <ele>424.8</ele>
        <time>2022-06-29T15:18:52Z</time>
      </trkpt>
      <trkpt lat="47.15712" lon="5.94075">
        <ele>425.2</ele>
        <time>2022-06-29T15:18:53Z</time>
      </trkpt>
      <trkpt lat="47.15711" lon="5.94075">
        <ele>425.3</ele>
        <time>2022-06-29T15:18:54Z</time>
      </trkpt>
      <trkpt lat="47.15709" lon="5.94075">
        <ele>425.5</ele>
        <time>2022-06-29T15:18:55Z</time>
      </trkpt>
      <trkpt lat="47.15708" lon="5.94075">
        <ele>425.7</ele>
        <time>2022-06-29T15:18:56Z</time>
      </trkpt>
      <trkpt lat="47.15706" lon="5.94075">
        <ele>425.9</ele>
        <time>2022-06-29T15:18:57Z</time>
      </trkpt>
      <trkpt lat="47.15705" lon="5.94075">
        <ele>426.1</ele>
        <time>2022-06-29T15:18:59Z</time>
      </trkpt>
      <trkpt lat="47.15704" lon="5.94075">
        <ele>426.2</ele>
        <time>2022-06-29T15:19:00Z</time>
      </trkpt>
      <trkpt lat="47.15703" lon="5.94075">
        <ele>426.3</ele>
        <time>2022-06-29T15:19:01Z</time>
      </trkpt>
      <trkpt lat="47.15702" lon="5.94075">
        <ele>426.5</ele>
        <time>2022-06-29T15:19:02Z</time>
      </trkpt>
      <trkpt lat="47.15701" lon="5.94074">
        <ele>426.6</ele>
        <time>2022-06-29T15:19:03Z</time>
      </trkpt>
      <trkpt lat="47.157" lon="5.94072">
        <ele>426.8</ele>
        <time>2022-06-29T15:19:04Z</time>
      </trkpt>
      <trkpt lat="47.15698" lon="5.94071">
        <ele>427</ele>
        <time>2022-06-29T15:19:06Z</time>
      </trkpt>
      <trkpt lat="47.15697" lon="5.94069">
        <ele>427.2</ele>
        <time>2022-06-29T15:19:07Z</time>
      </trkpt>
      <trkpt lat="47.15697" lon="5.94066">
        <ele>427.5</ele>
        <time>2022-06-29T15:19:08Z</time>
      </trkpt>
      <trkpt lat="47.15696" lon="5.94065">
        <ele>427.6</ele>
        <time>2022-06-29T15:19:09Z</time>
      </trkpt>
      <trkpt lat="47.15694" lon="5.94062">
        <ele>427.9</ele>
        <time>2022-06-29T15:19:11Z</time>
      </trkpt>
      <trkpt lat="47.15694" lon="5.94061">
        <ele>428</ele>
        <time>2022-06-29T15:19:12Z</time>
      </trkpt>
      <trkpt lat="47.15692" lon="5.94057">
        <ele>428.3</ele>
        <time>2022-06-29T15:19:13Z</time>
      </trkpt>
      <trkpt lat="47.15692" lon="5.94056">
        <ele>428.4</ele>
        <time>2022-06-29T15:19:14Z</time>
      </trkpt>
      <trkpt lat="47.15691" lon="5.94054">
        <ele>428.6</ele>
        <time>2022-06-29T15:19:15Z</time>
      </trkpt>
      <trkpt lat="47.15691" lon="5.94052">
        <ele>428.8</ele>
        <time>2022-06-29T15:19:16Z</time>
      </trkpt>
      <trkpt lat="47.1569" lon="5.9405">
        <ele>428.9</ele>
        <time>2022-06-29T15:19:17Z</time>
      </trkpt>
      <trkpt lat="47.15689" lon="5.94049">
        <ele>429</ele>
        <time>2022-06-29T15:19:18Z</time>
      </trkpt>
      <trkpt lat="47.15688" lon="5.94047">
        <ele>429.2</ele>
        <time>2022-06-29T15:19:19Z</time>
      </trkpt>
      <trkpt lat="47.15687" lon="5.94045">
        <ele>429.3</ele>
        <time>2022-06-29T15:19:20Z</time>
      </trkpt>
      <trkpt lat="47.15686" lon="5.94043">
        <ele>429.5</ele>
        <time>2022-06-29T15:19:21Z</time>
      </trkpt>
      <trkpt lat="47.15684" lon="5.94041">
        <ele>429.7</ele>
        <time>2022-06-29T15:19:23Z</time>
      </trkpt>
      <trkpt lat="47.15682" lon="5.94039">
        <ele>429.9</ele>
        <time>2022-06-29T15:19:24Z</time>
      </trkpt>
      <trkpt lat="47.1568" lon="5.94037">
        <ele>430.1</ele>
        <time>2022-06-29T15:19:26Z</time>
      </trkpt>
      <trkpt lat="47.15678" lon="5.94034">
        <ele>430.3</ele>
        <time>2022-06-29T15:19:27Z</time>
      </trkpt>
      <trkpt lat="47.15676" lon="5.9403">
        <ele>430.5</ele>
        <time>2022-06-29T15:19:28Z</time>
      </trkpt>
      <trkpt lat="47.15675" lon="5.94029">
        <ele>430.6</ele>
        <time>2022-06-29T15:19:29Z</time>
      </trkpt>
      <trkpt lat="47.15673" lon="5.94027">
        <ele>430.8</ele>
        <time>2022-06-29T15:19:31Z</time>
      </trkpt>
      <trkpt lat="47.15671" lon="5.94025">
        <ele>430.9</ele>
        <time>2022-06-29T15:19:32Z</time>
      </trkpt>
      <trkpt lat="47.1567" lon="5.94024">
        <ele>431</ele>
        <time>2022-06-29T15:19:33Z</time>
      </trkpt>
      <trkpt lat="47.15669" lon="5.94021">
        <ele>431.1</ele>
        <time>2022-06-29T15:19:34Z</time>
      </trkpt>
      <trkpt lat="47.15668" lon="5.94021">
        <ele>431.2</ele>
        <time>2022-06-29T15:19:35Z</time>
      </trkpt>
      <trkpt lat="47.15667" lon="5.9402">
        <ele>431.2</ele>
        <time>2022-06-29T15:19:36Z</time>
      </trkpt>
      <trkpt lat="47.15666" lon="5.94019">
        <ele>431.3</ele>
        <time>2022-06-29T15:19:37Z</time>
      </trkpt>
      <trkpt lat="47.15665" lon="5.94017">
        <ele>431.4</ele>
        <time>2022-06-29T15:19:38Z</time>
      </trkpt>
      <trkpt lat="47.15664" lon="5.94016">
        <ele>431.5</ele>
        <time>2022-06-29T15:19:39Z</time>
      </trkpt>
      <trkpt lat="47.15662" lon="5.94016">
        <ele>431.6</ele>
        <time>2022-06-29T15:19:40Z</time>
      </trkpt>
      <trkpt lat="47.15661" lon="5.94015">
        <ele>431.7</ele>
        <time>2022-06-29T15:19:41Z</time>
      </trkpt>
      <trkpt lat="47.1566" lon="5.94014">
        <ele>431.8</ele>
        <time>2022-06-29T15:19:42Z</time>
      </trkpt>
      <trkpt lat="47.15658" lon="5.94013">
        <ele>431.9</ele>
        <time>2022-06-29T15:19:43Z</time>
      </trkpt>
      <trkpt lat="47.15655" lon="5.94011">
        <ele>432.1</ele>
        <time>2022-06-29T15:19:45Z</time>
      </trkpt>
      <trkpt lat="47.15653" lon="5.94009">
        <ele>432.3</ele>
        <time>2022-06-29T15:19:46Z</time>
      </trkpt>
      <trkpt lat="47.15652" lon="5.94008">
        <ele>432.3</ele>
        <time>2022-06-29T15:19:47Z</time>
      </trkpt>
      <trkpt lat="47.15651" lon="5.94007">
        <ele>432.4</ele>
        <time>2022-06-29T15:19:48Z</time>
      </trkpt>
      <trkpt lat="47.1565" lon="5.94006">
        <ele>432.4</ele>
        <time>2022-06-29T15:19:49Z</time>
      </trkpt>
      <trkpt lat="47.15649" lon="5.94005">
        <ele>432.5</ele>
        <time>2022-06-29T15:19:50Z</time>
      </trkpt>
      <trkpt lat="47.15648" lon="5.94004">
        <ele>432.6</ele>
        <time>2022-06-29T15:19:51Z</time>
      </trkpt>
      <trkpt lat="47.15647" lon="5.94003">
        <ele>432.7</ele>
        <time>2022-06-29T15:19:52Z</time>
      </trkpt>
      <trkpt lat="47.15645" lon="5.94">
        <ele>432.8</ele>
        <time>2022-06-29T15:19:53Z</time>
      </trkpt>
      <trkpt lat="47.15644" lon="5.93997">
        <ele>432.9</ele>
        <time>2022-06-29T15:19:55Z</time>
      </trkpt>
      <trkpt lat="47.15643" lon="5.93993">
        <ele>433.1</ele>
        <time>2022-06-29T15:19:56Z</time>
      </trkpt>
      <trkpt lat="47.15643" lon="5.93991">
        <ele>433.1</ele>
        <time>2022-06-29T15:19:57Z</time>
      </trkpt>
      <trkpt lat="47.15644" lon="5.9399">
        <ele>433.2</ele>
        <time>2022-06-29T15:19:58Z</time>
      </trkpt>
      <trkpt lat="47.15644" lon="5.93989">
        <ele>433.2</ele>
        <time>2022-06-29T15:19:59Z</time>
      </trkpt>
      <trkpt lat="47.15644" lon="5.93989">
        <ele>433.3</ele>
        <time>2022-06-29T15:20:00Z</time>
      </trkpt>
      <trkpt lat="47.15644" lon="5.93989">
        <ele>433.3</ele>
        <time>2022-06-29T15:20:01Z</time>
      </trkpt>
      <trkpt lat="47.15644" lon="5.93989">
        <ele>433.3</ele>
        <time>2022-06-29T15:20:03Z</time>
      </trkpt>
      <trkpt lat="47.15644" lon="5.93989">
        <ele>433.3</ele>
        <time>2022-06-29T15:20:04Z</time>
      </trkpt>
      <trkpt lat="47.15645" lon="5.93988">
        <ele>433.3</ele>
        <time>2022-06-29T15:20:05Z</time>
      </trkpt>
      <trkpt lat="47.15645" lon="5.93988">
        <ele>433.3</ele>
        <time>2022-06-29T15:20:06Z</time>
      </trkpt>
      <trkpt lat="47.15645" lon="5.93988">
        <ele>433.3</ele>
        <time>2022-06-29T15:20:07Z</time>
      </trkpt>
      <trkpt lat="47.15645" lon="5.93988">
        <ele>433.3</ele>
        <time>2022-06-29T15:20:08Z</time>
      </trkpt>
      <trkpt lat="47.15646" lon="5.93988">
        <ele>433.3</ele>
        <time>2022-06-29T15:20:09Z</time>
      </trkpt>
      <trkpt lat="47.15646" lon="5.93988">
        <ele>433.3</ele>
        <time>2022-06-29T15:20:10Z</time>
      </trkpt>
      <trkpt lat="47.15646" lon="5.93988">
        <ele>433.3</ele>
        <time>2022-06-29T15:20:11Z</time>
      </trkpt>
      <trkpt lat="47.15646" lon="5.93988">
        <ele>433.4</ele>
        <time>2022-06-29T15:20:12Z</time>
      </trkpt>
      <trkpt lat="47.15646" lon="5.93988">
        <ele>433.4</ele>
        <time>2022-06-29T15:20:13Z</time>
      </trkpt>
      <trkpt lat="47.15646" lon="5.93988">
        <ele>433.4</ele>
        <time>2022-06-29T15:20:14Z</time>
      </trkpt>
      <trkpt lat="47.15646" lon="5.93988">
        <ele>433.4</ele>
        <time>2022-06-29T15:20:15Z</time>
      </trkpt>
      <trkpt lat="47.15646" lon="5.93988">
        <ele>433.4</ele>
        <time>2022-06-29T15:20:16Z</time>
      </trkpt>
      <trkpt lat="47.15646" lon="5.93988">
        <ele>433.4</ele>
        <time>2022-06-29T15:20:17Z</time>
      </trkpt>
      <trkpt lat="47.15646" lon="5.93988">
        <ele>433.4</ele>
        <time>2022-06-29T15:20:18Z</time>
      </trkpt>
      <trkpt lat="47.15646" lon="5.93989">
        <ele>433.4</ele>
        <time>2022-06-29T15:20:19Z</time>
      </trkpt>
      <trkpt lat="47.15645" lon="5.93994">
        <ele>433.6</ele>
        <time>2022-06-29T15:21:33Z</time>
      </trkpt>
      <trkpt lat="47.15645" lon="5.93993">
        <ele>433.6</ele>
        <time>2022-06-29T15:21:34Z</time>
      </trkpt>
      <trkpt lat="47.15645" lon="5.93993">
        <ele>433.6</ele>
        <time>2022-06-29T15:21:35Z</time>
      </trkpt>
      <trkpt lat="47.15645" lon="5.93992">
        <ele>433.6</ele>
        <time>2022-06-29T15:21:36Z</time>
      </trkpt>
      <trkpt lat="47.15646" lon="5.93992">
        <ele>433.6</ele>
        <time>2022-06-29T15:21:37Z</time>
      </trkpt>
      <trkpt lat="47.15646" lon="5.93993">
        <ele>433.6</ele>
        <time>2022-06-29T15:21:38Z</time>
      </trkpt>
      <trkpt lat="47.15646" lon="5.93992">
        <ele>433.6</ele>
        <time>2022-06-29T15:21:39Z</time>
      </trkpt>
      <trkpt lat="47.15646" lon="5.93992">
        <ele>433.7</ele>
        <time>2022-06-29T15:21:40Z</time>
      </trkpt>
      <trkpt lat="47.15647" lon="5.93991">
        <ele>433.7</ele>
        <time>2022-06-29T15:21:41Z</time>
      </trkpt>
      <trkpt lat="47.15647" lon="5.9399">
        <ele>433.7</ele>
        <time>2022-06-29T15:21:43Z</time>
      </trkpt>
      <trkpt lat="47.15647" lon="5.93989">
        <ele>433.8</ele>
        <time>2022-06-29T15:21:44Z</time>
      </trkpt>
      <trkpt lat="47.15647" lon="5.93988">
        <ele>433.8</ele>
        <time>2022-06-29T15:21:45Z</time>
      </trkpt>
      <trkpt lat="47.15647" lon="5.93987">
        <ele>433.8</ele>
        <time>2022-06-29T15:21:46Z</time>
      </trkpt>
      <trkpt lat="47.15648" lon="5.93986">
        <ele>433.9</ele>
        <time>2022-06-29T15:21:47Z</time>
      </trkpt>
      <trkpt lat="47.15647" lon="5.93986">
        <ele>433.9</ele>
        <time>2022-06-29T15:21:48Z</time>
      </trkpt>
      <trkpt lat="47.15646" lon="5.93986">
        <ele>434</ele>
        <time>2022-06-29T15:21:49Z</time>
      </trkpt>
      <trkpt lat="47.15646" lon="5.93986">
        <ele>434</ele>
        <time>2022-06-29T15:21:50Z</time>
      </trkpt>
      <trkpt lat="47.15646" lon="5.93986">
        <ele>434</ele>
        <time>2022-06-29T15:21:51Z</time>
      </trkpt>
      <trkpt lat="47.15645" lon="5.93987">
        <ele>434</ele>
        <time>2022-06-29T15:21:52Z</time>
      </trkpt>
      <trkpt lat="47.15645" lon="5.93987">
        <ele>434</ele>
        <time>2022-06-29T15:21:53Z</time>
      </trkpt>
      <trkpt lat="47.15645" lon="5.93987">
        <ele>434</ele>
        <time>2022-06-29T15:21:54Z</time>
      </trkpt>
      <trkpt lat="47.15645" lon="5.93987">
        <ele>434</ele>
        <time>2022-06-29T15:21:55Z</time>
      </trkpt>
      <trkpt lat="47.15644" lon="5.93987">
        <ele>434</ele>
        <time>2022-06-29T15:21:56Z</time>
      </trkpt>
      <trkpt lat="47.15645" lon="5.93987">
        <ele>434</ele>
        <time>2022-06-29T15:21:57Z</time>
      </trkpt>
      <trkpt lat="47.15645" lon="5.93987">
        <ele>434</ele>
        <time>2022-06-29T15:21:58Z</time>
      </trkpt>
      <trkpt lat="47.15645" lon="5.93987">
        <ele>434</ele>
        <time>2022-06-29T15:21:59Z</time>
      </trkpt>
      <trkpt lat="47.15645" lon="5.93987">
        <ele>434</ele>
        <time>2022-06-29T15:22:00Z</time>
      </trkpt>
      <trkpt lat="47.15645" lon="5.93987">
        <ele>434.1</ele>
        <time>2022-06-29T15:22:01Z</time>
      </trkpt>
      <trkpt lat="47.15645" lon="5.93987">
        <ele>434.1</ele>
        <time>2022-06-29T15:22:02Z</time>
      </trkpt>
      <trkpt lat="47.15645" lon="5.93987">
        <ele>434.1</ele>
        <time>2022-06-29T15:22:03Z</time>
      </trkpt>
      <trkpt lat="47.15645" lon="5.93987">
        <ele>434.1</ele>
        <time>2022-06-29T15:22:04Z</time>
      </trkpt>
      <trkpt lat="47.15645" lon="5.93987">
        <ele>434.1</ele>
        <time>2022-06-29T15:22:05Z</time>
      </trkpt>
      <trkpt lat="47.15646" lon="5.9399">
        <ele>434.2</ele>
        <time>2022-06-29T15:22:09Z</time>
      </trkpt>
      <trkpt lat="47.15646" lon="5.93991">
        <ele>434.2</ele>
        <time>2022-06-29T15:22:10Z</time>
      </trkpt>
      <trkpt lat="47.15645" lon="5.93992">
        <ele>434.2</ele>
        <time>2022-06-29T15:22:11Z</time>
      </trkpt>
      <trkpt lat="47.15645" lon="5.93992">
        <ele>434.2</ele>
        <time>2022-06-29T15:22:12Z</time>
      </trkpt>
      <trkpt lat="47.15645" lon="5.93992">
        <ele>434.2</ele>
        <time>2022-06-29T15:22:13Z</time>
      </trkpt>
      <trkpt lat="47.15645" lon="5.93992">
        <ele>434.2</ele>
        <time>2022-06-29T15:22:14Z</time>
      </trkpt>
      <trkpt lat="47.15645" lon="5.93992">
        <ele>434.2</ele>
        <time>2022-06-29T15:22:15Z</time>
      </trkpt>
      <trkpt lat="47.15645" lon="5.93992">
        <ele>434.2</ele>
        <time>2022-06-29T15:22:16Z</time>
      </trkpt>
      <trkpt lat="47.15645" lon="5.93992">
        <ele>434.2</ele>
        <time>2022-06-29T15:22:17Z</time>
      </trkpt>
      <trkpt lat="47.15645" lon="5.93991">
        <ele>434.2</ele>
        <time>2022-06-29T15:22:18Z</time>
      </trkpt>
      <trkpt lat="47.15645" lon="5.93991">
        <ele>434.2</ele>
        <time>2022-06-29T15:22:19Z</time>
      </trkpt>
      <trkpt lat="47.15645" lon="5.93991">
        <ele>434.2</ele>
        <time>2022-06-29T15:22:20Z</time>
      </trkpt>
      <trkpt lat="47.15645" lon="5.93991">
        <ele>434.2</ele>
        <time>2022-06-29T15:22:21Z</time>
      </trkpt>
      <trkpt lat="47.15645" lon="5.93991">
        <ele>434.3</ele>
        <time>2022-06-29T15:22:22Z</time>
      </trkpt>
      <trkpt lat="47.15643" lon="5.93991">
        <ele>434.3</ele>
        <time>2022-06-29T15:22:29Z</time>
      </trkpt>
      <trkpt lat="47.15643" lon="5.93991">
        <ele>434.4</ele>
        <time>2022-06-29T15:22:30Z</time>
      </trkpt>
      <trkpt lat="47.15642" lon="5.9399">
        <ele>434.4</ele>
        <time>2022-06-29T15:22:31Z</time>
      </trkpt>
      <trkpt lat="47.15642" lon="5.93989">
        <ele>434.4</ele>
        <time>2022-06-29T15:22:32Z</time>
      </trkpt>
      <trkpt lat="47.15643" lon="5.93988">
        <ele>434.5</ele>
        <time>2022-06-29T15:22:33Z</time>
      </trkpt>
      <trkpt lat="47.15643" lon="5.93988">
        <ele>434.5</ele>
        <time>2022-06-29T15:22:34Z</time>
      </trkpt>
      <trkpt lat="47.15644" lon="5.93988">
        <ele>434.5</ele>
        <time>2022-06-29T15:22:35Z</time>
      </trkpt>
      <trkpt lat="47.15644" lon="5.93987">
        <ele>434.5</ele>
        <time>2022-06-29T15:22:36Z</time>
      </trkpt>
      <trkpt lat="47.15644" lon="5.93987">
        <ele>434.5</ele>
        <time>2022-06-29T15:22:37Z</time>
      </trkpt>
      <trkpt lat="47.15644" lon="5.93987">
        <ele>434.5</ele>
        <time>2022-06-29T15:22:38Z</time>
      </trkpt>
      <trkpt lat="47.15644" lon="5.93988">
        <ele>434.5</ele>
        <time>2022-06-29T15:22:39Z</time>
      </trkpt>
      <trkpt lat="47.15644" lon="5.93988">
        <ele>434.5</ele>
        <time>2022-06-29T15:22:40Z</time>
      </trkpt>
      <trkpt lat="47.15644" lon="5.93988">
        <ele>434.5</ele>
        <time>2022-06-29T15:22:41Z</time>
      </trkpt>
      <trkpt lat="47.15644" lon="5.93988">
        <ele>434.5</ele>
        <time>2022-06-29T15:22:42Z</time>
      </trkpt>
      <trkpt lat="47.15644" lon="5.93987">
        <ele>434.6</ele>
        <time>2022-06-29T15:22:43Z</time>
      </trkpt>
      <trkpt lat="47.15644" lon="5.93987">
        <ele>434.6</ele>
        <time>2022-06-29T15:22:44Z</time>
      </trkpt>
      <trkpt lat="47.15644" lon="5.93987">
        <ele>434.6</ele>
        <time>2022-06-29T15:22:45Z</time>
      </trkpt>
      <trkpt lat="47.15644" lon="5.93987">
        <ele>434.6</ele>
        <time>2022-06-29T15:22:46Z</time>
      </trkpt>
      <trkpt lat="47.15645" lon="5.93987">
        <ele>434.6</ele>
        <time>2022-06-29T15:22:47Z</time>
      </trkpt>
      <trkpt lat="47.15645" lon="5.93988">
        <ele>434.6</ele>
        <time>2022-06-29T15:22:48Z</time>
      </trkpt>
      <trkpt lat="47.15645" lon="5.93988">
        <ele>434.6</ele>
        <time>2022-06-29T15:22:49Z</time>
      </trkpt>
      <trkpt lat="47.15645" lon="5.93988">
        <ele>434.6</ele>
        <time>2022-06-29T15:22:50Z</time>
      </trkpt>
      <trkpt lat="47.15644" lon="5.93989">
        <ele>434.7</ele>
        <time>2022-06-29T15:22:51Z</time>
      </trkpt>
      <trkpt lat="47.15644" lon="5.93989">
        <ele>434.7</ele>
        <time>2022-06-29T15:22:52Z</time>
      </trkpt>
      <trkpt lat="47.15644" lon="5.93989">
        <ele>434.7</ele>
        <time>2022-06-29T15:22:53Z</time>
      </trkpt>
      <trkpt lat="47.15644" lon="5.93989">
        <ele>434.7</ele>
        <time>2022-06-29T15:22:54Z</time>
      </trkpt>
      <trkpt lat="47.15644" lon="5.93989">
        <ele>434.7</ele>
        <time>2022-06-29T15:22:55Z</time>
      </trkpt>
      <trkpt lat="47.15642" lon="5.93991">
        <ele>434.8</ele>
        <time>2022-06-29T15:23:55Z</time>
      </trkpt>
      <trkpt lat="47.15642" lon="5.93991">
        <ele>434.8</ele>
        <time>2022-06-29T15:23:56Z</time>
      </trkpt>
      <trkpt lat="47.15642" lon="5.93992">
        <ele>434.8</ele>
        <time>2022-06-29T15:23:57Z</time>
      </trkpt>
      <trkpt lat="47.15643" lon="5.93992">
        <ele>434.9</ele>
        <time>2022-06-29T15:23:58Z</time>
      </trkpt>
      <trkpt lat="47.15643" lon="5.93992">
        <ele>434.9</ele>
        <time>2022-06-29T15:23:59Z</time>
      </trkpt>
      <trkpt lat="47.15643" lon="5.93993">
        <ele>434.9</ele>
        <time>2022-06-29T15:24:00Z</time>
      </trkpt>
      <trkpt lat="47.15643" lon="5.93995">
        <ele>434.9</ele>
        <time>2022-06-29T15:24:01Z</time>
      </trkpt>
      <trkpt lat="47.15645" lon="5.93999">
        <ele>435.1</ele>
        <time>2022-06-29T15:24:02Z</time>
      </trkpt>
      <trkpt lat="47.15645" lon="5.94">
        <ele>435.1</ele>
        <time>2022-06-29T15:24:03Z</time>
      </trkpt>
      <trkpt lat="47.15647" lon="5.94003">
        <ele>435.2</ele>
        <time>2022-06-29T15:24:04Z</time>
      </trkpt>
      <trkpt lat="47.15648" lon="5.94004">
        <ele>435.3</ele>
        <time>2022-06-29T15:24:05Z</time>
      </trkpt>
      <trkpt lat="47.15651" lon="5.94006">
        <ele>435.1</ele>
        <time>2022-06-29T15:24:06Z</time>
      </trkpt>
      <trkpt lat="47.15652" lon="5.94007">
        <ele>435</ele>
        <time>2022-06-29T15:24:07Z</time>
      </trkpt>
      <trkpt lat="47.15655" lon="5.94009">
        <ele>434.8</ele>
        <time>2022-06-29T15:24:08Z</time>
      </trkpt>
      <trkpt lat="47.15656" lon="5.94009">
        <ele>434.8</ele>
        <time>2022-06-29T15:24:09Z</time>
      </trkpt>
      <trkpt lat="47.15659" lon="5.94012">
        <ele>434.6</ele>
        <time>2022-06-29T15:24:10Z</time>
      </trkpt>
      <trkpt lat="47.1566" lon="5.94013">
        <ele>434.5</ele>
        <time>2022-06-29T15:24:11Z</time>
      </trkpt>
      <trkpt lat="47.15663" lon="5.94015">
        <ele>434.3</ele>
        <time>2022-06-29T15:24:12Z</time>
      </trkpt>
      <trkpt lat="47.15665" lon="5.94018">
        <ele>434.2</ele>
        <time>2022-06-29T15:24:13Z</time>
      </trkpt>
      <trkpt lat="47.15668" lon="5.9402">
        <ele>434</ele>
        <time>2022-06-29T15:24:14Z</time>
      </trkpt>
      <trkpt lat="47.15671" lon="5.94023">
        <ele>433.8</ele>
        <time>2022-06-29T15:24:15Z</time>
      </trkpt>
      <trkpt lat="47.15674" lon="5.94027">
        <ele>433.5</ele>
        <time>2022-06-29T15:24:16Z</time>
      </trkpt>
      <trkpt lat="47.15678" lon="5.9403">
        <ele>433.3</ele>
        <time>2022-06-29T15:24:17Z</time>
      </trkpt>
      <trkpt lat="47.15681" lon="5.94034">
        <ele>433</ele>
        <time>2022-06-29T15:24:18Z</time>
      </trkpt>
      <trkpt lat="47.15685" lon="5.94039">
        <ele>432.6</ele>
        <time>2022-06-29T15:24:19Z</time>
      </trkpt>
      <trkpt lat="47.15688" lon="5.94045">
        <ele>432.2</ele>
        <time>2022-06-29T15:24:20Z</time>
      </trkpt>
      <trkpt lat="47.15691" lon="5.94052">
        <ele>431.9</ele>
        <time>2022-06-29T15:24:21Z</time>
      </trkpt>
      <trkpt lat="47.15694" lon="5.94058">
        <ele>431.5</ele>
        <time>2022-06-29T15:24:22Z</time>
      </trkpt>
      <trkpt lat="47.15696" lon="5.94063">
        <ele>431.1</ele>
        <time>2022-06-29T15:24:23Z</time>
      </trkpt>
      <trkpt lat="47.15698" lon="5.94066">
        <ele>430.9</ele>
        <time>2022-06-29T15:24:24Z</time>
      </trkpt>
      <trkpt lat="47.15701" lon="5.94069">
        <ele>430.6</ele>
        <time>2022-06-29T15:24:25Z</time>
      </trkpt>
      <trkpt lat="47.15705" lon="5.94073">
        <ele>430.2</ele>
        <time>2022-06-29T15:24:26Z</time>
      </trkpt>
      <trkpt lat="47.15709" lon="5.94077">
        <ele>429.7</ele>
        <time>2022-06-29T15:24:27Z</time>
      </trkpt>
      <trkpt lat="47.15713" lon="5.94078">
        <ele>429.2</ele>
        <time>2022-06-29T15:24:28Z</time>
      </trkpt>
      <trkpt lat="47.15717" lon="5.94078">
        <ele>428.9</ele>
        <time>2022-06-29T15:24:29Z</time>
      </trkpt>
      <trkpt lat="47.1572" lon="5.94078">
        <ele>428.4</ele>
        <time>2022-06-29T15:24:30Z</time>
      </trkpt>
      <trkpt lat="47.15724" lon="5.94078">
        <ele>427.9</ele>
        <time>2022-06-29T15:24:31Z</time>
      </trkpt>
      <trkpt lat="47.15727" lon="5.94079">
        <ele>427.4</ele>
        <time>2022-06-29T15:24:32Z</time>
      </trkpt>
      <trkpt lat="47.1573" lon="5.9408">
        <ele>427</ele>
        <time>2022-06-29T15:24:33Z</time>
      </trkpt>
      <trkpt lat="47.15734" lon="5.94083">
        <ele>426.1</ele>
        <time>2022-06-29T15:24:34Z</time>
      </trkpt>
      <trkpt lat="47.15739" lon="5.9409">
        <ele>425</ele>
        <time>2022-06-29T15:24:35Z</time>
      </trkpt>
      <trkpt lat="47.15745" lon="5.941">
        <ele>423.7</ele>
        <time>2022-06-29T15:24:36Z</time>
      </trkpt>
      <trkpt lat="47.1575" lon="5.94109">
        <ele>422.5</ele>
        <time>2022-06-29T15:24:37Z</time>
      </trkpt>
      <trkpt lat="47.15756" lon="5.94119">
        <ele>421.3</ele>
        <time>2022-06-29T15:24:38Z</time>
      </trkpt>
      <trkpt lat="47.15761" lon="5.9413">
        <ele>420.2</ele>
        <time>2022-06-29T15:24:39Z</time>
      </trkpt>
      <trkpt lat="47.15764" lon="5.9414">
        <ele>419.2</ele>
        <time>2022-06-29T15:24:40Z</time>
      </trkpt>
      <trkpt lat="47.15765" lon="5.94151">
        <ele>418.2</ele>
        <time>2022-06-29T15:24:41Z</time>
      </trkpt>
      <trkpt lat="47.15767" lon="5.94165">
        <ele>417.1</ele>
        <time>2022-06-29T15:24:42Z</time>
      </trkpt>
      <trkpt lat="47.1577" lon="5.94178">
        <ele>416.2</ele>
        <time>2022-06-29T15:24:43Z</time>
      </trkpt>
      <trkpt lat="47.15774" lon="5.9419">
        <ele>415.4</ele>
        <time>2022-06-29T15:24:44Z</time>
      </trkpt>
      <trkpt lat="47.15781" lon="5.94197">
        <ele>414.7</ele>
        <time>2022-06-29T15:24:45Z</time>
      </trkpt>
      <trkpt lat="47.15789" lon="5.94203">
        <ele>414.1</ele>
        <time>2022-06-29T15:24:46Z</time>
      </trkpt>
      <trkpt lat="47.15795" lon="5.9421">
        <ele>413.5</ele>
        <time>2022-06-29T15:24:47Z</time>
      </trkpt>
      <trkpt lat="47.15802" lon="5.94218">
        <ele>413.1</ele>
        <time>2022-06-29T15:24:48Z</time>
      </trkpt>
      <trkpt lat="47.15809" lon="5.94225">
        <ele>412.8</ele>
        <time>2022-06-29T15:24:49Z</time>
      </trkpt>
      <trkpt lat="47.15814" lon="5.94231">
        <ele>412.5</ele>
        <time>2022-06-29T15:24:50Z</time>
      </trkpt>
      <trkpt lat="47.15818" lon="5.94236">
        <ele>412.3</ele>
        <time>2022-06-29T15:24:51Z</time>
      </trkpt>
      <trkpt lat="47.15819" lon="5.94239">
        <ele>412.2</ele>
        <time>2022-06-29T15:24:52Z</time>
      </trkpt>
      <trkpt lat="47.15822" lon="5.94244">
        <ele>412</ele>
        <time>2022-06-29T15:24:53Z</time>
      </trkpt>
      <trkpt lat="47.15826" lon="5.94249">
        <ele>411.9</ele>
        <time>2022-06-29T15:24:54Z</time>
      </trkpt>
      <trkpt lat="47.15827" lon="5.94252">
        <ele>411.8</ele>
        <time>2022-06-29T15:24:55Z</time>
      </trkpt>
      <trkpt lat="47.15829" lon="5.94255">
        <ele>411.6</ele>
        <time>2022-06-29T15:24:56Z</time>
      </trkpt>
      <trkpt lat="47.15831" lon="5.94258">
        <ele>411.4</ele>
        <time>2022-06-29T15:24:57Z</time>
      </trkpt>
      <trkpt lat="47.15834" lon="5.94263">
        <ele>411.2</ele>
        <time>2022-06-29T15:24:58Z</time>
      </trkpt>
      <trkpt lat="47.15835" lon="5.94267">
        <ele>411.1</ele>
        <time>2022-06-29T15:24:59Z</time>
      </trkpt>
      <trkpt lat="47.15836" lon="5.94268">
        <ele>411</ele>
        <time>2022-06-29T15:25:00Z</time>
      </trkpt>
      <trkpt lat="47.15838" lon="5.94272">
        <ele>410.8</ele>
        <time>2022-06-29T15:25:01Z</time>
      </trkpt>
      <trkpt lat="47.15838" lon="5.94273">
        <ele>410.8</ele>
        <time>2022-06-29T15:25:02Z</time>
      </trkpt>
      <trkpt lat="47.15839" lon="5.94274">
        <ele>410.7</ele>
        <time>2022-06-29T15:25:03Z</time>
      </trkpt>
      <trkpt lat="47.1584" lon="5.94274">
        <ele>410.7</ele>
        <time>2022-06-29T15:25:04Z</time>
      </trkpt>
      <trkpt lat="47.1584" lon="5.94274">
        <ele>410.7</ele>
        <time>2022-06-29T15:25:05Z</time>
      </trkpt>
      <trkpt lat="47.1584" lon="5.94275">
        <ele>410.7</ele>
        <time>2022-06-29T15:25:06Z</time>
      </trkpt>
      <trkpt lat="47.1584" lon="5.94275">
        <ele>410.6</ele>
        <time>2022-06-29T15:25:07Z</time>
      </trkpt>
      <trkpt lat="47.1584" lon="5.94275">
        <ele>410.6</ele>
        <time>2022-06-29T15:25:08Z</time>
      </trkpt>
      <trkpt lat="47.1584" lon="5.94275">
        <ele>410.6</ele>
        <time>2022-06-29T15:25:09Z</time>
      </trkpt>
      <trkpt lat="47.1584" lon="5.94275">
        <ele>410.6</ele>
        <time>2022-06-29T15:25:10Z</time>
      </trkpt>
      <trkpt lat="47.1584" lon="5.94275">
        <ele>410.6</ele>
        <time>2022-06-29T15:25:11Z</time>
      </trkpt>
      <trkpt lat="47.1584" lon="5.94276">
        <ele>410.6</ele>
        <time>2022-06-29T15:25:12Z</time>
      </trkpt>
      <trkpt lat="47.15841" lon="5.94276">
        <ele>410.6</ele>
        <time>2022-06-29T15:25:13Z</time>
      </trkpt>
      <trkpt lat="47.15841" lon="5.94276">
        <ele>410.6</ele>
        <time>2022-06-29T15:25:14Z</time>
      </trkpt>
      <trkpt lat="47.15841" lon="5.94276">
        <ele>410.6</ele>
        <time>2022-06-29T15:25:15Z</time>
      </trkpt>
      <trkpt lat="47.15841" lon="5.94276">
        <ele>410.6</ele>
        <time>2022-06-29T15:25:16Z</time>
      </trkpt>
      <trkpt lat="47.15841" lon="5.94276">
        <ele>410.6</ele>
        <time>2022-06-29T15:25:17Z</time>
      </trkpt>
      <trkpt lat="47.15844" lon="5.94278">
        <ele>410.4</ele>
        <time>2022-06-29T15:25:18Z</time>
      </trkpt>
      <trkpt lat="47.15845" lon="5.94279">
        <ele>410.3</ele>
        <time>2022-06-29T15:25:19Z</time>
      </trkpt>
      <trkpt lat="47.15847" lon="5.94283">
        <ele>410.1</ele>
        <time>2022-06-29T15:25:20Z</time>
      </trkpt>
      <trkpt lat="47.15851" lon="5.94284">
        <ele>409.7</ele>
        <time>2022-06-29T15:25:22Z</time>
      </trkpt>
      <trkpt lat="47.15856" lon="5.94286">
        <ele>409.4</ele>
        <time>2022-06-29T15:25:23Z</time>
      </trkpt>
      <trkpt lat="47.15863" lon="5.94289">
        <ele>408.7</ele>
        <time>2022-06-29T15:25:25Z</time>
      </trkpt>
      <trkpt lat="47.15866" lon="5.9429">
        <ele>408.4</ele>
        <time>2022-06-29T15:25:26Z</time>
      </trkpt>
      <trkpt lat="47.15867" lon="5.94291">
        <ele>408.2</ele>
        <time>2022-06-29T15:25:27Z</time>
      </trkpt>
      <trkpt lat="47.1587" lon="5.94293">
        <ele>408</ele>
        <time>2022-06-29T15:25:28Z</time>
      </trkpt>
      <trkpt lat="47.15872" lon="5.94295">
        <ele>407.7</ele>
        <time>2022-06-29T15:25:30Z</time>
      </trkpt>
      <trkpt lat="47.15876" lon="5.94296">
        <ele>407.3</ele>
        <time>2022-06-29T15:25:31Z</time>
      </trkpt>
      <trkpt lat="47.15879" lon="5.94298">
        <ele>407</ele>
        <time>2022-06-29T15:25:32Z</time>
      </trkpt>
      <trkpt lat="47.15882" lon="5.94303">
        <ele>406.5</ele>
        <time>2022-06-29T15:25:34Z</time>
      </trkpt>
      <trkpt lat="47.15884" lon="5.94307">
        <ele>406.1</ele>
        <time>2022-06-29T15:25:35Z</time>
      </trkpt>
      <trkpt lat="47.15886" lon="5.94314">
        <ele>405.6</ele>
        <time>2022-06-29T15:25:36Z</time>
      </trkpt>
      <trkpt lat="47.15891" lon="5.94326">
        <ele>404.9</ele>
        <time>2022-06-29T15:25:37Z</time>
      </trkpt>
      <trkpt lat="47.15893" lon="5.94333">
        <ele>404.5</ele>
        <time>2022-06-29T15:25:38Z</time>
      </trkpt>
      <trkpt lat="47.15894" lon="5.94341">
        <ele>404.2</ele>
        <time>2022-06-29T15:25:39Z</time>
      </trkpt>
      <trkpt lat="47.15895" lon="5.94348">
        <ele>403.9</ele>
        <time>2022-06-29T15:25:40Z</time>
      </trkpt>
      <trkpt lat="47.15897" lon="5.94355">
        <ele>403.6</ele>
        <time>2022-06-29T15:25:41Z</time>
      </trkpt>
      <trkpt lat="47.15901" lon="5.94362">
        <ele>403.3</ele>
        <time>2022-06-29T15:25:42Z</time>
      </trkpt>
      <trkpt lat="47.15905" lon="5.9437">
        <ele>403</ele>
        <time>2022-06-29T15:25:43Z</time>
      </trkpt>
      <trkpt lat="47.15906" lon="5.94378">
        <ele>402.9</ele>
        <time>2022-06-29T15:25:44Z</time>
      </trkpt>
      <trkpt lat="47.15907" lon="5.94385">
        <ele>402.7</ele>
        <time>2022-06-29T15:25:45Z</time>
      </trkpt>
      <trkpt lat="47.15908" lon="5.94389">
        <ele>402.6</ele>
        <time>2022-06-29T15:25:46Z</time>
      </trkpt>
      <trkpt lat="47.1591" lon="5.94391">
        <ele>402.6</ele>
        <time>2022-06-29T15:25:47Z</time>
      </trkpt>
      <trkpt lat="47.15908" lon="5.94398">
        <ele>402.5</ele>
        <time>2022-06-29T15:25:48Z</time>
      </trkpt>
      <trkpt lat="47.15909" lon="5.94412">
        <ele>402.3</ele>
        <time>2022-06-29T15:25:50Z</time>
      </trkpt>
      <trkpt lat="47.15911" lon="5.94417">
        <ele>402.2</ele>
        <time>2022-06-29T15:25:51Z</time>
      </trkpt>
      <trkpt lat="47.15912" lon="5.94423">
        <ele>402.1</ele>
        <time>2022-06-29T15:25:52Z</time>
      </trkpt>
      <trkpt lat="47.15912" lon="5.94431">
        <ele>402</ele>
        <time>2022-06-29T15:25:53Z</time>
      </trkpt>
      <trkpt lat="47.15913" lon="5.9444">
        <ele>401.9</ele>
        <time>2022-06-29T15:25:55Z</time>
      </trkpt>
      <trkpt lat="47.15914" lon="5.94445">
        <ele>401.9</ele>
        <time>2022-06-29T15:25:56Z</time>
      </trkpt>
      <trkpt lat="47.15915" lon="5.94451">
        <ele>401.8</ele>
        <time>2022-06-29T15:25:57Z</time>
      </trkpt>
      <trkpt lat="47.15917" lon="5.9446">
        <ele>401.7</ele>
        <time>2022-06-29T15:25:59Z</time>
      </trkpt>
      <trkpt lat="47.15922" lon="5.9447">
        <ele>401.6</ele>
        <time>2022-06-29T15:26:01Z</time>
      </trkpt>
      <trkpt lat="47.15924" lon="5.94475">
        <ele>401.6</ele>
        <time>2022-06-29T15:26:02Z</time>
      </trkpt>
      <trkpt lat="47.15924" lon="5.9448">
        <ele>401.6</ele>
        <time>2022-06-29T15:26:03Z</time>
      </trkpt>
      <trkpt lat="47.15925" lon="5.94481">
        <ele>401.6</ele>
        <time>2022-06-29T15:26:04Z</time>
      </trkpt>
      <trkpt lat="47.15924" lon="5.94489">
        <ele>401.5</ele>
        <time>2022-06-29T15:26:06Z</time>
      </trkpt>
      <trkpt lat="47.15924" lon="5.94492">
        <ele>401.5</ele>
        <time>2022-06-29T15:26:07Z</time>
      </trkpt>
      <trkpt lat="47.15924" lon="5.94494">
        <ele>401.5</ele>
        <time>2022-06-29T15:26:08Z</time>
      </trkpt>
      <trkpt lat="47.15923" lon="5.94502">
        <ele>401.5</ele>
        <time>2022-06-29T15:26:10Z</time>
      </trkpt>
      <trkpt lat="47.15923" lon="5.94504">
        <ele>401.5</ele>
        <time>2022-06-29T15:26:11Z</time>
      </trkpt>
      <trkpt lat="47.15923" lon="5.94507">
        <ele>401.5</ele>
        <time>2022-06-29T15:26:12Z</time>
      </trkpt>
      <trkpt lat="47.15922" lon="5.94514">
        <ele>401.4</ele>
        <time>2022-06-29T15:26:14Z</time>
      </trkpt>
      <trkpt lat="47.15922" lon="5.94519">
        <ele>401.4</ele>
        <time>2022-06-29T15:26:15Z</time>
      </trkpt>
      <trkpt lat="47.15924" lon="5.94523">
        <ele>401.4</ele>
        <time>2022-06-29T15:26:16Z</time>
      </trkpt>
      <trkpt lat="47.15925" lon="5.94527">
        <ele>401.3</ele>
        <time>2022-06-29T15:26:17Z</time>
      </trkpt>
      <trkpt lat="47.15926" lon="5.94533">
        <ele>401.3</ele>
        <time>2022-06-29T15:26:18Z</time>
      </trkpt>
      <trkpt lat="47.15927" lon="5.94537">
        <ele>401.3</ele>
        <time>2022-06-29T15:26:19Z</time>
      </trkpt>
      <trkpt lat="47.15929" lon="5.94541">
        <ele>401.2</ele>
        <time>2022-06-29T15:26:20Z</time>
      </trkpt>
      <trkpt lat="47.1593" lon="5.94546">
        <ele>401.2</ele>
        <time>2022-06-29T15:26:21Z</time>
      </trkpt>
      <trkpt lat="47.15931" lon="5.94553">
        <ele>401.1</ele>
        <time>2022-06-29T15:26:23Z</time>
      </trkpt>
      <trkpt lat="47.15932" lon="5.94557">
        <ele>401.1</ele>
        <time>2022-06-29T15:26:24Z</time>
      </trkpt>
      <trkpt lat="47.15933" lon="5.94561">
        <ele>401.1</ele>
        <time>2022-06-29T15:26:25Z</time>
      </trkpt>
      <trkpt lat="47.15934" lon="5.94566">
        <ele>401</ele>
        <time>2022-06-29T15:26:26Z</time>
      </trkpt>
      <trkpt lat="47.15934" lon="5.94571">
        <ele>401</ele>
        <time>2022-06-29T15:26:27Z</time>
      </trkpt>
      <trkpt lat="47.15935" lon="5.94576">
        <ele>400.9</ele>
        <time>2022-06-29T15:26:28Z</time>
      </trkpt>
      <trkpt lat="47.15937" lon="5.94582">
        <ele>400.9</ele>
        <time>2022-06-29T15:26:30Z</time>
      </trkpt>
      <trkpt lat="47.15939" lon="5.94587">
        <ele>400.8</ele>
        <time>2022-06-29T15:26:31Z</time>
      </trkpt>
      <trkpt lat="47.1594" lon="5.94591">
        <ele>400.8</ele>
        <time>2022-06-29T15:26:32Z</time>
      </trkpt>
      <trkpt lat="47.15942" lon="5.94595">
        <ele>400.7</ele>
        <time>2022-06-29T15:26:33Z</time>
      </trkpt>
      <trkpt lat="47.15946" lon="5.94603">
        <ele>400.6</ele>
        <time>2022-06-29T15:26:35Z</time>
      </trkpt>
      <trkpt lat="47.15949" lon="5.94606">
        <ele>400.6</ele>
        <time>2022-06-29T15:26:36Z</time>
      </trkpt>
      <trkpt lat="47.15952" lon="5.9461">
        <ele>400.5</ele>
        <time>2022-06-29T15:26:37Z</time>
      </trkpt>
      <trkpt lat="47.15956" lon="5.94617">
        <ele>400.5</ele>
        <time>2022-06-29T15:26:39Z</time>
      </trkpt>
      <trkpt lat="47.15958" lon="5.94622">
        <ele>400.4</ele>
        <time>2022-06-29T15:26:40Z</time>
      </trkpt>
      <trkpt lat="47.1596" lon="5.94627">
        <ele>400.4</ele>
        <time>2022-06-29T15:26:41Z</time>
      </trkpt>
      <trkpt lat="47.15961" lon="5.94632">
        <ele>400.4</ele>
        <time>2022-06-29T15:26:42Z</time>
      </trkpt>
      <trkpt lat="47.15963" lon="5.94637">
        <ele>400.4</ele>
        <time>2022-06-29T15:26:43Z</time>
      </trkpt>
      <trkpt lat="47.15964" lon="5.94642">
        <ele>400.5</ele>
        <time>2022-06-29T15:26:44Z</time>
      </trkpt>
      <trkpt lat="47.15967" lon="5.94646">
        <ele>400.5</ele>
        <time>2022-06-29T15:26:45Z</time>
      </trkpt>
      <trkpt lat="47.15968" lon="5.94648">
        <ele>400.5</ele>
        <time>2022-06-29T15:26:46Z</time>
      </trkpt>
      <trkpt lat="47.15971" lon="5.94654">
        <ele>400.5</ele>
        <time>2022-06-29T15:26:48Z</time>
      </trkpt>
      <trkpt lat="47.15975" lon="5.94659">
        <ele>400.5</ele>
        <time>2022-06-29T15:26:50Z</time>
      </trkpt>
      <trkpt lat="47.15976" lon="5.9466">
        <ele>400.5</ele>
        <time>2022-06-29T15:26:51Z</time>
      </trkpt>
      <trkpt lat="47.15977" lon="5.94662">
        <ele>400.5</ele>
        <time>2022-06-29T15:26:52Z</time>
      </trkpt>
      <trkpt lat="47.15978" lon="5.94663">
        <ele>400.6</ele>
        <time>2022-06-29T15:26:53Z</time>
      </trkpt>
      <trkpt lat="47.15979" lon="5.94666">
        <ele>400.6</ele>
        <time>2022-06-29T15:26:54Z</time>
      </trkpt>
      <trkpt lat="47.15979" lon="5.94671">
        <ele>400.5</ele>
        <time>2022-06-29T15:26:55Z</time>
      </trkpt>
      <trkpt lat="47.15981" lon="5.94675">
        <ele>400.5</ele>
        <time>2022-06-29T15:26:56Z</time>
      </trkpt>
      <trkpt lat="47.15982" lon="5.9468">
        <ele>400.5</ele>
        <time>2022-06-29T15:26:57Z</time>
      </trkpt>
      <trkpt lat="47.15983" lon="5.94683">
        <ele>400.5</ele>
        <time>2022-06-29T15:26:58Z</time>
      </trkpt>
      <trkpt lat="47.15985" lon="5.94686">
        <ele>400.5</ele>
        <time>2022-06-29T15:26:59Z</time>
      </trkpt>
      <trkpt lat="47.15987" lon="5.9469">
        <ele>400.4</ele>
        <time>2022-06-29T15:27:00Z</time>
      </trkpt>
      <trkpt lat="47.15987" lon="5.94692">
        <ele>400.4</ele>
        <time>2022-06-29T15:27:01Z</time>
      </trkpt>
      <trkpt lat="47.15988" lon="5.94695">
        <ele>400.4</ele>
        <time>2022-06-29T15:27:03Z</time>
      </trkpt>
      <trkpt lat="47.15991" lon="5.94699">
        <ele>400.4</ele>
        <time>2022-06-29T15:27:04Z</time>
      </trkpt>
      <trkpt lat="47.15992" lon="5.947">
        <ele>400.4</ele>
        <time>2022-06-29T15:27:05Z</time>
      </trkpt>
      <trkpt lat="47.15994" lon="5.94704">
        <ele>400.3</ele>
        <time>2022-06-29T15:27:06Z</time>
      </trkpt>
      <trkpt lat="47.15994" lon="5.94706">
        <ele>400.3</ele>
        <time>2022-06-29T15:27:07Z</time>
      </trkpt>
      <trkpt lat="47.15996" lon="5.94708">
        <ele>400.3</ele>
        <time>2022-06-29T15:27:08Z</time>
      </trkpt>
      <trkpt lat="47.16" lon="5.94713">
        <ele>400.2</ele>
        <time>2022-06-29T15:27:10Z</time>
      </trkpt>
      <trkpt lat="47.16002" lon="5.94717">
        <ele>400.2</ele>
        <time>2022-06-29T15:27:11Z</time>
      </trkpt>
      <trkpt lat="47.16003" lon="5.94718">
        <ele>400.2</ele>
        <time>2022-06-29T15:27:12Z</time>
      </trkpt>
      <trkpt lat="47.16005" lon="5.94721">
        <ele>400.1</ele>
        <time>2022-06-29T15:27:13Z</time>
      </trkpt>
      <trkpt lat="47.16006" lon="5.94724">
        <ele>400.1</ele>
        <time>2022-06-29T15:27:15Z</time>
      </trkpt>
      <trkpt lat="47.16008" lon="5.94725">
        <ele>400.1</ele>
        <time>2022-06-29T15:27:16Z</time>
      </trkpt>
      <trkpt lat="47.16009" lon="5.94727">
        <ele>400.1</ele>
        <time>2022-06-29T15:27:17Z</time>
      </trkpt>
      <trkpt lat="47.16009" lon="5.94732">
        <ele>400</ele>
        <time>2022-06-29T15:27:18Z</time>
      </trkpt>
      <trkpt lat="47.16009" lon="5.94733">
        <ele>400</ele>
        <time>2022-06-29T15:27:19Z</time>
      </trkpt>
      <trkpt lat="47.16007" lon="5.9474">
        <ele>399.9</ele>
        <time>2022-06-29T15:27:20Z</time>
      </trkpt>
      <trkpt lat="47.16009" lon="5.94747">
        <ele>399.9</ele>
        <time>2022-06-29T15:27:22Z</time>
      </trkpt>
      <trkpt lat="47.16012" lon="5.9475">
        <ele>399.9</ele>
        <time>2022-06-29T15:27:23Z</time>
      </trkpt>
      <trkpt lat="47.16015" lon="5.94753">
        <ele>399.9</ele>
        <time>2022-06-29T15:27:24Z</time>
      </trkpt>
      <trkpt lat="47.16017" lon="5.94756">
        <ele>399.8</ele>
        <time>2022-06-29T15:27:25Z</time>
      </trkpt>
      <trkpt lat="47.16018" lon="5.9476">
        <ele>399.8</ele>
        <time>2022-06-29T15:27:26Z</time>
      </trkpt>
      <trkpt lat="47.1602" lon="5.94764">
        <ele>399.8</ele>
        <time>2022-06-29T15:27:27Z</time>
      </trkpt>
      <trkpt lat="47.16022" lon="5.94767">
        <ele>399.8</ele>
        <time>2022-06-29T15:27:28Z</time>
      </trkpt>
      <trkpt lat="47.16023" lon="5.9477">
        <ele>399.8</ele>
        <time>2022-06-29T15:27:30Z</time>
      </trkpt>
      <trkpt lat="47.16025" lon="5.94773">
        <ele>399.8</ele>
        <time>2022-06-29T15:27:31Z</time>
      </trkpt>
      <trkpt lat="47.16028" lon="5.94778">
        <ele>399.8</ele>
        <time>2022-06-29T15:27:32Z</time>
      </trkpt>
      <trkpt lat="47.16029" lon="5.9478">
        <ele>399.8</ele>
        <time>2022-06-29T15:27:33Z</time>
      </trkpt>
      <trkpt lat="47.16032" lon="5.94784">
        <ele>399.8</ele>
        <time>2022-06-29T15:27:34Z</time>
      </trkpt>
      <trkpt lat="47.16033" lon="5.94785">
        <ele>399.8</ele>
        <time>2022-06-29T15:27:35Z</time>
      </trkpt>
      <trkpt lat="47.16036" lon="5.94787">
        <ele>399.8</ele>
        <time>2022-06-29T15:27:36Z</time>
      </trkpt>
      <trkpt lat="47.16037" lon="5.94789">
        <ele>399.8</ele>
        <time>2022-06-29T15:27:37Z</time>
      </trkpt>
      <trkpt lat="47.1604" lon="5.94792">
        <ele>399.8</ele>
        <time>2022-06-29T15:27:38Z</time>
      </trkpt>
      <trkpt lat="47.1604" lon="5.94794">
        <ele>399.8</ele>
        <time>2022-06-29T15:27:39Z</time>
      </trkpt>
      <trkpt lat="47.16041" lon="5.94796">
        <ele>399.8</ele>
        <time>2022-06-29T15:27:40Z</time>
      </trkpt>
      <trkpt lat="47.16041" lon="5.94798">
        <ele>399.8</ele>
        <time>2022-06-29T15:27:41Z</time>
      </trkpt>
      <trkpt lat="47.16044" lon="5.94802">
        <ele>399.8</ele>
        <time>2022-06-29T15:27:43Z</time>
      </trkpt>
      <trkpt lat="47.16046" lon="5.94806">
        <ele>399.8</ele>
        <time>2022-06-29T15:27:44Z</time>
      </trkpt>
      <trkpt lat="47.16049" lon="5.94811">
        <ele>399.8</ele>
        <time>2022-06-29T15:27:45Z</time>
      </trkpt>
      <trkpt lat="47.16049" lon="5.94813">
        <ele>399.8</ele>
        <time>2022-06-29T15:27:46Z</time>
      </trkpt>
      <trkpt lat="47.16052" lon="5.9482">
        <ele>399.8</ele>
        <time>2022-06-29T15:27:48Z</time>
      </trkpt>
      <trkpt lat="47.16054" lon="5.94823">
        <ele>399.8</ele>
        <time>2022-06-29T15:27:49Z</time>
      </trkpt>
      <trkpt lat="47.16057" lon="5.94826">
        <ele>399.8</ele>
        <time>2022-06-29T15:27:50Z</time>
      </trkpt>
      <trkpt lat="47.1606" lon="5.94832">
        <ele>399.8</ele>
        <time>2022-06-29T15:27:52Z</time>
      </trkpt>
      <trkpt lat="47.16064" lon="5.94835">
        <ele>399.7</ele>
        <time>2022-06-29T15:27:54Z</time>
      </trkpt>
      <trkpt lat="47.16066" lon="5.9484">
        <ele>399.7</ele>
        <time>2022-06-29T15:27:55Z</time>
      </trkpt>
      <trkpt lat="47.16067" lon="5.94842">
        <ele>399.7</ele>
        <time>2022-06-29T15:27:56Z</time>
      </trkpt>
      <trkpt lat="47.16069" lon="5.94846">
        <ele>399.7</ele>
        <time>2022-06-29T15:27:57Z</time>
      </trkpt>
      <trkpt lat="47.16072" lon="5.94851">
        <ele>399.6</ele>
        <time>2022-06-29T15:27:59Z</time>
      </trkpt>
      <trkpt lat="47.16074" lon="5.94854">
        <ele>399.6</ele>
        <time>2022-06-29T15:28:00Z</time>
      </trkpt>
      <trkpt lat="47.16074" lon="5.94856">
        <ele>399.6</ele>
        <time>2022-06-29T15:28:01Z</time>
      </trkpt>
      <trkpt lat="47.16075" lon="5.9486">
        <ele>399.5</ele>
        <time>2022-06-29T15:28:03Z</time>
      </trkpt>
      <trkpt lat="47.16076" lon="5.9486">
        <ele>399.5</ele>
        <time>2022-06-29T15:28:04Z</time>
      </trkpt>
      <trkpt lat="47.16075" lon="5.94859">
        <ele>399.5</ele>
        <time>2022-06-29T15:28:05Z</time>
      </trkpt>
      <trkpt lat="47.16074" lon="5.94858">
        <ele>399.5</ele>
        <time>2022-06-29T15:28:07Z</time>
      </trkpt>
      <trkpt lat="47.16074" lon="5.94858">
        <ele>399.5</ele>
        <time>2022-06-29T15:28:08Z</time>
      </trkpt>
      <trkpt lat="47.16074" lon="5.94858">
        <ele>399.5</ele>
        <time>2022-06-29T15:28:09Z</time>
      </trkpt>
      <trkpt lat="47.16074" lon="5.94858">
        <ele>399.5</ele>
        <time>2022-06-29T15:28:10Z</time>
      </trkpt>
      <trkpt lat="47.16074" lon="5.94858">
        <ele>399.5</ele>
        <time>2022-06-29T15:28:11Z</time>
      </trkpt>
      <trkpt lat="47.16074" lon="5.94859">
        <ele>399.5</ele>
        <time>2022-06-29T15:28:12Z</time>
      </trkpt>
      <trkpt lat="47.16075" lon="5.94859">
        <ele>399.5</ele>
        <time>2022-06-29T15:28:13Z</time>
      </trkpt>
      <trkpt lat="47.16075" lon="5.94859">
        <ele>399.5</ele>
        <time>2022-06-29T15:28:14Z</time>
      </trkpt>
      <trkpt lat="47.16076" lon="5.94864">
        <ele>399.4</ele>
        <time>2022-06-29T15:28:36Z</time>
      </trkpt>
      <trkpt lat="47.16077" lon="5.94865">
        <ele>399.3</ele>
        <time>2022-06-29T15:28:37Z</time>
      </trkpt>
      <trkpt lat="47.16078" lon="5.94868">
        <ele>399.3</ele>
        <time>2022-06-29T15:28:38Z</time>
      </trkpt>
      <trkpt lat="47.1608" lon="5.9487">
        <ele>399.2</ele>
        <time>2022-06-29T15:28:39Z</time>
      </trkpt>
      <trkpt lat="47.16081" lon="5.94872">
        <ele>399.2</ele>
        <time>2022-06-29T15:28:40Z</time>
      </trkpt>
      <trkpt lat="47.16082" lon="5.94876">
        <ele>399.1</ele>
        <time>2022-06-29T15:28:42Z</time>
      </trkpt>
      <trkpt lat="47.16083" lon="5.94877">
        <ele>399.1</ele>
        <time>2022-06-29T15:28:43Z</time>
      </trkpt>
      <trkpt lat="47.16084" lon="5.94882">
        <ele>399</ele>
        <time>2022-06-29T15:28:44Z</time>
      </trkpt>
      <trkpt lat="47.16085" lon="5.94887">
        <ele>398.9</ele>
        <time>2022-06-29T15:28:45Z</time>
      </trkpt>
      <trkpt lat="47.16086" lon="5.94892">
        <ele>398.7</ele>
        <time>2022-06-29T15:28:46Z</time>
      </trkpt>
      <trkpt lat="47.16088" lon="5.94896">
        <ele>398.6</ele>
        <time>2022-06-29T15:28:47Z</time>
      </trkpt>
      <trkpt lat="47.1609" lon="5.94902">
        <ele>398.5</ele>
        <time>2022-06-29T15:28:48Z</time>
      </trkpt>
      <trkpt lat="47.1609" lon="5.94906">
        <ele>398.4</ele>
        <time>2022-06-29T15:28:49Z</time>
      </trkpt>
      <trkpt lat="47.16091" lon="5.94912">
        <ele>398.3</ele>
        <time>2022-06-29T15:28:51Z</time>
      </trkpt>
      <trkpt lat="47.16094" lon="5.94918">
        <ele>398.2</ele>
        <time>2022-06-29T15:28:52Z</time>
      </trkpt>
      <trkpt lat="47.16096" lon="5.94922">
        <ele>398.1</ele>
        <time>2022-06-29T15:28:53Z</time>
      </trkpt>
      <trkpt lat="47.16099" lon="5.94928">
        <ele>397.9</ele>
        <time>2022-06-29T15:28:54Z</time>
      </trkpt>
      <trkpt lat="47.16102" lon="5.94932">
        <ele>397.8</ele>
        <time>2022-06-29T15:28:55Z</time>
      </trkpt>
      <trkpt lat="47.16105" lon="5.94936">
        <ele>397.8</ele>
        <time>2022-06-29T15:28:56Z</time>
      </trkpt>
      <trkpt lat="47.16107" lon="5.9494">
        <ele>397.7</ele>
        <time>2022-06-29T15:28:57Z</time>
      </trkpt>
      <trkpt lat="47.1611" lon="5.94945">
        <ele>397.7</ele>
        <time>2022-06-29T15:28:59Z</time>
      </trkpt>
      <trkpt lat="47.16112" lon="5.94949">
        <ele>397.6</ele>
        <time>2022-06-29T15:29:00Z</time>
      </trkpt>
      <trkpt lat="47.16115" lon="5.94953">
        <ele>397.6</ele>
        <time>2022-06-29T15:29:02Z</time>
      </trkpt>
      <trkpt lat="47.16116" lon="5.94957">
        <ele>397.6</ele>
        <time>2022-06-29T15:29:03Z</time>
      </trkpt>
      <trkpt lat="47.1612" lon="5.94962">
        <ele>397.5</ele>
        <time>2022-06-29T15:29:04Z</time>
      </trkpt>
      <trkpt lat="47.16121" lon="5.94964">
        <ele>397.5</ele>
        <time>2022-06-29T15:29:05Z</time>
      </trkpt>
      <trkpt lat="47.16123" lon="5.94967">
        <ele>397.5</ele>
        <time>2022-06-29T15:29:06Z</time>
      </trkpt>
      <trkpt lat="47.16127" lon="5.94972">
        <ele>397.5</ele>
        <time>2022-06-29T15:29:07Z</time>
      </trkpt>
      <trkpt lat="47.16131" lon="5.94977">
        <ele>397.5</ele>
        <time>2022-06-29T15:29:09Z</time>
      </trkpt>
      <trkpt lat="47.16134" lon="5.9498">
        <ele>397.6</ele>
        <time>2022-06-29T15:29:10Z</time>
      </trkpt>
      <trkpt lat="47.16138" lon="5.94985">
        <ele>397.6</ele>
        <time>2022-06-29T15:29:12Z</time>
      </trkpt>
      <trkpt lat="47.1614" lon="5.9499">
        <ele>397.6</ele>
        <time>2022-06-29T15:29:13Z</time>
      </trkpt>
      <trkpt lat="47.16141" lon="5.94995">
        <ele>397.6</ele>
        <time>2022-06-29T15:29:14Z</time>
      </trkpt>
      <trkpt lat="47.16142" lon="5.94997">
        <ele>397.7</ele>
        <time>2022-06-29T15:29:15Z</time>
      </trkpt>
      <trkpt lat="47.16145" lon="5.95001">
        <ele>397.7</ele>
        <time>2022-06-29T15:29:16Z</time>
      </trkpt>
      <trkpt lat="47.16147" lon="5.95004">
        <ele>397.7</ele>
        <time>2022-06-29T15:29:18Z</time>
      </trkpt>
      <trkpt lat="47.1615" lon="5.95009">
        <ele>397.7</ele>
        <time>2022-06-29T15:29:19Z</time>
      </trkpt>
      <trkpt lat="47.16157" lon="5.95017">
        <ele>397.7</ele>
        <time>2022-06-29T15:29:20Z</time>
      </trkpt>
      <trkpt lat="47.16159" lon="5.95021">
        <ele>397.7</ele>
        <time>2022-06-29T15:29:21Z</time>
      </trkpt>
      <trkpt lat="47.16159" lon="5.95024">
        <ele>397.7</ele>
        <time>2022-06-29T15:29:22Z</time>
      </trkpt>
      <trkpt lat="47.16161" lon="5.95025">
        <ele>397.7</ele>
        <time>2022-06-29T15:29:23Z</time>
      </trkpt>
      <trkpt lat="47.16163" lon="5.95027">
        <ele>397.7</ele>
        <time>2022-06-29T15:29:24Z</time>
      </trkpt>
      <trkpt lat="47.16166" lon="5.95032">
        <ele>397.7</ele>
        <time>2022-06-29T15:29:26Z</time>
      </trkpt>
      <trkpt lat="47.16169" lon="5.95038">
        <ele>397.6</ele>
        <time>2022-06-29T15:29:27Z</time>
      </trkpt>
      <trkpt lat="47.16172" lon="5.95042">
        <ele>397.6</ele>
        <time>2022-06-29T15:29:28Z</time>
      </trkpt>
      <trkpt lat="47.16175" lon="5.95046">
        <ele>397.6</ele>
        <time>2022-06-29T15:29:29Z</time>
      </trkpt>
      <trkpt lat="47.16177" lon="5.95052">
        <ele>397.6</ele>
        <time>2022-06-29T15:29:31Z</time>
      </trkpt>
      <trkpt lat="47.16182" lon="5.95057">
        <ele>397.6</ele>
        <time>2022-06-29T15:29:32Z</time>
      </trkpt>
      <trkpt lat="47.16187" lon="5.9506">
        <ele>397.6</ele>
        <time>2022-06-29T15:29:34Z</time>
      </trkpt>
      <trkpt lat="47.16189" lon="5.95064">
        <ele>397.6</ele>
        <time>2022-06-29T15:29:35Z</time>
      </trkpt>
      <trkpt lat="47.1619" lon="5.95065">
        <ele>397.6</ele>
        <time>2022-06-29T15:29:36Z</time>
      </trkpt>
      <trkpt lat="47.16193" lon="5.95069">
        <ele>397.6</ele>
        <time>2022-06-29T15:29:37Z</time>
      </trkpt>
      <trkpt lat="47.16195" lon="5.95072">
        <ele>397.6</ele>
        <time>2022-06-29T15:29:38Z</time>
      </trkpt>
      <trkpt lat="47.16197" lon="5.95074">
        <ele>397.6</ele>
        <time>2022-06-29T15:29:39Z</time>
      </trkpt>
      <trkpt lat="47.162" lon="5.95078">
        <ele>397.6</ele>
        <time>2022-06-29T15:29:40Z</time>
      </trkpt>
      <trkpt lat="47.16203" lon="5.95082">
        <ele>397.6</ele>
        <time>2022-06-29T15:29:41Z</time>
      </trkpt>
      <trkpt lat="47.16206" lon="5.95085">
        <ele>397.6</ele>
        <time>2022-06-29T15:29:42Z</time>
      </trkpt>
      <trkpt lat="47.16209" lon="5.9509">
        <ele>397.6</ele>
        <time>2022-06-29T15:29:43Z</time>
      </trkpt>
      <trkpt lat="47.16213" lon="5.95096">
        <ele>397.5</ele>
        <time>2022-06-29T15:29:45Z</time>
      </trkpt>
      <trkpt lat="47.16216" lon="5.95102">
        <ele>397.5</ele>
        <time>2022-06-29T15:29:46Z</time>
      </trkpt>
      <trkpt lat="47.16219" lon="5.95108">
        <ele>397.4</ele>
        <time>2022-06-29T15:29:47Z</time>
      </trkpt>
      <trkpt lat="47.16221" lon="5.95114">
        <ele>397.4</ele>
        <time>2022-06-29T15:29:48Z</time>
      </trkpt>
      <trkpt lat="47.16224" lon="5.95118">
        <ele>397.3</ele>
        <time>2022-06-29T15:29:49Z</time>
      </trkpt>
      <trkpt lat="47.16224" lon="5.95119">
        <ele>397.3</ele>
        <time>2022-06-29T15:29:50Z</time>
      </trkpt>
      <trkpt lat="47.16227" lon="5.95125">
        <ele>397.2</ele>
        <time>2022-06-29T15:29:51Z</time>
      </trkpt>
      <trkpt lat="47.16229" lon="5.9513">
        <ele>397.1</ele>
        <time>2022-06-29T15:29:52Z</time>
      </trkpt>
      <trkpt lat="47.16229" lon="5.95139">
        <ele>396.9</ele>
        <time>2022-06-29T15:29:53Z</time>
      </trkpt>
      <trkpt lat="47.16231" lon="5.95145">
        <ele>396.7</ele>
        <time>2022-06-29T15:29:54Z</time>
      </trkpt>
      <trkpt lat="47.16235" lon="5.95151">
        <ele>396.5</ele>
        <time>2022-06-29T15:29:55Z</time>
      </trkpt>
      <trkpt lat="47.16238" lon="5.95157">
        <ele>396.3</ele>
        <time>2022-06-29T15:29:56Z</time>
      </trkpt>
      <trkpt lat="47.1624" lon="5.95162">
        <ele>396.2</ele>
        <time>2022-06-29T15:29:57Z</time>
      </trkpt>
      <trkpt lat="47.16243" lon="5.95168">
        <ele>395.9</ele>
        <time>2022-06-29T15:29:58Z</time>
      </trkpt>
      <trkpt lat="47.16246" lon="5.95174">
        <ele>395.7</ele>
        <time>2022-06-29T15:29:59Z</time>
      </trkpt>
      <trkpt lat="47.16249" lon="5.95181">
        <ele>395.4</ele>
        <time>2022-06-29T15:30:00Z</time>
      </trkpt>
      <trkpt lat="47.16253" lon="5.95188">
        <ele>395.1</ele>
        <time>2022-06-29T15:30:01Z</time>
      </trkpt>
      <trkpt lat="47.16257" lon="5.95194">
        <ele>394.8</ele>
        <time>2022-06-29T15:30:02Z</time>
      </trkpt>
      <trkpt lat="47.16261" lon="5.95201">
        <ele>394.6</ele>
        <time>2022-06-29T15:30:03Z</time>
      </trkpt>
      <trkpt lat="47.16265" lon="5.95207">
        <ele>394.3</ele>
        <time>2022-06-29T15:30:04Z</time>
      </trkpt>
      <trkpt lat="47.1627" lon="5.95213">
        <ele>394.1</ele>
        <time>2022-06-29T15:30:05Z</time>
      </trkpt>
      <trkpt lat="47.16274" lon="5.95219">
        <ele>393.8</ele>
        <time>2022-06-29T15:30:06Z</time>
      </trkpt>
      <trkpt lat="47.16278" lon="5.95225">
        <ele>393.6</ele>
        <time>2022-06-29T15:30:07Z</time>
      </trkpt>
      <trkpt lat="47.16281" lon="5.95231">
        <ele>393.4</ele>
        <time>2022-06-29T15:30:08Z</time>
      </trkpt>
      <trkpt lat="47.16285" lon="5.95236">
        <ele>393.3</ele>
        <time>2022-06-29T15:30:09Z</time>
      </trkpt>
      <trkpt lat="47.16289" lon="5.95241">
        <ele>393.1</ele>
        <time>2022-06-29T15:30:10Z</time>
      </trkpt>
      <trkpt lat="47.16292" lon="5.95246">
        <ele>393</ele>
        <time>2022-06-29T15:30:11Z</time>
      </trkpt>
      <trkpt lat="47.16296" lon="5.95251">
        <ele>392.8</ele>
        <time>2022-06-29T15:30:12Z</time>
      </trkpt>
      <trkpt lat="47.16299" lon="5.95256">
        <ele>392.7</ele>
        <time>2022-06-29T15:30:13Z</time>
      </trkpt>
      <trkpt lat="47.16303" lon="5.95259">
        <ele>392.6</ele>
        <time>2022-06-29T15:30:14Z</time>
      </trkpt>
      <trkpt lat="47.16305" lon="5.95259">
        <ele>392.5</ele>
        <time>2022-06-29T15:30:15Z</time>
      </trkpt>
      <trkpt lat="47.16312" lon="5.95274">
        <ele>392.1</ele>
        <time>2022-06-29T15:30:17Z</time>
      </trkpt>
      <trkpt lat="47.16315" lon="5.95279">
        <ele>391.8</ele>
        <time>2022-06-29T15:30:18Z</time>
      </trkpt>
      <trkpt lat="47.16319" lon="5.95285">
        <ele>391.6</ele>
        <time>2022-06-29T15:30:19Z</time>
      </trkpt>
      <trkpt lat="47.16323" lon="5.9529">
        <ele>391.3</ele>
        <time>2022-06-29T15:30:20Z</time>
      </trkpt>
      <trkpt lat="47.16326" lon="5.95294">
        <ele>391</ele>
        <time>2022-06-29T15:30:21Z</time>
      </trkpt>
      <trkpt lat="47.1633" lon="5.95298">
        <ele>390.8</ele>
        <time>2022-06-29T15:30:22Z</time>
      </trkpt>
      <trkpt lat="47.16334" lon="5.95303">
        <ele>390.5</ele>
        <time>2022-06-29T15:30:23Z</time>
      </trkpt>
      <trkpt lat="47.16337" lon="5.95308">
        <ele>390.2</ele>
        <time>2022-06-29T15:30:25Z</time>
      </trkpt>
      <trkpt lat="47.1634" lon="5.95315">
        <ele>390</ele>
        <time>2022-06-29T15:30:26Z</time>
      </trkpt>
      <trkpt lat="47.16342" lon="5.95321">
        <ele>389.7</ele>
        <time>2022-06-29T15:30:27Z</time>
      </trkpt>
      <trkpt lat="47.16345" lon="5.95325">
        <ele>389.5</ele>
        <time>2022-06-29T15:30:28Z</time>
      </trkpt>
      <trkpt lat="47.16351" lon="5.95331">
        <ele>389.1</ele>
        <time>2022-06-29T15:30:30Z</time>
      </trkpt>
      <trkpt lat="47.16355" lon="5.95338">
        <ele>388.7</ele>
        <time>2022-06-29T15:30:32Z</time>
      </trkpt>
      <trkpt lat="47.16358" lon="5.95343">
        <ele>388.5</ele>
        <time>2022-06-29T15:30:33Z</time>
      </trkpt>
      <trkpt lat="47.16361" lon="5.95349">
        <ele>388.2</ele>
        <time>2022-06-29T15:30:34Z</time>
      </trkpt>
      <trkpt lat="47.16365" lon="5.95359">
        <ele>387.8</ele>
        <time>2022-06-29T15:30:35Z</time>
      </trkpt>
      <trkpt lat="47.16369" lon="5.95366">
        <ele>387.4</ele>
        <time>2022-06-29T15:30:36Z</time>
      </trkpt>
      <trkpt lat="47.16371" lon="5.95373">
        <ele>387</ele>
        <time>2022-06-29T15:30:37Z</time>
      </trkpt>
      <trkpt lat="47.16374" lon="5.95381">
        <ele>386.6</ele>
        <time>2022-06-29T15:30:38Z</time>
      </trkpt>
      <trkpt lat="47.16377" lon="5.95389">
        <ele>386.2</ele>
        <time>2022-06-29T15:30:39Z</time>
      </trkpt>
      <trkpt lat="47.16382" lon="5.95397">
        <ele>385.8</ele>
        <time>2022-06-29T15:30:40Z</time>
      </trkpt>
      <trkpt lat="47.16387" lon="5.95406">
        <ele>385.4</ele>
        <time>2022-06-29T15:30:41Z</time>
      </trkpt>
      <trkpt lat="47.1639" lon="5.95413">
        <ele>385.1</ele>
        <time>2022-06-29T15:30:42Z</time>
      </trkpt>
      <trkpt lat="47.16394" lon="5.95419">
        <ele>384.9</ele>
        <time>2022-06-29T15:30:43Z</time>
      </trkpt>
      <trkpt lat="47.16399" lon="5.95425">
        <ele>384.6</ele>
        <time>2022-06-29T15:30:44Z</time>
      </trkpt>
      <trkpt lat="47.16403" lon="5.9543">
        <ele>384.4</ele>
        <time>2022-06-29T15:30:45Z</time>
      </trkpt>
      <trkpt lat="47.16407" lon="5.95436">
        <ele>384.1</ele>
        <time>2022-06-29T15:30:46Z</time>
      </trkpt>
      <trkpt lat="47.16412" lon="5.95442">
        <ele>383.8</ele>
        <time>2022-06-29T15:30:47Z</time>
      </trkpt>
      <trkpt lat="47.16416" lon="5.95447">
        <ele>383.6</ele>
        <time>2022-06-29T15:30:48Z</time>
      </trkpt>
      <trkpt lat="47.1642" lon="5.95451">
        <ele>383.4</ele>
        <time>2022-06-29T15:30:49Z</time>
      </trkpt>
      <trkpt lat="47.16423" lon="5.95455">
        <ele>383.2</ele>
        <time>2022-06-29T15:30:50Z</time>
      </trkpt>
      <trkpt lat="47.16424" lon="5.95456">
        <ele>383.2</ele>
        <time>2022-06-29T15:30:51Z</time>
      </trkpt>
      <trkpt lat="47.16426" lon="5.9546">
        <ele>383</ele>
        <time>2022-06-29T15:30:52Z</time>
      </trkpt>
      <trkpt lat="47.16429" lon="5.95466">
        <ele>382.7</ele>
        <time>2022-06-29T15:30:53Z</time>
      </trkpt>
      <trkpt lat="47.16431" lon="5.95471">
        <ele>382.4</ele>
        <time>2022-06-29T15:30:54Z</time>
      </trkpt>
      <trkpt lat="47.16434" lon="5.95477">
        <ele>382.1</ele>
        <time>2022-06-29T15:30:55Z</time>
      </trkpt>
      <trkpt lat="47.16439" lon="5.95478">
        <ele>381.7</ele>
        <time>2022-06-29T15:30:56Z</time>
      </trkpt>
      <trkpt lat="47.16436" lon="5.95482">
        <ele>381.4</ele>
        <time>2022-06-29T15:30:57Z</time>
      </trkpt>
      <trkpt lat="47.1644" lon="5.95486">
        <ele>380.9</ele>
        <time>2022-06-29T15:30:58Z</time>
      </trkpt>
      <trkpt lat="47.16441" lon="5.9549">
        <ele>380.6</ele>
        <time>2022-06-29T15:30:59Z</time>
      </trkpt>
      <trkpt lat="47.16442" lon="5.95496">
        <ele>380.1</ele>
        <time>2022-06-29T15:31:01Z</time>
      </trkpt>
      <trkpt lat="47.16451" lon="5.95504">
        <ele>378.6</ele>
        <time>2022-06-29T15:31:02Z</time>
      </trkpt>
      <trkpt lat="47.16457" lon="5.95505">
        <ele>377.8</ele>
        <time>2022-06-29T15:31:03Z</time>
      </trkpt>
      <trkpt lat="47.16461" lon="5.95506">
        <ele>377.1</ele>
        <time>2022-06-29T15:31:04Z</time>
      </trkpt>
      <trkpt lat="47.16466" lon="5.95507">
        <ele>376.5</ele>
        <time>2022-06-29T15:31:05Z</time>
      </trkpt>
      <trkpt lat="47.16469" lon="5.95508">
        <ele>376.1</ele>
        <time>2022-06-29T15:31:06Z</time>
      </trkpt>
      <trkpt lat="47.16474" lon="5.9551">
        <ele>375.5</ele>
        <time>2022-06-29T15:31:07Z</time>
      </trkpt>
      <trkpt lat="47.16479" lon="5.95515">
        <ele>374.9</ele>
        <time>2022-06-29T15:31:08Z</time>
      </trkpt>
      <trkpt lat="47.16483" lon="5.95522">
        <ele>374.4</ele>
        <time>2022-06-29T15:31:09Z</time>
      </trkpt>
      <trkpt lat="47.16488" lon="5.95528">
        <ele>373.9</ele>
        <time>2022-06-29T15:31:10Z</time>
      </trkpt>
      <trkpt lat="47.16492" lon="5.95533">
        <ele>373.5</ele>
        <time>2022-06-29T15:31:11Z</time>
      </trkpt>
      <trkpt lat="47.16496" lon="5.95537">
        <ele>373.2</ele>
        <time>2022-06-29T15:31:12Z</time>
      </trkpt>
      <trkpt lat="47.165" lon="5.95541">
        <ele>373</ele>
        <time>2022-06-29T15:31:13Z</time>
      </trkpt>
      <trkpt lat="47.16503" lon="5.95546">
        <ele>373</ele>
        <time>2022-06-29T15:31:15Z</time>
      </trkpt>
      <trkpt lat="47.16506" lon="5.95548">
        <ele>373</ele>
        <time>2022-06-29T15:31:16Z</time>
      </trkpt>
      <trkpt lat="47.16511" lon="5.95551">
        <ele>373</ele>
        <time>2022-06-29T15:31:17Z</time>
      </trkpt>
      <trkpt lat="47.16515" lon="5.95553">
        <ele>373.1</ele>
        <time>2022-06-29T15:31:18Z</time>
      </trkpt>
      <trkpt lat="47.16517" lon="5.95556">
        <ele>373.1</ele>
        <time>2022-06-29T15:31:19Z</time>
      </trkpt>
      <trkpt lat="47.1652" lon="5.95559">
        <ele>373.1</ele>
        <time>2022-06-29T15:31:20Z</time>
      </trkpt>
      <trkpt lat="47.16521" lon="5.95562">
        <ele>373.1</ele>
        <time>2022-06-29T15:31:21Z</time>
      </trkpt>
      <trkpt lat="47.16522" lon="5.95565">
        <ele>373.2</ele>
        <time>2022-06-29T15:31:22Z</time>
      </trkpt>
      <trkpt lat="47.1652" lon="5.95572">
        <ele>373.2</ele>
        <time>2022-06-29T15:31:24Z</time>
      </trkpt>
      <trkpt lat="47.16521" lon="5.95576">
        <ele>373.2</ele>
        <time>2022-06-29T15:31:25Z</time>
      </trkpt>
      <trkpt lat="47.16522" lon="5.95577">
        <ele>373.2</ele>
        <time>2022-06-29T15:31:26Z</time>
      </trkpt>
      <trkpt lat="47.16528" lon="5.95577">
        <ele>373.3</ele>
        <time>2022-06-29T15:31:28Z</time>
      </trkpt>
      <trkpt lat="47.16533" lon="5.95579">
        <ele>373.3</ele>
        <time>2022-06-29T15:31:30Z</time>
      </trkpt>
      <trkpt lat="47.16536" lon="5.95583">
        <ele>373.4</ele>
        <time>2022-06-29T15:31:32Z</time>
      </trkpt>
      <trkpt lat="47.1654" lon="5.95588">
        <ele>373.4</ele>
        <time>2022-06-29T15:31:34Z</time>
      </trkpt>
      <trkpt lat="47.16543" lon="5.95591">
        <ele>373.4</ele>
        <time>2022-06-29T15:31:35Z</time>
      </trkpt>
      <trkpt lat="47.16546" lon="5.95593">
        <ele>373.4</ele>
        <time>2022-06-29T15:31:36Z</time>
      </trkpt>
      <trkpt lat="47.16551" lon="5.95597">
        <ele>373.5</ele>
        <time>2022-06-29T15:31:38Z</time>
      </trkpt>
      <trkpt lat="47.16557" lon="5.95603">
        <ele>373.6</ele>
        <time>2022-06-29T15:31:40Z</time>
      </trkpt>
      <trkpt lat="47.1656" lon="5.95605">
        <ele>373.6</ele>
        <time>2022-06-29T15:31:41Z</time>
      </trkpt>
      <trkpt lat="47.16563" lon="5.95608">
        <ele>373.6</ele>
        <time>2022-06-29T15:31:42Z</time>
      </trkpt>
      <trkpt lat="47.1657" lon="5.95614">
        <ele>373.7</ele>
        <time>2022-06-29T15:31:44Z</time>
      </trkpt>
      <trkpt lat="47.16573" lon="5.95617">
        <ele>373.7</ele>
        <time>2022-06-29T15:31:45Z</time>
      </trkpt>
      <trkpt lat="47.16577" lon="5.95621">
        <ele>373.8</ele>
        <time>2022-06-29T15:31:46Z</time>
      </trkpt>
      <trkpt lat="47.1658" lon="5.95624">
        <ele>373.8</ele>
        <time>2022-06-29T15:31:48Z</time>
      </trkpt>
      <trkpt lat="47.16583" lon="5.95628">
        <ele>373.8</ele>
        <time>2022-06-29T15:31:49Z</time>
      </trkpt>
      <trkpt lat="47.16585" lon="5.9563">
        <ele>373.9</ele>
        <time>2022-06-29T15:31:50Z</time>
      </trkpt>
      <trkpt lat="47.16589" lon="5.95635">
        <ele>373.9</ele>
        <time>2022-06-29T15:31:52Z</time>
      </trkpt>
      <trkpt lat="47.16593" lon="5.95638">
        <ele>373.9</ele>
        <time>2022-06-29T15:31:54Z</time>
      </trkpt>
      <trkpt lat="47.16595" lon="5.95642">
        <ele>374</ele>
        <time>2022-06-29T15:31:55Z</time>
      </trkpt>
      <trkpt lat="47.16596" lon="5.95644">
        <ele>374</ele>
        <time>2022-06-29T15:31:56Z</time>
      </trkpt>
      <trkpt lat="47.16599" lon="5.95647">
        <ele>374</ele>
        <time>2022-06-29T15:31:57Z</time>
      </trkpt>
      <trkpt lat="47.16603" lon="5.95652">
        <ele>374.1</ele>
        <time>2022-06-29T15:31:59Z</time>
      </trkpt>
      <trkpt lat="47.16606" lon="5.95655">
        <ele>374.1</ele>
        <time>2022-06-29T15:32:00Z</time>
      </trkpt>
      <trkpt lat="47.16608" lon="5.95657">
        <ele>374.1</ele>
        <time>2022-06-29T15:32:01Z</time>
      </trkpt>
      <trkpt lat="47.16611" lon="5.9566">
        <ele>374.2</ele>
        <time>2022-06-29T15:32:02Z</time>
      </trkpt>
      <trkpt lat="47.16613" lon="5.95663">
        <ele>374.2</ele>
        <time>2022-06-29T15:32:03Z</time>
      </trkpt>
      <trkpt lat="47.16616" lon="5.95666">
        <ele>374.2</ele>
        <time>2022-06-29T15:32:04Z</time>
      </trkpt>
      <trkpt lat="47.16619" lon="5.95669">
        <ele>374.3</ele>
        <time>2022-06-29T15:32:05Z</time>
      </trkpt>
      <trkpt lat="47.16623" lon="5.95673">
        <ele>374.3</ele>
        <time>2022-06-29T15:32:06Z</time>
      </trkpt>
      <trkpt lat="47.16625" lon="5.95675">
        <ele>374.3</ele>
        <time>2022-06-29T15:32:07Z</time>
      </trkpt>
      <trkpt lat="47.16628" lon="5.95679">
        <ele>374.3</ele>
        <time>2022-06-29T15:32:08Z</time>
      </trkpt>
      <trkpt lat="47.16633" lon="5.95683">
        <ele>374.4</ele>
        <time>2022-06-29T15:32:10Z</time>
      </trkpt>
      <trkpt lat="47.16636" lon="5.95685">
        <ele>374.4</ele>
        <time>2022-06-29T15:32:11Z</time>
      </trkpt>
      <trkpt lat="47.16639" lon="5.95688">
        <ele>374.4</ele>
        <time>2022-06-29T15:32:12Z</time>
      </trkpt>
      <trkpt lat="47.16642" lon="5.95691">
        <ele>374.5</ele>
        <time>2022-06-29T15:32:13Z</time>
      </trkpt>
      <trkpt lat="47.16645" lon="5.95694">
        <ele>374.5</ele>
        <time>2022-06-29T15:32:14Z</time>
      </trkpt>
      <trkpt lat="47.16648" lon="5.95697">
        <ele>374.5</ele>
        <time>2022-06-29T15:32:15Z</time>
      </trkpt>
      <trkpt lat="47.16653" lon="5.95703">
        <ele>374.6</ele>
        <time>2022-06-29T15:32:17Z</time>
      </trkpt>
      <trkpt lat="47.16656" lon="5.95708">
        <ele>374.6</ele>
        <time>2022-06-29T15:32:18Z</time>
      </trkpt>
      <trkpt lat="47.16659" lon="5.95711">
        <ele>374.7</ele>
        <time>2022-06-29T15:32:19Z</time>
      </trkpt>
      <trkpt lat="47.16662" lon="5.95714">
        <ele>374.7</ele>
        <time>2022-06-29T15:32:20Z</time>
      </trkpt>
      <trkpt lat="47.16665" lon="5.95716">
        <ele>374.7</ele>
        <time>2022-06-29T15:32:21Z</time>
      </trkpt>
      <trkpt lat="47.1667" lon="5.95722">
        <ele>374.8</ele>
        <time>2022-06-29T15:32:23Z</time>
      </trkpt>
      <trkpt lat="47.16673" lon="5.95725">
        <ele>374.8</ele>
        <time>2022-06-29T15:32:24Z</time>
      </trkpt>
      <trkpt lat="47.16677" lon="5.9573">
        <ele>374.8</ele>
        <time>2022-06-29T15:32:25Z</time>
      </trkpt>
      <trkpt lat="47.16681" lon="5.95738">
        <ele>374.9</ele>
        <time>2022-06-29T15:32:27Z</time>
      </trkpt>
      <trkpt lat="47.16684" lon="5.95748">
        <ele>374.9</ele>
        <time>2022-06-29T15:32:29Z</time>
      </trkpt>
      <trkpt lat="47.16686" lon="5.95757">
        <ele>374.9</ele>
        <time>2022-06-29T15:32:30Z</time>
      </trkpt>
      <trkpt lat="47.16688" lon="5.95761">
        <ele>374.9</ele>
        <time>2022-06-29T15:32:31Z</time>
      </trkpt>
      <trkpt lat="47.16692" lon="5.95769">
        <ele>374.9</ele>
        <time>2022-06-29T15:32:33Z</time>
      </trkpt>
      <trkpt lat="47.16695" lon="5.95776">
        <ele>374.9</ele>
        <time>2022-06-29T15:32:35Z</time>
      </trkpt>
      <trkpt lat="47.16697" lon="5.95779">
        <ele>374.9</ele>
        <time>2022-06-29T15:32:36Z</time>
      </trkpt>
      <trkpt lat="47.16699" lon="5.95783">
        <ele>374.9</ele>
        <time>2022-06-29T15:32:37Z</time>
      </trkpt>
      <trkpt lat="47.16701" lon="5.95788">
        <ele>374.9</ele>
        <time>2022-06-29T15:32:39Z</time>
      </trkpt>
      <trkpt lat="47.16701" lon="5.9579">
        <ele>375</ele>
        <time>2022-06-29T15:32:40Z</time>
      </trkpt>
      <trkpt lat="47.16702" lon="5.95791">
        <ele>375</ele>
        <time>2022-06-29T15:32:41Z</time>
      </trkpt>
      <trkpt lat="47.16703" lon="5.95792">
        <ele>375</ele>
        <time>2022-06-29T15:32:43Z</time>
      </trkpt>
      <trkpt lat="47.16702" lon="5.95789">
        <ele>375</ele>
        <time>2022-06-29T15:32:45Z</time>
      </trkpt>
      <trkpt lat="47.16701" lon="5.95789">
        <ele>375</ele>
        <time>2022-06-29T15:32:46Z</time>
      </trkpt>
      <trkpt lat="47.16701" lon="5.95788">
        <ele>375</ele>
        <time>2022-06-29T15:32:48Z</time>
      </trkpt>
      <trkpt lat="47.16701" lon="5.95788">
        <ele>375</ele>
        <time>2022-06-29T15:32:49Z</time>
      </trkpt>
      <trkpt lat="47.16702" lon="5.95788">
        <ele>375</ele>
        <time>2022-06-29T15:32:50Z</time>
      </trkpt>
      <trkpt lat="47.16702" lon="5.95789">
        <ele>375</ele>
        <time>2022-06-29T15:32:51Z</time>
      </trkpt>
      <trkpt lat="47.16702" lon="5.9579">
        <ele>375</ele>
        <time>2022-06-29T15:32:52Z</time>
      </trkpt>
      <trkpt lat="47.16703" lon="5.95791">
        <ele>375</ele>
        <time>2022-06-29T15:32:53Z</time>
      </trkpt>
      <trkpt lat="47.16703" lon="5.95792">
        <ele>375</ele>
        <time>2022-06-29T15:32:54Z</time>
      </trkpt>
      <trkpt lat="47.16704" lon="5.95793">
        <ele>375</ele>
        <time>2022-06-29T15:33:26Z</time>
      </trkpt>
      <trkpt lat="47.16704" lon="5.95793">
        <ele>375</ele>
        <time>2022-06-29T15:33:27Z</time>
      </trkpt>
      <trkpt lat="47.16705" lon="5.95794">
        <ele>375</ele>
        <time>2022-06-29T15:33:28Z</time>
      </trkpt>
      <trkpt lat="47.16705" lon="5.95795">
        <ele>375</ele>
        <time>2022-06-29T15:33:29Z</time>
      </trkpt>
      <trkpt lat="47.16706" lon="5.95796">
        <ele>375</ele>
        <time>2022-06-29T15:33:30Z</time>
      </trkpt>
      <trkpt lat="47.16706" lon="5.95797">
        <ele>375</ele>
        <time>2022-06-29T15:33:31Z</time>
      </trkpt>
      <trkpt lat="47.16707" lon="5.95799">
        <ele>375</ele>
        <time>2022-06-29T15:33:32Z</time>
      </trkpt>
      <trkpt lat="47.1671" lon="5.95804">
        <ele>375</ele>
        <time>2022-06-29T15:33:34Z</time>
      </trkpt>
      <trkpt lat="47.16712" lon="5.95809">
        <ele>375</ele>
        <time>2022-06-29T15:33:35Z</time>
      </trkpt>
      <trkpt lat="47.16712" lon="5.95811">
        <ele>375</ele>
        <time>2022-06-29T15:33:36Z</time>
      </trkpt>
      <trkpt lat="47.16714" lon="5.95815">
        <ele>375</ele>
        <time>2022-06-29T15:33:37Z</time>
      </trkpt>
      <trkpt lat="47.16715" lon="5.95819">
        <ele>375</ele>
        <time>2022-06-29T15:33:38Z</time>
      </trkpt>
      <trkpt lat="47.16715" lon="5.95824">
        <ele>374.9</ele>
        <time>2022-06-29T15:33:39Z</time>
      </trkpt>
      <trkpt lat="47.16716" lon="5.95828">
        <ele>374.9</ele>
        <time>2022-06-29T15:33:40Z</time>
      </trkpt>
      <trkpt lat="47.16717" lon="5.95832">
        <ele>374.8</ele>
        <time>2022-06-29T15:33:41Z</time>
      </trkpt>
      <trkpt lat="47.16718" lon="5.95837">
        <ele>374.8</ele>
        <time>2022-06-29T15:33:42Z</time>
      </trkpt>
      <trkpt lat="47.16719" lon="5.95843">
        <ele>374.7</ele>
        <time>2022-06-29T15:33:44Z</time>
      </trkpt>
      <trkpt lat="47.1672" lon="5.95848">
        <ele>374.7</ele>
        <time>2022-06-29T15:33:45Z</time>
      </trkpt>
      <trkpt lat="47.16722" lon="5.95855">
        <ele>374.6</ele>
        <time>2022-06-29T15:33:46Z</time>
      </trkpt>
      <trkpt lat="47.16723" lon="5.95862">
        <ele>374.6</ele>
        <time>2022-06-29T15:33:48Z</time>
      </trkpt>
      <trkpt lat="47.16724" lon="5.95867">
        <ele>374.5</ele>
        <time>2022-06-29T15:33:49Z</time>
      </trkpt>
      <trkpt lat="47.16725" lon="5.95872">
        <ele>374.5</ele>
        <time>2022-06-29T15:33:50Z</time>
      </trkpt>
      <trkpt lat="47.16725" lon="5.95875">
        <ele>374.5</ele>
        <time>2022-06-29T15:33:51Z</time>
      </trkpt>
      <trkpt lat="47.16726" lon="5.9588">
        <ele>374.4</ele>
        <time>2022-06-29T15:33:52Z</time>
      </trkpt>
      <trkpt lat="47.16728" lon="5.95883">
        <ele>374.4</ele>
        <time>2022-06-29T15:33:53Z</time>
      </trkpt>
      <trkpt lat="47.16729" lon="5.95885">
        <ele>374.4</ele>
        <time>2022-06-29T15:33:54Z</time>
      </trkpt>
      <trkpt lat="47.16729" lon="5.95889">
        <ele>374.4</ele>
        <time>2022-06-29T15:33:55Z</time>
      </trkpt>
      <trkpt lat="47.1673" lon="5.95891">
        <ele>374.4</ele>
        <time>2022-06-29T15:33:56Z</time>
      </trkpt>
      <trkpt lat="47.1673" lon="5.95893">
        <ele>374.4</ele>
        <time>2022-06-29T15:33:57Z</time>
      </trkpt>
      <trkpt lat="47.16731" lon="5.95898">
        <ele>374.4</ele>
        <time>2022-06-29T15:33:58Z</time>
      </trkpt>
      <trkpt lat="47.16732" lon="5.95899">
        <ele>374.4</ele>
        <time>2022-06-29T15:33:59Z</time>
      </trkpt>
      <trkpt lat="47.16732" lon="5.95902">
        <ele>374.4</ele>
        <time>2022-06-29T15:34:00Z</time>
      </trkpt>
      <trkpt lat="47.16733" lon="5.95904">
        <ele>374.4</ele>
        <time>2022-06-29T15:34:01Z</time>
      </trkpt>
      <trkpt lat="47.16734" lon="5.95906">
        <ele>374.4</ele>
        <time>2022-06-29T15:34:02Z</time>
      </trkpt>
      <trkpt lat="47.16734" lon="5.95907">
        <ele>374.4</ele>
        <time>2022-06-29T15:34:03Z</time>
      </trkpt>
      <trkpt lat="47.16735" lon="5.95913">
        <ele>374.4</ele>
        <time>2022-06-29T15:34:05Z</time>
      </trkpt>
      <trkpt lat="47.16736" lon="5.95918">
        <ele>374.4</ele>
        <time>2022-06-29T15:34:06Z</time>
      </trkpt>
      <trkpt lat="47.16737" lon="5.95919">
        <ele>374.4</ele>
        <time>2022-06-29T15:34:07Z</time>
      </trkpt>
      <trkpt lat="47.16737" lon="5.95922">
        <ele>374.4</ele>
        <time>2022-06-29T15:34:08Z</time>
      </trkpt>
      <trkpt lat="47.16738" lon="5.95924">
        <ele>374.4</ele>
        <time>2022-06-29T15:34:09Z</time>
      </trkpt>
      <trkpt lat="47.16739" lon="5.95928">
        <ele>374.4</ele>
        <time>2022-06-29T15:34:11Z</time>
      </trkpt>
      <trkpt lat="47.16739" lon="5.95929">
        <ele>374.4</ele>
        <time>2022-06-29T15:34:12Z</time>
      </trkpt>
      <trkpt lat="47.16739" lon="5.95932">
        <ele>374.4</ele>
        <time>2022-06-29T15:34:14Z</time>
      </trkpt>
      <trkpt lat="47.16739" lon="5.95933">
        <ele>374.4</ele>
        <time>2022-06-29T15:34:16Z</time>
      </trkpt>
      <trkpt lat="47.1674" lon="5.95934">
        <ele>374.4</ele>
        <time>2022-06-29T15:34:17Z</time>
      </trkpt>
      <trkpt lat="47.1674" lon="5.95937">
        <ele>374.4</ele>
        <time>2022-06-29T15:34:18Z</time>
      </trkpt>
      <trkpt lat="47.1674" lon="5.95938">
        <ele>374.4</ele>
        <time>2022-06-29T15:34:19Z</time>
      </trkpt>
      <trkpt lat="47.16741" lon="5.9594">
        <ele>374.4</ele>
        <time>2022-06-29T15:34:20Z</time>
      </trkpt>
      <trkpt lat="47.16742" lon="5.95941">
        <ele>374.5</ele>
        <time>2022-06-29T15:34:21Z</time>
      </trkpt>
      <trkpt lat="47.16742" lon="5.95942">
        <ele>374.5</ele>
        <time>2022-06-29T15:34:22Z</time>
      </trkpt>
      <trkpt lat="47.16743" lon="5.95943">
        <ele>374.5</ele>
        <time>2022-06-29T15:34:23Z</time>
      </trkpt>
      <trkpt lat="47.16744" lon="5.95946">
        <ele>374.5</ele>
        <time>2022-06-29T15:34:25Z</time>
      </trkpt>
      <trkpt lat="47.16745" lon="5.95947">
        <ele>374.5</ele>
        <time>2022-06-29T15:34:26Z</time>
      </trkpt>
      <trkpt lat="47.16747" lon="5.95951">
        <ele>374.5</ele>
        <time>2022-06-29T15:34:28Z</time>
      </trkpt>
      <trkpt lat="47.16747" lon="5.95955">
        <ele>374.5</ele>
        <time>2022-06-29T15:34:29Z</time>
      </trkpt>
      <trkpt lat="47.16746" lon="5.95956">
        <ele>374.5</ele>
        <time>2022-06-29T15:34:30Z</time>
      </trkpt>
      <trkpt lat="47.16747" lon="5.95959">
        <ele>374.6</ele>
        <time>2022-06-29T15:34:31Z</time>
      </trkpt>
      <trkpt lat="47.16747" lon="5.95961">
        <ele>374.6</ele>
        <time>2022-06-29T15:34:32Z</time>
      </trkpt>
      <trkpt lat="47.16747" lon="5.95965">
        <ele>374.6</ele>
        <time>2022-06-29T15:34:33Z</time>
      </trkpt>
      <trkpt lat="47.16747" lon="5.95967">
        <ele>374.6</ele>
        <time>2022-06-29T15:34:34Z</time>
      </trkpt>
      <trkpt lat="47.16747" lon="5.95969">
        <ele>374.6</ele>
        <time>2022-06-29T15:34:35Z</time>
      </trkpt>
      <trkpt lat="47.16748" lon="5.95973">
        <ele>374.6</ele>
        <time>2022-06-29T15:34:37Z</time>
      </trkpt>
      <trkpt lat="47.16748" lon="5.95976">
        <ele>374.7</ele>
        <time>2022-06-29T15:34:38Z</time>
      </trkpt>
      <trkpt lat="47.16749" lon="5.95978">
        <ele>374.7</ele>
        <time>2022-06-29T15:34:39Z</time>
      </trkpt>
      <trkpt lat="47.16749" lon="5.95983">
        <ele>374.7</ele>
        <time>2022-06-29T15:34:40Z</time>
      </trkpt>
      <trkpt lat="47.1675" lon="5.95985">
        <ele>374.8</ele>
        <time>2022-06-29T15:34:41Z</time>
      </trkpt>
      <trkpt lat="47.16751" lon="5.9599">
        <ele>374.8</ele>
        <time>2022-06-29T15:34:42Z</time>
      </trkpt>
      <trkpt lat="47.16751" lon="5.95992">
        <ele>374.8</ele>
        <time>2022-06-29T15:34:43Z</time>
      </trkpt>
      <trkpt lat="47.16752" lon="5.95996">
        <ele>374.9</ele>
        <time>2022-06-29T15:34:44Z</time>
      </trkpt>
      <trkpt lat="47.16752" lon="5.96003">
        <ele>375</ele>
        <time>2022-06-29T15:34:46Z</time>
      </trkpt>
      <trkpt lat="47.16751" lon="5.96008">
        <ele>375.1</ele>
        <time>2022-06-29T15:34:47Z</time>
      </trkpt>
      <trkpt lat="47.1675" lon="5.96012">
        <ele>375.2</ele>
        <time>2022-06-29T15:34:48Z</time>
      </trkpt>
      <trkpt lat="47.1675" lon="5.96016">
        <ele>375.3</ele>
        <time>2022-06-29T15:34:49Z</time>
      </trkpt>
      <trkpt lat="47.1675" lon="5.96022">
        <ele>375.4</ele>
        <time>2022-06-29T15:34:51Z</time>
      </trkpt>
      <trkpt lat="47.1675" lon="5.96028">
        <ele>375.6</ele>
        <time>2022-06-29T15:34:52Z</time>
      </trkpt>
      <trkpt lat="47.16749" lon="5.96036">
        <ele>375.8</ele>
        <time>2022-06-29T15:34:54Z</time>
      </trkpt>
      <trkpt lat="47.16748" lon="5.96041">
        <ele>375.9</ele>
        <time>2022-06-29T15:34:55Z</time>
      </trkpt>
      <trkpt lat="47.16748" lon="5.96043">
        <ele>376</ele>
        <time>2022-06-29T15:34:56Z</time>
      </trkpt>
      <trkpt lat="47.16747" lon="5.96048">
        <ele>376.2</ele>
        <time>2022-06-29T15:34:57Z</time>
      </trkpt>
      <trkpt lat="47.16747" lon="5.9605">
        <ele>376.2</ele>
        <time>2022-06-29T15:34:58Z</time>
      </trkpt>
      <trkpt lat="47.16746" lon="5.96055">
        <ele>376.4</ele>
        <time>2022-06-29T15:34:59Z</time>
      </trkpt>
      <trkpt lat="47.16746" lon="5.96056">
        <ele>376.5</ele>
        <time>2022-06-29T15:35:00Z</time>
      </trkpt>
      <trkpt lat="47.16745" lon="5.96059">
        <ele>376.6</ele>
        <time>2022-06-29T15:35:01Z</time>
      </trkpt>
      <trkpt lat="47.16745" lon="5.96061">
        <ele>376.7</ele>
        <time>2022-06-29T15:35:02Z</time>
      </trkpt>
      <trkpt lat="47.16744" lon="5.96066">
        <ele>376.9</ele>
        <time>2022-06-29T15:35:03Z</time>
      </trkpt>
      <trkpt lat="47.16744" lon="5.96067">
        <ele>377</ele>
        <time>2022-06-29T15:35:04Z</time>
      </trkpt>
      <trkpt lat="47.16742" lon="5.96071">
        <ele>377.2</ele>
        <time>2022-06-29T15:35:06Z</time>
      </trkpt>
      <trkpt lat="47.16741" lon="5.96073">
        <ele>377.4</ele>
        <time>2022-06-29T15:35:07Z</time>
      </trkpt>
      <trkpt lat="47.16741" lon="5.96076">
        <ele>377.5</ele>
        <time>2022-06-29T15:35:08Z</time>
      </trkpt>
      <trkpt lat="47.1674" lon="5.96078">
        <ele>377.6</ele>
        <time>2022-06-29T15:35:09Z</time>
      </trkpt>
      <trkpt lat="47.16739" lon="5.9608">
        <ele>377.8</ele>
        <time>2022-06-29T15:35:10Z</time>
      </trkpt>
      <trkpt lat="47.16738" lon="5.96083">
        <ele>377.9</ele>
        <time>2022-06-29T15:35:11Z</time>
      </trkpt>
      <trkpt lat="47.16737" lon="5.96085">
        <ele>378.1</ele>
        <time>2022-06-29T15:35:12Z</time>
      </trkpt>
      <trkpt lat="47.16736" lon="5.96088">
        <ele>378.3</ele>
        <time>2022-06-29T15:35:13Z</time>
      </trkpt>
      <trkpt lat="47.16735" lon="5.9609">
        <ele>378.4</ele>
        <time>2022-06-29T15:35:14Z</time>
      </trkpt>
      <trkpt lat="47.16735" lon="5.96092">
        <ele>378.5</ele>
        <time>2022-06-29T15:35:15Z</time>
      </trkpt>
      <trkpt lat="47.16734" lon="5.96094">
        <ele>378.7</ele>
        <time>2022-06-29T15:35:16Z</time>
      </trkpt>
      <trkpt lat="47.16733" lon="5.96098">
        <ele>378.9</ele>
        <time>2022-06-29T15:35:17Z</time>
      </trkpt>
      <trkpt lat="47.16732" lon="5.96099">
        <ele>379</ele>
        <time>2022-06-29T15:35:18Z</time>
      </trkpt>
      <trkpt lat="47.16732" lon="5.96102">
        <ele>379.1</ele>
        <time>2022-06-29T15:35:19Z</time>
      </trkpt>
      <trkpt lat="47.16731" lon="5.96104">
        <ele>379.3</ele>
        <time>2022-06-29T15:35:20Z</time>
      </trkpt>
      <trkpt lat="47.16731" lon="5.96106">
        <ele>379.4</ele>
        <time>2022-06-29T15:35:21Z</time>
      </trkpt>
      <trkpt lat="47.1673" lon="5.96109">
        <ele>379.5</ele>
        <time>2022-06-29T15:35:22Z</time>
      </trkpt>
      <trkpt lat="47.16729" lon="5.96112">
        <ele>379.8</ele>
        <time>2022-06-29T15:35:23Z</time>
      </trkpt>
      <trkpt lat="47.16728" lon="5.96114">
        <ele>379.8</ele>
        <time>2022-06-29T15:35:24Z</time>
      </trkpt>
      <trkpt lat="47.16726" lon="5.96117">
        <ele>380.1</ele>
        <time>2022-06-29T15:35:25Z</time>
      </trkpt>
      <trkpt lat="47.16725" lon="5.96118">
        <ele>380.2</ele>
        <time>2022-06-29T15:35:26Z</time>
      </trkpt>
      <trkpt lat="47.16723" lon="5.96121">
        <ele>380.5</ele>
        <time>2022-06-29T15:35:27Z</time>
      </trkpt>
      <trkpt lat="47.16722" lon="5.96122">
        <ele>380.6</ele>
        <time>2022-06-29T15:35:28Z</time>
      </trkpt>
      <trkpt lat="47.16719" lon="5.96125">
        <ele>380.8</ele>
        <time>2022-06-29T15:35:29Z</time>
      </trkpt>
      <trkpt lat="47.16718" lon="5.96126">
        <ele>380.9</ele>
        <time>2022-06-29T15:35:30Z</time>
      </trkpt>
      <trkpt lat="47.16715" lon="5.96128">
        <ele>381.2</ele>
        <time>2022-06-29T15:35:32Z</time>
      </trkpt>
      <trkpt lat="47.16713" lon="5.96129">
        <ele>381.3</ele>
        <time>2022-06-29T15:35:33Z</time>
      </trkpt>
      <trkpt lat="47.16712" lon="5.96131">
        <ele>381.4</ele>
        <time>2022-06-29T15:35:34Z</time>
      </trkpt>
      <trkpt lat="47.16709" lon="5.96133">
        <ele>381.7</ele>
        <time>2022-06-29T15:35:35Z</time>
      </trkpt>
      <trkpt lat="47.16708" lon="5.96134">
        <ele>381.8</ele>
        <time>2022-06-29T15:35:36Z</time>
      </trkpt>
      <trkpt lat="47.16706" lon="5.96135">
        <ele>382</ele>
        <time>2022-06-29T15:35:37Z</time>
      </trkpt>
      <trkpt lat="47.16705" lon="5.96136">
        <ele>382.1</ele>
        <time>2022-06-29T15:35:38Z</time>
      </trkpt>
      <trkpt lat="47.16702" lon="5.96137">
        <ele>382.3</ele>
        <time>2022-06-29T15:35:39Z</time>
      </trkpt>
      <trkpt lat="47.16701" lon="5.96137">
        <ele>382.4</ele>
        <time>2022-06-29T15:35:40Z</time>
      </trkpt>
      <trkpt lat="47.16699" lon="5.96138">
        <ele>382.6</ele>
        <time>2022-06-29T15:35:41Z</time>
      </trkpt>
      <trkpt lat="47.16695" lon="5.96138">
        <ele>382.9</ele>
        <time>2022-06-29T15:35:43Z</time>
      </trkpt>
      <trkpt lat="47.16692" lon="5.96138">
        <ele>383.1</ele>
        <time>2022-06-29T15:35:44Z</time>
      </trkpt>
      <trkpt lat="47.16691" lon="5.96138">
        <ele>383.1</ele>
        <time>2022-06-29T15:35:45Z</time>
      </trkpt>
      <trkpt lat="47.16687" lon="5.96138">
        <ele>383.4</ele>
        <time>2022-06-29T15:35:46Z</time>
      </trkpt>
      <trkpt lat="47.16686" lon="5.96137">
        <ele>383.4</ele>
        <time>2022-06-29T15:35:47Z</time>
      </trkpt>
      <trkpt lat="47.16683" lon="5.96137">
        <ele>383.6</ele>
        <time>2022-06-29T15:35:48Z</time>
      </trkpt>
      <trkpt lat="47.16682" lon="5.96137">
        <ele>383.7</ele>
        <time>2022-06-29T15:35:49Z</time>
      </trkpt>
      <trkpt lat="47.16678" lon="5.96136">
        <ele>383.9</ele>
        <time>2022-06-29T15:35:50Z</time>
      </trkpt>
      <trkpt lat="47.16677" lon="5.96136">
        <ele>384</ele>
        <time>2022-06-29T15:35:51Z</time>
      </trkpt>
      <trkpt lat="47.16674" lon="5.96135">
        <ele>384.2</ele>
        <time>2022-06-29T15:35:52Z</time>
      </trkpt>
      <trkpt lat="47.16673" lon="5.96135">
        <ele>384.3</ele>
        <time>2022-06-29T15:35:53Z</time>
      </trkpt>
      <trkpt lat="47.16669" lon="5.96134">
        <ele>384.5</ele>
        <time>2022-06-29T15:35:54Z</time>
      </trkpt>
      <trkpt lat="47.16668" lon="5.96134">
        <ele>384.6</ele>
        <time>2022-06-29T15:35:55Z</time>
      </trkpt>
      <trkpt lat="47.16665" lon="5.96134">
        <ele>384.8</ele>
        <time>2022-06-29T15:35:56Z</time>
      </trkpt>
      <trkpt lat="47.16664" lon="5.96135">
        <ele>384.9</ele>
        <time>2022-06-29T15:35:57Z</time>
      </trkpt>
      <trkpt lat="47.16661" lon="5.96135">
        <ele>385.1</ele>
        <time>2022-06-29T15:35:58Z</time>
      </trkpt>
      <trkpt lat="47.1666" lon="5.96135">
        <ele>385.1</ele>
        <time>2022-06-29T15:35:59Z</time>
      </trkpt>
      <trkpt lat="47.16657" lon="5.96136">
        <ele>385.3</ele>
        <time>2022-06-29T15:36:00Z</time>
      </trkpt>
      <trkpt lat="47.16656" lon="5.96137">
        <ele>385.4</ele>
        <time>2022-06-29T15:36:01Z</time>
      </trkpt>
      <trkpt lat="47.16653" lon="5.96137">
        <ele>385.6</ele>
        <time>2022-06-29T15:36:02Z</time>
      </trkpt>
      <trkpt lat="47.16652" lon="5.96137">
        <ele>385.7</ele>
        <time>2022-06-29T15:36:03Z</time>
      </trkpt>
      <trkpt lat="47.16649" lon="5.96138">
        <ele>385.9</ele>
        <time>2022-06-29T15:36:04Z</time>
      </trkpt>
      <trkpt lat="47.16649" lon="5.96139">
        <ele>386</ele>
        <time>2022-06-29T15:36:05Z</time>
      </trkpt>
      <trkpt lat="47.16647" lon="5.9614">
        <ele>386.1</ele>
        <time>2022-06-29T15:36:06Z</time>
      </trkpt>
      <trkpt lat="47.16646" lon="5.96141">
        <ele>386.2</ele>
        <time>2022-06-29T15:36:07Z</time>
      </trkpt>
      <trkpt lat="47.16645" lon="5.96142">
        <ele>386.3</ele>
        <time>2022-06-29T15:36:08Z</time>
      </trkpt>
      <trkpt lat="47.16643" lon="5.96143">
        <ele>386.4</ele>
        <time>2022-06-29T15:36:09Z</time>
      </trkpt>
      <trkpt lat="47.16642" lon="5.96143">
        <ele>386.6</ele>
        <time>2022-06-29T15:36:10Z</time>
      </trkpt>
      <trkpt lat="47.16641" lon="5.96144">
        <ele>386.7</ele>
        <time>2022-06-29T15:36:11Z</time>
      </trkpt>
      <trkpt lat="47.16639" lon="5.96145">
        <ele>386.8</ele>
        <time>2022-06-29T15:36:12Z</time>
      </trkpt>
      <trkpt lat="47.16638" lon="5.96146">
        <ele>387</ele>
        <time>2022-06-29T15:36:13Z</time>
      </trkpt>
      <trkpt lat="47.16637" lon="5.96148">
        <ele>387.1</ele>
        <time>2022-06-29T15:36:14Z</time>
      </trkpt>
      <trkpt lat="47.16635" lon="5.96149">
        <ele>387.3</ele>
        <time>2022-06-29T15:36:15Z</time>
      </trkpt>
      <trkpt lat="47.16634" lon="5.96151">
        <ele>387.4</ele>
        <time>2022-06-29T15:36:16Z</time>
      </trkpt>
      <trkpt lat="47.16635" lon="5.96154">
        <ele>387.6</ele>
        <time>2022-06-29T15:36:17Z</time>
      </trkpt>
      <trkpt lat="47.16635" lon="5.96158">
        <ele>388</ele>
        <time>2022-06-29T15:36:18Z</time>
      </trkpt>
      <trkpt lat="47.16636" lon="5.9616">
        <ele>388.1</ele>
        <time>2022-06-29T15:36:19Z</time>
      </trkpt>
      <trkpt lat="47.16635" lon="5.96162">
        <ele>388.2</ele>
        <time>2022-06-29T15:36:20Z</time>
      </trkpt>
      <trkpt lat="47.16634" lon="5.96163">
        <ele>388.4</ele>
        <time>2022-06-29T15:36:21Z</time>
      </trkpt>
      <trkpt lat="47.16632" lon="5.96164">
        <ele>388.6</ele>
        <time>2022-06-29T15:36:22Z</time>
      </trkpt>
      <trkpt lat="47.1663" lon="5.96165">
        <ele>388.8</ele>
        <time>2022-06-29T15:36:23Z</time>
      </trkpt>
      <trkpt lat="47.16629" lon="5.96166">
        <ele>389</ele>
        <time>2022-06-29T15:36:24Z</time>
      </trkpt>
      <trkpt lat="47.16627" lon="5.96167">
        <ele>389.2</ele>
        <time>2022-06-29T15:36:25Z</time>
      </trkpt>
      <trkpt lat="47.16626" lon="5.96169">
        <ele>389.4</ele>
        <time>2022-06-29T15:36:26Z</time>
      </trkpt>
      <trkpt lat="47.16625" lon="5.9617">
        <ele>389.6</ele>
        <time>2022-06-29T15:36:27Z</time>
      </trkpt>
      <trkpt lat="47.16623" lon="5.96172">
        <ele>389.8</ele>
        <time>2022-06-29T15:36:28Z</time>
      </trkpt>
      <trkpt lat="47.16621" lon="5.96175">
        <ele>390.3</ele>
        <time>2022-06-29T15:36:30Z</time>
      </trkpt>
      <trkpt lat="47.16619" lon="5.96177">
        <ele>390.5</ele>
        <time>2022-06-29T15:36:31Z</time>
      </trkpt>
      <trkpt lat="47.16618" lon="5.96178">
        <ele>390.7</ele>
        <time>2022-06-29T15:36:32Z</time>
      </trkpt>
      <trkpt lat="47.16617" lon="5.9618">
        <ele>390.9</ele>
        <time>2022-06-29T15:36:33Z</time>
      </trkpt>
      <trkpt lat="47.16616" lon="5.96181">
        <ele>391.1</ele>
        <time>2022-06-29T15:36:34Z</time>
      </trkpt>
      <trkpt lat="47.16614" lon="5.96183">
        <ele>391.3</ele>
        <time>2022-06-29T15:36:35Z</time>
      </trkpt>
      <trkpt lat="47.16613" lon="5.96184">
        <ele>391.5</ele>
        <time>2022-06-29T15:36:36Z</time>
      </trkpt>
      <trkpt lat="47.16612" lon="5.96186">
        <ele>391.8</ele>
        <time>2022-06-29T15:36:37Z</time>
      </trkpt>
      <trkpt lat="47.1661" lon="5.96187">
        <ele>392</ele>
        <time>2022-06-29T15:36:38Z</time>
      </trkpt>
      <trkpt lat="47.16608" lon="5.96188">
        <ele>392.2</ele>
        <time>2022-06-29T15:36:39Z</time>
      </trkpt>
      <trkpt lat="47.16607" lon="5.96189">
        <ele>392.4</ele>
        <time>2022-06-29T15:36:40Z</time>
      </trkpt>
      <trkpt lat="47.16605" lon="5.96189">
        <ele>392.5</ele>
        <time>2022-06-29T15:36:41Z</time>
      </trkpt>
      <trkpt lat="47.16604" lon="5.9619">
        <ele>392.7</ele>
        <time>2022-06-29T15:36:42Z</time>
      </trkpt>
      <trkpt lat="47.16602" lon="5.96191">
        <ele>392.8</ele>
        <time>2022-06-29T15:36:43Z</time>
      </trkpt>
      <trkpt lat="47.16602" lon="5.96191">
        <ele>392.8</ele>
        <time>2022-06-29T15:36:44Z</time>
      </trkpt>
      <trkpt lat="47.16602" lon="5.9619">
        <ele>392.9</ele>
        <time>2022-06-29T15:36:45Z</time>
      </trkpt>
      <trkpt lat="47.16603" lon="5.96189">
        <ele>392.9</ele>
        <time>2022-06-29T15:36:46Z</time>
      </trkpt>
      <trkpt lat="47.16603" lon="5.96189">
        <ele>393</ele>
        <time>2022-06-29T15:36:47Z</time>
      </trkpt>
      <trkpt lat="47.16603" lon="5.96189">
        <ele>393</ele>
        <time>2022-06-29T15:36:48Z</time>
      </trkpt>
      <trkpt lat="47.16603" lon="5.96189">
        <ele>393</ele>
        <time>2022-06-29T15:36:49Z</time>
      </trkpt>
      <trkpt lat="47.16603" lon="5.96189">
        <ele>393</ele>
        <time>2022-06-29T15:36:50Z</time>
      </trkpt>
      <trkpt lat="47.16603" lon="5.96189">
        <ele>393</ele>
        <time>2022-06-29T15:36:51Z</time>
      </trkpt>
      <trkpt lat="47.16603" lon="5.96189">
        <ele>393</ele>
        <time>2022-06-29T15:36:52Z</time>
      </trkpt>
      <trkpt lat="47.16603" lon="5.96189">
        <ele>393</ele>
        <time>2022-06-29T15:36:53Z</time>
      </trkpt>
      <trkpt lat="47.16603" lon="5.96189">
        <ele>393</ele>
        <time>2022-06-29T15:36:54Z</time>
      </trkpt>
      <trkpt lat="47.16603" lon="5.96189">
        <ele>393</ele>
        <time>2022-06-29T15:36:55Z</time>
      </trkpt>
      <trkpt lat="47.16603" lon="5.96189">
        <ele>393</ele>
        <time>2022-06-29T15:36:56Z</time>
      </trkpt>
      <trkpt lat="47.166" lon="5.96193">
        <ele>393.4</ele>
        <time>2022-06-29T15:39:01Z</time>
      </trkpt>
      <trkpt lat="47.16597" lon="5.96196">
        <ele>393.7</ele>
        <time>2022-06-29T15:39:03Z</time>
      </trkpt>
      <trkpt lat="47.16595" lon="5.96198">
        <ele>393.9</ele>
        <time>2022-06-29T15:39:04Z</time>
      </trkpt>
      <trkpt lat="47.16593" lon="5.962">
        <ele>394.1</ele>
        <time>2022-06-29T15:39:06Z</time>
      </trkpt>
      <trkpt lat="47.1659" lon="5.96202">
        <ele>394.4</ele>
        <time>2022-06-29T15:39:07Z</time>
      </trkpt>
      <trkpt lat="47.16589" lon="5.96202">
        <ele>394.5</ele>
        <time>2022-06-29T15:39:08Z</time>
      </trkpt>
      <trkpt lat="47.16587" lon="5.96204">
        <ele>394.8</ele>
        <time>2022-06-29T15:39:09Z</time>
      </trkpt>
      <trkpt lat="47.16586" lon="5.96205">
        <ele>395</ele>
        <time>2022-06-29T15:39:10Z</time>
      </trkpt>
      <trkpt lat="47.16582" lon="5.96206">
        <ele>395.4</ele>
        <time>2022-06-29T15:39:12Z</time>
      </trkpt>
      <trkpt lat="47.1658" lon="5.96207">
        <ele>395.6</ele>
        <time>2022-06-29T15:39:13Z</time>
      </trkpt>
      <trkpt lat="47.16579" lon="5.96207">
        <ele>395.7</ele>
        <time>2022-06-29T15:39:14Z</time>
      </trkpt>
      <trkpt lat="47.16577" lon="5.96208">
        <ele>396.1</ele>
        <time>2022-06-29T15:39:15Z</time>
      </trkpt>
      <trkpt lat="47.16576" lon="5.96209">
        <ele>396.2</ele>
        <time>2022-06-29T15:39:16Z</time>
      </trkpt>
      <trkpt lat="47.16574" lon="5.9621">
        <ele>396.4</ele>
        <time>2022-06-29T15:39:17Z</time>
      </trkpt>
      <trkpt lat="47.16571" lon="5.9621">
        <ele>396.8</ele>
        <time>2022-06-29T15:39:19Z</time>
      </trkpt>
      <trkpt lat="47.16568" lon="5.9621">
        <ele>397.1</ele>
        <time>2022-06-29T15:39:20Z</time>
      </trkpt>
      <trkpt lat="47.16565" lon="5.9621">
        <ele>397.5</ele>
        <time>2022-06-29T15:39:21Z</time>
      </trkpt>
      <trkpt lat="47.16564" lon="5.9621">
        <ele>397.7</ele>
        <time>2022-06-29T15:39:22Z</time>
      </trkpt>
      <trkpt lat="47.16561" lon="5.96209">
        <ele>398.1</ele>
        <time>2022-06-29T15:39:23Z</time>
      </trkpt>
      <trkpt lat="47.1656" lon="5.96208">
        <ele>398.2</ele>
        <time>2022-06-29T15:39:24Z</time>
      </trkpt>
      <trkpt lat="47.16558" lon="5.96206">
        <ele>398.6</ele>
        <time>2022-06-29T15:39:25Z</time>
      </trkpt>
      <trkpt lat="47.16557" lon="5.96205">
        <ele>398.7</ele>
        <time>2022-06-29T15:39:26Z</time>
      </trkpt>
      <trkpt lat="47.16554" lon="5.96204">
        <ele>399.1</ele>
        <time>2022-06-29T15:39:27Z</time>
      </trkpt>
      <trkpt lat="47.16553" lon="5.96204">
        <ele>399.2</ele>
        <time>2022-06-29T15:39:28Z</time>
      </trkpt>
      <trkpt lat="47.16551" lon="5.96203">
        <ele>399.5</ele>
        <time>2022-06-29T15:39:29Z</time>
      </trkpt>
      <trkpt lat="47.16548" lon="5.96202">
        <ele>399.8</ele>
        <time>2022-06-29T15:39:31Z</time>
      </trkpt>
      <trkpt lat="47.16546" lon="5.96202">
        <ele>400</ele>
        <time>2022-06-29T15:39:32Z</time>
      </trkpt>
      <trkpt lat="47.16545" lon="5.96201">
        <ele>400.1</ele>
        <time>2022-06-29T15:39:33Z</time>
      </trkpt>
      <trkpt lat="47.16545" lon="5.96201">
        <ele>400.2</ele>
        <time>2022-06-29T15:39:34Z</time>
      </trkpt>
      <trkpt lat="47.16545" lon="5.96201">
        <ele>400.2</ele>
        <time>2022-06-29T15:39:35Z</time>
      </trkpt>
      <trkpt lat="47.16544" lon="5.96201">
        <ele>400.4</ele>
        <time>2022-06-29T15:39:36Z</time>
      </trkpt>
      <trkpt lat="47.16543" lon="5.962">
        <ele>400.5</ele>
        <time>2022-06-29T15:39:37Z</time>
      </trkpt>
      <trkpt lat="47.16541" lon="5.962">
        <ele>400.6</ele>
        <time>2022-06-29T15:39:38Z</time>
      </trkpt>
      <trkpt lat="47.1654" lon="5.962">
        <ele>400.7</ele>
        <time>2022-06-29T15:39:39Z</time>
      </trkpt>
      <trkpt lat="47.16538" lon="5.962">
        <ele>400.9</ele>
        <time>2022-06-29T15:39:40Z</time>
      </trkpt>
      <trkpt lat="47.16536" lon="5.962">
        <ele>401.1</ele>
        <time>2022-06-29T15:39:41Z</time>
      </trkpt>
      <trkpt lat="47.16535" lon="5.962">
        <ele>401.2</ele>
        <time>2022-06-29T15:39:42Z</time>
      </trkpt>
      <trkpt lat="47.16533" lon="5.96199">
        <ele>401.4</ele>
        <time>2022-06-29T15:39:43Z</time>
      </trkpt>
      <trkpt lat="47.16532" lon="5.96198">
        <ele>401.5</ele>
        <time>2022-06-29T15:39:44Z</time>
      </trkpt>
      <trkpt lat="47.1653" lon="5.96197">
        <ele>401.6</ele>
        <time>2022-06-29T15:39:45Z</time>
      </trkpt>
      <trkpt lat="47.16529" lon="5.96197">
        <ele>401.7</ele>
        <time>2022-06-29T15:39:46Z</time>
      </trkpt>
      <trkpt lat="47.16526" lon="5.96197">
        <ele>401.9</ele>
        <time>2022-06-29T15:39:48Z</time>
      </trkpt>
      <trkpt lat="47.16525" lon="5.96197">
        <ele>402</ele>
        <time>2022-06-29T15:39:49Z</time>
      </trkpt>
      <trkpt lat="47.16523" lon="5.96196">
        <ele>402.1</ele>
        <time>2022-06-29T15:39:50Z</time>
      </trkpt>
      <trkpt lat="47.16521" lon="5.96196">
        <ele>402.2</ele>
        <time>2022-06-29T15:39:51Z</time>
      </trkpt>
      <trkpt lat="47.1652" lon="5.96196">
        <ele>402.3</ele>
        <time>2022-06-29T15:39:52Z</time>
      </trkpt>
      <trkpt lat="47.16518" lon="5.96195">
        <ele>402.4</ele>
        <time>2022-06-29T15:39:53Z</time>
      </trkpt>
      <trkpt lat="47.16517" lon="5.96196">
        <ele>402.5</ele>
        <time>2022-06-29T15:39:54Z</time>
      </trkpt>
      <trkpt lat="47.16515" lon="5.96196">
        <ele>402.6</ele>
        <time>2022-06-29T15:39:55Z</time>
      </trkpt>
      <trkpt lat="47.16514" lon="5.96197">
        <ele>402.6</ele>
        <time>2022-06-29T15:39:56Z</time>
      </trkpt>
      <trkpt lat="47.16512" lon="5.96197">
        <ele>402.7</ele>
        <time>2022-06-29T15:39:57Z</time>
      </trkpt>
      <trkpt lat="47.16511" lon="5.96197">
        <ele>402.8</ele>
        <time>2022-06-29T15:39:58Z</time>
      </trkpt>
      <trkpt lat="47.16509" lon="5.96197">
        <ele>402.8</ele>
        <time>2022-06-29T15:39:59Z</time>
      </trkpt>
      <trkpt lat="47.16508" lon="5.96198">
        <ele>402.9</ele>
        <time>2022-06-29T15:40:00Z</time>
      </trkpt>
      <trkpt lat="47.16506" lon="5.96198">
        <ele>402.9</ele>
        <time>2022-06-29T15:40:01Z</time>
      </trkpt>
      <trkpt lat="47.16505" lon="5.96199">
        <ele>403</ele>
        <time>2022-06-29T15:40:02Z</time>
      </trkpt>
      <trkpt lat="47.16502" lon="5.96201">
        <ele>403.1</ele>
        <time>2022-06-29T15:40:03Z</time>
      </trkpt>
      <trkpt lat="47.16501" lon="5.96202">
        <ele>403.1</ele>
        <time>2022-06-29T15:40:04Z</time>
      </trkpt>
      <trkpt lat="47.16498" lon="5.96204">
        <ele>403.2</ele>
        <time>2022-06-29T15:40:05Z</time>
      </trkpt>
      <trkpt lat="47.16497" lon="5.96205">
        <ele>403.2</ele>
        <time>2022-06-29T15:40:06Z</time>
      </trkpt>
      <trkpt lat="47.16496" lon="5.96206">
        <ele>403.2</ele>
        <time>2022-06-29T15:40:07Z</time>
      </trkpt>
      <trkpt lat="47.16495" lon="5.96209">
        <ele>403.3</ele>
        <time>2022-06-29T15:40:08Z</time>
      </trkpt>
      <trkpt lat="47.16495" lon="5.96211">
        <ele>403.3</ele>
        <time>2022-06-29T15:40:09Z</time>
      </trkpt>
      <trkpt lat="47.16494" lon="5.96213">
        <ele>403.3</ele>
        <time>2022-06-29T15:40:10Z</time>
      </trkpt>
      <trkpt lat="47.16491" lon="5.96215">
        <ele>403.3</ele>
        <time>2022-06-29T15:40:11Z</time>
      </trkpt>
      <trkpt lat="47.16491" lon="5.96216">
        <ele>403.3</ele>
        <time>2022-06-29T15:40:12Z</time>
      </trkpt>
      <trkpt lat="47.16488" lon="5.9622">
        <ele>403.3</ele>
        <time>2022-06-29T15:40:13Z</time>
      </trkpt>
      <trkpt lat="47.16488" lon="5.96221">
        <ele>403.4</ele>
        <time>2022-06-29T15:40:14Z</time>
      </trkpt>
      <trkpt lat="47.16486" lon="5.96225">
        <ele>403.4</ele>
        <time>2022-06-29T15:40:15Z</time>
      </trkpt>
      <trkpt lat="47.16485" lon="5.96227">
        <ele>403.4</ele>
        <time>2022-06-29T15:40:16Z</time>
      </trkpt>
      <trkpt lat="47.16484" lon="5.9623">
        <ele>403.4</ele>
        <time>2022-06-29T15:40:17Z</time>
      </trkpt>
      <trkpt lat="47.16484" lon="5.96232">
        <ele>403.4</ele>
        <time>2022-06-29T15:40:18Z</time>
      </trkpt>
      <trkpt lat="47.16483" lon="5.96234">
        <ele>403.4</ele>
        <time>2022-06-29T15:40:19Z</time>
      </trkpt>
      <trkpt lat="47.16481" lon="5.96241">
        <ele>403.4</ele>
        <time>2022-06-29T15:40:21Z</time>
      </trkpt>
      <trkpt lat="47.16479" lon="5.96245">
        <ele>403.4</ele>
        <time>2022-06-29T15:40:22Z</time>
      </trkpt>
      <trkpt lat="47.16477" lon="5.96248">
        <ele>403.4</ele>
        <time>2022-06-29T15:40:23Z</time>
      </trkpt>
      <trkpt lat="47.16475" lon="5.96251">
        <ele>403.4</ele>
        <time>2022-06-29T15:40:24Z</time>
      </trkpt>
      <trkpt lat="47.16471" lon="5.96254">
        <ele>403.4</ele>
        <time>2022-06-29T15:40:26Z</time>
      </trkpt>
      <trkpt lat="47.16468" lon="5.96256">
        <ele>403.4</ele>
        <time>2022-06-29T15:40:27Z</time>
      </trkpt>
      <trkpt lat="47.16467" lon="5.96256">
        <ele>403.4</ele>
        <time>2022-06-29T15:40:28Z</time>
      </trkpt>
      <trkpt lat="47.16464" lon="5.96256">
        <ele>403.4</ele>
        <time>2022-06-29T15:40:29Z</time>
      </trkpt>
      <trkpt lat="47.16463" lon="5.96256">
        <ele>403.3</ele>
        <time>2022-06-29T15:40:30Z</time>
      </trkpt>
      <trkpt lat="47.16461" lon="5.96255">
        <ele>403.3</ele>
        <time>2022-06-29T15:40:31Z</time>
      </trkpt>
      <trkpt lat="47.16458" lon="5.96256">
        <ele>403.3</ele>
        <time>2022-06-29T15:40:32Z</time>
      </trkpt>
      <trkpt lat="47.16457" lon="5.96256">
        <ele>403.3</ele>
        <time>2022-06-29T15:40:33Z</time>
      </trkpt>
      <trkpt lat="47.16457" lon="5.96256">
        <ele>403.3</ele>
        <time>2022-06-29T15:40:34Z</time>
      </trkpt>
      <trkpt lat="47.16455" lon="5.96256">
        <ele>403.3</ele>
        <time>2022-06-29T15:40:35Z</time>
      </trkpt>
      <trkpt lat="47.16454" lon="5.96256">
        <ele>403.3</ele>
        <time>2022-06-29T15:40:36Z</time>
      </trkpt>
      <trkpt lat="47.1645" lon="5.96256">
        <ele>403.3</ele>
        <time>2022-06-29T15:40:37Z</time>
      </trkpt>
      <trkpt lat="47.16449" lon="5.96255">
        <ele>403.3</ele>
        <time>2022-06-29T15:40:38Z</time>
      </trkpt>
      <trkpt lat="47.16443" lon="5.96254">
        <ele>403.3</ele>
        <time>2022-06-29T15:40:40Z</time>
      </trkpt>
      <trkpt lat="47.16442" lon="5.96253">
        <ele>403.3</ele>
        <time>2022-06-29T15:40:41Z</time>
      </trkpt>
      <trkpt lat="47.1644" lon="5.96252">
        <ele>403.4</ele>
        <time>2022-06-29T15:40:42Z</time>
      </trkpt>
      <trkpt lat="47.16437" lon="5.96252">
        <ele>403.4</ele>
        <time>2022-06-29T15:40:43Z</time>
      </trkpt>
      <trkpt lat="47.16434" lon="5.96251">
        <ele>403.5</ele>
        <time>2022-06-29T15:40:44Z</time>
      </trkpt>
      <trkpt lat="47.16431" lon="5.9625">
        <ele>403.6</ele>
        <time>2022-06-29T15:40:45Z</time>
      </trkpt>
      <trkpt lat="47.1643" lon="5.9625">
        <ele>403.6</ele>
        <time>2022-06-29T15:40:46Z</time>
      </trkpt>
      <trkpt lat="47.16426" lon="5.96248">
        <ele>403.9</ele>
        <time>2022-06-29T15:40:47Z</time>
      </trkpt>
      <trkpt lat="47.16425" lon="5.96247">
        <ele>404</ele>
        <time>2022-06-29T15:40:48Z</time>
      </trkpt>
      <trkpt lat="47.16422" lon="5.96246">
        <ele>404.3</ele>
        <time>2022-06-29T15:40:49Z</time>
      </trkpt>
      <trkpt lat="47.1642" lon="5.96246">
        <ele>404.5</ele>
        <time>2022-06-29T15:40:50Z</time>
      </trkpt>
      <trkpt lat="47.16417" lon="5.96245">
        <ele>404.8</ele>
        <time>2022-06-29T15:40:51Z</time>
      </trkpt>
      <trkpt lat="47.16416" lon="5.96245">
        <ele>404.9</ele>
        <time>2022-06-29T15:40:52Z</time>
      </trkpt>
      <trkpt lat="47.16413" lon="5.96245">
        <ele>405.3</ele>
        <time>2022-06-29T15:40:53Z</time>
      </trkpt>
      <trkpt lat="47.16411" lon="5.96245">
        <ele>405.5</ele>
        <time>2022-06-29T15:40:54Z</time>
      </trkpt>
      <trkpt lat="47.16407" lon="5.96243">
        <ele>406</ele>
        <time>2022-06-29T15:40:56Z</time>
      </trkpt>
      <trkpt lat="47.16402" lon="5.96241">
        <ele>406.7</ele>
        <time>2022-06-29T15:40:58Z</time>
      </trkpt>
      <trkpt lat="47.16399" lon="5.9624">
        <ele>407.1</ele>
        <time>2022-06-29T15:40:59Z</time>
      </trkpt>
      <trkpt lat="47.16395" lon="5.96238">
        <ele>407.8</ele>
        <time>2022-06-29T15:41:01Z</time>
      </trkpt>
      <trkpt lat="47.16393" lon="5.96238">
        <ele>408.1</ele>
        <time>2022-06-29T15:41:02Z</time>
      </trkpt>
      <trkpt lat="47.16392" lon="5.96238">
        <ele>408.3</ele>
        <time>2022-06-29T15:41:03Z</time>
      </trkpt>
      <trkpt lat="47.16389" lon="5.96237">
        <ele>408.9</ele>
        <time>2022-06-29T15:41:04Z</time>
      </trkpt>
      <trkpt lat="47.16387" lon="5.96236">
        <ele>409.1</ele>
        <time>2022-06-29T15:41:05Z</time>
      </trkpt>
      <trkpt lat="47.16385" lon="5.96235">
        <ele>409.6</ele>
        <time>2022-06-29T15:41:06Z</time>
      </trkpt>
      <trkpt lat="47.16384" lon="5.96235">
        <ele>409.8</ele>
        <time>2022-06-29T15:41:07Z</time>
      </trkpt>
      <trkpt lat="47.1638" lon="5.96234">
        <ele>410.3</ele>
        <time>2022-06-29T15:41:09Z</time>
      </trkpt>
      <trkpt lat="47.16379" lon="5.96234">
        <ele>410.5</ele>
        <time>2022-06-29T15:41:10Z</time>
      </trkpt>
      <trkpt lat="47.16376" lon="5.96233">
        <ele>411.1</ele>
        <time>2022-06-29T15:41:11Z</time>
      </trkpt>
      <trkpt lat="47.16372" lon="5.9623">
        <ele>411.7</ele>
        <time>2022-06-29T15:41:13Z</time>
      </trkpt>
      <trkpt lat="47.1637" lon="5.9623">
        <ele>412</ele>
        <time>2022-06-29T15:41:14Z</time>
      </trkpt>
      <trkpt lat="47.16366" lon="5.96229">
        <ele>412.7</ele>
        <time>2022-06-29T15:41:16Z</time>
      </trkpt>
      <trkpt lat="47.16365" lon="5.96228">
        <ele>412.9</ele>
        <time>2022-06-29T15:41:17Z</time>
      </trkpt>
      <trkpt lat="47.16363" lon="5.96228">
        <ele>413.2</ele>
        <time>2022-06-29T15:41:18Z</time>
      </trkpt>
      <trkpt lat="47.16359" lon="5.96226">
        <ele>413.7</ele>
        <time>2022-06-29T15:41:20Z</time>
      </trkpt>
      <trkpt lat="47.16357" lon="5.96225">
        <ele>414.1</ele>
        <time>2022-06-29T15:41:21Z</time>
      </trkpt>
      <trkpt lat="47.16355" lon="5.96224">
        <ele>414.3</ele>
        <time>2022-06-29T15:41:23Z</time>
      </trkpt>
      <trkpt lat="47.16353" lon="5.96224">
        <ele>414.5</ele>
        <time>2022-06-29T15:41:24Z</time>
      </trkpt>
      <trkpt lat="47.16352" lon="5.96223">
        <ele>414.7</ele>
        <time>2022-06-29T15:41:25Z</time>
      </trkpt>
      <trkpt lat="47.16349" lon="5.9622">
        <ele>415.1</ele>
        <time>2022-06-29T15:41:27Z</time>
      </trkpt>
      <trkpt lat="47.16347" lon="5.96219">
        <ele>415.3</ele>
        <time>2022-06-29T15:41:28Z</time>
      </trkpt>
      <trkpt lat="47.16346" lon="5.96219">
        <ele>415.5</ele>
        <time>2022-06-29T15:41:29Z</time>
      </trkpt>
      <trkpt lat="47.16345" lon="5.96218">
        <ele>415.6</ele>
        <time>2022-06-29T15:41:30Z</time>
      </trkpt>
      <trkpt lat="47.16342" lon="5.96219">
        <ele>415.9</ele>
        <time>2022-06-29T15:41:31Z</time>
      </trkpt>
      <trkpt lat="47.1634" lon="5.96218">
        <ele>416.1</ele>
        <time>2022-06-29T15:41:33Z</time>
      </trkpt>
      <trkpt lat="47.16338" lon="5.96215">
        <ele>416.4</ele>
        <time>2022-06-29T15:41:34Z</time>
      </trkpt>
      <trkpt lat="47.16337" lon="5.96214">
        <ele>416.5</ele>
        <time>2022-06-29T15:41:35Z</time>
      </trkpt>
      <trkpt lat="47.16335" lon="5.96213">
        <ele>416.7</ele>
        <time>2022-06-29T15:41:36Z</time>
      </trkpt>
      <trkpt lat="47.16334" lon="5.96213">
        <ele>416.9</ele>
        <time>2022-06-29T15:41:37Z</time>
      </trkpt>
      <trkpt lat="47.16331" lon="5.96212">
        <ele>417.1</ele>
        <time>2022-06-29T15:41:39Z</time>
      </trkpt>
      <trkpt lat="47.16329" lon="5.96211">
        <ele>417.2</ele>
        <time>2022-06-29T15:41:40Z</time>
      </trkpt>
      <trkpt lat="47.16327" lon="5.96211">
        <ele>417.4</ele>
        <time>2022-06-29T15:41:41Z</time>
      </trkpt>
      <trkpt lat="47.16325" lon="5.96209">
        <ele>417.6</ele>
        <time>2022-06-29T15:41:43Z</time>
      </trkpt>
      <trkpt lat="47.16324" lon="5.96208">
        <ele>417.7</ele>
        <time>2022-06-29T15:41:44Z</time>
      </trkpt>
      <trkpt lat="47.16322" lon="5.96207">
        <ele>417.8</ele>
        <time>2022-06-29T15:41:45Z</time>
      </trkpt>
      <trkpt lat="47.16321" lon="5.96206">
        <ele>417.9</ele>
        <time>2022-06-29T15:41:46Z</time>
      </trkpt>
      <trkpt lat="47.16318" lon="5.96205">
        <ele>418</ele>
        <time>2022-06-29T15:41:48Z</time>
      </trkpt>
      <trkpt lat="47.16316" lon="5.96206">
        <ele>418.2</ele>
        <time>2022-06-29T15:41:49Z</time>
      </trkpt>
      <trkpt lat="47.16315" lon="5.96206">
        <ele>418.2</ele>
        <time>2022-06-29T15:41:50Z</time>
      </trkpt>
      <trkpt lat="47.16313" lon="5.96205">
        <ele>418.3</ele>
        <time>2022-06-29T15:41:51Z</time>
      </trkpt>
      <trkpt lat="47.16312" lon="5.96204">
        <ele>418.4</ele>
        <time>2022-06-29T15:41:53Z</time>
      </trkpt>
      <trkpt lat="47.1631" lon="5.96203">
        <ele>418.5</ele>
        <time>2022-06-29T15:41:54Z</time>
      </trkpt>
      <trkpt lat="47.16308" lon="5.96203">
        <ele>418.6</ele>
        <time>2022-06-29T15:41:55Z</time>
      </trkpt>
      <trkpt lat="47.16307" lon="5.96202">
        <ele>418.7</ele>
        <time>2022-06-29T15:41:56Z</time>
      </trkpt>
      <trkpt lat="47.16306" lon="5.96201">
        <ele>418.7</ele>
        <time>2022-06-29T15:41:57Z</time>
      </trkpt>
      <trkpt lat="47.16304" lon="5.96201">
        <ele>418.8</ele>
        <time>2022-06-29T15:41:58Z</time>
      </trkpt>
      <trkpt lat="47.16303" lon="5.962">
        <ele>418.9</ele>
        <time>2022-06-29T15:41:59Z</time>
      </trkpt>
      <trkpt lat="47.16301" lon="5.96199">
        <ele>418.9</ele>
        <time>2022-06-29T15:42:00Z</time>
      </trkpt>
      <trkpt lat="47.163" lon="5.96198">
        <ele>419</ele>
        <time>2022-06-29T15:42:01Z</time>
      </trkpt>
      <trkpt lat="47.16298" lon="5.96197">
        <ele>419.1</ele>
        <time>2022-06-29T15:42:02Z</time>
      </trkpt>
      <trkpt lat="47.16296" lon="5.96194">
        <ele>419.2</ele>
        <time>2022-06-29T15:42:04Z</time>
      </trkpt>
      <trkpt lat="47.16293" lon="5.96191">
        <ele>419.3</ele>
        <time>2022-06-29T15:42:05Z</time>
      </trkpt>
      <trkpt lat="47.16291" lon="5.96188">
        <ele>419.5</ele>
        <time>2022-06-29T15:42:06Z</time>
      </trkpt>
      <trkpt lat="47.16289" lon="5.96188">
        <ele>419.5</ele>
        <time>2022-06-29T15:42:07Z</time>
      </trkpt>
      <trkpt lat="47.16287" lon="5.96187">
        <ele>419.7</ele>
        <time>2022-06-29T15:42:08Z</time>
      </trkpt>
      <trkpt lat="47.16286" lon="5.96184">
        <ele>419.8</ele>
        <time>2022-06-29T15:42:10Z</time>
      </trkpt>
      <trkpt lat="47.16284" lon="5.96183">
        <ele>419.9</ele>
        <time>2022-06-29T15:42:11Z</time>
      </trkpt>
      <trkpt lat="47.16283" lon="5.96182">
        <ele>420</ele>
        <time>2022-06-29T15:42:12Z</time>
      </trkpt>
      <trkpt lat="47.1628" lon="5.96179">
        <ele>420.1</ele>
        <time>2022-06-29T15:42:13Z</time>
      </trkpt>
      <trkpt lat="47.1628" lon="5.96178">
        <ele>420.1</ele>
        <time>2022-06-29T15:42:14Z</time>
      </trkpt>
      <trkpt lat="47.16277" lon="5.96176">
        <ele>420.3</ele>
        <time>2022-06-29T15:42:15Z</time>
      </trkpt>
      <trkpt lat="47.16276" lon="5.96176">
        <ele>420.3</ele>
        <time>2022-06-29T15:42:16Z</time>
      </trkpt>
      <trkpt lat="47.16275" lon="5.96175">
        <ele>420.4</ele>
        <time>2022-06-29T15:42:17Z</time>
      </trkpt>
      <trkpt lat="47.16273" lon="5.96174">
        <ele>420.5</ele>
        <time>2022-06-29T15:42:18Z</time>
      </trkpt>
      <trkpt lat="47.16272" lon="5.96173">
        <ele>420.6</ele>
        <time>2022-06-29T15:42:19Z</time>
      </trkpt>
      <trkpt lat="47.16271" lon="5.96171">
        <ele>420.6</ele>
        <time>2022-06-29T15:42:20Z</time>
      </trkpt>
      <trkpt lat="47.1627" lon="5.96169">
        <ele>420.7</ele>
        <time>2022-06-29T15:42:21Z</time>
      </trkpt>
      <trkpt lat="47.16269" lon="5.96167">
        <ele>420.8</ele>
        <time>2022-06-29T15:42:22Z</time>
      </trkpt>
      <trkpt lat="47.16269" lon="5.96166">
        <ele>420.8</ele>
        <time>2022-06-29T15:42:23Z</time>
      </trkpt>
      <trkpt lat="47.16267" lon="5.96164">
        <ele>420.9</ele>
        <time>2022-06-29T15:42:24Z</time>
      </trkpt>
      <trkpt lat="47.16266" lon="5.96163">
        <ele>421</ele>
        <time>2022-06-29T15:42:26Z</time>
      </trkpt>
      <trkpt lat="47.16263" lon="5.96162">
        <ele>421.1</ele>
        <time>2022-06-29T15:42:27Z</time>
      </trkpt>
      <trkpt lat="47.16261" lon="5.96161">
        <ele>421.2</ele>
        <time>2022-06-29T15:42:29Z</time>
      </trkpt>
      <trkpt lat="47.16259" lon="5.9616">
        <ele>421.3</ele>
        <time>2022-06-29T15:42:30Z</time>
      </trkpt>
      <trkpt lat="47.16258" lon="5.96159">
        <ele>421.3</ele>
        <time>2022-06-29T15:42:31Z</time>
      </trkpt>
      <trkpt lat="47.16256" lon="5.96158">
        <ele>421.4</ele>
        <time>2022-06-29T15:42:32Z</time>
      </trkpt>
      <trkpt lat="47.16255" lon="5.96157">
        <ele>421.5</ele>
        <time>2022-06-29T15:42:33Z</time>
      </trkpt>
      <trkpt lat="47.16252" lon="5.96156">
        <ele>421.6</ele>
        <time>2022-06-29T15:42:34Z</time>
      </trkpt>
      <trkpt lat="47.16251" lon="5.96155">
        <ele>421.6</ele>
        <time>2022-06-29T15:42:35Z</time>
      </trkpt>
      <trkpt lat="47.16249" lon="5.96154">
        <ele>421.7</ele>
        <time>2022-06-29T15:42:36Z</time>
      </trkpt>
      <trkpt lat="47.16247" lon="5.96152">
        <ele>421.8</ele>
        <time>2022-06-29T15:42:38Z</time>
      </trkpt>
      <trkpt lat="47.16244" lon="5.9615">
        <ele>421.9</ele>
        <time>2022-06-29T15:42:39Z</time>
      </trkpt>
      <trkpt lat="47.16243" lon="5.96149">
        <ele>421.9</ele>
        <time>2022-06-29T15:42:40Z</time>
      </trkpt>
      <trkpt lat="47.16241" lon="5.96147">
        <ele>422</ele>
        <time>2022-06-29T15:42:41Z</time>
      </trkpt>
      <trkpt lat="47.1624" lon="5.96146">
        <ele>422</ele>
        <time>2022-06-29T15:42:42Z</time>
      </trkpt>
      <trkpt lat="47.16238" lon="5.96144">
        <ele>422.1</ele>
        <time>2022-06-29T15:42:43Z</time>
      </trkpt>
      <trkpt lat="47.16235" lon="5.9614">
        <ele>422.2</ele>
        <time>2022-06-29T15:42:45Z</time>
      </trkpt>
      <trkpt lat="47.16232" lon="5.96137">
        <ele>422.2</ele>
        <time>2022-06-29T15:42:46Z</time>
      </trkpt>
      <trkpt lat="47.16231" lon="5.96136">
        <ele>422.3</ele>
        <time>2022-06-29T15:42:47Z</time>
      </trkpt>
      <trkpt lat="47.16228" lon="5.96133">
        <ele>422.3</ele>
        <time>2022-06-29T15:42:48Z</time>
      </trkpt>
      <trkpt lat="47.16227" lon="5.96132">
        <ele>422.3</ele>
        <time>2022-06-29T15:42:49Z</time>
      </trkpt>
      <trkpt lat="47.16225" lon="5.9613">
        <ele>422.4</ele>
        <time>2022-06-29T15:42:50Z</time>
      </trkpt>
      <trkpt lat="47.16224" lon="5.96129">
        <ele>422.4</ele>
        <time>2022-06-29T15:42:51Z</time>
      </trkpt>
      <trkpt lat="47.16221" lon="5.96126">
        <ele>422.4</ele>
        <time>2022-06-29T15:42:52Z</time>
      </trkpt>
      <trkpt lat="47.1622" lon="5.96126">
        <ele>422.4</ele>
        <time>2022-06-29T15:42:53Z</time>
      </trkpt>
      <trkpt lat="47.16217" lon="5.96124">
        <ele>422.5</ele>
        <time>2022-06-29T15:42:54Z</time>
      </trkpt>
      <trkpt lat="47.16216" lon="5.96123">
        <ele>422.5</ele>
        <time>2022-06-29T15:42:55Z</time>
      </trkpt>
      <trkpt lat="47.16213" lon="5.96121">
        <ele>422.5</ele>
        <time>2022-06-29T15:42:56Z</time>
      </trkpt>
      <trkpt lat="47.16212" lon="5.96121">
        <ele>422.5</ele>
        <time>2022-06-29T15:42:57Z</time>
      </trkpt>
      <trkpt lat="47.16211" lon="5.9612">
        <ele>422.5</ele>
        <time>2022-06-29T15:42:58Z</time>
      </trkpt>
      <trkpt lat="47.1621" lon="5.96118">
        <ele>422.5</ele>
        <time>2022-06-29T15:42:59Z</time>
      </trkpt>
      <trkpt lat="47.16209" lon="5.96116">
        <ele>422.5</ele>
        <time>2022-06-29T15:43:00Z</time>
      </trkpt>
      <trkpt lat="47.16208" lon="5.96114">
        <ele>422.5</ele>
        <time>2022-06-29T15:43:01Z</time>
      </trkpt>
      <trkpt lat="47.16204" lon="5.96112">
        <ele>422.4</ele>
        <time>2022-06-29T15:43:02Z</time>
      </trkpt>
      <trkpt lat="47.16203" lon="5.96111">
        <ele>422.4</ele>
        <time>2022-06-29T15:43:03Z</time>
      </trkpt>
      <trkpt lat="47.162" lon="5.96108">
        <ele>422.4</ele>
        <time>2022-06-29T15:43:04Z</time>
      </trkpt>
      <trkpt lat="47.16198" lon="5.96105">
        <ele>422.4</ele>
        <time>2022-06-29T15:43:06Z</time>
      </trkpt>
      <trkpt lat="47.16196" lon="5.96102">
        <ele>422.4</ele>
        <time>2022-06-29T15:43:07Z</time>
      </trkpt>
      <trkpt lat="47.16193" lon="5.96098">
        <ele>422.4</ele>
        <time>2022-06-29T15:43:09Z</time>
      </trkpt>
      <trkpt lat="47.16191" lon="5.96094">
        <ele>422.4</ele>
        <time>2022-06-29T15:43:10Z</time>
      </trkpt>
      <trkpt lat="47.16189" lon="5.96091">
        <ele>422.4</ele>
        <time>2022-06-29T15:43:11Z</time>
      </trkpt>
      <trkpt lat="47.16187" lon="5.96087">
        <ele>422.4</ele>
        <time>2022-06-29T15:43:12Z</time>
      </trkpt>
      <trkpt lat="47.16186" lon="5.96084">
        <ele>422.4</ele>
        <time>2022-06-29T15:43:13Z</time>
      </trkpt>
      <trkpt lat="47.16184" lon="5.96081">
        <ele>422.4</ele>
        <time>2022-06-29T15:43:14Z</time>
      </trkpt>
      <trkpt lat="47.1618" lon="5.96075">
        <ele>422.5</ele>
        <time>2022-06-29T15:43:16Z</time>
      </trkpt>
      <trkpt lat="47.16178" lon="5.96072">
        <ele>422.5</ele>
        <time>2022-06-29T15:43:17Z</time>
      </trkpt>
      <trkpt lat="47.16175" lon="5.96067">
        <ele>422.5</ele>
        <time>2022-06-29T15:43:19Z</time>
      </trkpt>
      <trkpt lat="47.16172" lon="5.96065">
        <ele>422.5</ele>
        <time>2022-06-29T15:43:20Z</time>
      </trkpt>
      <trkpt lat="47.1617" lon="5.96061">
        <ele>422.6</ele>
        <time>2022-06-29T15:43:21Z</time>
      </trkpt>
      <trkpt lat="47.16168" lon="5.96057">
        <ele>422.6</ele>
        <time>2022-06-29T15:43:22Z</time>
      </trkpt>
      <trkpt lat="47.16165" lon="5.96053">
        <ele>422.5</ele>
        <time>2022-06-29T15:43:23Z</time>
      </trkpt>
      <trkpt lat="47.16164" lon="5.96051">
        <ele>422.5</ele>
        <time>2022-06-29T15:43:24Z</time>
      </trkpt>
      <trkpt lat="47.16163" lon="5.96048">
        <ele>422.5</ele>
        <time>2022-06-29T15:43:25Z</time>
      </trkpt>
      <trkpt lat="47.1616" lon="5.96042">
        <ele>422.5</ele>
        <time>2022-06-29T15:43:27Z</time>
      </trkpt>
      <trkpt lat="47.16158" lon="5.96039">
        <ele>422.4</ele>
        <time>2022-06-29T15:43:28Z</time>
      </trkpt>
      <trkpt lat="47.16157" lon="5.96035">
        <ele>422.4</ele>
        <time>2022-06-29T15:43:29Z</time>
      </trkpt>
      <trkpt lat="47.16155" lon="5.96031">
        <ele>422.3</ele>
        <time>2022-06-29T15:43:30Z</time>
      </trkpt>
      <trkpt lat="47.16153" lon="5.96027">
        <ele>422.3</ele>
        <time>2022-06-29T15:43:31Z</time>
      </trkpt>
      <trkpt lat="47.16152" lon="5.96026">
        <ele>422.2</ele>
        <time>2022-06-29T15:43:32Z</time>
      </trkpt>
      <trkpt lat="47.1615" lon="5.96023">
        <ele>422.2</ele>
        <time>2022-06-29T15:43:33Z</time>
      </trkpt>
      <trkpt lat="47.16148" lon="5.96019">
        <ele>422.1</ele>
        <time>2022-06-29T15:43:34Z</time>
      </trkpt>
      <trkpt lat="47.16146" lon="5.96015">
        <ele>422</ele>
        <time>2022-06-29T15:43:35Z</time>
      </trkpt>
      <trkpt lat="47.16144" lon="5.96011">
        <ele>421.9</ele>
        <time>2022-06-29T15:43:36Z</time>
      </trkpt>
      <trkpt lat="47.16142" lon="5.96007">
        <ele>421.9</ele>
        <time>2022-06-29T15:43:37Z</time>
      </trkpt>
      <trkpt lat="47.16138" lon="5.96002">
        <ele>421.7</ele>
        <time>2022-06-29T15:43:38Z</time>
      </trkpt>
      <trkpt lat="47.16134" lon="5.95993">
        <ele>421.4</ele>
        <time>2022-06-29T15:43:40Z</time>
      </trkpt>
      <trkpt lat="47.16129" lon="5.95982">
        <ele>421.1</ele>
        <time>2022-06-29T15:43:41Z</time>
      </trkpt>
      <trkpt lat="47.16125" lon="5.95975">
        <ele>420.7</ele>
        <time>2022-06-29T15:43:42Z</time>
      </trkpt>
      <trkpt lat="47.16121" lon="5.95969">
        <ele>420.5</ele>
        <time>2022-06-29T15:43:44Z</time>
      </trkpt>
      <trkpt lat="47.16117" lon="5.95962">
        <ele>420.1</ele>
        <time>2022-06-29T15:43:45Z</time>
      </trkpt>
      <trkpt lat="47.16114" lon="5.95957">
        <ele>419.9</ele>
        <time>2022-06-29T15:43:47Z</time>
      </trkpt>
      <trkpt lat="47.16111" lon="5.95952">
        <ele>419.7</ele>
        <time>2022-06-29T15:43:48Z</time>
      </trkpt>
      <trkpt lat="47.16104" lon="5.95942">
        <ele>419.1</ele>
        <time>2022-06-29T15:43:49Z</time>
      </trkpt>
      <trkpt lat="47.16101" lon="5.95936">
        <ele>418.9</ele>
        <time>2022-06-29T15:43:50Z</time>
      </trkpt>
      <trkpt lat="47.16097" lon="5.95931">
        <ele>418.6</ele>
        <time>2022-06-29T15:43:51Z</time>
      </trkpt>
      <trkpt lat="47.16093" lon="5.95926">
        <ele>418.3</ele>
        <time>2022-06-29T15:43:52Z</time>
      </trkpt>
      <trkpt lat="47.1609" lon="5.95921">
        <ele>418</ele>
        <time>2022-06-29T15:43:53Z</time>
      </trkpt>
      <trkpt lat="47.16086" lon="5.95915">
        <ele>417.7</ele>
        <time>2022-06-29T15:43:54Z</time>
      </trkpt>
      <trkpt lat="47.16083" lon="5.95908">
        <ele>417.4</ele>
        <time>2022-06-29T15:43:55Z</time>
      </trkpt>
      <trkpt lat="47.1608" lon="5.95901">
        <ele>417</ele>
        <time>2022-06-29T15:43:56Z</time>
      </trkpt>
      <trkpt lat="47.16075" lon="5.95894">
        <ele>416.7</ele>
        <time>2022-06-29T15:43:57Z</time>
      </trkpt>
      <trkpt lat="47.16071" lon="5.95888">
        <ele>416.3</ele>
        <time>2022-06-29T15:43:58Z</time>
      </trkpt>
      <trkpt lat="47.16067" lon="5.95881">
        <ele>416</ele>
        <time>2022-06-29T15:43:59Z</time>
      </trkpt>
      <trkpt lat="47.16062" lon="5.95875">
        <ele>415.6</ele>
        <time>2022-06-29T15:44:00Z</time>
      </trkpt>
      <trkpt lat="47.16057" lon="5.95868">
        <ele>415.2</ele>
        <time>2022-06-29T15:44:01Z</time>
      </trkpt>
      <trkpt lat="47.16052" lon="5.95861">
        <ele>414.8</ele>
        <time>2022-06-29T15:44:02Z</time>
      </trkpt>
      <trkpt lat="47.16048" lon="5.95853">
        <ele>414.4</ele>
        <time>2022-06-29T15:44:03Z</time>
      </trkpt>
      <trkpt lat="47.16044" lon="5.95844">
        <ele>414.1</ele>
        <time>2022-06-29T15:44:04Z</time>
      </trkpt>
      <trkpt lat="47.16039" lon="5.95836">
        <ele>413.7</ele>
        <time>2022-06-29T15:44:05Z</time>
      </trkpt>
      <trkpt lat="47.16034" lon="5.95831">
        <ele>413.4</ele>
        <time>2022-06-29T15:44:06Z</time>
      </trkpt>
      <trkpt lat="47.16029" lon="5.95827">
        <ele>413.1</ele>
        <time>2022-06-29T15:44:07Z</time>
      </trkpt>
      <trkpt lat="47.16024" lon="5.95823">
        <ele>412.8</ele>
        <time>2022-06-29T15:44:08Z</time>
      </trkpt>
      <trkpt lat="47.1602" lon="5.95817">
        <ele>412.6</ele>
        <time>2022-06-29T15:44:09Z</time>
      </trkpt>
      <trkpt lat="47.16016" lon="5.95809">
        <ele>412.3</ele>
        <time>2022-06-29T15:44:10Z</time>
      </trkpt>
      <trkpt lat="47.16014" lon="5.95804">
        <ele>412.1</ele>
        <time>2022-06-29T15:44:11Z</time>
      </trkpt>
      <trkpt lat="47.16013" lon="5.95802">
        <ele>412</ele>
        <time>2022-06-29T15:44:12Z</time>
      </trkpt>
      <trkpt lat="47.16012" lon="5.95801">
        <ele>412</ele>
        <time>2022-06-29T15:44:13Z</time>
      </trkpt>
      <trkpt lat="47.16011" lon="5.958">
        <ele>411.9</ele>
        <time>2022-06-29T15:44:14Z</time>
      </trkpt>
      <trkpt lat="47.16008" lon="5.95796">
        <ele>411.8</ele>
        <time>2022-06-29T15:44:15Z</time>
      </trkpt>
      <trkpt lat="47.16007" lon="5.95792">
        <ele>411.6</ele>
        <time>2022-06-29T15:44:16Z</time>
      </trkpt>
      <trkpt lat="47.16004" lon="5.95786">
        <ele>411.5</ele>
        <time>2022-06-29T15:44:17Z</time>
      </trkpt>
      <trkpt lat="47.16003" lon="5.95785">
        <ele>411.4</ele>
        <time>2022-06-29T15:44:18Z</time>
      </trkpt>
      <trkpt lat="47.16002" lon="5.95781">
        <ele>411.3</ele>
        <time>2022-06-29T15:44:19Z</time>
      </trkpt>
      <trkpt lat="47.16002" lon="5.95779">
        <ele>411.2</ele>
        <time>2022-06-29T15:44:20Z</time>
      </trkpt>
      <trkpt lat="47.16001" lon="5.95777">
        <ele>411.2</ele>
        <time>2022-06-29T15:44:21Z</time>
      </trkpt>
      <trkpt lat="47.15997" lon="5.9577">
        <ele>410.9</ele>
        <time>2022-06-29T15:44:23Z</time>
      </trkpt>
      <trkpt lat="47.15992" lon="5.95763">
        <ele>410.7</ele>
        <time>2022-06-29T15:44:24Z</time>
      </trkpt>
      <trkpt lat="47.15989" lon="5.95758">
        <ele>410.5</ele>
        <time>2022-06-29T15:44:25Z</time>
      </trkpt>
      <trkpt lat="47.15985" lon="5.95754">
        <ele>410.3</ele>
        <time>2022-06-29T15:44:26Z</time>
      </trkpt>
      <trkpt lat="47.15981" lon="5.95751">
        <ele>410.1</ele>
        <time>2022-06-29T15:44:27Z</time>
      </trkpt>
      <trkpt lat="47.15977" lon="5.95748">
        <ele>409.9</ele>
        <time>2022-06-29T15:44:28Z</time>
      </trkpt>
      <trkpt lat="47.15972" lon="5.95746">
        <ele>409.7</ele>
        <time>2022-06-29T15:44:29Z</time>
      </trkpt>
      <trkpt lat="47.15968" lon="5.95743">
        <ele>409.5</ele>
        <time>2022-06-29T15:44:30Z</time>
      </trkpt>
      <trkpt lat="47.15965" lon="5.95741">
        <ele>409.3</ele>
        <time>2022-06-29T15:44:31Z</time>
      </trkpt>
      <trkpt lat="47.15961" lon="5.95741">
        <ele>409.2</ele>
        <time>2022-06-29T15:44:32Z</time>
      </trkpt>
      <trkpt lat="47.15957" lon="5.9574">
        <ele>408.9</ele>
        <time>2022-06-29T15:44:33Z</time>
      </trkpt>
      <trkpt lat="47.15951" lon="5.95737">
        <ele>408.5</ele>
        <time>2022-06-29T15:44:34Z</time>
      </trkpt>
      <trkpt lat="47.15946" lon="5.95734">
        <ele>408.2</ele>
        <time>2022-06-29T15:44:35Z</time>
      </trkpt>
      <trkpt lat="47.1594" lon="5.95731">
        <ele>407.6</ele>
        <time>2022-06-29T15:44:36Z</time>
      </trkpt>
      <trkpt lat="47.15933" lon="5.95728">
        <ele>407.1</ele>
        <time>2022-06-29T15:44:37Z</time>
      </trkpt>
      <trkpt lat="47.15927" lon="5.95726">
        <ele>406.4</ele>
        <time>2022-06-29T15:44:38Z</time>
      </trkpt>
      <trkpt lat="47.1592" lon="5.95722">
        <ele>405.8</ele>
        <time>2022-06-29T15:44:39Z</time>
      </trkpt>
      <trkpt lat="47.15913" lon="5.9572">
        <ele>405</ele>
        <time>2022-06-29T15:44:40Z</time>
      </trkpt>
      <trkpt lat="47.15907" lon="5.95721">
        <ele>404.3</ele>
        <time>2022-06-29T15:44:41Z</time>
      </trkpt>
      <trkpt lat="47.15899" lon="5.95721">
        <ele>403.5</ele>
        <time>2022-06-29T15:44:42Z</time>
      </trkpt>
      <trkpt lat="47.15893" lon="5.95721">
        <ele>402.8</ele>
        <time>2022-06-29T15:44:43Z</time>
      </trkpt>
      <trkpt lat="47.15886" lon="5.9572">
        <ele>402.1</ele>
        <time>2022-06-29T15:44:44Z</time>
      </trkpt>
      <trkpt lat="47.1588" lon="5.95715">
        <ele>401.4</ele>
        <time>2022-06-29T15:44:45Z</time>
      </trkpt>
      <trkpt lat="47.15873" lon="5.9571">
        <ele>400.8</ele>
        <time>2022-06-29T15:44:46Z</time>
      </trkpt>
      <trkpt lat="47.1587" lon="5.95708">
        <ele>400.5</ele>
        <time>2022-06-29T15:44:47Z</time>
      </trkpt>
      <trkpt lat="47.15865" lon="5.95706">
        <ele>400.1</ele>
        <time>2022-06-29T15:44:48Z</time>
      </trkpt>
      <trkpt lat="47.15863" lon="5.95704">
        <ele>399.8</ele>
        <time>2022-06-29T15:44:49Z</time>
      </trkpt>
      <trkpt lat="47.15859" lon="5.95704">
        <ele>399.5</ele>
        <time>2022-06-29T15:44:50Z</time>
      </trkpt>
      <trkpt lat="47.15853" lon="5.95701">
        <ele>398.9</ele>
        <time>2022-06-29T15:44:51Z</time>
      </trkpt>
      <trkpt lat="47.15848" lon="5.95701">
        <ele>398.5</ele>
        <time>2022-06-29T15:44:52Z</time>
      </trkpt>
      <trkpt lat="47.1584" lon="5.95701">
        <ele>397.9</ele>
        <time>2022-06-29T15:44:53Z</time>
      </trkpt>
      <trkpt lat="47.15832" lon="5.95702">
        <ele>397.3</ele>
        <time>2022-06-29T15:44:54Z</time>
      </trkpt>
      <trkpt lat="47.15826" lon="5.95698">
        <ele>396.8</ele>
        <time>2022-06-29T15:44:55Z</time>
      </trkpt>
      <trkpt lat="47.1582" lon="5.95693">
        <ele>396.5</ele>
        <time>2022-06-29T15:44:56Z</time>
      </trkpt>
      <trkpt lat="47.15815" lon="5.95689">
        <ele>396.1</ele>
        <time>2022-06-29T15:44:57Z</time>
      </trkpt>
      <trkpt lat="47.15809" lon="5.95682">
        <ele>395.7</ele>
        <time>2022-06-29T15:44:58Z</time>
      </trkpt>
      <trkpt lat="47.15804" lon="5.95678">
        <ele>395.4</ele>
        <time>2022-06-29T15:44:59Z</time>
      </trkpt>
      <trkpt lat="47.15798" lon="5.95674">
        <ele>395.1</ele>
        <time>2022-06-29T15:45:00Z</time>
      </trkpt>
      <trkpt lat="47.15795" lon="5.95667">
        <ele>395.1</ele>
        <time>2022-06-29T15:45:01Z</time>
      </trkpt>
      <trkpt lat="47.15793" lon="5.95661">
        <ele>395.1</ele>
        <time>2022-06-29T15:45:02Z</time>
      </trkpt>
      <trkpt lat="47.15791" lon="5.95656">
        <ele>395.1</ele>
        <time>2022-06-29T15:45:03Z</time>
      </trkpt>
      <trkpt lat="47.15789" lon="5.95654">
        <ele>395.1</ele>
        <time>2022-06-29T15:45:04Z</time>
      </trkpt>
      <trkpt lat="47.15788" lon="5.95653">
        <ele>395.1</ele>
        <time>2022-06-29T15:45:05Z</time>
      </trkpt>
      <trkpt lat="47.15786" lon="5.95649">
        <ele>395.1</ele>
        <time>2022-06-29T15:45:06Z</time>
      </trkpt>
      <trkpt lat="47.15784" lon="5.95647">
        <ele>395</ele>
        <time>2022-06-29T15:45:07Z</time>
      </trkpt>
      <trkpt lat="47.15783" lon="5.95646">
        <ele>395</ele>
        <time>2022-06-29T15:45:08Z</time>
      </trkpt>
      <trkpt lat="47.15782" lon="5.95646">
        <ele>395</ele>
        <time>2022-06-29T15:45:09Z</time>
      </trkpt>
      <trkpt lat="47.15782" lon="5.95647">
        <ele>395</ele>
        <time>2022-06-29T15:45:10Z</time>
      </trkpt>
      <trkpt lat="47.15783" lon="5.95647">
        <ele>395</ele>
        <time>2022-06-29T15:45:11Z</time>
      </trkpt>
      <trkpt lat="47.15781" lon="5.95647">
        <ele>395</ele>
        <time>2022-06-29T15:45:12Z</time>
      </trkpt>
      <trkpt lat="47.15779" lon="5.95646">
        <ele>394.9</ele>
        <time>2022-06-29T15:45:13Z</time>
      </trkpt>
      <trkpt lat="47.15778" lon="5.95645">
        <ele>394.9</ele>
        <time>2022-06-29T15:45:14Z</time>
      </trkpt>
      <trkpt lat="47.15778" lon="5.95645">
        <ele>394.9</ele>
        <time>2022-06-29T15:45:15Z</time>
      </trkpt>
      <trkpt lat="47.15778" lon="5.95646">
        <ele>394.9</ele>
        <time>2022-06-29T15:45:16Z</time>
      </trkpt>
      <trkpt lat="47.15777" lon="5.95646">
        <ele>394.9</ele>
        <time>2022-06-29T15:45:17Z</time>
      </trkpt>
      <trkpt lat="47.15777" lon="5.95646">
        <ele>394.9</ele>
        <time>2022-06-29T15:45:18Z</time>
      </trkpt>
      <trkpt lat="47.15776" lon="5.95646">
        <ele>394.9</ele>
        <time>2022-06-29T15:45:19Z</time>
      </trkpt>
      <trkpt lat="47.15775" lon="5.95647">
        <ele>394.8</ele>
        <time>2022-06-29T15:45:20Z</time>
      </trkpt>
      <trkpt lat="47.15772" lon="5.9565">
        <ele>394.8</ele>
        <time>2022-06-29T15:45:21Z</time>
      </trkpt>
      <trkpt lat="47.15772" lon="5.9565">
        <ele>394.8</ele>
        <time>2022-06-29T15:45:22Z</time>
      </trkpt>
      <trkpt lat="47.15769" lon="5.95654">
        <ele>394.7</ele>
        <time>2022-06-29T15:45:23Z</time>
      </trkpt>
      <trkpt lat="47.15768" lon="5.95655">
        <ele>394.7</ele>
        <time>2022-06-29T15:45:24Z</time>
      </trkpt>
      <trkpt lat="47.15765" lon="5.95658">
        <ele>394.5</ele>
        <time>2022-06-29T15:45:26Z</time>
      </trkpt>
      <trkpt lat="47.15763" lon="5.95662">
        <ele>394.4</ele>
        <time>2022-06-29T15:45:27Z</time>
      </trkpt>
      <trkpt lat="47.15762" lon="5.95664">
        <ele>394.4</ele>
        <time>2022-06-29T15:45:28Z</time>
      </trkpt>
      <trkpt lat="47.15759" lon="5.95664">
        <ele>394.3</ele>
        <time>2022-06-29T15:45:29Z</time>
      </trkpt>
      <trkpt lat="47.15755" lon="5.95666">
        <ele>394.2</ele>
        <time>2022-06-29T15:45:30Z</time>
      </trkpt>
      <trkpt lat="47.15754" lon="5.95667">
        <ele>394.1</ele>
        <time>2022-06-29T15:45:31Z</time>
      </trkpt>
      <trkpt lat="47.15751" lon="5.95671">
        <ele>394</ele>
        <time>2022-06-29T15:45:32Z</time>
      </trkpt>
      <trkpt lat="47.1575" lon="5.95672">
        <ele>394</ele>
        <time>2022-06-29T15:45:33Z</time>
      </trkpt>
      <trkpt lat="47.15748" lon="5.95675">
        <ele>393.9</ele>
        <time>2022-06-29T15:45:34Z</time>
      </trkpt>
      <trkpt lat="47.15745" lon="5.95678">
        <ele>393.9</ele>
        <time>2022-06-29T15:45:35Z</time>
      </trkpt>
      <trkpt lat="47.15741" lon="5.95679">
        <ele>393.8</ele>
        <time>2022-06-29T15:45:37Z</time>
      </trkpt>
      <trkpt lat="47.15737" lon="5.95681">
        <ele>393.7</ele>
        <time>2022-06-29T15:45:38Z</time>
      </trkpt>
      <trkpt lat="47.15731" lon="5.95682">
        <ele>393.6</ele>
        <time>2022-06-29T15:45:39Z</time>
      </trkpt>
      <trkpt lat="47.15728" lon="5.95684">
        <ele>393.6</ele>
        <time>2022-06-29T15:45:40Z</time>
      </trkpt>
      <trkpt lat="47.15724" lon="5.95686">
        <ele>393.6</ele>
        <time>2022-06-29T15:45:41Z</time>
      </trkpt>
      <trkpt lat="47.15721" lon="5.95688">
        <ele>393.5</ele>
        <time>2022-06-29T15:45:42Z</time>
      </trkpt>
      <trkpt lat="47.15718" lon="5.95691">
        <ele>393.5</ele>
        <time>2022-06-29T15:45:43Z</time>
      </trkpt>
      <trkpt lat="47.15714" lon="5.95692">
        <ele>393.4</ele>
        <time>2022-06-29T15:45:44Z</time>
      </trkpt>
      <trkpt lat="47.1571" lon="5.95693">
        <ele>393.4</ele>
        <time>2022-06-29T15:45:45Z</time>
      </trkpt>
      <trkpt lat="47.15707" lon="5.95695">
        <ele>393.4</ele>
        <time>2022-06-29T15:45:46Z</time>
      </trkpt>
      <trkpt lat="47.15703" lon="5.95697">
        <ele>393.3</ele>
        <time>2022-06-29T15:45:47Z</time>
      </trkpt>
      <trkpt lat="47.15699" lon="5.957">
        <ele>393.3</ele>
        <time>2022-06-29T15:45:49Z</time>
      </trkpt>
      <trkpt lat="47.15694" lon="5.95705">
        <ele>393.1</ele>
        <time>2022-06-29T15:45:51Z</time>
      </trkpt>
      <trkpt lat="47.15689" lon="5.95706">
        <ele>393</ele>
        <time>2022-06-29T15:45:52Z</time>
      </trkpt>
      <trkpt lat="47.15681" lon="5.95705">
        <ele>392.8</ele>
        <time>2022-06-29T15:45:53Z</time>
      </trkpt>
      <trkpt lat="47.15677" lon="5.95707">
        <ele>392.6</ele>
        <time>2022-06-29T15:45:54Z</time>
      </trkpt>
      <trkpt lat="47.15674" lon="5.95709">
        <ele>392.5</ele>
        <time>2022-06-29T15:45:55Z</time>
      </trkpt>
      <trkpt lat="47.15671" lon="5.9571">
        <ele>392.4</ele>
        <time>2022-06-29T15:45:57Z</time>
      </trkpt>
      <trkpt lat="47.15671" lon="5.95712">
        <ele>392.3</ele>
        <time>2022-06-29T15:45:58Z</time>
      </trkpt>
      <trkpt lat="47.15673" lon="5.95717">
        <ele>392.1</ele>
        <time>2022-06-29T15:45:59Z</time>
      </trkpt>
      <trkpt lat="47.15673" lon="5.95718">
        <ele>392.1</ele>
        <time>2022-06-29T15:46:00Z</time>
      </trkpt>
      <trkpt lat="47.15666" lon="5.95725">
        <ele>391.7</ele>
        <time>2022-06-29T15:46:02Z</time>
      </trkpt>
      <trkpt lat="47.15662" lon="5.95726">
        <ele>391.5</ele>
        <time>2022-06-29T15:46:03Z</time>
      </trkpt>
      <trkpt lat="47.15656" lon="5.9573">
        <ele>391.3</ele>
        <time>2022-06-29T15:46:05Z</time>
      </trkpt>
      <trkpt lat="47.15653" lon="5.9573">
        <ele>391.2</ele>
        <time>2022-06-29T15:46:06Z</time>
      </trkpt>
      <trkpt lat="47.1565" lon="5.95735">
        <ele>390.9</ele>
        <time>2022-06-29T15:46:07Z</time>
      </trkpt>
      <trkpt lat="47.15646" lon="5.95739">
        <ele>390.8</ele>
        <time>2022-06-29T15:46:08Z</time>
      </trkpt>
      <trkpt lat="47.15642" lon="5.95743">
        <ele>390.6</ele>
        <time>2022-06-29T15:46:10Z</time>
      </trkpt>
      <trkpt lat="47.15638" lon="5.95746">
        <ele>390.5</ele>
        <time>2022-06-29T15:46:12Z</time>
      </trkpt>
      <trkpt lat="47.15636" lon="5.9575">
        <ele>390.4</ele>
        <time>2022-06-29T15:46:13Z</time>
      </trkpt>
      <trkpt lat="47.15634" lon="5.95753">
        <ele>390.3</ele>
        <time>2022-06-29T15:46:14Z</time>
      </trkpt>
      <trkpt lat="47.15631" lon="5.95757">
        <ele>390.1</ele>
        <time>2022-06-29T15:46:15Z</time>
      </trkpt>
      <trkpt lat="47.15627" lon="5.95762">
        <ele>390.1</ele>
        <time>2022-06-29T15:46:16Z</time>
      </trkpt>
      <trkpt lat="47.15624" lon="5.95765">
        <ele>390</ele>
        <time>2022-06-29T15:46:17Z</time>
      </trkpt>
      <trkpt lat="47.15622" lon="5.95768">
        <ele>389.9</ele>
        <time>2022-06-29T15:46:18Z</time>
      </trkpt>
      <trkpt lat="47.15621" lon="5.9577">
        <ele>389.9</ele>
        <time>2022-06-29T15:46:19Z</time>
      </trkpt>
      <trkpt lat="47.1562" lon="5.95773">
        <ele>389.9</ele>
        <time>2022-06-29T15:46:20Z</time>
      </trkpt>
      <trkpt lat="47.15616" lon="5.95781">
        <ele>389.9</ele>
        <time>2022-06-29T15:46:22Z</time>
      </trkpt>
      <trkpt lat="47.15613" lon="5.95786">
        <ele>389.9</ele>
        <time>2022-06-29T15:46:23Z</time>
      </trkpt>
      <trkpt lat="47.1561" lon="5.95792">
        <ele>390</ele>
        <time>2022-06-29T15:46:24Z</time>
      </trkpt>
      <trkpt lat="47.15606" lon="5.958">
        <ele>390.1</ele>
        <time>2022-06-29T15:46:26Z</time>
      </trkpt>
      <trkpt lat="47.15605" lon="5.95805">
        <ele>390.2</ele>
        <time>2022-06-29T15:46:27Z</time>
      </trkpt>
      <trkpt lat="47.15605" lon="5.95808">
        <ele>390.3</ele>
        <time>2022-06-29T15:46:28Z</time>
      </trkpt>
      <trkpt lat="47.15605" lon="5.95811">
        <ele>390.4</ele>
        <time>2022-06-29T15:46:29Z</time>
      </trkpt>
      <trkpt lat="47.15605" lon="5.95816">
        <ele>390.5</ele>
        <time>2022-06-29T15:46:31Z</time>
      </trkpt>
      <trkpt lat="47.15605" lon="5.9582">
        <ele>390.7</ele>
        <time>2022-06-29T15:46:32Z</time>
      </trkpt>
      <trkpt lat="47.15606" lon="5.95824">
        <ele>390.9</ele>
        <time>2022-06-29T15:46:34Z</time>
      </trkpt>
      <trkpt lat="47.15607" lon="5.95829">
        <ele>391.1</ele>
        <time>2022-06-29T15:46:35Z</time>
      </trkpt>
      <trkpt lat="47.15606" lon="5.95831">
        <ele>391.2</ele>
        <time>2022-06-29T15:46:36Z</time>
      </trkpt>
      <trkpt lat="47.15604" lon="5.95832">
        <ele>391.3</ele>
        <time>2022-06-29T15:46:37Z</time>
      </trkpt>
      <trkpt lat="47.15604" lon="5.95838">
        <ele>391.6</ele>
        <time>2022-06-29T15:46:38Z</time>
      </trkpt>
      <trkpt lat="47.15604" lon="5.9584">
        <ele>391.8</ele>
        <time>2022-06-29T15:46:39Z</time>
      </trkpt>
      <trkpt lat="47.15603" lon="5.95844">
        <ele>392</ele>
        <time>2022-06-29T15:46:41Z</time>
      </trkpt>
      <trkpt lat="47.15603" lon="5.95847">
        <ele>392.1</ele>
        <time>2022-06-29T15:46:42Z</time>
      </trkpt>
      <trkpt lat="47.15601" lon="5.9585">
        <ele>392.4</ele>
        <time>2022-06-29T15:46:43Z</time>
      </trkpt>
      <trkpt lat="47.15601" lon="5.95851">
        <ele>392.5</ele>
        <time>2022-06-29T15:46:44Z</time>
      </trkpt>
      <trkpt lat="47.156" lon="5.95855">
        <ele>392.7</ele>
        <time>2022-06-29T15:46:45Z</time>
      </trkpt>
      <trkpt lat="47.156" lon="5.95857">
        <ele>392.9</ele>
        <time>2022-06-29T15:46:46Z</time>
      </trkpt>
      <trkpt lat="47.156" lon="5.95861">
        <ele>393.2</ele>
        <time>2022-06-29T15:46:47Z</time>
      </trkpt>
      <trkpt lat="47.156" lon="5.95863">
        <ele>393.2</ele>
        <time>2022-06-29T15:46:48Z</time>
      </trkpt>
      <trkpt lat="47.156" lon="5.95865">
        <ele>393.4</ele>
        <time>2022-06-29T15:46:49Z</time>
      </trkpt>
      <trkpt lat="47.156" lon="5.95868">
        <ele>393.6</ele>
        <time>2022-06-29T15:46:50Z</time>
      </trkpt>
      <trkpt lat="47.156" lon="5.95871">
        <ele>393.8</ele>
        <time>2022-06-29T15:46:51Z</time>
      </trkpt>
      <trkpt lat="47.156" lon="5.95873">
        <ele>393.9</ele>
        <time>2022-06-29T15:46:52Z</time>
      </trkpt>
      <trkpt lat="47.156" lon="5.95874">
        <ele>394</ele>
        <time>2022-06-29T15:46:53Z</time>
      </trkpt>
      <trkpt lat="47.156" lon="5.95876">
        <ele>394.2</ele>
        <time>2022-06-29T15:46:54Z</time>
      </trkpt>
      <trkpt lat="47.15599" lon="5.95883">
        <ele>394.6</ele>
        <time>2022-06-29T15:46:56Z</time>
      </trkpt>
      <trkpt lat="47.15599" lon="5.95887">
        <ele>394.9</ele>
        <time>2022-06-29T15:46:57Z</time>
      </trkpt>
      <trkpt lat="47.15599" lon="5.95892">
        <ele>395.2</ele>
        <time>2022-06-29T15:46:58Z</time>
      </trkpt>
      <trkpt lat="47.15599" lon="5.95893">
        <ele>395.2</ele>
        <time>2022-06-29T15:46:59Z</time>
      </trkpt>
      <trkpt lat="47.15601" lon="5.95897">
        <ele>395.6</ele>
        <time>2022-06-29T15:47:00Z</time>
      </trkpt>
      <trkpt lat="47.15601" lon="5.95899">
        <ele>395.7</ele>
        <time>2022-06-29T15:47:01Z</time>
      </trkpt>
      <trkpt lat="47.15601" lon="5.95904">
        <ele>396</ele>
        <time>2022-06-29T15:47:02Z</time>
      </trkpt>
      <trkpt lat="47.15601" lon="5.95905">
        <ele>396.1</ele>
        <time>2022-06-29T15:47:03Z</time>
      </trkpt>
      <trkpt lat="47.15601" lon="5.9591">
        <ele>396.4</ele>
        <time>2022-06-29T15:47:05Z</time>
      </trkpt>
      <trkpt lat="47.15601" lon="5.95912">
        <ele>396.5</ele>
        <time>2022-06-29T15:47:06Z</time>
      </trkpt>
      <trkpt lat="47.15601" lon="5.95915">
        <ele>396.7</ele>
        <time>2022-06-29T15:47:07Z</time>
      </trkpt>
      <trkpt lat="47.15601" lon="5.95917">
        <ele>396.8</ele>
        <time>2022-06-29T15:47:08Z</time>
      </trkpt>
      <trkpt lat="47.15601" lon="5.95921">
        <ele>397.1</ele>
        <time>2022-06-29T15:47:10Z</time>
      </trkpt>
      <trkpt lat="47.15601" lon="5.95924">
        <ele>397.2</ele>
        <time>2022-06-29T15:47:11Z</time>
      </trkpt>
      <trkpt lat="47.15602" lon="5.9593">
        <ele>397.5</ele>
        <time>2022-06-29T15:47:13Z</time>
      </trkpt>
      <trkpt lat="47.15603" lon="5.95934">
        <ele>397.8</ele>
        <time>2022-06-29T15:47:14Z</time>
      </trkpt>
      <trkpt lat="47.15603" lon="5.95936">
        <ele>397.8</ele>
        <time>2022-06-29T15:47:15Z</time>
      </trkpt>
      <trkpt lat="47.15604" lon="5.95941">
        <ele>398.1</ele>
        <time>2022-06-29T15:47:16Z</time>
      </trkpt>
      <trkpt lat="47.15604" lon="5.95943">
        <ele>398.2</ele>
        <time>2022-06-29T15:47:17Z</time>
      </trkpt>
      <trkpt lat="47.15604" lon="5.95947">
        <ele>398.4</ele>
        <time>2022-06-29T15:47:18Z</time>
      </trkpt>
      <trkpt lat="47.15604" lon="5.95948">
        <ele>398.4</ele>
        <time>2022-06-29T15:47:19Z</time>
      </trkpt>
      <trkpt lat="47.15605" lon="5.95953">
        <ele>398.7</ele>
        <time>2022-06-29T15:47:20Z</time>
      </trkpt>
      <trkpt lat="47.15605" lon="5.95954">
        <ele>398.7</ele>
        <time>2022-06-29T15:47:21Z</time>
      </trkpt>
      <trkpt lat="47.15605" lon="5.95957">
        <ele>398.9</ele>
        <time>2022-06-29T15:47:22Z</time>
      </trkpt>
      <trkpt lat="47.15605" lon="5.95959">
        <ele>399</ele>
        <time>2022-06-29T15:47:23Z</time>
      </trkpt>
      <trkpt lat="47.15605" lon="5.95961">
        <ele>399.1</ele>
        <time>2022-06-29T15:47:25Z</time>
      </trkpt>
      <trkpt lat="47.15606" lon="5.95963">
        <ele>399.2</ele>
        <time>2022-06-29T15:47:26Z</time>
      </trkpt>
      <trkpt lat="47.15606" lon="5.95969">
        <ele>399.5</ele>
        <time>2022-06-29T15:47:27Z</time>
      </trkpt>
      <trkpt lat="47.15605" lon="5.9597">
        <ele>399.5</ele>
        <time>2022-06-29T15:47:28Z</time>
      </trkpt>
      <trkpt lat="47.15605" lon="5.95975">
        <ele>399.8</ele>
        <time>2022-06-29T15:47:30Z</time>
      </trkpt>
      <trkpt lat="47.15605" lon="5.95976">
        <ele>399.9</ele>
        <time>2022-06-29T15:47:31Z</time>
      </trkpt>
      <trkpt lat="47.15605" lon="5.95981">
        <ele>400.1</ele>
        <time>2022-06-29T15:47:32Z</time>
      </trkpt>
      <trkpt lat="47.15605" lon="5.95983">
        <ele>400.2</ele>
        <time>2022-06-29T15:47:33Z</time>
      </trkpt>
      <trkpt lat="47.15604" lon="5.95989">
        <ele>400.5</ele>
        <time>2022-06-29T15:47:35Z</time>
      </trkpt>
      <trkpt lat="47.15604" lon="5.95991">
        <ele>400.6</ele>
        <time>2022-06-29T15:47:36Z</time>
      </trkpt>
      <trkpt lat="47.15605" lon="5.95993">
        <ele>400.7</ele>
        <time>2022-06-29T15:47:37Z</time>
      </trkpt>
      <trkpt lat="47.15605" lon="5.95999">
        <ele>401</ele>
        <time>2022-06-29T15:47:39Z</time>
      </trkpt>
      <trkpt lat="47.15605" lon="5.96001">
        <ele>401.1</ele>
        <time>2022-06-29T15:47:40Z</time>
      </trkpt>
      <trkpt lat="47.15605" lon="5.96003">
        <ele>401.2</ele>
        <time>2022-06-29T15:47:41Z</time>
      </trkpt>
      <trkpt lat="47.15605" lon="5.96005">
        <ele>401.3</ele>
        <time>2022-06-29T15:47:42Z</time>
      </trkpt>
      <trkpt lat="47.15605" lon="5.96008">
        <ele>401.4</ele>
        <time>2022-06-29T15:47:43Z</time>
      </trkpt>
      <trkpt lat="47.15605" lon="5.96012">
        <ele>401.6</ele>
        <time>2022-06-29T15:47:44Z</time>
      </trkpt>
      <trkpt lat="47.15605" lon="5.96017">
        <ele>401.8</ele>
        <time>2022-06-29T15:47:46Z</time>
      </trkpt>
      <trkpt lat="47.15605" lon="5.96022">
        <ele>402</ele>
        <time>2022-06-29T15:47:47Z</time>
      </trkpt>
      <trkpt lat="47.15605" lon="5.96023">
        <ele>402</ele>
        <time>2022-06-29T15:47:48Z</time>
      </trkpt>
      <trkpt lat="47.15605" lon="5.96028">
        <ele>402.2</ele>
        <time>2022-06-29T15:47:49Z</time>
      </trkpt>
      <trkpt lat="47.15605" lon="5.96029">
        <ele>402.3</ele>
        <time>2022-06-29T15:47:50Z</time>
      </trkpt>
      <trkpt lat="47.15605" lon="5.96034">
        <ele>402.5</ele>
        <time>2022-06-29T15:47:51Z</time>
      </trkpt>
      <trkpt lat="47.15605" lon="5.96036">
        <ele>402.6</ele>
        <time>2022-06-29T15:47:52Z</time>
      </trkpt>
      <trkpt lat="47.15606" lon="5.96041">
        <ele>402.7</ele>
        <time>2022-06-29T15:47:53Z</time>
      </trkpt>
      <trkpt lat="47.15606" lon="5.96042">
        <ele>402.8</ele>
        <time>2022-06-29T15:47:54Z</time>
      </trkpt>
      <trkpt lat="47.15606" lon="5.96048">
        <ele>402.9</ele>
        <time>2022-06-29T15:47:55Z</time>
      </trkpt>
      <trkpt lat="47.15606" lon="5.9605">
        <ele>403</ele>
        <time>2022-06-29T15:47:56Z</time>
      </trkpt>
      <trkpt lat="47.15606" lon="5.96057">
        <ele>403.2</ele>
        <time>2022-06-29T15:47:58Z</time>
      </trkpt>
      <trkpt lat="47.15606" lon="5.96059">
        <ele>403.2</ele>
        <time>2022-06-29T15:47:59Z</time>
      </trkpt>
      <trkpt lat="47.15606" lon="5.96061">
        <ele>403.3</ele>
        <time>2022-06-29T15:48:00Z</time>
      </trkpt>
      <trkpt lat="47.15605" lon="5.96066">
        <ele>403.4</ele>
        <time>2022-06-29T15:48:01Z</time>
      </trkpt>
      <trkpt lat="47.15604" lon="5.96067">
        <ele>403.4</ele>
        <time>2022-06-29T15:48:02Z</time>
      </trkpt>
      <trkpt lat="47.15603" lon="5.96071">
        <ele>403.5</ele>
        <time>2022-06-29T15:48:03Z</time>
      </trkpt>
      <trkpt lat="47.15602" lon="5.96072">
        <ele>403.5</ele>
        <time>2022-06-29T15:48:04Z</time>
      </trkpt>
      <trkpt lat="47.156" lon="5.96075">
        <ele>403.6</ele>
        <time>2022-06-29T15:48:05Z</time>
      </trkpt>
      <trkpt lat="47.15599" lon="5.96076">
        <ele>403.6</ele>
        <time>2022-06-29T15:48:06Z</time>
      </trkpt>
      <trkpt lat="47.15598" lon="5.96078">
        <ele>403.7</ele>
        <time>2022-06-29T15:48:07Z</time>
      </trkpt>
      <trkpt lat="47.15597" lon="5.9608">
        <ele>403.7</ele>
        <time>2022-06-29T15:48:08Z</time>
      </trkpt>
      <trkpt lat="47.15595" lon="5.96083">
        <ele>403.8</ele>
        <time>2022-06-29T15:48:09Z</time>
      </trkpt>
      <trkpt lat="47.15594" lon="5.96084">
        <ele>403.8</ele>
        <time>2022-06-29T15:48:10Z</time>
      </trkpt>
      <trkpt lat="47.15592" lon="5.96087">
        <ele>403.8</ele>
        <time>2022-06-29T15:48:11Z</time>
      </trkpt>
      <trkpt lat="47.15591" lon="5.96088">
        <ele>403.9</ele>
        <time>2022-06-29T15:48:12Z</time>
      </trkpt>
      <trkpt lat="47.15589" lon="5.96091">
        <ele>403.9</ele>
        <time>2022-06-29T15:48:13Z</time>
      </trkpt>
      <trkpt lat="47.15588" lon="5.96092">
        <ele>403.9</ele>
        <time>2022-06-29T15:48:14Z</time>
      </trkpt>
      <trkpt lat="47.15586" lon="5.96095">
        <ele>404</ele>
        <time>2022-06-29T15:48:15Z</time>
      </trkpt>
      <trkpt lat="47.15585" lon="5.96096">
        <ele>404</ele>
        <time>2022-06-29T15:48:16Z</time>
      </trkpt>
      <trkpt lat="47.15584" lon="5.961">
        <ele>404.1</ele>
        <time>2022-06-29T15:48:17Z</time>
      </trkpt>
      <trkpt lat="47.15583" lon="5.96101">
        <ele>404.2</ele>
        <time>2022-06-29T15:48:18Z</time>
      </trkpt>
      <trkpt lat="47.15581" lon="5.96105">
        <ele>404.3</ele>
        <time>2022-06-29T15:48:19Z</time>
      </trkpt>
      <trkpt lat="47.15581" lon="5.96106">
        <ele>404.3</ele>
        <time>2022-06-29T15:48:20Z</time>
      </trkpt>
      <trkpt lat="47.1558" lon="5.9611">
        <ele>404.4</ele>
        <time>2022-06-29T15:48:22Z</time>
      </trkpt>
      <trkpt lat="47.15579" lon="5.96115">
        <ele>404.5</ele>
        <time>2022-06-29T15:48:23Z</time>
      </trkpt>
      <trkpt lat="47.15578" lon="5.96117">
        <ele>404.6</ele>
        <time>2022-06-29T15:48:24Z</time>
      </trkpt>
      <trkpt lat="47.15578" lon="5.9612">
        <ele>404.7</ele>
        <time>2022-06-29T15:48:25Z</time>
      </trkpt>
      <trkpt lat="47.15576" lon="5.96124">
        <ele>404.9</ele>
        <time>2022-06-29T15:48:27Z</time>
      </trkpt>
      <trkpt lat="47.15574" lon="5.96128">
        <ele>405</ele>
        <time>2022-06-29T15:48:28Z</time>
      </trkpt>
      <trkpt lat="47.15574" lon="5.96129">
        <ele>405.1</ele>
        <time>2022-06-29T15:48:29Z</time>
      </trkpt>
      <trkpt lat="47.15573" lon="5.96131">
        <ele>405.1</ele>
        <time>2022-06-29T15:48:30Z</time>
      </trkpt>
      <trkpt lat="47.15572" lon="5.96133">
        <ele>405.2</ele>
        <time>2022-06-29T15:48:31Z</time>
      </trkpt>
      <trkpt lat="47.15571" lon="5.96135">
        <ele>405.3</ele>
        <time>2022-06-29T15:48:32Z</time>
      </trkpt>
      <trkpt lat="47.15571" lon="5.96137">
        <ele>405.4</ele>
        <time>2022-06-29T15:48:33Z</time>
      </trkpt>
      <trkpt lat="47.15569" lon="5.96141">
        <ele>405.5</ele>
        <time>2022-06-29T15:48:34Z</time>
      </trkpt>
      <trkpt lat="47.15569" lon="5.96143">
        <ele>405.6</ele>
        <time>2022-06-29T15:48:35Z</time>
      </trkpt>
      <trkpt lat="47.15568" lon="5.96147">
        <ele>405.8</ele>
        <time>2022-06-29T15:48:36Z</time>
      </trkpt>
      <trkpt lat="47.15567" lon="5.96149">
        <ele>405.8</ele>
        <time>2022-06-29T15:48:37Z</time>
      </trkpt>
      <trkpt lat="47.15565" lon="5.96154">
        <ele>406.1</ele>
        <time>2022-06-29T15:48:39Z</time>
      </trkpt>
      <trkpt lat="47.15564" lon="5.96158">
        <ele>406.3</ele>
        <time>2022-06-29T15:48:40Z</time>
      </trkpt>
      <trkpt lat="47.15561" lon="5.96163">
        <ele>406.6</ele>
        <time>2022-06-29T15:48:41Z</time>
      </trkpt>
      <trkpt lat="47.1556" lon="5.96165">
        <ele>406.7</ele>
        <time>2022-06-29T15:48:42Z</time>
      </trkpt>
      <trkpt lat="47.15558" lon="5.96168">
        <ele>407</ele>
        <time>2022-06-29T15:48:43Z</time>
      </trkpt>
      <trkpt lat="47.15556" lon="5.96171">
        <ele>407.2</ele>
        <time>2022-06-29T15:48:44Z</time>
      </trkpt>
      <trkpt lat="47.15553" lon="5.96176">
        <ele>407.6</ele>
        <time>2022-06-29T15:48:45Z</time>
      </trkpt>
      <trkpt lat="47.15552" lon="5.96179">
        <ele>407.8</ele>
        <time>2022-06-29T15:48:46Z</time>
      </trkpt>
      <trkpt lat="47.1555" lon="5.96182">
        <ele>408.1</ele>
        <time>2022-06-29T15:48:47Z</time>
      </trkpt>
      <trkpt lat="47.15548" lon="5.96186">
        <ele>408.5</ele>
        <time>2022-06-29T15:48:49Z</time>
      </trkpt>
      <trkpt lat="47.15545" lon="5.9619">
        <ele>408.9</ele>
        <time>2022-06-29T15:48:50Z</time>
      </trkpt>
      <trkpt lat="47.15543" lon="5.96193">
        <ele>409.2</ele>
        <time>2022-06-29T15:48:51Z</time>
      </trkpt>
      <trkpt lat="47.15541" lon="5.96197">
        <ele>409.5</ele>
        <time>2022-06-29T15:48:52Z</time>
      </trkpt>
      <trkpt lat="47.1554" lon="5.96198">
        <ele>409.6</ele>
        <time>2022-06-29T15:48:53Z</time>
      </trkpt>
      <trkpt lat="47.15539" lon="5.96201">
        <ele>409.8</ele>
        <time>2022-06-29T15:48:54Z</time>
      </trkpt>
      <trkpt lat="47.15536" lon="5.96205">
        <ele>410.1</ele>
        <time>2022-06-29T15:48:56Z</time>
      </trkpt>
      <trkpt lat="47.15534" lon="5.96209">
        <ele>410.4</ele>
        <time>2022-06-29T15:48:57Z</time>
      </trkpt>
      <trkpt lat="47.15533" lon="5.96211">
        <ele>410.5</ele>
        <time>2022-06-29T15:48:58Z</time>
      </trkpt>
      <trkpt lat="47.15531" lon="5.96215">
        <ele>410.7</ele>
        <time>2022-06-29T15:48:59Z</time>
      </trkpt>
      <trkpt lat="47.15531" lon="5.96217">
        <ele>410.8</ele>
        <time>2022-06-29T15:49:00Z</time>
      </trkpt>
      <trkpt lat="47.15529" lon="5.96222">
        <ele>410.9</ele>
        <time>2022-06-29T15:49:02Z</time>
      </trkpt>
      <trkpt lat="47.15527" lon="5.96226">
        <ele>411</ele>
        <time>2022-06-29T15:49:03Z</time>
      </trkpt>
      <trkpt lat="47.15525" lon="5.9623">
        <ele>411</ele>
        <time>2022-06-29T15:49:04Z</time>
      </trkpt>
      <trkpt lat="47.15525" lon="5.96231">
        <ele>411</ele>
        <time>2022-06-29T15:49:05Z</time>
      </trkpt>
      <trkpt lat="47.15523" lon="5.96236">
        <ele>411</ele>
        <time>2022-06-29T15:49:06Z</time>
      </trkpt>
      <trkpt lat="47.15522" lon="5.96238">
        <ele>410.9</ele>
        <time>2022-06-29T15:49:07Z</time>
      </trkpt>
      <trkpt lat="47.15521" lon="5.9624">
        <ele>410.9</ele>
        <time>2022-06-29T15:49:08Z</time>
      </trkpt>
      <trkpt lat="47.15519" lon="5.96247">
        <ele>410.6</ele>
        <time>2022-06-29T15:49:10Z</time>
      </trkpt>
      <trkpt lat="47.15517" lon="5.96251">
        <ele>410.3</ele>
        <time>2022-06-29T15:49:11Z</time>
      </trkpt>
      <trkpt lat="47.15515" lon="5.96256">
        <ele>410</ele>
        <time>2022-06-29T15:49:12Z</time>
      </trkpt>
      <trkpt lat="47.15514" lon="5.96258">
        <ele>409.9</ele>
        <time>2022-06-29T15:49:13Z</time>
      </trkpt>
      <trkpt lat="47.15513" lon="5.96262">
        <ele>409.6</ele>
        <time>2022-06-29T15:49:14Z</time>
      </trkpt>
      <trkpt lat="47.15513" lon="5.96266">
        <ele>409.4</ele>
        <time>2022-06-29T15:49:15Z</time>
      </trkpt>
      <trkpt lat="47.15513" lon="5.96273">
        <ele>408.9</ele>
        <time>2022-06-29T15:49:16Z</time>
      </trkpt>
      <trkpt lat="47.15512" lon="5.96276">
        <ele>408.7</ele>
        <time>2022-06-29T15:49:17Z</time>
      </trkpt>
      <trkpt lat="47.1551" lon="5.96285">
        <ele>408.1</ele>
        <time>2022-06-29T15:49:19Z</time>
      </trkpt>
      <trkpt lat="47.15508" lon="5.9629">
        <ele>407.7</ele>
        <time>2022-06-29T15:49:21Z</time>
      </trkpt>
      <trkpt lat="47.15505" lon="5.96296">
        <ele>407.3</ele>
        <time>2022-06-29T15:49:22Z</time>
      </trkpt>
      <trkpt lat="47.15503" lon="5.96301">
        <ele>406.9</ele>
        <time>2022-06-29T15:49:23Z</time>
      </trkpt>
      <trkpt lat="47.15502" lon="5.96307">
        <ele>406.6</ele>
        <time>2022-06-29T15:49:24Z</time>
      </trkpt>
      <trkpt lat="47.15501" lon="5.96311">
        <ele>406.3</ele>
        <time>2022-06-29T15:49:25Z</time>
      </trkpt>
      <trkpt lat="47.15499" lon="5.96318">
        <ele>406</ele>
        <time>2022-06-29T15:49:26Z</time>
      </trkpt>
      <trkpt lat="47.15495" lon="5.96325">
        <ele>405.6</ele>
        <time>2022-06-29T15:49:28Z</time>
      </trkpt>
      <trkpt lat="47.15494" lon="5.96327">
        <ele>405.4</ele>
        <time>2022-06-29T15:49:30Z</time>
      </trkpt>
      <trkpt lat="47.15494" lon="5.96327">
        <ele>405.4</ele>
        <time>2022-06-29T15:49:31Z</time>
      </trkpt>
      <trkpt lat="47.15495" lon="5.96326">
        <ele>405.3</ele>
        <time>2022-06-29T15:49:32Z</time>
      </trkpt>
      <trkpt lat="47.15495" lon="5.96325">
        <ele>405.3</ele>
        <time>2022-06-29T15:49:33Z</time>
      </trkpt>
      <trkpt lat="47.15495" lon="5.96325">
        <ele>405.3</ele>
        <time>2022-06-29T15:49:34Z</time>
      </trkpt>
      <trkpt lat="47.15495" lon="5.96325">
        <ele>405.3</ele>
        <time>2022-06-29T15:49:35Z</time>
      </trkpt>
      <trkpt lat="47.15496" lon="5.96325">
        <ele>405.3</ele>
        <time>2022-06-29T15:49:36Z</time>
      </trkpt>
      <trkpt lat="47.15496" lon="5.96325">
        <ele>405.3</ele>
        <time>2022-06-29T15:49:37Z</time>
      </trkpt>
      <trkpt lat="47.15495" lon="5.96325">
        <ele>405.2</ele>
        <time>2022-06-29T15:49:38Z</time>
      </trkpt>
      <trkpt lat="47.15495" lon="5.96325">
        <ele>405.2</ele>
        <time>2022-06-29T15:49:39Z</time>
      </trkpt>
      <trkpt lat="47.15495" lon="5.96325">
        <ele>405.2</ele>
        <time>2022-06-29T15:49:40Z</time>
      </trkpt>
      <trkpt lat="47.15495" lon="5.96325">
        <ele>405.2</ele>
        <time>2022-06-29T15:49:41Z</time>
      </trkpt>
      <trkpt lat="47.15495" lon="5.96325">
        <ele>405.2</ele>
        <time>2022-06-29T15:49:42Z</time>
      </trkpt>
      <trkpt lat="47.15492" lon="5.96327">
        <ele>405</ele>
        <time>2022-06-29T15:50:28Z</time>
      </trkpt>
      <trkpt lat="47.15491" lon="5.96328">
        <ele>405</ele>
        <time>2022-06-29T15:50:29Z</time>
      </trkpt>
      <trkpt lat="47.1549" lon="5.96329">
        <ele>404.9</ele>
        <time>2022-06-29T15:50:30Z</time>
      </trkpt>
      <trkpt lat="47.15487" lon="5.96331">
        <ele>404.7</ele>
        <time>2022-06-29T15:50:31Z</time>
      </trkpt>
      <trkpt lat="47.15486" lon="5.96332">
        <ele>404.7</ele>
        <time>2022-06-29T15:50:32Z</time>
      </trkpt>
      <trkpt lat="47.15485" lon="5.96332">
        <ele>404.7</ele>
        <time>2022-06-29T15:50:33Z</time>
      </trkpt>
      <trkpt lat="47.15483" lon="5.96333">
        <ele>404.5</ele>
        <time>2022-06-29T15:50:35Z</time>
      </trkpt>
      <trkpt lat="47.15479" lon="5.96338">
        <ele>404.3</ele>
        <time>2022-06-29T15:50:36Z</time>
      </trkpt>
      <trkpt lat="47.15476" lon="5.96343">
        <ele>404.1</ele>
        <time>2022-06-29T15:50:37Z</time>
      </trkpt>
      <trkpt lat="47.15475" lon="5.96347">
        <ele>404</ele>
        <time>2022-06-29T15:50:38Z</time>
      </trkpt>
      <trkpt lat="47.15473" lon="5.96352">
        <ele>403.8</ele>
        <time>2022-06-29T15:50:39Z</time>
      </trkpt>
      <trkpt lat="47.15471" lon="5.96355">
        <ele>403.7</ele>
        <time>2022-06-29T15:50:40Z</time>
      </trkpt>
      <trkpt lat="47.15468" lon="5.96359">
        <ele>403.5</ele>
        <time>2022-06-29T15:50:41Z</time>
      </trkpt>
      <trkpt lat="47.15466" lon="5.96363">
        <ele>403.4</ele>
        <time>2022-06-29T15:50:42Z</time>
      </trkpt>
      <trkpt lat="47.15463" lon="5.96371">
        <ele>403.1</ele>
        <time>2022-06-29T15:50:44Z</time>
      </trkpt>
      <trkpt lat="47.15461" lon="5.96375">
        <ele>403</ele>
        <time>2022-06-29T15:50:45Z</time>
      </trkpt>
      <trkpt lat="47.15457" lon="5.96378">
        <ele>402.8</ele>
        <time>2022-06-29T15:50:46Z</time>
      </trkpt>
      <trkpt lat="47.15455" lon="5.96382">
        <ele>402.7</ele>
        <time>2022-06-29T15:50:47Z</time>
      </trkpt>
      <trkpt lat="47.15452" lon="5.96386">
        <ele>402.5</ele>
        <time>2022-06-29T15:50:48Z</time>
      </trkpt>
      <trkpt lat="47.15449" lon="5.96391">
        <ele>402.4</ele>
        <time>2022-06-29T15:50:49Z</time>
      </trkpt>
      <trkpt lat="47.15445" lon="5.96396">
        <ele>402.3</ele>
        <time>2022-06-29T15:50:51Z</time>
      </trkpt>
      <trkpt lat="47.15441" lon="5.96401">
        <ele>402.2</ele>
        <time>2022-06-29T15:50:52Z</time>
      </trkpt>
      <trkpt lat="47.15436" lon="5.96405">
        <ele>402.1</ele>
        <time>2022-06-29T15:50:53Z</time>
      </trkpt>
      <trkpt lat="47.15433" lon="5.96408">
        <ele>402.1</ele>
        <time>2022-06-29T15:50:54Z</time>
      </trkpt>
      <trkpt lat="47.1543" lon="5.96411">
        <ele>402.1</ele>
        <time>2022-06-29T15:50:55Z</time>
      </trkpt>
      <trkpt lat="47.15427" lon="5.96418">
        <ele>402.1</ele>
        <time>2022-06-29T15:50:57Z</time>
      </trkpt>
      <trkpt lat="47.15424" lon="5.96422">
        <ele>402.1</ele>
        <time>2022-06-29T15:50:58Z</time>
      </trkpt>
      <trkpt lat="47.15423" lon="5.96423">
        <ele>402.1</ele>
        <time>2022-06-29T15:50:59Z</time>
      </trkpt>
      <trkpt lat="47.1542" lon="5.96427">
        <ele>402.1</ele>
        <time>2022-06-29T15:51:00Z</time>
      </trkpt>
      <trkpt lat="47.15419" lon="5.96428">
        <ele>402.1</ele>
        <time>2022-06-29T15:51:01Z</time>
      </trkpt>
      <trkpt lat="47.15417" lon="5.96431">
        <ele>402.1</ele>
        <time>2022-06-29T15:51:02Z</time>
      </trkpt>
      <trkpt lat="47.15412" lon="5.9644">
        <ele>402.1</ele>
        <time>2022-06-29T15:51:04Z</time>
      </trkpt>
      <trkpt lat="47.15409" lon="5.96447">
        <ele>402</ele>
        <time>2022-06-29T15:51:05Z</time>
      </trkpt>
      <trkpt lat="47.15409" lon="5.9645">
        <ele>402</ele>
        <time>2022-06-29T15:51:06Z</time>
      </trkpt>
      <trkpt lat="47.15409" lon="5.96452">
        <ele>402</ele>
        <time>2022-06-29T15:51:07Z</time>
      </trkpt>
      <trkpt lat="47.15407" lon="5.96456">
        <ele>402</ele>
        <time>2022-06-29T15:51:08Z</time>
      </trkpt>
      <trkpt lat="47.15406" lon="5.9646">
        <ele>401.9</ele>
        <time>2022-06-29T15:51:09Z</time>
      </trkpt>
      <trkpt lat="47.15404" lon="5.96466">
        <ele>401.9</ele>
        <time>2022-06-29T15:51:10Z</time>
      </trkpt>
      <trkpt lat="47.154" lon="5.96473">
        <ele>401.7</ele>
        <time>2022-06-29T15:51:12Z</time>
      </trkpt>
      <trkpt lat="47.15397" lon="5.96477">
        <ele>401.6</ele>
        <time>2022-06-29T15:51:13Z</time>
      </trkpt>
      <trkpt lat="47.15394" lon="5.96481">
        <ele>401.5</ele>
        <time>2022-06-29T15:51:14Z</time>
      </trkpt>
      <trkpt lat="47.15392" lon="5.96486">
        <ele>401.4</ele>
        <time>2022-06-29T15:51:15Z</time>
      </trkpt>
      <trkpt lat="47.15389" lon="5.96492">
        <ele>401.2</ele>
        <time>2022-06-29T15:51:17Z</time>
      </trkpt>
      <trkpt lat="47.15389" lon="5.96497">
        <ele>401.1</ele>
        <time>2022-06-29T15:51:18Z</time>
      </trkpt>
      <trkpt lat="47.15389" lon="5.96498">
        <ele>401.1</ele>
        <time>2022-06-29T15:51:19Z</time>
      </trkpt>
      <trkpt lat="47.15389" lon="5.965">
        <ele>401</ele>
        <time>2022-06-29T15:51:20Z</time>
      </trkpt>
      <trkpt lat="47.15388" lon="5.96507">
        <ele>400.9</ele>
        <time>2022-06-29T15:51:22Z</time>
      </trkpt>
      <trkpt lat="47.15387" lon="5.96514">
        <ele>400.7</ele>
        <time>2022-06-29T15:51:23Z</time>
      </trkpt>
      <trkpt lat="47.15384" lon="5.96521">
        <ele>400.6</ele>
        <time>2022-06-29T15:51:24Z</time>
      </trkpt>
      <trkpt lat="47.1538" lon="5.96527">
        <ele>400.4</ele>
        <time>2022-06-29T15:51:25Z</time>
      </trkpt>
      <trkpt lat="47.15377" lon="5.96532">
        <ele>400.2</ele>
        <time>2022-06-29T15:51:26Z</time>
      </trkpt>
      <trkpt lat="47.15375" lon="5.96535">
        <ele>400.2</ele>
        <time>2022-06-29T15:51:27Z</time>
      </trkpt>
      <trkpt lat="47.15372" lon="5.9654">
        <ele>400</ele>
        <time>2022-06-29T15:51:28Z</time>
      </trkpt>
      <trkpt lat="47.15368" lon="5.96546">
        <ele>399.9</ele>
        <time>2022-06-29T15:51:29Z</time>
      </trkpt>
      <trkpt lat="47.15365" lon="5.96554">
        <ele>399.7</ele>
        <time>2022-06-29T15:51:30Z</time>
      </trkpt>
      <trkpt lat="47.15363" lon="5.96559">
        <ele>399.7</ele>
        <time>2022-06-29T15:51:31Z</time>
      </trkpt>
      <trkpt lat="47.15361" lon="5.96563">
        <ele>399.6</ele>
        <time>2022-06-29T15:51:32Z</time>
      </trkpt>
      <trkpt lat="47.1536" lon="5.9657">
        <ele>399.5</ele>
        <time>2022-06-29T15:51:33Z</time>
      </trkpt>
      <trkpt lat="47.1536" lon="5.96578">
        <ele>399.4</ele>
        <time>2022-06-29T15:51:34Z</time>
      </trkpt>
      <trkpt lat="47.1536" lon="5.96585">
        <ele>399.3</ele>
        <time>2022-06-29T15:51:35Z</time>
      </trkpt>
      <trkpt lat="47.1536" lon="5.9659">
        <ele>399.3</ele>
        <time>2022-06-29T15:51:36Z</time>
      </trkpt>
      <trkpt lat="47.15361" lon="5.96598">
        <ele>399.2</ele>
        <time>2022-06-29T15:51:38Z</time>
      </trkpt>
      <trkpt lat="47.15363" lon="5.96605">
        <ele>399.2</ele>
        <time>2022-06-29T15:51:39Z</time>
      </trkpt>
      <trkpt lat="47.15365" lon="5.96615">
        <ele>399.2</ele>
        <time>2022-06-29T15:51:41Z</time>
      </trkpt>
      <trkpt lat="47.15365" lon="5.96621">
        <ele>399.2</ele>
        <time>2022-06-29T15:51:42Z</time>
      </trkpt>
      <trkpt lat="47.15367" lon="5.96626">
        <ele>399.2</ele>
        <time>2022-06-29T15:51:43Z</time>
      </trkpt>
      <trkpt lat="47.15367" lon="5.96631">
        <ele>399.2</ele>
        <time>2022-06-29T15:51:44Z</time>
      </trkpt>
      <trkpt lat="47.15366" lon="5.96636">
        <ele>399.2</ele>
        <time>2022-06-29T15:51:45Z</time>
      </trkpt>
      <trkpt lat="47.15366" lon="5.96641">
        <ele>399.3</ele>
        <time>2022-06-29T15:51:46Z</time>
      </trkpt>
      <trkpt lat="47.15366" lon="5.96646">
        <ele>399.3</ele>
        <time>2022-06-29T15:51:47Z</time>
      </trkpt>
      <trkpt lat="47.15366" lon="5.96651">
        <ele>399.3</ele>
        <time>2022-06-29T15:51:48Z</time>
      </trkpt>
      <trkpt lat="47.15366" lon="5.96656">
        <ele>399.4</ele>
        <time>2022-06-29T15:51:49Z</time>
      </trkpt>
      <trkpt lat="47.15366" lon="5.96659">
        <ele>399.4</ele>
        <time>2022-06-29T15:51:50Z</time>
      </trkpt>
      <trkpt lat="47.15366" lon="5.96663">
        <ele>399.4</ele>
        <time>2022-06-29T15:51:51Z</time>
      </trkpt>
      <trkpt lat="47.15366" lon="5.96668">
        <ele>399.4</ele>
        <time>2022-06-29T15:51:52Z</time>
      </trkpt>
      <trkpt lat="47.15366" lon="5.96672">
        <ele>399.4</ele>
        <time>2022-06-29T15:51:53Z</time>
      </trkpt>
      <trkpt lat="47.15366" lon="5.96677">
        <ele>399.4</ele>
        <time>2022-06-29T15:51:54Z</time>
      </trkpt>
      <trkpt lat="47.15365" lon="5.96681">
        <ele>399.4</ele>
        <time>2022-06-29T15:51:55Z</time>
      </trkpt>
      <trkpt lat="47.15365" lon="5.96685">
        <ele>399.4</ele>
        <time>2022-06-29T15:51:56Z</time>
      </trkpt>
      <trkpt lat="47.15364" lon="5.9669">
        <ele>399.3</ele>
        <time>2022-06-29T15:51:57Z</time>
      </trkpt>
      <trkpt lat="47.15363" lon="5.96696">
        <ele>399.3</ele>
        <time>2022-06-29T15:51:58Z</time>
      </trkpt>
      <trkpt lat="47.15361" lon="5.96702">
        <ele>399.2</ele>
        <time>2022-06-29T15:52:00Z</time>
      </trkpt>
      <trkpt lat="47.1536" lon="5.96706">
        <ele>399.1</ele>
        <time>2022-06-29T15:52:01Z</time>
      </trkpt>
      <trkpt lat="47.1536" lon="5.96708">
        <ele>399.1</ele>
        <time>2022-06-29T15:52:02Z</time>
      </trkpt>
      <trkpt lat="47.15358" lon="5.96712">
        <ele>399</ele>
        <time>2022-06-29T15:52:03Z</time>
      </trkpt>
      <trkpt lat="47.15357" lon="5.96713">
        <ele>398.9</ele>
        <time>2022-06-29T15:52:04Z</time>
      </trkpt>
      <trkpt lat="47.15355" lon="5.96718">
        <ele>398.8</ele>
        <time>2022-06-29T15:52:05Z</time>
      </trkpt>
      <trkpt lat="47.15353" lon="5.96726">
        <ele>398.6</ele>
        <time>2022-06-29T15:52:07Z</time>
      </trkpt>
      <trkpt lat="47.15351" lon="5.96733">
        <ele>398.5</ele>
        <time>2022-06-29T15:52:08Z</time>
      </trkpt>
      <trkpt lat="47.1535" lon="5.9674">
        <ele>398.3</ele>
        <time>2022-06-29T15:52:09Z</time>
      </trkpt>
      <trkpt lat="47.1535" lon="5.96749">
        <ele>398.1</ele>
        <time>2022-06-29T15:52:10Z</time>
      </trkpt>
      <trkpt lat="47.1535" lon="5.96756">
        <ele>398</ele>
        <time>2022-06-29T15:52:11Z</time>
      </trkpt>
      <trkpt lat="47.15352" lon="5.96762">
        <ele>397.9</ele>
        <time>2022-06-29T15:52:12Z</time>
      </trkpt>
      <trkpt lat="47.15356" lon="5.96774">
        <ele>397.8</ele>
        <time>2022-06-29T15:52:14Z</time>
      </trkpt>
      <trkpt lat="47.15357" lon="5.96779">
        <ele>397.7</ele>
        <time>2022-06-29T15:52:15Z</time>
      </trkpt>
      <trkpt lat="47.15359" lon="5.96783">
        <ele>397.7</ele>
        <time>2022-06-29T15:52:17Z</time>
      </trkpt>
      <trkpt lat="47.1536" lon="5.96787">
        <ele>397.6</ele>
        <time>2022-06-29T15:52:18Z</time>
      </trkpt>
      <trkpt lat="47.15361" lon="5.96791">
        <ele>397.6</ele>
        <time>2022-06-29T15:52:19Z</time>
      </trkpt>
      <trkpt lat="47.15363" lon="5.96797">
        <ele>397.5</ele>
        <time>2022-06-29T15:52:20Z</time>
      </trkpt>
      <trkpt lat="47.15363" lon="5.96799">
        <ele>397.4</ele>
        <time>2022-06-29T15:52:21Z</time>
      </trkpt>
      <trkpt lat="47.15364" lon="5.96804">
        <ele>397.3</ele>
        <time>2022-06-29T15:52:23Z</time>
      </trkpt>
      <trkpt lat="47.15364" lon="5.96808">
        <ele>397.3</ele>
        <time>2022-06-29T15:52:24Z</time>
      </trkpt>
      <trkpt lat="47.15364" lon="5.96813">
        <ele>397.2</ele>
        <time>2022-06-29T15:52:25Z</time>
      </trkpt>
      <trkpt lat="47.15365" lon="5.9682">
        <ele>397</ele>
        <time>2022-06-29T15:52:26Z</time>
      </trkpt>
      <trkpt lat="47.15365" lon="5.96826">
        <ele>396.9</ele>
        <time>2022-06-29T15:52:27Z</time>
      </trkpt>
      <trkpt lat="47.15365" lon="5.96833">
        <ele>396.7</ele>
        <time>2022-06-29T15:52:28Z</time>
      </trkpt>
      <trkpt lat="47.15363" lon="5.9684">
        <ele>396.5</ele>
        <time>2022-06-29T15:52:30Z</time>
      </trkpt>
      <trkpt lat="47.15362" lon="5.96847">
        <ele>396.3</ele>
        <time>2022-06-29T15:52:31Z</time>
      </trkpt>
      <trkpt lat="47.15362" lon="5.96855">
        <ele>396.1</ele>
        <time>2022-06-29T15:52:32Z</time>
      </trkpt>
      <trkpt lat="47.15361" lon="5.96861">
        <ele>395.9</ele>
        <time>2022-06-29T15:52:33Z</time>
      </trkpt>
      <trkpt lat="47.1536" lon="5.96873">
        <ele>395.5</ele>
        <time>2022-06-29T15:52:34Z</time>
      </trkpt>
      <trkpt lat="47.15359" lon="5.9688">
        <ele>395.3</ele>
        <time>2022-06-29T15:52:35Z</time>
      </trkpt>
      <trkpt lat="47.15358" lon="5.96886">
        <ele>395.1</ele>
        <time>2022-06-29T15:52:36Z</time>
      </trkpt>
      <trkpt lat="47.15358" lon="5.96895">
        <ele>394.8</ele>
        <time>2022-06-29T15:52:37Z</time>
      </trkpt>
      <trkpt lat="47.15358" lon="5.969">
        <ele>394.5</ele>
        <time>2022-06-29T15:52:38Z</time>
      </trkpt>
      <trkpt lat="47.15357" lon="5.96909">
        <ele>394.2</ele>
        <time>2022-06-29T15:52:39Z</time>
      </trkpt>
      <trkpt lat="47.15356" lon="5.96918">
        <ele>393.8</ele>
        <time>2022-06-29T15:52:40Z</time>
      </trkpt>
      <trkpt lat="47.15354" lon="5.96927">
        <ele>393.5</ele>
        <time>2022-06-29T15:52:41Z</time>
      </trkpt>
      <trkpt lat="47.15353" lon="5.96936">
        <ele>393.3</ele>
        <time>2022-06-29T15:52:42Z</time>
      </trkpt>
      <trkpt lat="47.15353" lon="5.96945">
        <ele>393.1</ele>
        <time>2022-06-29T15:52:43Z</time>
      </trkpt>
      <trkpt lat="47.15353" lon="5.96954">
        <ele>393</ele>
        <time>2022-06-29T15:52:44Z</time>
      </trkpt>
      <trkpt lat="47.15354" lon="5.96962">
        <ele>392.9</ele>
        <time>2022-06-29T15:52:45Z</time>
      </trkpt>
      <trkpt lat="47.15354" lon="5.96969">
        <ele>392.8</ele>
        <time>2022-06-29T15:52:46Z</time>
      </trkpt>
      <trkpt lat="47.15354" lon="5.96975">
        <ele>392.8</ele>
        <time>2022-06-29T15:52:47Z</time>
      </trkpt>
      <trkpt lat="47.15354" lon="5.96981">
        <ele>392.7</ele>
        <time>2022-06-29T15:52:48Z</time>
      </trkpt>
      <trkpt lat="47.15356" lon="5.96987">
        <ele>392.7</ele>
        <time>2022-06-29T15:52:49Z</time>
      </trkpt>
      <trkpt lat="47.15355" lon="5.96995">
        <ele>392.6</ele>
        <time>2022-06-29T15:52:51Z</time>
      </trkpt>
      <trkpt lat="47.15353" lon="5.97002">
        <ele>392.6</ele>
        <time>2022-06-29T15:52:52Z</time>
      </trkpt>
      <trkpt lat="47.15352" lon="5.97008">
        <ele>392.5</ele>
        <time>2022-06-29T15:52:53Z</time>
      </trkpt>
      <trkpt lat="47.15352" lon="5.97016">
        <ele>392.5</ele>
        <time>2022-06-29T15:52:54Z</time>
      </trkpt>
      <trkpt lat="47.15352" lon="5.97022">
        <ele>392.4</ele>
        <time>2022-06-29T15:52:55Z</time>
      </trkpt>
      <trkpt lat="47.15352" lon="5.97033">
        <ele>392.4</ele>
        <time>2022-06-29T15:52:57Z</time>
      </trkpt>
      <trkpt lat="47.15353" lon="5.9704">
        <ele>392.4</ele>
        <time>2022-06-29T15:52:58Z</time>
      </trkpt>
      <trkpt lat="47.15353" lon="5.97046">
        <ele>392.5</ele>
        <time>2022-06-29T15:52:59Z</time>
      </trkpt>
      <trkpt lat="47.15354" lon="5.97051">
        <ele>392.5</ele>
        <time>2022-06-29T15:53:00Z</time>
      </trkpt>
      <trkpt lat="47.15355" lon="5.97056">
        <ele>392.5</ele>
        <time>2022-06-29T15:53:01Z</time>
      </trkpt>
      <trkpt lat="47.15355" lon="5.97061">
        <ele>392.6</ele>
        <time>2022-06-29T15:53:02Z</time>
      </trkpt>
      <trkpt lat="47.15356" lon="5.97067">
        <ele>392.7</ele>
        <time>2022-06-29T15:53:03Z</time>
      </trkpt>
      <trkpt lat="47.15358" lon="5.97072">
        <ele>392.8</ele>
        <time>2022-06-29T15:53:04Z</time>
      </trkpt>
      <trkpt lat="47.15359" lon="5.97077">
        <ele>393</ele>
        <time>2022-06-29T15:53:05Z</time>
      </trkpt>
      <trkpt lat="47.15359" lon="5.97082">
        <ele>393.1</ele>
        <time>2022-06-29T15:53:06Z</time>
      </trkpt>
      <trkpt lat="47.15361" lon="5.97088">
        <ele>393.3</ele>
        <time>2022-06-29T15:53:08Z</time>
      </trkpt>
      <trkpt lat="47.15362" lon="5.97091">
        <ele>393.4</ele>
        <time>2022-06-29T15:53:09Z</time>
      </trkpt>
      <trkpt lat="47.15363" lon="5.97093">
        <ele>393.5</ele>
        <time>2022-06-29T15:53:10Z</time>
      </trkpt>
      <trkpt lat="47.15362" lon="5.97095">
        <ele>393.6</ele>
        <time>2022-06-29T15:53:11Z</time>
      </trkpt>
      <trkpt lat="47.15363" lon="5.97098">
        <ele>393.7</ele>
        <time>2022-06-29T15:53:12Z</time>
      </trkpt>
      <trkpt lat="47.15364" lon="5.97103">
        <ele>394</ele>
        <time>2022-06-29T15:53:13Z</time>
      </trkpt>
      <trkpt lat="47.15365" lon="5.97111">
        <ele>394.3</ele>
        <time>2022-06-29T15:53:15Z</time>
      </trkpt>
      <trkpt lat="47.15366" lon="5.97113">
        <ele>394.4</ele>
        <time>2022-06-29T15:53:16Z</time>
      </trkpt>
      <trkpt lat="47.15366" lon="5.97116">
        <ele>394.5</ele>
        <time>2022-06-29T15:53:17Z</time>
      </trkpt>
      <trkpt lat="47.15367" lon="5.97118">
        <ele>394.6</ele>
        <time>2022-06-29T15:53:18Z</time>
      </trkpt>
      <trkpt lat="47.15367" lon="5.97121">
        <ele>394.7</ele>
        <time>2022-06-29T15:53:19Z</time>
      </trkpt>
      <trkpt lat="47.15367" lon="5.97126">
        <ele>394.9</ele>
        <time>2022-06-29T15:53:20Z</time>
      </trkpt>
      <trkpt lat="47.15367" lon="5.9713">
        <ele>395.1</ele>
        <time>2022-06-29T15:53:22Z</time>
      </trkpt>
      <trkpt lat="47.15368" lon="5.97135">
        <ele>395.3</ele>
        <time>2022-06-29T15:53:23Z</time>
      </trkpt>
      <trkpt lat="47.15369" lon="5.97139">
        <ele>395.5</ele>
        <time>2022-06-29T15:53:24Z</time>
      </trkpt>
      <trkpt lat="47.15369" lon="5.97147">
        <ele>395.8</ele>
        <time>2022-06-29T15:53:26Z</time>
      </trkpt>
      <trkpt lat="47.1537" lon="5.97151">
        <ele>396</ele>
        <time>2022-06-29T15:53:27Z</time>
      </trkpt>
      <trkpt lat="47.1537" lon="5.97156">
        <ele>396.2</ele>
        <time>2022-06-29T15:53:29Z</time>
      </trkpt>
      <trkpt lat="47.15371" lon="5.97161">
        <ele>396.4</ele>
        <time>2022-06-29T15:53:30Z</time>
      </trkpt>
      <trkpt lat="47.15371" lon="5.97163">
        <ele>396.5</ele>
        <time>2022-06-29T15:53:31Z</time>
      </trkpt>
      <trkpt lat="47.15371" lon="5.97165">
        <ele>396.6</ele>
        <time>2022-06-29T15:53:32Z</time>
      </trkpt>
      <trkpt lat="47.15371" lon="5.97167">
        <ele>396.6</ele>
        <time>2022-06-29T15:53:33Z</time>
      </trkpt>
      <trkpt lat="47.15371" lon="5.97171">
        <ele>396.8</ele>
        <time>2022-06-29T15:53:34Z</time>
      </trkpt>
      <trkpt lat="47.15373" lon="5.97175">
        <ele>396.9</ele>
        <time>2022-06-29T15:53:35Z</time>
      </trkpt>
      <trkpt lat="47.15372" lon="5.97181">
        <ele>397</ele>
        <time>2022-06-29T15:53:37Z</time>
      </trkpt>
      <trkpt lat="47.15372" lon="5.97183">
        <ele>397</ele>
        <time>2022-06-29T15:53:38Z</time>
      </trkpt>
      <trkpt lat="47.15373" lon="5.97187">
        <ele>397.1</ele>
        <time>2022-06-29T15:53:39Z</time>
      </trkpt>
      <trkpt lat="47.15372" lon="5.97195">
        <ele>397.1</ele>
        <time>2022-06-29T15:53:41Z</time>
      </trkpt>
      <trkpt lat="47.15372" lon="5.972">
        <ele>397.2</ele>
        <time>2022-06-29T15:53:43Z</time>
      </trkpt>
      <trkpt lat="47.15372" lon="5.97204">
        <ele>397.1</ele>
        <time>2022-06-29T15:53:44Z</time>
      </trkpt>
      <trkpt lat="47.1537" lon="5.9721">
        <ele>396.9</ele>
        <time>2022-06-29T15:53:45Z</time>
      </trkpt>
      <trkpt lat="47.15369" lon="5.97212">
        <ele>396.9</ele>
        <time>2022-06-29T15:53:46Z</time>
      </trkpt>
      <trkpt lat="47.15366" lon="5.97215">
        <ele>396.7</ele>
        <time>2022-06-29T15:53:47Z</time>
      </trkpt>
      <trkpt lat="47.15365" lon="5.97221">
        <ele>396.6</ele>
        <time>2022-06-29T15:53:49Z</time>
      </trkpt>
      <trkpt lat="47.15363" lon="5.97226">
        <ele>396.4</ele>
        <time>2022-06-29T15:53:50Z</time>
      </trkpt>
      <trkpt lat="47.15361" lon="5.97231">
        <ele>396.3</ele>
        <time>2022-06-29T15:53:51Z</time>
      </trkpt>
      <trkpt lat="47.15359" lon="5.97235">
        <ele>396.1</ele>
        <time>2022-06-29T15:53:52Z</time>
      </trkpt>
      <trkpt lat="47.15357" lon="5.97239">
        <ele>396</ele>
        <time>2022-06-29T15:53:53Z</time>
      </trkpt>
      <trkpt lat="47.15355" lon="5.97244">
        <ele>395.9</ele>
        <time>2022-06-29T15:53:54Z</time>
      </trkpt>
      <trkpt lat="47.15353" lon="5.9725">
        <ele>395.8</ele>
        <time>2022-06-29T15:53:55Z</time>
      </trkpt>
      <trkpt lat="47.15349" lon="5.97256">
        <ele>395.8</ele>
        <time>2022-06-29T15:53:56Z</time>
      </trkpt>
      <trkpt lat="47.15343" lon="5.97264">
        <ele>395.8</ele>
        <time>2022-06-29T15:53:58Z</time>
      </trkpt>
      <trkpt lat="47.15336" lon="5.97267">
        <ele>396</ele>
        <time>2022-06-29T15:54:00Z</time>
      </trkpt>
      <trkpt lat="47.15329" lon="5.97266">
        <ele>396.3</ele>
        <time>2022-06-29T15:54:01Z</time>
      </trkpt>
      <trkpt lat="47.15326" lon="5.97266">
        <ele>396.4</ele>
        <time>2022-06-29T15:54:02Z</time>
      </trkpt>
      <trkpt lat="47.15323" lon="5.97268">
        <ele>396.6</ele>
        <time>2022-06-29T15:54:03Z</time>
      </trkpt>
      <trkpt lat="47.15322" lon="5.97269">
        <ele>396.6</ele>
        <time>2022-06-29T15:54:04Z</time>
      </trkpt>
      <trkpt lat="47.1532" lon="5.97272">
        <ele>396.8</ele>
        <time>2022-06-29T15:54:05Z</time>
      </trkpt>
      <trkpt lat="47.15319" lon="5.97273">
        <ele>396.8</ele>
        <time>2022-06-29T15:54:06Z</time>
      </trkpt>
      <trkpt lat="47.15317" lon="5.97274">
        <ele>396.9</ele>
        <time>2022-06-29T15:54:07Z</time>
      </trkpt>
      <trkpt lat="47.15313" lon="5.97275">
        <ele>397</ele>
        <time>2022-06-29T15:54:09Z</time>
      </trkpt>
      <trkpt lat="47.15309" lon="5.97276">
        <ele>397.2</ele>
        <time>2022-06-29T15:54:11Z</time>
      </trkpt>
      <trkpt lat="47.15307" lon="5.97276">
        <ele>397.3</ele>
        <time>2022-06-29T15:54:12Z</time>
      </trkpt>
      <trkpt lat="47.15306" lon="5.97276">
        <ele>397.3</ele>
        <time>2022-06-29T15:54:13Z</time>
      </trkpt>
      <trkpt lat="47.15304" lon="5.97276">
        <ele>397.3</ele>
        <time>2022-06-29T15:54:14Z</time>
      </trkpt>
      <trkpt lat="47.15302" lon="5.97276">
        <ele>397.4</ele>
        <time>2022-06-29T15:54:15Z</time>
      </trkpt>
      <trkpt lat="47.153" lon="5.97275">
        <ele>397.4</ele>
        <time>2022-06-29T15:54:16Z</time>
      </trkpt>
      <trkpt lat="47.15297" lon="5.97274">
        <ele>397.5</ele>
        <time>2022-06-29T15:54:18Z</time>
      </trkpt>
      <trkpt lat="47.15294" lon="5.97273">
        <ele>397.6</ele>
        <time>2022-06-29T15:54:19Z</time>
      </trkpt>
      <trkpt lat="47.1529" lon="5.97272">
        <ele>397.7</ele>
        <time>2022-06-29T15:54:20Z</time>
      </trkpt>
      <trkpt lat="47.15287" lon="5.97272">
        <ele>397.8</ele>
        <time>2022-06-29T15:54:21Z</time>
      </trkpt>
      <trkpt lat="47.15283" lon="5.97272">
        <ele>397.9</ele>
        <time>2022-06-29T15:54:23Z</time>
      </trkpt>
      <trkpt lat="47.1528" lon="5.97273">
        <ele>398</ele>
        <time>2022-06-29T15:54:25Z</time>
      </trkpt>
      <trkpt lat="47.15277" lon="5.97274">
        <ele>398.1</ele>
        <time>2022-06-29T15:54:26Z</time>
      </trkpt>
      <trkpt lat="47.15272" lon="5.97274">
        <ele>398.3</ele>
        <time>2022-06-29T15:54:28Z</time>
      </trkpt>
      <trkpt lat="47.15269" lon="5.97274">
        <ele>398.4</ele>
        <time>2022-06-29T15:54:29Z</time>
      </trkpt>
      <trkpt lat="47.15267" lon="5.97273">
        <ele>398.5</ele>
        <time>2022-06-29T15:54:30Z</time>
      </trkpt>
      <trkpt lat="47.15264" lon="5.97273">
        <ele>398.6</ele>
        <time>2022-06-29T15:54:31Z</time>
      </trkpt>
      <trkpt lat="47.15261" lon="5.97273">
        <ele>398.8</ele>
        <time>2022-06-29T15:54:32Z</time>
      </trkpt>
      <trkpt lat="47.15257" lon="5.97272">
        <ele>398.9</ele>
        <time>2022-06-29T15:54:33Z</time>
      </trkpt>
      <trkpt lat="47.15255" lon="5.97272">
        <ele>398.9</ele>
        <time>2022-06-29T15:54:34Z</time>
      </trkpt>
      <trkpt lat="47.15252" lon="5.97272">
        <ele>399</ele>
        <time>2022-06-29T15:54:35Z</time>
      </trkpt>
      <trkpt lat="47.15249" lon="5.97272">
        <ele>399.1</ele>
        <time>2022-06-29T15:54:36Z</time>
      </trkpt>
      <trkpt lat="47.15245" lon="5.97272">
        <ele>399.2</ele>
        <time>2022-06-29T15:54:37Z</time>
      </trkpt>
      <trkpt lat="47.15242" lon="5.97272">
        <ele>399.2</ele>
        <time>2022-06-29T15:54:38Z</time>
      </trkpt>
      <trkpt lat="47.15238" lon="5.97272">
        <ele>399.2</ele>
        <time>2022-06-29T15:54:39Z</time>
      </trkpt>
      <trkpt lat="47.15233" lon="5.9727">
        <ele>399.3</ele>
        <time>2022-06-29T15:54:40Z</time>
      </trkpt>
      <trkpt lat="47.15228" lon="5.97271">
        <ele>399.3</ele>
        <time>2022-06-29T15:54:42Z</time>
      </trkpt>
      <trkpt lat="47.15223" lon="5.97274">
        <ele>399.3</ele>
        <time>2022-06-29T15:54:43Z</time>
      </trkpt>
      <trkpt lat="47.15221" lon="5.97276">
        <ele>399.3</ele>
        <time>2022-06-29T15:54:44Z</time>
      </trkpt>
      <trkpt lat="47.15218" lon="5.97279">
        <ele>399.4</ele>
        <time>2022-06-29T15:54:45Z</time>
      </trkpt>
      <trkpt lat="47.15217" lon="5.97281">
        <ele>399.4</ele>
        <time>2022-06-29T15:54:46Z</time>
      </trkpt>
      <trkpt lat="47.15215" lon="5.97283">
        <ele>399.4</ele>
        <time>2022-06-29T15:54:47Z</time>
      </trkpt>
      <trkpt lat="47.15213" lon="5.97286">
        <ele>399.4</ele>
        <time>2022-06-29T15:54:48Z</time>
      </trkpt>
      <trkpt lat="47.15212" lon="5.97287">
        <ele>399.4</ele>
        <time>2022-06-29T15:54:49Z</time>
      </trkpt>
      <trkpt lat="47.15209" lon="5.97288">
        <ele>399.5</ele>
        <time>2022-06-29T15:54:50Z</time>
      </trkpt>
      <trkpt lat="47.15208" lon="5.97289">
        <ele>399.5</ele>
        <time>2022-06-29T15:54:51Z</time>
      </trkpt>
      <trkpt lat="47.15205" lon="5.97292">
        <ele>399.5</ele>
        <time>2022-06-29T15:54:52Z</time>
      </trkpt>
      <trkpt lat="47.15201" lon="5.97296">
        <ele>399.6</ele>
        <time>2022-06-29T15:54:53Z</time>
      </trkpt>
      <trkpt lat="47.15197" lon="5.97301">
        <ele>399.6</ele>
        <time>2022-06-29T15:54:55Z</time>
      </trkpt>
      <trkpt lat="47.15194" lon="5.97306">
        <ele>399.4</ele>
        <time>2022-06-29T15:54:56Z</time>
      </trkpt>
      <trkpt lat="47.15191" lon="5.9731">
        <ele>399.3</ele>
        <time>2022-06-29T15:54:57Z</time>
      </trkpt>
      <trkpt lat="47.15187" lon="5.97313">
        <ele>399</ele>
        <time>2022-06-29T15:54:59Z</time>
      </trkpt>
      <trkpt lat="47.15182" lon="5.97319">
        <ele>398.6</ele>
        <time>2022-06-29T15:55:00Z</time>
      </trkpt>
      <trkpt lat="47.15173" lon="5.97326">
        <ele>398</ele>
        <time>2022-06-29T15:55:01Z</time>
      </trkpt>
      <trkpt lat="47.15168" lon="5.97331">
        <ele>397.5</ele>
        <time>2022-06-29T15:55:02Z</time>
      </trkpt>
      <trkpt lat="47.15163" lon="5.97339">
        <ele>397</ele>
        <time>2022-06-29T15:55:03Z</time>
      </trkpt>
      <trkpt lat="47.15158" lon="5.97348">
        <ele>396.6</ele>
        <time>2022-06-29T15:55:04Z</time>
      </trkpt>
      <trkpt lat="47.15153" lon="5.97357">
        <ele>396.3</ele>
        <time>2022-06-29T15:55:05Z</time>
      </trkpt>
      <trkpt lat="47.15148" lon="5.97365">
        <ele>396</ele>
        <time>2022-06-29T15:55:06Z</time>
      </trkpt>
      <trkpt lat="47.15142" lon="5.97371">
        <ele>395.8</ele>
        <time>2022-06-29T15:55:07Z</time>
      </trkpt>
      <trkpt lat="47.15135" lon="5.97374">
        <ele>395.6</ele>
        <time>2022-06-29T15:55:08Z</time>
      </trkpt>
      <trkpt lat="47.15127" lon="5.97377">
        <ele>395.5</ele>
        <time>2022-06-29T15:55:09Z</time>
      </trkpt>
      <trkpt lat="47.1512" lon="5.9738">
        <ele>395.4</ele>
        <time>2022-06-29T15:55:10Z</time>
      </trkpt>
      <trkpt lat="47.15115" lon="5.97386">
        <ele>395.4</ele>
        <time>2022-06-29T15:55:11Z</time>
      </trkpt>
      <trkpt lat="47.15112" lon="5.97393">
        <ele>395.4</ele>
        <time>2022-06-29T15:55:12Z</time>
      </trkpt>
      <trkpt lat="47.1511" lon="5.97398">
        <ele>395.4</ele>
        <time>2022-06-29T15:55:13Z</time>
      </trkpt>
      <trkpt lat="47.15109" lon="5.97404">
        <ele>395.4</ele>
        <time>2022-06-29T15:55:14Z</time>
      </trkpt>
      <trkpt lat="47.15109" lon="5.9741">
        <ele>395.4</ele>
        <time>2022-06-29T15:55:15Z</time>
      </trkpt>
      <trkpt lat="47.15108" lon="5.97412">
        <ele>395.4</ele>
        <time>2022-06-29T15:55:16Z</time>
      </trkpt>
      <trkpt lat="47.15108" lon="5.97417">
        <ele>395.5</ele>
        <time>2022-06-29T15:55:17Z</time>
      </trkpt>
      <trkpt lat="47.15107" lon="5.97424">
        <ele>395.5</ele>
        <time>2022-06-29T15:55:18Z</time>
      </trkpt>
      <trkpt lat="47.15105" lon="5.97429">
        <ele>395.5</ele>
        <time>2022-06-29T15:55:19Z</time>
      </trkpt>
      <trkpt lat="47.15105" lon="5.97433">
        <ele>395.5</ele>
        <time>2022-06-29T15:55:20Z</time>
      </trkpt>
      <trkpt lat="47.15104" lon="5.97439">
        <ele>395.5</ele>
        <time>2022-06-29T15:55:21Z</time>
      </trkpt>
      <trkpt lat="47.15101" lon="5.97446">
        <ele>395.5</ele>
        <time>2022-06-29T15:55:23Z</time>
      </trkpt>
      <trkpt lat="47.15099" lon="5.97454">
        <ele>395.5</ele>
        <time>2022-06-29T15:55:24Z</time>
      </trkpt>
      <trkpt lat="47.15097" lon="5.97459">
        <ele>395.5</ele>
        <time>2022-06-29T15:55:25Z</time>
      </trkpt>
      <trkpt lat="47.15096" lon="5.97464">
        <ele>395.5</ele>
        <time>2022-06-29T15:55:26Z</time>
      </trkpt>
      <trkpt lat="47.15094" lon="5.97469">
        <ele>395.5</ele>
        <time>2022-06-29T15:55:27Z</time>
      </trkpt>
      <trkpt lat="47.15093" lon="5.97475">
        <ele>395.5</ele>
        <time>2022-06-29T15:55:28Z</time>
      </trkpt>
      <trkpt lat="47.15087" lon="5.97482">
        <ele>395.5</ele>
        <time>2022-06-29T15:55:30Z</time>
      </trkpt>
      <trkpt lat="47.15084" lon="5.97486">
        <ele>395.4</ele>
        <time>2022-06-29T15:55:31Z</time>
      </trkpt>
      <trkpt lat="47.15079" lon="5.9749">
        <ele>395.4</ele>
        <time>2022-06-29T15:55:32Z</time>
      </trkpt>
      <trkpt lat="47.15075" lon="5.97492">
        <ele>395.4</ele>
        <time>2022-06-29T15:55:33Z</time>
      </trkpt>
      <trkpt lat="47.15071" lon="5.97494">
        <ele>395.3</ele>
        <time>2022-06-29T15:55:34Z</time>
      </trkpt>
      <trkpt lat="47.15067" lon="5.97497">
        <ele>395.3</ele>
        <time>2022-06-29T15:55:35Z</time>
      </trkpt>
      <trkpt lat="47.15062" lon="5.97504">
        <ele>395.3</ele>
        <time>2022-06-29T15:55:36Z</time>
      </trkpt>
      <trkpt lat="47.15058" lon="5.97507">
        <ele>395.3</ele>
        <time>2022-06-29T15:55:37Z</time>
      </trkpt>
      <trkpt lat="47.15056" lon="5.9751">
        <ele>395.3</ele>
        <time>2022-06-29T15:55:38Z</time>
      </trkpt>
      <trkpt lat="47.15053" lon="5.97514">
        <ele>395.3</ele>
        <time>2022-06-29T15:55:39Z</time>
      </trkpt>
      <trkpt lat="47.1505" lon="5.97515">
        <ele>395.3</ele>
        <time>2022-06-29T15:55:40Z</time>
      </trkpt>
      <trkpt lat="47.15044" lon="5.97517">
        <ele>395.3</ele>
        <time>2022-06-29T15:55:41Z</time>
      </trkpt>
      <trkpt lat="47.1504" lon="5.97519">
        <ele>395.3</ele>
        <time>2022-06-29T15:55:42Z</time>
      </trkpt>
      <trkpt lat="47.15036" lon="5.97521">
        <ele>395.4</ele>
        <time>2022-06-29T15:55:43Z</time>
      </trkpt>
      <trkpt lat="47.15031" lon="5.97523">
        <ele>395.5</ele>
        <time>2022-06-29T15:55:44Z</time>
      </trkpt>
      <trkpt lat="47.15027" lon="5.97525">
        <ele>395.6</ele>
        <time>2022-06-29T15:55:45Z</time>
      </trkpt>
      <trkpt lat="47.15024" lon="5.97527">
        <ele>395.7</ele>
        <time>2022-06-29T15:55:46Z</time>
      </trkpt>
      <trkpt lat="47.1502" lon="5.97528">
        <ele>395.8</ele>
        <time>2022-06-29T15:55:47Z</time>
      </trkpt>
      <trkpt lat="47.15016" lon="5.9753">
        <ele>395.9</ele>
        <time>2022-06-29T15:55:49Z</time>
      </trkpt>
      <trkpt lat="47.15012" lon="5.97531">
        <ele>396.1</ele>
        <time>2022-06-29T15:55:50Z</time>
      </trkpt>
      <trkpt lat="47.15009" lon="5.97532">
        <ele>396.2</ele>
        <time>2022-06-29T15:55:51Z</time>
      </trkpt>
      <trkpt lat="47.15006" lon="5.97534">
        <ele>396.3</ele>
        <time>2022-06-29T15:55:53Z</time>
      </trkpt>
      <trkpt lat="47.15002" lon="5.97533">
        <ele>396.5</ele>
        <time>2022-06-29T15:55:54Z</time>
      </trkpt>
      <trkpt lat="47.14998" lon="5.97532">
        <ele>396.6</ele>
        <time>2022-06-29T15:55:55Z</time>
      </trkpt>
      <trkpt lat="47.14995" lon="5.97531">
        <ele>396.8</ele>
        <time>2022-06-29T15:55:56Z</time>
      </trkpt>
      <trkpt lat="47.14991" lon="5.9753">
        <ele>397</ele>
        <time>2022-06-29T15:55:57Z</time>
      </trkpt>
      <trkpt lat="47.1499" lon="5.97529">
        <ele>397.1</ele>
        <time>2022-06-29T15:55:58Z</time>
      </trkpt>
      <trkpt lat="47.14987" lon="5.97528">
        <ele>397.2</ele>
        <time>2022-06-29T15:55:59Z</time>
      </trkpt>
      <trkpt lat="47.14984" lon="5.97528">
        <ele>397.4</ele>
        <time>2022-06-29T15:56:00Z</time>
      </trkpt>
      <trkpt lat="47.14981" lon="5.97527">
        <ele>397.5</ele>
        <time>2022-06-29T15:56:01Z</time>
      </trkpt>
      <trkpt lat="47.14978" lon="5.97526">
        <ele>397.7</ele>
        <time>2022-06-29T15:56:03Z</time>
      </trkpt>
      <trkpt lat="47.14974" lon="5.97525">
        <ele>397.9</ele>
        <time>2022-06-29T15:56:04Z</time>
      </trkpt>
      <trkpt lat="47.1497" lon="5.97524">
        <ele>398.2</ele>
        <time>2022-06-29T15:56:05Z</time>
      </trkpt>
      <trkpt lat="47.14969" lon="5.97524">
        <ele>398.3</ele>
        <time>2022-06-29T15:56:06Z</time>
      </trkpt>
      <trkpt lat="47.14966" lon="5.97523">
        <ele>398.5</ele>
        <time>2022-06-29T15:56:07Z</time>
      </trkpt>
      <trkpt lat="47.14963" lon="5.97523">
        <ele>398.7</ele>
        <time>2022-06-29T15:56:09Z</time>
      </trkpt>
      <trkpt lat="47.1496" lon="5.97522">
        <ele>398.9</ele>
        <time>2022-06-29T15:56:10Z</time>
      </trkpt>
      <trkpt lat="47.14956" lon="5.97521">
        <ele>399.1</ele>
        <time>2022-06-29T15:56:11Z</time>
      </trkpt>
      <trkpt lat="47.14953" lon="5.9752">
        <ele>399.3</ele>
        <time>2022-06-29T15:56:12Z</time>
      </trkpt>
      <trkpt lat="47.14949" lon="5.97519">
        <ele>399.6</ele>
        <time>2022-06-29T15:56:14Z</time>
      </trkpt>
      <trkpt lat="47.14945" lon="5.97517">
        <ele>399.9</ele>
        <time>2022-06-29T15:56:15Z</time>
      </trkpt>
      <trkpt lat="47.14943" lon="5.97516">
        <ele>400</ele>
        <time>2022-06-29T15:56:16Z</time>
      </trkpt>
      <trkpt lat="47.14938" lon="5.97515">
        <ele>400.3</ele>
        <time>2022-06-29T15:56:18Z</time>
      </trkpt>
      <trkpt lat="47.14935" lon="5.97513">
        <ele>400.4</ele>
        <time>2022-06-29T15:56:19Z</time>
      </trkpt>
      <trkpt lat="47.14934" lon="5.97513">
        <ele>400.5</ele>
        <time>2022-06-29T15:56:20Z</time>
      </trkpt>
      <trkpt lat="47.14929" lon="5.9751">
        <ele>400.7</ele>
        <time>2022-06-29T15:56:22Z</time>
      </trkpt>
      <trkpt lat="47.14928" lon="5.97509">
        <ele>400.8</ele>
        <time>2022-06-29T15:56:23Z</time>
      </trkpt>
      <trkpt lat="47.14926" lon="5.97508">
        <ele>400.8</ele>
        <time>2022-06-29T15:56:24Z</time>
      </trkpt>
      <trkpt lat="47.14923" lon="5.97505">
        <ele>400.9</ele>
        <time>2022-06-29T15:56:26Z</time>
      </trkpt>
      <trkpt lat="47.14921" lon="5.97504">
        <ele>401</ele>
        <time>2022-06-29T15:56:27Z</time>
      </trkpt>
      <trkpt lat="47.14917" lon="5.97503">
        <ele>401.1</ele>
        <time>2022-06-29T15:56:29Z</time>
      </trkpt>
      <trkpt lat="47.14915" lon="5.97501">
        <ele>401.2</ele>
        <time>2022-06-29T15:56:30Z</time>
      </trkpt>
      <trkpt lat="47.14912" lon="5.975">
        <ele>401.2</ele>
        <time>2022-06-29T15:56:31Z</time>
      </trkpt>
      <trkpt lat="47.14908" lon="5.97498">
        <ele>401.3</ele>
        <time>2022-06-29T15:56:32Z</time>
      </trkpt>
      <trkpt lat="47.14907" lon="5.97497">
        <ele>401.3</ele>
        <time>2022-06-29T15:56:33Z</time>
      </trkpt>
      <trkpt lat="47.14903" lon="5.97496">
        <ele>401.3</ele>
        <time>2022-06-29T15:56:35Z</time>
      </trkpt>
      <trkpt lat="47.14899" lon="5.97493">
        <ele>401.4</ele>
        <time>2022-06-29T15:56:36Z</time>
      </trkpt>
      <trkpt lat="47.14898" lon="5.97493">
        <ele>401.4</ele>
        <time>2022-06-29T15:56:37Z</time>
      </trkpt>
      <trkpt lat="47.14895" lon="5.97491">
        <ele>401.4</ele>
        <time>2022-06-29T15:56:38Z</time>
      </trkpt>
      <trkpt lat="47.14894" lon="5.97491">
        <ele>401.4</ele>
        <time>2022-06-29T15:56:39Z</time>
      </trkpt>
      <trkpt lat="47.1489" lon="5.97488">
        <ele>401.4</ele>
        <time>2022-06-29T15:56:41Z</time>
      </trkpt>
      <trkpt lat="47.14887" lon="5.97486">
        <ele>401.4</ele>
        <time>2022-06-29T15:56:42Z</time>
      </trkpt>
      <trkpt lat="47.14885" lon="5.97486">
        <ele>401.4</ele>
        <time>2022-06-29T15:56:43Z</time>
      </trkpt>
      <trkpt lat="47.14883" lon="5.97483">
        <ele>401.4</ele>
        <time>2022-06-29T15:56:44Z</time>
      </trkpt>
      <trkpt lat="47.14881" lon="5.97481">
        <ele>401.4</ele>
        <time>2022-06-29T15:56:45Z</time>
      </trkpt>
      <trkpt lat="47.14877" lon="5.97478">
        <ele>401.4</ele>
        <time>2022-06-29T15:56:47Z</time>
      </trkpt>
      <trkpt lat="47.14874" lon="5.97475">
        <ele>401.4</ele>
        <time>2022-06-29T15:56:48Z</time>
      </trkpt>
      <trkpt lat="47.14871" lon="5.97473">
        <ele>401.4</ele>
        <time>2022-06-29T15:56:49Z</time>
      </trkpt>
      <trkpt lat="47.14868" lon="5.9747">
        <ele>401.4</ele>
        <time>2022-06-29T15:56:51Z</time>
      </trkpt>
      <trkpt lat="47.14865" lon="5.97467">
        <ele>401.4</ele>
        <time>2022-06-29T15:56:52Z</time>
      </trkpt>
      <trkpt lat="47.14862" lon="5.97464">
        <ele>401.4</ele>
        <time>2022-06-29T15:56:53Z</time>
      </trkpt>
      <trkpt lat="47.14857" lon="5.97459">
        <ele>401.5</ele>
        <time>2022-06-29T15:56:55Z</time>
      </trkpt>
      <trkpt lat="47.14853" lon="5.97455">
        <ele>401.5</ele>
        <time>2022-06-29T15:56:56Z</time>
      </trkpt>
      <trkpt lat="47.14849" lon="5.97453">
        <ele>401.5</ele>
        <time>2022-06-29T15:56:58Z</time>
      </trkpt>
      <trkpt lat="47.14846" lon="5.9745">
        <ele>401.4</ele>
        <time>2022-06-29T15:56:59Z</time>
      </trkpt>
      <trkpt lat="47.14843" lon="5.97448">
        <ele>401.4</ele>
        <time>2022-06-29T15:57:00Z</time>
      </trkpt>
      <trkpt lat="47.14841" lon="5.97445">
        <ele>401.4</ele>
        <time>2022-06-29T15:57:01Z</time>
      </trkpt>
      <trkpt lat="47.1484" lon="5.97444">
        <ele>401.4</ele>
        <time>2022-06-29T15:57:02Z</time>
      </trkpt>
      <trkpt lat="47.14838" lon="5.97441">
        <ele>401.4</ele>
        <time>2022-06-29T15:57:03Z</time>
      </trkpt>
      <trkpt lat="47.14835" lon="5.97439">
        <ele>401.4</ele>
        <time>2022-06-29T15:57:05Z</time>
      </trkpt>
      <trkpt lat="47.14832" lon="5.97436">
        <ele>401.3</ele>
        <time>2022-06-29T15:57:06Z</time>
      </trkpt>
      <trkpt lat="47.14831" lon="5.97434">
        <ele>401.3</ele>
        <time>2022-06-29T15:57:07Z</time>
      </trkpt>
      <trkpt lat="47.14827" lon="5.97432">
        <ele>401.2</ele>
        <time>2022-06-29T15:57:08Z</time>
      </trkpt>
      <trkpt lat="47.14826" lon="5.97431">
        <ele>401.2</ele>
        <time>2022-06-29T15:57:09Z</time>
      </trkpt>
      <trkpt lat="47.14822" lon="5.97428">
        <ele>401.1</ele>
        <time>2022-06-29T15:57:11Z</time>
      </trkpt>
      <trkpt lat="47.14821" lon="5.97427">
        <ele>401.1</ele>
        <time>2022-06-29T15:57:12Z</time>
      </trkpt>
      <trkpt lat="47.1482" lon="5.97426">
        <ele>401</ele>
        <time>2022-06-29T15:57:13Z</time>
      </trkpt>
      <trkpt lat="47.14818" lon="5.97424">
        <ele>401</ele>
        <time>2022-06-29T15:57:14Z</time>
      </trkpt>
      <trkpt lat="47.14817" lon="5.97424">
        <ele>400.9</ele>
        <time>2022-06-29T15:57:15Z</time>
      </trkpt>
      <trkpt lat="47.14814" lon="5.97423">
        <ele>400.8</ele>
        <time>2022-06-29T15:57:16Z</time>
      </trkpt>
      <trkpt lat="47.14813" lon="5.97423">
        <ele>400.8</ele>
        <time>2022-06-29T15:57:17Z</time>
      </trkpt>
      <trkpt lat="47.14811" lon="5.97421">
        <ele>400.8</ele>
        <time>2022-06-29T15:57:18Z</time>
      </trkpt>
      <trkpt lat="47.1481" lon="5.9742">
        <ele>400.7</ele>
        <time>2022-06-29T15:57:19Z</time>
      </trkpt>
      <trkpt lat="47.14812" lon="5.9742">
        <ele>400.7</ele>
        <time>2022-06-29T15:57:20Z</time>
      </trkpt>
      <trkpt lat="47.14812" lon="5.9742">
        <ele>400.7</ele>
        <time>2022-06-29T15:57:21Z</time>
      </trkpt>
      <trkpt lat="47.14812" lon="5.97421">
        <ele>400.7</ele>
        <time>2022-06-29T15:57:22Z</time>
      </trkpt>
      <trkpt lat="47.14812" lon="5.97421">
        <ele>400.7</ele>
        <time>2022-06-29T15:57:23Z</time>
      </trkpt>
      <trkpt lat="47.14812" lon="5.97421">
        <ele>400.7</ele>
        <time>2022-06-29T15:57:24Z</time>
      </trkpt>
      <trkpt lat="47.14812" lon="5.97421">
        <ele>400.7</ele>
        <time>2022-06-29T15:57:25Z</time>
      </trkpt>
      <trkpt lat="47.14812" lon="5.97421">
        <ele>400.7</ele>
        <time>2022-06-29T15:57:26Z</time>
      </trkpt>
      <trkpt lat="47.14812" lon="5.9742">
        <ele>400.7</ele>
        <time>2022-06-29T15:57:27Z</time>
      </trkpt>
      <trkpt lat="47.14812" lon="5.9742">
        <ele>400.7</ele>
        <time>2022-06-29T15:57:28Z</time>
      </trkpt>
      <trkpt lat="47.14813" lon="5.9742">
        <ele>400.6</ele>
        <time>2022-06-29T15:57:29Z</time>
      </trkpt>
      <trkpt lat="47.14813" lon="5.97419">
        <ele>400.6</ele>
        <time>2022-06-29T15:57:30Z</time>
      </trkpt>
      <trkpt lat="47.14813" lon="5.97419">
        <ele>400.6</ele>
        <time>2022-06-29T15:57:31Z</time>
      </trkpt>
      <trkpt lat="47.14813" lon="5.97418">
        <ele>400.6</ele>
        <time>2022-06-29T15:57:32Z</time>
      </trkpt>
      <trkpt lat="47.14813" lon="5.97418">
        <ele>400.6</ele>
        <time>2022-06-29T15:57:33Z</time>
      </trkpt>
      <trkpt lat="47.14813" lon="5.97417">
        <ele>400.6</ele>
        <time>2022-06-29T15:57:34Z</time>
      </trkpt>
      <trkpt lat="47.14813" lon="5.97417">
        <ele>400.6</ele>
        <time>2022-06-29T15:57:35Z</time>
      </trkpt>
      <trkpt lat="47.14813" lon="5.97417">
        <ele>400.6</ele>
        <time>2022-06-29T15:57:36Z</time>
      </trkpt>
      <trkpt lat="47.14813" lon="5.97416">
        <ele>400.6</ele>
        <time>2022-06-29T15:57:37Z</time>
      </trkpt>
      <trkpt lat="47.14813" lon="5.97416">
        <ele>400.6</ele>
        <time>2022-06-29T15:57:38Z</time>
      </trkpt>
      <trkpt lat="47.14813" lon="5.97416">
        <ele>400.6</ele>
        <time>2022-06-29T15:57:39Z</time>
      </trkpt>
      <trkpt lat="47.14813" lon="5.97416">
        <ele>400.6</ele>
        <time>2022-06-29T15:57:40Z</time>
      </trkpt>
      <trkpt lat="47.14813" lon="5.97416">
        <ele>400.5</ele>
        <time>2022-06-29T15:57:41Z</time>
      </trkpt>
    </trkseg>
  </trk>
</gpx>